<?xml version="1.0" encoding="UTF-8"?>
<gpx version="1.1" creator="2bulu-scraper" xmlns="http://www.topografix.com/GPX/1/1">
  <metadata><name>李桥五条沟环线</name><desc>source: 2bulu.com trackId=86731361; exported 2026-09-01T15:00:33.655Z</desc>
    <bounds minlat="29.001862" minlon="104.770086" maxlat="29.019574" maxlon="104.784171"/>
    <link href="https://www.2bulu.com/track/t-TC6LA089sCnp%252FR2KBg5Tzw%253D%253D.htm"><text>2bulu 源页面</text></link>
  </metadata>
  <wpt lat="29.007487" lon="104.776977"><ele>354</ele><name></name></wpt>
  <wpt lat="29.007301" lon="104.776866"><ele>350</ele><name></name></wpt>
  <wpt lat="29.006761" lon="104.775383"><ele>326</ele><name></name></wpt>
  <wpt lat="29.007419" lon="104.774783"><ele>341</ele><name></name></wpt>
  <wpt lat="29.009163" lon="104.77401"><ele>345</ele><name></name></wpt>
  <wpt lat="29.010532" lon="104.77383"><ele>348</ele><name></name></wpt>
  <wpt lat="29.010991" lon="104.774193"><ele>342</ele><name></name></wpt>
  <wpt lat="29.011379" lon="104.774225"><ele>339</ele><name></name></wpt>
  <wpt lat="29.01185" lon="104.773924"><ele>339</ele><name></name></wpt>
  <wpt lat="29.012379" lon="104.773583"><ele>327</ele><name></name></wpt>
  <wpt lat="29.012454" lon="104.7736"><ele>326</ele><name></name></wpt>
  <wpt lat="29.013009" lon="104.774766"><ele>330</ele><name></name></wpt>
  <wpt lat="29.013133" lon="104.775427"><ele>335</ele><name></name></wpt>
  <wpt lat="29.013224" lon="104.776811"><ele>341</ele><name></name></wpt>
  <wpt lat="29.016934" lon="104.780698"><ele>349</ele><name></name></wpt>
  <wpt lat="29.01852" lon="104.7764"><ele>353</ele><name></name></wpt>
  <wpt lat="29.012424" lon="104.77261"><ele>329</ele><name></name></wpt>
  <wpt lat="29.010867" lon="104.772255"><ele>320</ele><name></name></wpt>
  <wpt lat="29.009369" lon="104.77287"><ele>318</ele><name></name></wpt>
  <wpt lat="29.008035" lon="104.77128"><ele>310</ele><name></name></wpt>
  <wpt lat="29.003993" lon="104.778408"><ele>349</ele><name></name></wpt>
  <wpt lat="29.003035" lon="104.778751"><ele>328</ele><name></name></wpt>
  <wpt lat="29.004611" lon="104.782453"><ele>375</ele><name></name></wpt>
  <wpt lat="29.004564" lon="104.782433"><ele>379</ele><name></name></wpt>
  <wpt lat="29.004331" lon="104.783783"><ele>395</ele><name></name></wpt>
  <wpt lat="29.004283" lon="104.78403"><ele>400</ele><name></name></wpt>
  <wpt lat="29.00417" lon="104.784001"><ele>406</ele><name></name></wpt>
  <trk><name>李桥五条沟环线</name>
      <trkseg>
        <trkpt lat="29.007709" lon="104.784076"><ele>400.059</ele><time>2026-07-03T16:22:28.000Z</time></trkpt>
        <trkpt lat="29.007698" lon="104.784037"><ele>400.8801</ele><time>2026-07-03T16:22:36.000Z</time></trkpt>
        <trkpt lat="29.007688" lon="104.784012"><ele>400.8801</ele><time>2026-07-03T16:22:38.000Z</time></trkpt>
        <trkpt lat="29.007678" lon="104.783985"><ele>401.21576</ele><time>2026-07-03T16:22:40.000Z</time></trkpt>
        <trkpt lat="29.00767" lon="104.783963"><ele>401.55145</ele><time>2026-07-03T16:22:42.000Z</time></trkpt>
        <trkpt lat="29.007663" lon="104.783943"><ele>402.19754</ele><time>2026-07-03T16:22:44.000Z</time></trkpt>
        <trkpt lat="29.007657" lon="104.783923"><ele>402.66293</ele><time>2026-07-03T16:22:46.000Z</time></trkpt>
        <trkpt lat="29.00765" lon="104.7839"><ele>402.9992</ele><time>2026-07-03T16:22:48.000Z</time></trkpt>
        <trkpt lat="29.007642" lon="104.783873"><ele>403.41293</ele><time>2026-07-03T16:22:50.000Z</time></trkpt>
        <trkpt lat="29.007636" lon="104.783848"><ele>403.84824</ele><time>2026-07-03T16:22:52.000Z</time></trkpt>
        <trkpt lat="29.007632" lon="104.783821"><ele>404.22678</ele><time>2026-07-03T16:22:54.000Z</time></trkpt>
        <trkpt lat="29.00763" lon="104.783794"><ele>404.33902</ele><time>2026-07-03T16:22:56.000Z</time></trkpt>
        <trkpt lat="29.007628" lon="104.783769"><ele>404.95724</ele><time>2026-07-03T16:22:58.000Z</time></trkpt>
        <trkpt lat="29.007626" lon="104.783747"><ele>405.28662</ele><time>2026-07-03T16:23:00.000Z</time></trkpt>
        <trkpt lat="29.007626" lon="104.783725"><ele>405.65018</ele><time>2026-07-03T16:23:02.000Z</time></trkpt>
        <trkpt lat="29.007627" lon="104.783699"><ele>405.89233</ele><time>2026-07-03T16:23:04.000Z</time></trkpt>
        <trkpt lat="29.007632" lon="104.783671"><ele>406.10666</ele><time>2026-07-03T16:23:06.000Z</time></trkpt>
        <trkpt lat="29.00764" lon="104.783644"><ele>406.59293</ele><time>2026-07-03T16:23:08.000Z</time></trkpt>
        <trkpt lat="29.007649" lon="104.783617"><ele>407.10764</ele><time>2026-07-03T16:23:10.000Z</time></trkpt>
        <trkpt lat="29.00766" lon="104.78359"><ele>407.42926</ele><time>2026-07-03T16:23:12.000Z</time></trkpt>
        <trkpt lat="29.007671" lon="104.783564"><ele>407.54263</ele><time>2026-07-03T16:23:14.000Z</time></trkpt>
        <trkpt lat="29.007683" lon="104.783539"><ele>407.54263</ele><time>2026-07-03T16:23:16.000Z</time></trkpt>
        <trkpt lat="29.007693" lon="104.783516"><ele>407.54263</ele><time>2026-07-03T16:23:18.000Z</time></trkpt>
        <trkpt lat="29.007703" lon="104.783494"><ele>407.3804</ele><time>2026-07-03T16:23:20.000Z</time></trkpt>
        <trkpt lat="29.007712" lon="104.783472"><ele>407.2028</ele><time>2026-07-03T16:23:22.000Z</time></trkpt>
        <trkpt lat="29.007721" lon="104.783449"><ele>406.92993</ele><time>2026-07-03T16:23:24.000Z</time></trkpt>
        <trkpt lat="29.00773" lon="104.783425"><ele>406.73315</ele><time>2026-07-03T16:23:26.000Z</time></trkpt>
        <trkpt lat="29.007737" lon="104.783404"><ele>406.57648</ele><time>2026-07-03T16:23:28.000Z</time></trkpt>
        <trkpt lat="29.007744" lon="104.783381"><ele>406.417</ele><time>2026-07-03T16:23:30.000Z</time></trkpt>
        <trkpt lat="29.007752" lon="104.783358"><ele>406.10507</ele><time>2026-07-03T16:23:32.000Z</time></trkpt>
        <trkpt lat="29.00776" lon="104.783336"><ele>405.74954</ele><time>2026-07-03T16:23:34.000Z</time></trkpt>
        <trkpt lat="29.007768" lon="104.783315"><ele>405.36804</ele><time>2026-07-03T16:23:36.000Z</time></trkpt>
        <trkpt lat="29.007775" lon="104.783293"><ele>404.96613</ele><time>2026-07-03T16:23:38.000Z</time></trkpt>
        <trkpt lat="29.00778" lon="104.783271"><ele>404.56113</ele><time>2026-07-03T16:23:40.000Z</time></trkpt>
        <trkpt lat="29.007786" lon="104.783247"><ele>404.2215</ele><time>2026-07-03T16:23:42.000Z</time></trkpt>
        <trkpt lat="29.007791" lon="104.783221"><ele>403.8311</ele><time>2026-07-03T16:23:44.000Z</time></trkpt>
        <trkpt lat="29.007795" lon="104.783194"><ele>403.49472</ele><time>2026-07-03T16:23:46.000Z</time></trkpt>
        <trkpt lat="29.007798" lon="104.783166"><ele>403.16617</ele><time>2026-07-03T16:23:48.000Z</time></trkpt>
        <trkpt lat="29.007801" lon="104.783139"><ele>402.8469</ele><time>2026-07-03T16:23:50.000Z</time></trkpt>
        <trkpt lat="29.007802" lon="104.783112"><ele>402.59692</ele><time>2026-07-03T16:23:52.000Z</time></trkpt>
        <trkpt lat="29.007804" lon="104.783088"><ele>402.36148</ele><time>2026-07-03T16:23:54.000Z</time></trkpt>
        <trkpt lat="29.007805" lon="104.783061"><ele>402.19202</ele><time>2026-07-03T16:23:56.000Z</time></trkpt>
        <trkpt lat="29.007807" lon="104.783031"><ele>402.05548</ele><time>2026-07-03T16:23:58.000Z</time></trkpt>
        <trkpt lat="29.007811" lon="104.783"><ele>401.76736</ele><time>2026-07-03T16:24:00.000Z</time></trkpt>
        <trkpt lat="29.007817" lon="104.782969"><ele>401.59445</ele><time>2026-07-03T16:24:02.000Z</time></trkpt>
        <trkpt lat="29.007825" lon="104.782937"><ele>401.48224</ele><time>2026-07-03T16:24:04.000Z</time></trkpt>
        <trkpt lat="29.007835" lon="104.782906"><ele>401.34152</ele><time>2026-07-03T16:24:06.000Z</time></trkpt>
        <trkpt lat="29.007848" lon="104.782876"><ele>401.24982</ele><time>2026-07-03T16:24:08.000Z</time></trkpt>
        <trkpt lat="29.007865" lon="104.782847"><ele>401.1023</ele><time>2026-07-03T16:24:10.000Z</time></trkpt>
        <trkpt lat="29.007885" lon="104.78282"><ele>400.91507</ele><time>2026-07-03T16:24:12.000Z</time></trkpt>
        <trkpt lat="29.007907" lon="104.782796"><ele>400.73105</ele><time>2026-07-03T16:24:14.000Z</time></trkpt>
        <trkpt lat="29.007931" lon="104.782774"><ele>400.49466</ele><time>2026-07-03T16:24:16.000Z</time></trkpt>
        <trkpt lat="29.007956" lon="104.782754"><ele>400.29016</ele><time>2026-07-03T16:24:18.000Z</time></trkpt>
        <trkpt lat="29.00798" lon="104.782734"><ele>400.16098</ele><time>2026-07-03T16:24:20.000Z</time></trkpt>
        <trkpt lat="29.008002" lon="104.782713"><ele>400.16098</ele><time>2026-07-03T16:24:22.000Z</time></trkpt>
        <trkpt lat="29.008022" lon="104.782691"><ele>400.16098</ele><time>2026-07-03T16:24:24.000Z</time></trkpt>
        <trkpt lat="29.008041" lon="104.782668"><ele>400.4291</ele><time>2026-07-03T16:24:26.000Z</time></trkpt>
        <trkpt lat="29.008059" lon="104.782645"><ele>400.76132</ele><time>2026-07-03T16:24:28.000Z</time></trkpt>
        <trkpt lat="29.008072" lon="104.782624"><ele>400.97418</ele><time>2026-07-03T16:24:30.000Z</time></trkpt>
        <trkpt lat="29.008082" lon="104.782601"><ele>401.0652</ele><time>2026-07-03T16:24:32.000Z</time></trkpt>
        <trkpt lat="29.00809" lon="104.782578"><ele>401.0652</ele><time>2026-07-03T16:24:34.000Z</time></trkpt>
        <trkpt lat="29.0081" lon="104.782556"><ele>401.0652</ele><time>2026-07-03T16:24:36.000Z</time></trkpt>
        <trkpt lat="29.008111" lon="104.782534"><ele>401.03073</ele><time>2026-07-03T16:24:38.000Z</time></trkpt>
        <trkpt lat="29.008118" lon="104.78251"><ele>400.77786</ele><time>2026-07-03T16:24:40.000Z</time></trkpt>
        <trkpt lat="29.008121" lon="104.782491"><ele>400.1472</ele><time>2026-07-03T16:24:42.000Z</time></trkpt>
        <trkpt lat="29.00812" lon="104.78247"><ele>399.69873</ele><time>2026-07-03T16:24:44.000Z</time></trkpt>
        <trkpt lat="29.008118" lon="104.78245"><ele>399.529</ele><time>2026-07-03T16:24:46.000Z</time></trkpt>
        <trkpt lat="29.008113" lon="104.782427"><ele>399.3713</ele><time>2026-07-03T16:24:48.000Z</time></trkpt>
        <trkpt lat="29.008108" lon="104.782402"><ele>399.3713</ele><time>2026-07-03T16:24:50.000Z</time></trkpt>
        <trkpt lat="29.008103" lon="104.782376"><ele>399.3713</ele><time>2026-07-03T16:24:52.000Z</time></trkpt>
        <trkpt lat="29.0081" lon="104.782351"><ele>399.43872</ele><time>2026-07-03T16:24:54.000Z</time></trkpt>
        <trkpt lat="29.008097" lon="104.782322"><ele>399.43994</ele><time>2026-07-03T16:24:56.000Z</time></trkpt>
        <trkpt lat="29.008096" lon="104.782293"><ele>399.43994</ele><time>2026-07-03T16:24:58.000Z</time></trkpt>
        <trkpt lat="29.008097" lon="104.782265"><ele>399.43872</ele><time>2026-07-03T16:25:00.000Z</time></trkpt>
        <trkpt lat="29.0081" lon="104.782237"><ele>399.34564</ele><time>2026-07-03T16:25:02.000Z</time></trkpt>
        <trkpt lat="29.008105" lon="104.78221"><ele>399.12152</ele><time>2026-07-03T16:25:04.000Z</time></trkpt>
        <trkpt lat="29.008111" lon="104.782183"><ele>398.90366</ele><time>2026-07-03T16:25:06.000Z</time></trkpt>
        <trkpt lat="29.00812" lon="104.782157"><ele>398.52722</ele><time>2026-07-03T16:25:08.000Z</time></trkpt>
        <trkpt lat="29.008131" lon="104.782131"><ele>398.26938</ele><time>2026-07-03T16:25:10.000Z</time></trkpt>
        <trkpt lat="29.008142" lon="104.782104"><ele>398.0976</ele><time>2026-07-03T16:25:12.000Z</time></trkpt>
        <trkpt lat="29.008155" lon="104.78208"><ele>398.0976</ele><time>2026-07-03T16:25:14.000Z</time></trkpt>
        <trkpt lat="29.008169" lon="104.782055"><ele>398.0976</ele><time>2026-07-03T16:25:16.000Z</time></trkpt>
        <trkpt lat="29.008184" lon="104.782031"><ele>398.0158</ele><time>2026-07-03T16:25:18.000Z</time></trkpt>
        <trkpt lat="29.008198" lon="104.782009"><ele>398.0158</ele><time>2026-07-03T16:25:20.000Z</time></trkpt>
        <trkpt lat="29.008211" lon="104.78199"><ele>398.0158</ele><time>2026-07-03T16:25:22.000Z</time></trkpt>
        <trkpt lat="29.008225" lon="104.781969"><ele>397.89557</ele><time>2026-07-03T16:25:24.000Z</time></trkpt>
        <trkpt lat="29.008241" lon="104.781946"><ele>397.73166</ele><time>2026-07-03T16:25:26.000Z</time></trkpt>
        <trkpt lat="29.008257" lon="104.781922"><ele>397.58475</ele><time>2026-07-03T16:25:28.000Z</time></trkpt>
        <trkpt lat="29.008274" lon="104.781897"><ele>397.44855</ele><time>2026-07-03T16:25:30.000Z</time></trkpt>
        <trkpt lat="29.008289" lon="104.781872"><ele>397.44855</ele><time>2026-07-03T16:25:32.000Z</time></trkpt>
        <trkpt lat="29.008304" lon="104.781848"><ele>397.44855</ele><time>2026-07-03T16:25:34.000Z</time></trkpt>
        <trkpt lat="29.00832" lon="104.781824"><ele>397.44473</ele><time>2026-07-03T16:25:36.000Z</time></trkpt>
        <trkpt lat="29.008335" lon="104.781799"><ele>397.44473</ele><time>2026-07-03T16:25:38.000Z</time></trkpt>
        <trkpt lat="29.00835" lon="104.781774"><ele>397.38898</ele><time>2026-07-03T16:25:40.000Z</time></trkpt>
        <trkpt lat="29.008364" lon="104.78175"><ele>397.29117</ele><time>2026-07-03T16:25:42.000Z</time></trkpt>
        <trkpt lat="29.008377" lon="104.781727"><ele>397.26532</ele><time>2026-07-03T16:25:44.000Z</time></trkpt>
        <trkpt lat="29.008391" lon="104.781703"><ele>397.24734</ele><time>2026-07-03T16:25:46.000Z</time></trkpt>
        <trkpt lat="29.008406" lon="104.781681"><ele>397.24335</ele><time>2026-07-03T16:25:48.000Z</time></trkpt>
        <trkpt lat="29.008421" lon="104.781659"><ele>397.24335</ele><time>2026-07-03T16:25:50.000Z</time></trkpt>
        <trkpt lat="29.008437" lon="104.781638"><ele>397.24335</ele><time>2026-07-03T16:25:52.000Z</time></trkpt>
        <trkpt lat="29.008451" lon="104.781619"><ele>397.25488</ele><time>2026-07-03T16:25:54.000Z</time></trkpt>
        <trkpt lat="29.008467" lon="104.781599"><ele>397.5119</ele><time>2026-07-03T16:25:56.000Z</time></trkpt>
        <trkpt lat="29.008484" lon="104.781579"><ele>397.6016</ele><time>2026-07-03T16:25:58.000Z</time></trkpt>
        <trkpt lat="29.008501" lon="104.78156"><ele>397.64185</ele><time>2026-07-03T16:26:00.000Z</time></trkpt>
        <trkpt lat="29.008519" lon="104.78154"><ele>397.64185</ele><time>2026-07-03T16:26:02.000Z</time></trkpt>
        <trkpt lat="29.008542" lon="104.781514"><ele>397.64185</ele><time>2026-07-03T16:26:04.000Z</time></trkpt>
        <trkpt lat="29.00856" lon="104.781496"><ele>397.5801</ele><time>2026-07-03T16:26:06.000Z</time></trkpt>
        <trkpt lat="29.008576" lon="104.781478"><ele>397.5573</ele><time>2026-07-03T16:26:08.000Z</time></trkpt>
        <trkpt lat="29.00859" lon="104.781459"><ele>397.45517</ele><time>2026-07-03T16:26:10.000Z</time></trkpt>
        <trkpt lat="29.008604" lon="104.781442"><ele>397.43576</ele><time>2026-07-03T16:26:12.000Z</time></trkpt>
        <trkpt lat="29.008619" lon="104.781425"><ele>397.278</ele><time>2026-07-03T16:26:14.000Z</time></trkpt>
        <trkpt lat="29.008633" lon="104.781409"><ele>397.06006</ele><time>2026-07-03T16:26:16.000Z</time></trkpt>
        <trkpt lat="29.008647" lon="104.781393"><ele>396.84238</ele><time>2026-07-03T16:26:18.000Z</time></trkpt>
        <trkpt lat="29.008659" lon="104.781376"><ele>396.6991</ele><time>2026-07-03T16:26:20.000Z</time></trkpt>
        <trkpt lat="29.008672" lon="104.781358"><ele>396.53015</ele><time>2026-07-03T16:26:22.000Z</time></trkpt>
        <trkpt lat="29.008686" lon="104.78134"><ele>396.07474</ele><time>2026-07-03T16:26:24.000Z</time></trkpt>
        <trkpt lat="29.008703" lon="104.78132"><ele>395.62918</ele><time>2026-07-03T16:26:26.000Z</time></trkpt>
        <trkpt lat="29.008719" lon="104.781299"><ele>395.43924</ele><time>2026-07-03T16:26:28.000Z</time></trkpt>
        <trkpt lat="29.008735" lon="104.781277"><ele>395.4244</ele><time>2026-07-03T16:26:30.000Z</time></trkpt>
        <trkpt lat="29.008749" lon="104.781254"><ele>395.4244</ele><time>2026-07-03T16:26:32.000Z</time></trkpt>
        <trkpt lat="29.008762" lon="104.781229"><ele>395.4244</ele><time>2026-07-03T16:26:34.000Z</time></trkpt>
        <trkpt lat="29.008773" lon="104.781205"><ele>395.6538</ele><time>2026-07-03T16:26:36.000Z</time></trkpt>
        <trkpt lat="29.008785" lon="104.781178"><ele>395.6538</ele><time>2026-07-03T16:26:38.000Z</time></trkpt>
        <trkpt lat="29.008797" lon="104.781151"><ele>395.70242</ele><time>2026-07-03T16:26:40.000Z</time></trkpt>
        <trkpt lat="29.008808" lon="104.781127"><ele>395.77582</ele><time>2026-07-03T16:26:42.000Z</time></trkpt>
        <trkpt lat="29.008819" lon="104.781102"><ele>395.75378</ele><time>2026-07-03T16:26:44.000Z</time></trkpt>
        <trkpt lat="29.008828" lon="104.781077"><ele>395.77582</ele><time>2026-07-03T16:26:46.000Z</time></trkpt>
        <trkpt lat="29.008837" lon="104.781053"><ele>395.82004</ele><time>2026-07-03T16:26:48.000Z</time></trkpt>
        <trkpt lat="29.008849" lon="104.781026"><ele>395.82004</ele><time>2026-07-03T16:26:50.000Z</time></trkpt>
        <trkpt lat="29.008863" lon="104.781001"><ele>395.75378</ele><time>2026-07-03T16:26:52.000Z</time></trkpt>
        <trkpt lat="29.008878" lon="104.780977"><ele>395.48056</ele><time>2026-07-03T16:26:54.000Z</time></trkpt>
        <trkpt lat="29.008895" lon="104.780956"><ele>395.02704</ele><time>2026-07-03T16:26:56.000Z</time></trkpt>
        <trkpt lat="29.008912" lon="104.780938"><ele>394.559</ele><time>2026-07-03T16:26:58.000Z</time></trkpt>
        <trkpt lat="29.008933" lon="104.780923"><ele>394.06482</ele><time>2026-07-03T16:27:00.000Z</time></trkpt>
        <trkpt lat="29.008953" lon="104.78091"><ele>393.4607</ele><time>2026-07-03T16:27:02.000Z</time></trkpt>
        <trkpt lat="29.008975" lon="104.7809"><ele>392.98172</ele><time>2026-07-03T16:27:04.000Z</time></trkpt>
        <trkpt lat="29.008996" lon="104.780895"><ele>392.63757</ele><time>2026-07-03T16:27:06.000Z</time></trkpt>
        <trkpt lat="29.009022" lon="104.780894"><ele>392.36105</ele><time>2026-07-03T16:27:08.000Z</time></trkpt>
        <trkpt lat="29.00905" lon="104.780896"><ele>392.1537</ele><time>2026-07-03T16:27:10.000Z</time></trkpt>
        <trkpt lat="29.009078" lon="104.780898"><ele>392.11627</ele><time>2026-07-03T16:27:12.000Z</time></trkpt>
        <trkpt lat="29.009105" lon="104.780899"><ele>392.0677</ele><time>2026-07-03T16:27:14.000Z</time></trkpt>
        <trkpt lat="29.009131" lon="104.780896"><ele>391.67673</ele><time>2026-07-03T16:27:16.000Z</time></trkpt>
        <trkpt lat="29.009151" lon="104.780887"><ele>391.2981</ele><time>2026-07-03T16:27:18.000Z</time></trkpt>
        <trkpt lat="29.009174" lon="104.780874"><ele>391.06558</ele><time>2026-07-03T16:27:20.000Z</time></trkpt>
        <trkpt lat="29.009195" lon="104.780857"><ele>390.33688</ele><time>2026-07-03T16:27:22.000Z</time></trkpt>
        <trkpt lat="29.009212" lon="104.780838"><ele>389.95178</ele><time>2026-07-03T16:27:24.000Z</time></trkpt>
        <trkpt lat="29.009229" lon="104.780816"><ele>389.30396</ele><time>2026-07-03T16:27:26.000Z</time></trkpt>
        <trkpt lat="29.009245" lon="104.780792"><ele>389.14554</ele><time>2026-07-03T16:27:28.000Z</time></trkpt>
        <trkpt lat="29.009261" lon="104.780766"><ele>389.14554</ele><time>2026-07-03T16:27:30.000Z</time></trkpt>
        <trkpt lat="29.009274" lon="104.780738"><ele>389.14554</ele><time>2026-07-03T16:27:32.000Z</time></trkpt>
        <trkpt lat="29.009287" lon="104.780707"><ele>389.7654</ele><time>2026-07-03T16:27:34.000Z</time></trkpt>
        <trkpt lat="29.009298" lon="104.780676"><ele>390.22668</ele><time>2026-07-03T16:27:36.000Z</time></trkpt>
        <trkpt lat="29.009307" lon="104.780645"><ele>391.2031</ele><time>2026-07-03T16:27:38.000Z</time></trkpt>
        <trkpt lat="29.009313" lon="104.780614"><ele>391.66275</ele><time>2026-07-03T16:27:40.000Z</time></trkpt>
        <trkpt lat="29.009316" lon="104.780586"><ele>392.1323</ele><time>2026-07-03T16:27:42.000Z</time></trkpt>
        <trkpt lat="29.009317" lon="104.780558"><ele>393.01138</ele><time>2026-07-03T16:27:44.000Z</time></trkpt>
        <trkpt lat="29.009314" lon="104.780534"><ele>393.34085</ele><time>2026-07-03T16:27:46.000Z</time></trkpt>
        <trkpt lat="29.009308" lon="104.780512"><ele>393.51483</ele><time>2026-07-03T16:27:48.000Z</time></trkpt>
        <trkpt lat="29.009298" lon="104.780491"><ele>393.51532</ele><time>2026-07-03T16:27:50.000Z</time></trkpt>
        <trkpt lat="29.009285" lon="104.780469"><ele>393.5519</ele><time>2026-07-03T16:27:52.000Z</time></trkpt>
        <trkpt lat="29.009268" lon="104.780445"><ele>393.65405</ele><time>2026-07-03T16:27:54.000Z</time></trkpt>
        <trkpt lat="29.009253" lon="104.780423"><ele>393.94495</ele><time>2026-07-03T16:27:56.000Z</time></trkpt>
        <trkpt lat="29.009238" lon="104.780402"><ele>394.48993</ele><time>2026-07-03T16:27:58.000Z</time></trkpt>
        <trkpt lat="29.009224" lon="104.780382"><ele>394.68976</ele><time>2026-07-03T16:28:00.000Z</time></trkpt>
        <trkpt lat="29.00921" lon="104.780362"><ele>394.7711</ele><time>2026-07-03T16:28:02.000Z</time></trkpt>
        <trkpt lat="29.009198" lon="104.780345"><ele>394.83014</ele><time>2026-07-03T16:28:04.000Z</time></trkpt>
        <trkpt lat="29.009186" lon="104.780327"><ele>394.88507</ele><time>2026-07-03T16:28:06.000Z</time></trkpt>
        <trkpt lat="29.009174" lon="104.780307"><ele>394.94272</ele><time>2026-07-03T16:28:08.000Z</time></trkpt>
        <trkpt lat="29.009163" lon="104.780285"><ele>394.98495</ele><time>2026-07-03T16:28:10.000Z</time></trkpt>
        <trkpt lat="29.009154" lon="104.780263"><ele>395.0621</ele><time>2026-07-03T16:28:12.000Z</time></trkpt>
        <trkpt lat="29.009147" lon="104.780241"><ele>395.09906</ele><time>2026-07-03T16:28:14.000Z</time></trkpt>
        <trkpt lat="29.009141" lon="104.780222"><ele>395.21332</ele><time>2026-07-03T16:28:16.000Z</time></trkpt>
        <trkpt lat="29.00914" lon="104.780205"><ele>395.30386</ele><time>2026-07-03T16:28:18.000Z</time></trkpt>
        <trkpt lat="29.00914" lon="104.780185"><ele>395.604</ele><time>2026-07-03T16:28:20.000Z</time></trkpt>
        <trkpt lat="29.009142" lon="104.780162"><ele>395.79507</ele><time>2026-07-03T16:28:22.000Z</time></trkpt>
        <trkpt lat="29.009145" lon="104.780137"><ele>395.80923</ele><time>2026-07-03T16:28:24.000Z</time></trkpt>
        <trkpt lat="29.009149" lon="104.780108"><ele>395.92734</ele><time>2026-07-03T16:28:26.000Z</time></trkpt>
        <trkpt lat="29.009154" lon="104.780078"><ele>396.0826</ele><time>2026-07-03T16:28:28.000Z</time></trkpt>
        <trkpt lat="29.009161" lon="104.780049"><ele>396.21286</ele><time>2026-07-03T16:28:30.000Z</time></trkpt>
        <trkpt lat="29.009167" lon="104.780024"><ele>396.3204</ele><time>2026-07-03T16:28:32.000Z</time></trkpt>
        <trkpt lat="29.009173" lon="104.78"><ele>396.55948</ele><time>2026-07-03T16:28:34.000Z</time></trkpt>
        <trkpt lat="29.009177" lon="104.779976"><ele>396.79016</ele><time>2026-07-03T16:28:36.000Z</time></trkpt>
        <trkpt lat="29.009177" lon="104.779953"><ele>397.0207</ele><time>2026-07-03T16:28:38.000Z</time></trkpt>
        <trkpt lat="29.009174" lon="104.779927"><ele>397.23523</ele><time>2026-07-03T16:28:40.000Z</time></trkpt>
        <trkpt lat="29.009168" lon="104.779902"><ele>397.34628</ele><time>2026-07-03T16:28:42.000Z</time></trkpt>
        <trkpt lat="29.009159" lon="104.779882"><ele>397.46332</ele><time>2026-07-03T16:28:44.000Z</time></trkpt>
        <trkpt lat="29.009147" lon="104.779863"><ele>397.6813</ele><time>2026-07-03T16:28:46.000Z</time></trkpt>
        <trkpt lat="29.009133" lon="104.779843"><ele>397.76056</ele><time>2026-07-03T16:28:48.000Z</time></trkpt>
        <trkpt lat="29.009115" lon="104.779825"><ele>397.76056</ele><time>2026-07-03T16:28:50.000Z</time></trkpt>
        <trkpt lat="29.009097" lon="104.779809"><ele>397.76056</ele><time>2026-07-03T16:28:52.000Z</time></trkpt>
        <trkpt lat="29.009078" lon="104.779794"><ele>397.6822</ele><time>2026-07-03T16:28:54.000Z</time></trkpt>
        <trkpt lat="29.009059" lon="104.779782"><ele>397.49457</ele><time>2026-07-03T16:28:56.000Z</time></trkpt>
        <trkpt lat="29.009038" lon="104.779771"><ele>397.12363</ele><time>2026-07-03T16:28:58.000Z</time></trkpt>
        <trkpt lat="29.009016" lon="104.779759"><ele>396.69965</ele><time>2026-07-03T16:29:00.000Z</time></trkpt>
        <trkpt lat="29.008994" lon="104.779747"><ele>396.29834</ele><time>2026-07-03T16:29:02.000Z</time></trkpt>
        <trkpt lat="29.008971" lon="104.779736"><ele>395.8925</ele><time>2026-07-03T16:29:04.000Z</time></trkpt>
        <trkpt lat="29.008949" lon="104.779725"><ele>395.5723</ele><time>2026-07-03T16:29:06.000Z</time></trkpt>
        <trkpt lat="29.008928" lon="104.779715"><ele>395.27927</ele><time>2026-07-03T16:29:08.000Z</time></trkpt>
        <trkpt lat="29.008907" lon="104.779703"><ele>395.02115</ele><time>2026-07-03T16:29:10.000Z</time></trkpt>
        <trkpt lat="29.008884" lon="104.77969"><ele>394.71362</ele><time>2026-07-03T16:29:12.000Z</time></trkpt>
        <trkpt lat="29.008861" lon="104.779675"><ele>394.4143</ele><time>2026-07-03T16:29:14.000Z</time></trkpt>
        <trkpt lat="29.008837" lon="104.779659"><ele>394.24237</ele><time>2026-07-03T16:29:16.000Z</time></trkpt>
        <trkpt lat="29.008813" lon="104.779643"><ele>394.1271</ele><time>2026-07-03T16:29:18.000Z</time></trkpt>
        <trkpt lat="29.008791" lon="104.779626"><ele>394.0677</ele><time>2026-07-03T16:29:20.000Z</time></trkpt>
        <trkpt lat="29.00877" lon="104.77961"><ele>394.0316</ele><time>2026-07-03T16:29:22.000Z</time></trkpt>
        <trkpt lat="29.008753" lon="104.779595"><ele>393.8887</ele><time>2026-07-03T16:29:24.000Z</time></trkpt>
        <trkpt lat="29.008736" lon="104.77958"><ele>393.55783</ele><time>2026-07-03T16:29:26.000Z</time></trkpt>
        <trkpt lat="29.008721" lon="104.779566"><ele>393.12363</ele><time>2026-07-03T16:29:28.000Z</time></trkpt>
        <trkpt lat="29.008705" lon="104.779552"><ele>392.5956</ele><time>2026-07-03T16:29:30.000Z</time></trkpt>
        <trkpt lat="29.008688" lon="104.779537"><ele>392.13956</ele><time>2026-07-03T16:29:32.000Z</time></trkpt>
        <trkpt lat="29.008671" lon="104.779523"><ele>391.7229</ele><time>2026-07-03T16:29:34.000Z</time></trkpt>
        <trkpt lat="29.008654" lon="104.779508"><ele>391.3783</ele><time>2026-07-03T16:29:36.000Z</time></trkpt>
        <trkpt lat="29.008636" lon="104.779493"><ele>391.05542</ele><time>2026-07-03T16:29:38.000Z</time></trkpt>
        <trkpt lat="29.008615" lon="104.779477"><ele>390.87375</ele><time>2026-07-03T16:29:40.000Z</time></trkpt>
        <trkpt lat="29.008595" lon="104.779461"><ele>390.708</ele><time>2026-07-03T16:29:42.000Z</time></trkpt>
        <trkpt lat="29.008575" lon="104.779446"><ele>390.61795</ele><time>2026-07-03T16:29:44.000Z</time></trkpt>
        <trkpt lat="29.008555" lon="104.779432"><ele>390.60898</ele><time>2026-07-03T16:29:46.000Z</time></trkpt>
        <trkpt lat="29.008536" lon="104.779417"><ele>390.60898</ele><time>2026-07-03T16:29:48.000Z</time></trkpt>
        <trkpt lat="29.008516" lon="104.779401"><ele>390.60925</ele><time>2026-07-03T16:29:50.000Z</time></trkpt>
        <trkpt lat="29.008496" lon="104.779384"><ele>390.60925</ele><time>2026-07-03T16:29:52.000Z</time></trkpt>
        <trkpt lat="29.008476" lon="104.779366"><ele>390.70917</ele><time>2026-07-03T16:29:54.000Z</time></trkpt>
        <trkpt lat="29.008457" lon="104.779347"><ele>390.73822</ele><time>2026-07-03T16:29:56.000Z</time></trkpt>
        <trkpt lat="29.008438" lon="104.779327"><ele>390.82968</ele><time>2026-07-03T16:29:58.000Z</time></trkpt>
        <trkpt lat="29.008419" lon="104.779305"><ele>391.00894</ele><time>2026-07-03T16:30:00.000Z</time></trkpt>
        <trkpt lat="29.0084" lon="104.779281"><ele>391.15903</ele><time>2026-07-03T16:30:02.000Z</time></trkpt>
        <trkpt lat="29.008384" lon="104.779257"><ele>391.15903</ele><time>2026-07-03T16:30:04.000Z</time></trkpt>
        <trkpt lat="29.008369" lon="104.779232"><ele>391.15903</ele><time>2026-07-03T16:30:06.000Z</time></trkpt>
        <trkpt lat="29.008356" lon="104.779207"><ele>391.25092</ele><time>2026-07-03T16:30:08.000Z</time></trkpt>
        <trkpt lat="29.008345" lon="104.77918"><ele>391.25092</ele><time>2026-07-03T16:30:10.000Z</time></trkpt>
        <trkpt lat="29.008336" lon="104.779152"><ele>391.27292</ele><time>2026-07-03T16:30:12.000Z</time></trkpt>
        <trkpt lat="29.008329" lon="104.779125"><ele>391.36096</ele><time>2026-07-03T16:30:14.000Z</time></trkpt>
        <trkpt lat="29.008323" lon="104.779098"><ele>391.65436</ele><time>2026-07-03T16:30:16.000Z</time></trkpt>
        <trkpt lat="29.00832" lon="104.779072"><ele>391.69415</ele><time>2026-07-03T16:30:18.000Z</time></trkpt>
        <trkpt lat="29.008315" lon="104.779045"><ele>391.69415</ele><time>2026-07-03T16:30:20.000Z</time></trkpt>
        <trkpt lat="29.008307" lon="104.779018"><ele>391.69415</ele><time>2026-07-03T16:30:22.000Z</time></trkpt>
        <trkpt lat="29.008298" lon="104.778989"><ele>391.47528</ele><time>2026-07-03T16:30:23.000Z</time></trkpt>
        <trkpt lat="29.008288" lon="104.77896"><ele>391.23615</ele><time>2026-07-03T16:30:25.000Z</time></trkpt>
        <trkpt lat="29.008276" lon="104.778931"><ele>390.91443</ele><time>2026-07-03T16:30:27.000Z</time></trkpt>
        <trkpt lat="29.008264" lon="104.778905"><ele>390.70474</ele><time>2026-07-03T16:30:30.000Z</time></trkpt>
        <trkpt lat="29.008249" lon="104.778882"><ele>390.53958</ele><time>2026-07-03T16:30:32.000Z</time></trkpt>
        <trkpt lat="29.00823" lon="104.778859"><ele>390.14825</ele><time>2026-07-03T16:30:34.000Z</time></trkpt>
        <trkpt lat="29.00821" lon="104.77884"><ele>389.83243</ele><time>2026-07-03T16:30:36.000Z</time></trkpt>
        <trkpt lat="29.008189" lon="104.778822"><ele>389.60297</ele><time>2026-07-03T16:30:38.000Z</time></trkpt>
        <trkpt lat="29.008168" lon="104.778804"><ele>389.43747</ele><time>2026-07-03T16:30:40.000Z</time></trkpt>
        <trkpt lat="29.008148" lon="104.778788"><ele>389.03134</ele><time>2026-07-03T16:30:42.000Z</time></trkpt>
        <trkpt lat="29.008128" lon="104.778771"><ele>388.69073</ele><time>2026-07-03T16:30:44.000Z</time></trkpt>
        <trkpt lat="29.008108" lon="104.778754"><ele>388.4645</ele><time>2026-07-03T16:30:46.000Z</time></trkpt>
        <trkpt lat="29.008088" lon="104.778736"><ele>388.24966</ele><time>2026-07-03T16:30:48.000Z</time></trkpt>
        <trkpt lat="29.008071" lon="104.778718"><ele>388.00092</ele><time>2026-07-03T16:30:50.000Z</time></trkpt>
        <trkpt lat="29.008054" lon="104.778699"><ele>387.74576</ele><time>2026-07-03T16:30:52.000Z</time></trkpt>
        <trkpt lat="29.008038" lon="104.77868"><ele>387.4276</ele><time>2026-07-03T16:30:54.000Z</time></trkpt>
        <trkpt lat="29.008022" lon="104.77866"><ele>387.1672</ele><time>2026-07-03T16:30:56.000Z</time></trkpt>
        <trkpt lat="29.008005" lon="104.778638"><ele>387.00357</ele><time>2026-07-03T16:30:58.000Z</time></trkpt>
        <trkpt lat="29.007988" lon="104.778617"><ele>386.74338</ele><time>2026-07-03T16:31:00.000Z</time></trkpt>
        <trkpt lat="29.007971" lon="104.778594"><ele>386.383</ele><time>2026-07-03T16:31:02.000Z</time></trkpt>
        <trkpt lat="29.007955" lon="104.778573"><ele>385.94937</ele><time>2026-07-03T16:31:04.000Z</time></trkpt>
        <trkpt lat="29.007939" lon="104.778549"><ele>385.50067</ele><time>2026-07-03T16:31:06.000Z</time></trkpt>
        <trkpt lat="29.007924" lon="104.778526"><ele>385.03748</ele><time>2026-07-03T16:31:08.000Z</time></trkpt>
        <trkpt lat="29.00791" lon="104.778501"><ele>384.60687</ele><time>2026-07-03T16:31:10.000Z</time></trkpt>
        <trkpt lat="29.007895" lon="104.778476"><ele>384.13528</ele><time>2026-07-03T16:31:12.000Z</time></trkpt>
        <trkpt lat="29.007881" lon="104.778449"><ele>383.68314</ele><time>2026-07-03T16:31:14.000Z</time></trkpt>
        <trkpt lat="29.007867" lon="104.778422"><ele>383.21564</ele><time>2026-07-03T16:31:16.000Z</time></trkpt>
        <trkpt lat="29.007857" lon="104.778393"><ele>382.77704</ele><time>2026-07-03T16:31:18.000Z</time></trkpt>
        <trkpt lat="29.007848" lon="104.778364"><ele>382.47125</ele><time>2026-07-03T16:31:20.000Z</time></trkpt>
        <trkpt lat="29.007842" lon="104.778333"><ele>382.26953</ele><time>2026-07-03T16:31:22.000Z</time></trkpt>
        <trkpt lat="29.007839" lon="104.778303"><ele>382.1382</ele><time>2026-07-03T16:31:24.000Z</time></trkpt>
        <trkpt lat="29.007838" lon="104.778274"><ele>382.1382</ele><time>2026-07-03T16:31:26.000Z</time></trkpt>
        <trkpt lat="29.007841" lon="104.778243"><ele>382.1382</ele><time>2026-07-03T16:31:28.000Z</time></trkpt>
        <trkpt lat="29.007846" lon="104.778214"><ele>382.26413</ele><time>2026-07-03T16:31:30.000Z</time></trkpt>
        <trkpt lat="29.007855" lon="104.778187"><ele>382.38425</ele><time>2026-07-03T16:31:32.000Z</time></trkpt>
        <trkpt lat="29.007867" lon="104.778161"><ele>382.438</ele><time>2026-07-03T16:31:34.000Z</time></trkpt>
        <trkpt lat="29.007881" lon="104.778135"><ele>382.49496</ele><time>2026-07-03T16:31:36.000Z</time></trkpt>
        <trkpt lat="29.007897" lon="104.77811"><ele>382.49496</ele><time>2026-07-03T16:31:38.000Z</time></trkpt>
        <trkpt lat="29.007914" lon="104.778085"><ele>382.49496</ele><time>2026-07-03T16:31:40.000Z</time></trkpt>
        <trkpt lat="29.00793" lon="104.77806"><ele>382.34244</ele><time>2026-07-03T16:31:42.000Z</time></trkpt>
        <trkpt lat="29.007945" lon="104.778034"><ele>382.03326</ele><time>2026-07-03T16:31:44.000Z</time></trkpt>
        <trkpt lat="29.007955" lon="104.778007"><ele>381.7877</ele><time>2026-07-03T16:31:46.000Z</time></trkpt>
        <trkpt lat="29.00796" lon="104.777982"><ele>381.6003</ele><time>2026-07-03T16:31:48.000Z</time></trkpt>
        <trkpt lat="29.007961" lon="104.777957"><ele>381.38043</ele><time>2026-07-03T16:31:50.000Z</time></trkpt>
        <trkpt lat="29.007958" lon="104.777932"><ele>381.2068</ele><time>2026-07-03T16:31:52.000Z</time></trkpt>
        <trkpt lat="29.007952" lon="104.777907"><ele>380.98367</ele><time>2026-07-03T16:31:54.000Z</time></trkpt>
        <trkpt lat="29.007943" lon="104.777881"><ele>380.54605</ele><time>2026-07-03T16:31:56.000Z</time></trkpt>
        <trkpt lat="29.007933" lon="104.777855"><ele>380.14865</ele><time>2026-07-03T16:31:58.000Z</time></trkpt>
        <trkpt lat="29.007923" lon="104.77783"><ele>379.8629</ele><time>2026-07-03T16:31:59.000Z</time></trkpt>
        <trkpt lat="29.007912" lon="104.777804"><ele>379.46878</ele><time>2026-07-03T16:32:01.000Z</time></trkpt>
        <trkpt lat="29.007903" lon="104.777779"><ele>378.80292</ele><time>2026-07-03T16:32:03.000Z</time></trkpt>
        <trkpt lat="29.007894" lon="104.777755"><ele>378.16074</ele><time>2026-07-03T16:32:05.000Z</time></trkpt>
        <trkpt lat="29.007887" lon="104.777728"><ele>377.34943</ele><time>2026-07-03T16:32:07.000Z</time></trkpt>
        <trkpt lat="29.007883" lon="104.777698"><ele>376.6137</ele><time>2026-07-03T16:32:09.000Z</time></trkpt>
        <trkpt lat="29.007882" lon="104.77767"><ele>376.04422</ele><time>2026-07-03T16:32:11.000Z</time></trkpt>
        <trkpt lat="29.007884" lon="104.777638"><ele>375.4206</ele><time>2026-07-03T16:32:13.000Z</time></trkpt>
        <trkpt lat="29.007892" lon="104.777605"><ele>375.08606</ele><time>2026-07-03T16:32:15.000Z</time></trkpt>
        <trkpt lat="29.007903" lon="104.777573"><ele>374.53717</ele><time>2026-07-03T16:32:17.000Z</time></trkpt>
        <trkpt lat="29.007916" lon="104.777542"><ele>373.88016</ele><time>2026-07-03T16:32:19.000Z</time></trkpt>
        <trkpt lat="29.007931" lon="104.777511"><ele>373.01285</ele><time>2026-07-03T16:32:21.000Z</time></trkpt>
        <trkpt lat="29.007946" lon="104.777481"><ele>372.33365</ele><time>2026-07-03T16:32:23.000Z</time></trkpt>
        <trkpt lat="29.007961" lon="104.777452"><ele>371.50314</ele><time>2026-07-03T16:32:25.000Z</time></trkpt>
        <trkpt lat="29.007973" lon="104.777426"><ele>370.62564</ele><time>2026-07-03T16:32:27.000Z</time></trkpt>
        <trkpt lat="29.007983" lon="104.777398"><ele>369.87222</ele><time>2026-07-03T16:32:29.000Z</time></trkpt>
        <trkpt lat="29.007991" lon="104.777371"><ele>369.4067</ele><time>2026-07-03T16:32:31.000Z</time></trkpt>
        <trkpt lat="29.007994" lon="104.777357"><ele>369.4067</ele><time>2026-07-03T16:32:33.000Z</time></trkpt>
        <trkpt lat="29.007995" lon="104.777357"><ele>369.4067</ele><time>2026-07-03T16:32:36.000Z</time></trkpt>
        <trkpt lat="29.007965" lon="104.777348"><ele>369.48544</ele><time>2026-07-03T16:33:03.000Z</time></trkpt>
        <trkpt lat="29.007954" lon="104.77734"><ele>369.48544</ele><time>2026-07-03T16:33:05.000Z</time></trkpt>
        <trkpt lat="29.00789" lon="104.777296"><ele>369.48544</ele><time>2026-07-03T16:33:10.000Z</time></trkpt>
        <trkpt lat="29.007889" lon="104.777296"><ele>369.23798</ele><time>2026-07-03T16:33:12.000Z</time></trkpt>
        <trkpt lat="29.007879" lon="104.77729"><ele>366.9422</ele><time>2026-07-03T16:33:14.000Z</time></trkpt>
        <trkpt lat="29.007849" lon="104.77727"><ele>366.93567</ele><time>2026-07-03T16:33:16.000Z</time></trkpt>
        <trkpt lat="29.007815" lon="104.777242"><ele>366.69983</ele><time>2026-07-03T16:33:18.000Z</time></trkpt>
        <trkpt lat="29.007785" lon="104.777213"><ele>365.94238</ele><time>2026-07-03T16:33:20.000Z</time></trkpt>
        <trkpt lat="29.00776" lon="104.777184"><ele>364.55856</ele><time>2026-07-03T16:33:22.000Z</time></trkpt>
        <trkpt lat="29.007742" lon="104.777157"><ele>363.23764</ele><time>2026-07-03T16:33:24.000Z</time></trkpt>
        <trkpt lat="29.007729" lon="104.777131"><ele>361.97772</ele><time>2026-07-03T16:33:26.000Z</time></trkpt>
        <trkpt lat="29.007718" lon="104.777105"><ele>360.9075</ele><time>2026-07-03T16:33:28.000Z</time></trkpt>
        <trkpt lat="29.007706" lon="104.777078"><ele>359.9153</ele><time>2026-07-03T16:33:30.000Z</time></trkpt>
        <trkpt lat="29.007692" lon="104.777054"><ele>359.4406</ele><time>2026-07-03T16:33:32.000Z</time></trkpt>
        <trkpt lat="29.007678" lon="104.777034"><ele>359.3829</ele><time>2026-07-03T16:33:34.000Z</time></trkpt>
        <trkpt lat="29.007667" lon="104.777027"><ele>359.2187</ele><time>2026-07-03T16:33:36.000Z</time></trkpt>
        <trkpt lat="29.007662" lon="104.777029"><ele>359.09418</ele><time>2026-07-03T16:33:38.000Z</time></trkpt>
        <trkpt lat="29.007626" lon="104.777041"><ele>358.90347</ele><time>2026-07-03T16:33:45.000Z</time></trkpt>
        <trkpt lat="29.007625" lon="104.77704"><ele>358.85458</ele><time>2026-07-03T16:33:47.000Z</time></trkpt>
        <trkpt lat="29.007619" lon="104.777038"><ele>358.71878</ele><time>2026-07-03T16:33:49.000Z</time></trkpt>
        <trkpt lat="29.007573" lon="104.777017"><ele>358.71432</ele><time>2026-07-03T16:33:53.000Z</time></trkpt>
        <trkpt lat="29.007547" lon="104.777004"><ele>358.51892</ele><time>2026-07-03T16:33:54.000Z</time></trkpt>
        <trkpt lat="29.007521" lon="104.77699"><ele>357.4134</ele><time>2026-07-03T16:33:56.000Z</time></trkpt>
        <trkpt lat="29.0075" lon="104.776981"><ele>356.52963</ele><time>2026-07-03T16:33:58.000Z</time></trkpt>
        <trkpt lat="29.007479" lon="104.776974"><ele>355.73804</ele><time>2026-07-03T16:34:00.000Z</time></trkpt>
        <trkpt lat="29.007457" lon="104.776967"><ele>354.65637</ele><time>2026-07-03T16:34:02.000Z</time></trkpt>
        <trkpt lat="29.007439" lon="104.776964"><ele>353.54916</ele><time>2026-07-03T16:34:04.000Z</time></trkpt>
        <trkpt lat="29.007417" lon="104.776959"><ele>352.89407</ele><time>2026-07-03T16:34:06.000Z</time></trkpt>
        <trkpt lat="29.007394" lon="104.776954"><ele>352.30817</ele><time>2026-07-03T16:34:08.000Z</time></trkpt>
        <trkpt lat="29.007374" lon="104.776945"><ele>351.49023</ele><time>2026-07-03T16:34:10.000Z</time></trkpt>
        <trkpt lat="29.007355" lon="104.776931"><ele>351.0518</ele><time>2026-07-03T16:34:12.000Z</time></trkpt>
        <trkpt lat="29.007337" lon="104.776913"><ele>350.90073</ele><time>2026-07-03T16:34:14.000Z</time></trkpt>
        <trkpt lat="29.007322" lon="104.776897"><ele>350.72345</ele><time>2026-07-03T16:34:16.000Z</time></trkpt>
        <trkpt lat="29.007307" lon="104.776877"><ele>350.54834</ele><time>2026-07-03T16:34:18.000Z</time></trkpt>
        <trkpt lat="29.007292" lon="104.776859"><ele>350.22556</ele><time>2026-07-03T16:34:20.000Z</time></trkpt>
        <trkpt lat="29.007278" lon="104.776846"><ele>350.20523</ele><time>2026-07-03T16:34:22.000Z</time></trkpt>
        <trkpt lat="29.007263" lon="104.776834"><ele>350.17917</ele><time>2026-07-03T16:34:24.000Z</time></trkpt>
        <trkpt lat="29.007249" lon="104.776824"><ele>350.13892</ele><time>2026-07-03T16:34:26.000Z</time></trkpt>
        <trkpt lat="29.007231" lon="104.776811"><ele>350.02277</ele><time>2026-07-03T16:34:28.000Z</time></trkpt>
        <trkpt lat="29.007212" lon="104.776797"><ele>349.549</ele><time>2026-07-03T16:34:30.000Z</time></trkpt>
        <trkpt lat="29.007195" lon="104.776781"><ele>349.00964</ele><time>2026-07-03T16:34:32.000Z</time></trkpt>
        <trkpt lat="29.007179" lon="104.776766"><ele>348.74228</ele><time>2026-07-03T16:34:34.000Z</time></trkpt>
        <trkpt lat="29.007165" lon="104.776753"><ele>348.66162</ele><time>2026-07-03T16:34:36.000Z</time></trkpt>
        <trkpt lat="29.007151" lon="104.77674"><ele>348.6371</ele><time>2026-07-03T16:34:38.000Z</time></trkpt>
        <trkpt lat="29.007135" lon="104.776727"><ele>348.5717</ele><time>2026-07-03T16:34:41.000Z</time></trkpt>
        <trkpt lat="29.007117" lon="104.776717"><ele>348.5717</ele><time>2026-07-03T16:34:43.000Z</time></trkpt>
        <trkpt lat="29.007101" lon="104.776712"><ele>348.5717</ele><time>2026-07-03T16:34:45.000Z</time></trkpt>
        <trkpt lat="29.007087" lon="104.776709"><ele>348.56558</ele><time>2026-07-03T16:34:47.000Z</time></trkpt>
        <trkpt lat="29.007072" lon="104.776708"><ele>348.39453</ele><time>2026-07-03T16:34:49.000Z</time></trkpt>
        <trkpt lat="29.007057" lon="104.776706"><ele>347.94138</ele><time>2026-07-03T16:34:51.000Z</time></trkpt>
        <trkpt lat="29.007039" lon="104.7767"><ele>347.4666</ele><time>2026-07-03T16:34:53.000Z</time></trkpt>
        <trkpt lat="29.007025" lon="104.77669"><ele>346.9749</ele><time>2026-07-03T16:34:55.000Z</time></trkpt>
        <trkpt lat="29.007013" lon="104.776677"><ele>346.65823</ele><time>2026-07-03T16:34:57.000Z</time></trkpt>
        <trkpt lat="29.007003" lon="104.776665"><ele>346.2561</ele><time>2026-07-03T16:34:59.000Z</time></trkpt>
        <trkpt lat="29.006994" lon="104.776655"><ele>345.95908</ele><time>2026-07-03T16:35:01.000Z</time></trkpt>
        <trkpt lat="29.006981" lon="104.776645"><ele>345.56732</ele><time>2026-07-03T16:35:03.000Z</time></trkpt>
        <trkpt lat="29.006964" lon="104.776633"><ele>345.12607</ele><time>2026-07-03T16:35:05.000Z</time></trkpt>
        <trkpt lat="29.006947" lon="104.776623"><ele>344.69443</ele><time>2026-07-03T16:35:07.000Z</time></trkpt>
        <trkpt lat="29.006936" lon="104.776614"><ele>344.53897</ele><time>2026-07-03T16:35:09.000Z</time></trkpt>
        <trkpt lat="29.006927" lon="104.776604"><ele>344.42822</ele><time>2026-07-03T16:35:11.000Z</time></trkpt>
        <trkpt lat="29.006917" lon="104.776594"><ele>344.15732</ele><time>2026-07-03T16:35:13.000Z</time></trkpt>
        <trkpt lat="29.006907" lon="104.776587"><ele>343.83304</ele><time>2026-07-03T16:35:15.000Z</time></trkpt>
        <trkpt lat="29.006895" lon="104.776581"><ele>343.4405</ele><time>2026-07-03T16:35:17.000Z</time></trkpt>
        <trkpt lat="29.006883" lon="104.776574"><ele>342.5733</ele><time>2026-07-03T16:35:19.000Z</time></trkpt>
        <trkpt lat="29.006869" lon="104.776568"><ele>342.45657</ele><time>2026-07-03T16:35:21.000Z</time></trkpt>
        <trkpt lat="29.006855" lon="104.776564"><ele>342.3922</ele><time>2026-07-03T16:35:23.000Z</time></trkpt>
        <trkpt lat="29.006851" lon="104.776563"><ele>342.45657</ele><time>2026-07-03T16:35:25.000Z</time></trkpt>
        <trkpt lat="29.006838" lon="104.776557"><ele>342.36935</ele><time>2026-07-03T16:35:31.000Z</time></trkpt>
        <trkpt lat="29.00681" lon="104.776543"><ele>342.33945</ele><time>2026-07-03T16:35:37.000Z</time></trkpt>
        <trkpt lat="29.006786" lon="104.776534"><ele>341.64917</ele><time>2026-07-03T16:35:39.000Z</time></trkpt>
        <trkpt lat="29.006763" lon="104.776528"><ele>341.32346</ele><time>2026-07-03T16:35:41.000Z</time></trkpt>
        <trkpt lat="29.006742" lon="104.776521"><ele>340.77643</ele><time>2026-07-03T16:35:43.000Z</time></trkpt>
        <trkpt lat="29.006713" lon="104.776512"><ele>339.98193</ele><time>2026-07-03T16:35:46.000Z</time></trkpt>
        <trkpt lat="29.006694" lon="104.776511"><ele>339.64685</ele><time>2026-07-03T16:35:48.000Z</time></trkpt>
        <trkpt lat="29.006683" lon="104.77651"><ele>339.34906</ele><time>2026-07-03T16:35:49.000Z</time></trkpt>
        <trkpt lat="29.00667" lon="104.776504"><ele>339.32977</ele><time>2026-07-03T16:35:51.000Z</time></trkpt>
        <trkpt lat="29.006667" lon="104.776496"><ele>338.94217</ele><time>2026-07-03T16:35:53.000Z</time></trkpt>
        <trkpt lat="29.006666" lon="104.776482"><ele>338.567</ele><time>2026-07-03T16:35:55.000Z</time></trkpt>
        <trkpt lat="29.006665" lon="104.776468"><ele>338.2079</ele><time>2026-07-03T16:35:57.000Z</time></trkpt>
        <trkpt lat="29.006663" lon="104.776457"><ele>337.6509</ele><time>2026-07-03T16:35:59.000Z</time></trkpt>
        <trkpt lat="29.006658" lon="104.776451"><ele>337.08972</ele><time>2026-07-03T16:36:03.000Z</time></trkpt>
        <trkpt lat="29.006618" lon="104.776397"><ele>336.7363</ele><time>2026-07-03T16:36:12.000Z</time></trkpt>
        <trkpt lat="29.006618" lon="104.776397"><ele>336.68625</ele><time>2026-07-03T16:36:14.000Z</time></trkpt>
        <trkpt lat="29.006613" lon="104.776397"><ele>335.652</ele><time>2026-07-03T16:36:16.000Z</time></trkpt>
        <trkpt lat="29.006581" lon="104.776391"><ele>335.65033</ele><time>2026-07-03T16:36:20.000Z</time></trkpt>
        <trkpt lat="29.006569" lon="104.776384"><ele>335.5615</ele><time>2026-07-03T16:36:22.000Z</time></trkpt>
        <trkpt lat="29.006561" lon="104.776372"><ele>334.91565</ele><time>2026-07-03T16:36:24.000Z</time></trkpt>
        <trkpt lat="29.006557" lon="104.776356"><ele>334.67474</ele><time>2026-07-03T16:36:26.000Z</time></trkpt>
        <trkpt lat="29.006558" lon="104.77634"><ele>334.48837</ele><time>2026-07-03T16:36:28.000Z</time></trkpt>
        <trkpt lat="29.006559" lon="104.776322"><ele>334.48837</ele><time>2026-07-03T16:36:30.000Z</time></trkpt>
        <trkpt lat="29.00656" lon="104.776308"><ele>334.48837</ele><time>2026-07-03T16:36:32.000Z</time></trkpt>
        <trkpt lat="29.00656" lon="104.776297"><ele>334.68753</ele><time>2026-07-03T16:36:34.000Z</time></trkpt>
        <trkpt lat="29.00656" lon="104.776279"><ele>334.86536</ele><time>2026-07-03T16:36:36.000Z</time></trkpt>
        <trkpt lat="29.006557" lon="104.776267"><ele>334.9625</ele><time>2026-07-03T16:36:38.000Z</time></trkpt>
        <trkpt lat="29.006553" lon="104.776258"><ele>334.97308</ele><time>2026-07-03T16:36:40.000Z</time></trkpt>
        <trkpt lat="29.006547" lon="104.776246"><ele>335.00443</ele><time>2026-07-03T16:36:42.000Z</time></trkpt>
        <trkpt lat="29.006541" lon="104.776235"><ele>335.00443</ele><time>2026-07-03T16:36:44.000Z</time></trkpt>
        <trkpt lat="29.006533" lon="104.776223"><ele>335.00443</ele><time>2026-07-03T16:36:47.000Z</time></trkpt>
        <trkpt lat="29.006525" lon="104.776211"><ele>334.9266</ele><time>2026-07-03T16:36:49.000Z</time></trkpt>
        <trkpt lat="29.006514" lon="104.776202"><ele>334.8472</ele><time>2026-07-03T16:36:51.000Z</time></trkpt>
        <trkpt lat="29.006503" lon="104.776196"><ele>334.46927</ele><time>2026-07-03T16:36:53.000Z</time></trkpt>
        <trkpt lat="29.006497" lon="104.776192"><ele>334.29688</ele><time>2026-07-03T16:36:55.000Z</time></trkpt>
        <trkpt lat="29.006485" lon="104.776178"><ele>334.25256</ele><time>2026-07-03T16:37:01.000Z</time></trkpt>
        <trkpt lat="29.006485" lon="104.776178"><ele>334.213</ele><time>2026-07-03T16:37:03.000Z</time></trkpt>
        <trkpt lat="29.006498" lon="104.77616"><ele>334.2003</ele><time>2026-07-03T16:37:05.000Z</time></trkpt>
        <trkpt lat="29.006505" lon="104.77615"><ele>334.2003</ele><time>2026-07-03T16:37:08.000Z</time></trkpt>
        <trkpt lat="29.006505" lon="104.776149"><ele>334.2003</ele><time>2026-07-03T16:37:10.000Z</time></trkpt>
        <trkpt lat="29.006507" lon="104.776091"><ele>334.24097</ele><time>2026-07-03T16:37:17.000Z</time></trkpt>
        <trkpt lat="29.006507" lon="104.776091"><ele>334.24097</ele><time>2026-07-03T16:37:19.000Z</time></trkpt>
        <trkpt lat="29.006507" lon="104.776084"><ele>334.24097</ele><time>2026-07-03T16:37:21.000Z</time></trkpt>
        <trkpt lat="29.006511" lon="104.776055"><ele>334.23444</ele><time>2026-07-03T16:37:23.000Z</time></trkpt>
        <trkpt lat="29.006522" lon="104.776018"><ele>334.04663</ele><time>2026-07-03T16:37:25.000Z</time></trkpt>
        <trkpt lat="29.006534" lon="104.775983"><ele>333.40912</ele><time>2026-07-03T16:37:27.000Z</time></trkpt>
        <trkpt lat="29.006544" lon="104.775953"><ele>332.49557</ele><time>2026-07-03T16:37:29.000Z</time></trkpt>
        <trkpt lat="29.006551" lon="104.77593"><ele>331.67715</ele><time>2026-07-03T16:37:31.000Z</time></trkpt>
        <trkpt lat="29.006555" lon="104.77591"><ele>330.96713</ele><time>2026-07-03T16:37:33.000Z</time></trkpt>
        <trkpt lat="29.006558" lon="104.775891"><ele>330.58078</ele><time>2026-07-03T16:37:35.000Z</time></trkpt>
        <trkpt lat="29.006556" lon="104.77588"><ele>330.29553</ele><time>2026-07-03T16:37:37.000Z</time></trkpt>
        <trkpt lat="29.006554" lon="104.77587"><ele>329.75314</ele><time>2026-07-03T16:37:39.000Z</time></trkpt>
        <trkpt lat="29.006548" lon="104.775857"><ele>329.16632</ele><time>2026-07-03T16:37:41.000Z</time></trkpt>
        <trkpt lat="29.00654" lon="104.775843"><ele>328.59335</ele><time>2026-07-03T16:37:43.000Z</time></trkpt>
        <trkpt lat="29.00653" lon="104.775829"><ele>327.95807</ele><time>2026-07-03T16:37:45.000Z</time></trkpt>
        <trkpt lat="29.006532" lon="104.775827"><ele>327.71307</ele><time>2026-07-03T16:37:47.000Z</time></trkpt>
        <trkpt lat="29.006556" lon="104.775783"><ele>327.5179</ele><time>2026-07-03T16:37:58.000Z</time></trkpt>
        <trkpt lat="29.006573" lon="104.775752"><ele>327.1427</ele><time>2026-07-03T16:38:01.000Z</time></trkpt>
        <trkpt lat="29.006575" lon="104.775751"><ele>325.66678</ele><time>2026-07-03T16:38:03.000Z</time></trkpt>
        <trkpt lat="29.006591" lon="104.77573"><ele>325.66678</ele><time>2026-07-03T16:38:11.000Z</time></trkpt>
        <trkpt lat="29.006595" lon="104.775719"><ele>325.66516</ele><time>2026-07-03T16:38:17.000Z</time></trkpt>
        <trkpt lat="29.006609" lon="104.775666"><ele>325.66516</ele><time>2026-07-03T16:38:20.000Z</time></trkpt>
        <trkpt lat="29.006613" lon="104.775639"><ele>325.37204</ele><time>2026-07-03T16:38:22.000Z</time></trkpt>
        <trkpt lat="29.006617" lon="104.775608"><ele>324.76593</ele><time>2026-07-03T16:38:24.000Z</time></trkpt>
        <trkpt lat="29.006619" lon="104.775582"><ele>324.18616</ele><time>2026-07-03T16:38:26.000Z</time></trkpt>
        <trkpt lat="29.006623" lon="104.775567"><ele>323.85394</ele><time>2026-07-03T16:38:28.000Z</time></trkpt>
        <trkpt lat="29.006627" lon="104.77556"><ele>323.5417</ele><time>2026-07-03T16:38:30.000Z</time></trkpt>
        <trkpt lat="29.006648" lon="104.775524"><ele>323.30035</ele><time>2026-07-03T16:38:37.000Z</time></trkpt>
        <trkpt lat="29.006648" lon="104.775524"><ele>323.06238</ele><time>2026-07-03T16:38:39.000Z</time></trkpt>
        <trkpt lat="29.00665" lon="104.775519"><ele>322.10422</ele><time>2026-07-03T16:38:41.000Z</time></trkpt>
        <trkpt lat="29.00667" lon="104.775475"><ele>322.10422</ele><time>2026-07-03T16:38:45.000Z</time></trkpt>
        <trkpt lat="29.006677" lon="104.775455"><ele>322.10422</ele><time>2026-07-03T16:38:47.000Z</time></trkpt>
        <trkpt lat="29.00668" lon="104.775435"><ele>323.0224</ele><time>2026-07-03T16:38:49.000Z</time></trkpt>
        <trkpt lat="29.006685" lon="104.77543"><ele>323.57092</ele><time>2026-07-03T16:38:51.000Z</time></trkpt>
        <trkpt lat="29.006723" lon="104.775392"><ele>324.15338</ele><time>2026-07-03T16:39:03.000Z</time></trkpt>
        <trkpt lat="29.006723" lon="104.775392"><ele>324.34314</ele><time>2026-07-03T16:39:05.000Z</time></trkpt>
        <trkpt lat="29.006728" lon="104.775389"><ele>324.3455</ele><time>2026-07-03T16:39:07.000Z</time></trkpt>
        <trkpt lat="29.00676" lon="104.775361"><ele>324.3536</ele><time>2026-07-03T16:39:11.000Z</time></trkpt>
        <trkpt lat="29.006771" lon="104.775346"><ele>324.5877</ele><time>2026-07-03T16:39:13.000Z</time></trkpt>
        <trkpt lat="29.006779" lon="104.775328"><ele>326.35004</ele><time>2026-07-03T16:39:15.000Z</time></trkpt>
        <trkpt lat="29.006786" lon="104.77531"><ele>327.04028</ele><time>2026-07-03T16:39:17.000Z</time></trkpt>
        <trkpt lat="29.006794" lon="104.775292"><ele>327.73273</ele><time>2026-07-03T16:39:19.000Z</time></trkpt>
        <trkpt lat="29.006804" lon="104.775273"><ele>327.91174</ele><time>2026-07-03T16:39:21.000Z</time></trkpt>
        <trkpt lat="29.006814" lon="104.775261"><ele>327.93954</ele><time>2026-07-03T16:39:23.000Z</time></trkpt>
        <trkpt lat="29.006823" lon="104.775251"><ele>328.0924</ele><time>2026-07-03T16:39:25.000Z</time></trkpt>
        <trkpt lat="29.006834" lon="104.77524"><ele>328.41135</ele><time>2026-07-03T16:39:27.000Z</time></trkpt>
        <trkpt lat="29.006844" lon="104.77523"><ele>328.77698</ele><time>2026-07-03T16:39:29.000Z</time></trkpt>
        <trkpt lat="29.006857" lon="104.775218"><ele>329.29327</ele><time>2026-07-03T16:39:31.000Z</time></trkpt>
        <trkpt lat="29.006869" lon="104.775201"><ele>330.00717</ele><time>2026-07-03T16:39:33.000Z</time></trkpt>
        <trkpt lat="29.006879" lon="104.775184"><ele>330.3286</ele><time>2026-07-03T16:39:35.000Z</time></trkpt>
        <trkpt lat="29.006888" lon="104.775166"><ele>330.59286</ele><time>2026-07-03T16:39:37.000Z</time></trkpt>
        <trkpt lat="29.006899" lon="104.77515"><ele>331.1037</ele><time>2026-07-03T16:39:39.000Z</time></trkpt>
        <trkpt lat="29.006911" lon="104.775137"><ele>331.87714</ele><time>2026-07-03T16:39:41.000Z</time></trkpt>
        <trkpt lat="29.006922" lon="104.775124"><ele>332.7719</ele><time>2026-07-03T16:39:43.000Z</time></trkpt>
        <trkpt lat="29.006932" lon="104.77511"><ele>333.7985</ele><time>2026-07-03T16:39:45.000Z</time></trkpt>
        <trkpt lat="29.00694" lon="104.775097"><ele>334.66556</ele><time>2026-07-03T16:39:47.000Z</time></trkpt>
        <trkpt lat="29.006947" lon="104.775082"><ele>335.5568</ele><time>2026-07-03T16:39:49.000Z</time></trkpt>
        <trkpt lat="29.006953" lon="104.775072"><ele>336.29034</ele><time>2026-07-03T16:39:51.000Z</time></trkpt>
        <trkpt lat="29.006961" lon="104.775058"><ele>337.18973</ele><time>2026-07-03T16:39:52.000Z</time></trkpt>
        <trkpt lat="29.006968" lon="104.775046"><ele>337.86087</ele><time>2026-07-03T16:39:54.000Z</time></trkpt>
        <trkpt lat="29.006975" lon="104.775036"><ele>338.25092</ele><time>2026-07-03T16:39:56.000Z</time></trkpt>
        <trkpt lat="29.006986" lon="104.77502"><ele>338.543</ele><time>2026-07-03T16:39:58.000Z</time></trkpt>
        <trkpt lat="29.007" lon="104.775007"><ele>338.65735</ele><time>2026-07-03T16:40:00.000Z</time></trkpt>
        <trkpt lat="29.007015" lon="104.774994"><ele>338.65735</ele><time>2026-07-03T16:40:02.000Z</time></trkpt>
        <trkpt lat="29.007032" lon="104.774983"><ele>338.78787</ele><time>2026-07-03T16:40:04.000Z</time></trkpt>
        <trkpt lat="29.007049" lon="104.774973"><ele>338.9182</ele><time>2026-07-03T16:40:06.000Z</time></trkpt>
        <trkpt lat="29.007059" lon="104.774965"><ele>338.9182</ele><time>2026-07-03T16:40:08.000Z</time></trkpt>
        <trkpt lat="29.007072" lon="104.774957"><ele>338.9182</ele><time>2026-07-03T16:40:10.000Z</time></trkpt>
        <trkpt lat="29.007085" lon="104.774948"><ele>338.9596</ele><time>2026-07-03T16:40:12.000Z</time></trkpt>
        <trkpt lat="29.007097" lon="104.774936"><ele>339.00006</ele><time>2026-07-03T16:40:14.000Z</time></trkpt>
        <trkpt lat="29.007111" lon="104.774919"><ele>339.00812</ele><time>2026-07-03T16:40:16.000Z</time></trkpt>
        <trkpt lat="29.007125" lon="104.774904"><ele>339.13278</ele><time>2026-07-03T16:40:18.000Z</time></trkpt>
        <trkpt lat="29.007142" lon="104.774891"><ele>339.28186</ele><time>2026-07-03T16:40:20.000Z</time></trkpt>
        <trkpt lat="29.007157" lon="104.774885"><ele>339.5411</ele><time>2026-07-03T16:40:22.000Z</time></trkpt>
        <trkpt lat="29.007168" lon="104.774884"><ele>339.92377</ele><time>2026-07-03T16:40:24.000Z</time></trkpt>
        <trkpt lat="29.007184" lon="104.774883"><ele>340.29922</ele><time>2026-07-03T16:40:26.000Z</time></trkpt>
        <trkpt lat="29.0072" lon="104.774881"><ele>340.53952</ele><time>2026-07-03T16:40:28.000Z</time></trkpt>
        <trkpt lat="29.007214" lon="104.774879"><ele>340.53952</ele><time>2026-07-03T16:40:30.000Z</time></trkpt>
        <trkpt lat="29.007228" lon="104.774876"><ele>340.53952</ele><time>2026-07-03T16:40:32.000Z</time></trkpt>
        <trkpt lat="29.007247" lon="104.774872"><ele>340.4719</ele><time>2026-07-03T16:40:34.000Z</time></trkpt>
        <trkpt lat="29.007265" lon="104.774866"><ele>340.19357</ele><time>2026-07-03T16:40:36.000Z</time></trkpt>
        <trkpt lat="29.007282" lon="104.77486"><ele>339.8908</ele><time>2026-07-03T16:40:38.000Z</time></trkpt>
        <trkpt lat="29.007298" lon="104.774854"><ele>339.67477</ele><time>2026-07-03T16:40:40.000Z</time></trkpt>
        <trkpt lat="29.007315" lon="104.774846"><ele>339.51862</ele><time>2026-07-03T16:40:42.000Z</time></trkpt>
        <trkpt lat="29.00733" lon="104.774837"><ele>339.40182</ele><time>2026-07-03T16:40:44.000Z</time></trkpt>
        <trkpt lat="29.007345" lon="104.774827"><ele>339.40182</ele><time>2026-07-03T16:40:46.000Z</time></trkpt>
        <trkpt lat="29.007361" lon="104.774816"><ele>339.3925</ele><time>2026-07-03T16:40:48.000Z</time></trkpt>
        <trkpt lat="29.007378" lon="104.774807"><ele>339.40182</ele><time>2026-07-03T16:40:50.000Z</time></trkpt>
        <trkpt lat="29.007392" lon="104.774799"><ele>339.47574</ele><time>2026-07-03T16:40:52.000Z</time></trkpt>
        <trkpt lat="29.007408" lon="104.774786"><ele>339.86456</ele><time>2026-07-03T16:40:54.000Z</time></trkpt>
        <trkpt lat="29.007422" lon="104.774772"><ele>340.52448</ele><time>2026-07-03T16:40:56.000Z</time></trkpt>
        <trkpt lat="29.007433" lon="104.774758"><ele>340.89053</ele><time>2026-07-03T16:40:59.000Z</time></trkpt>
        <trkpt lat="29.007446" lon="104.774741"><ele>341.9906</ele><time>2026-07-03T16:41:01.000Z</time></trkpt>
        <trkpt lat="29.007459" lon="104.774728"><ele>342.21585</ele><time>2026-07-03T16:41:03.000Z</time></trkpt>
        <trkpt lat="29.007471" lon="104.774715"><ele>342.30676</ele><time>2026-07-03T16:41:05.000Z</time></trkpt>
        <trkpt lat="29.007479" lon="104.774705"><ele>342.5607</ele><time>2026-07-03T16:41:07.000Z</time></trkpt>
        <trkpt lat="29.007487" lon="104.774695"><ele>342.79193</ele><time>2026-07-03T16:41:09.000Z</time></trkpt>
        <trkpt lat="29.007494" lon="104.774683"><ele>343.0658</ele><time>2026-07-03T16:41:11.000Z</time></trkpt>
        <trkpt lat="29.0075" lon="104.774672"><ele>343.41232</ele><time>2026-07-03T16:41:13.000Z</time></trkpt>
        <trkpt lat="29.007504" lon="104.774661"><ele>343.8233</ele><time>2026-07-03T16:41:15.000Z</time></trkpt>
        <trkpt lat="29.007511" lon="104.77464"><ele>344.12512</ele><time>2026-07-03T16:41:19.000Z</time></trkpt>
        <trkpt lat="29.007516" lon="104.774628"><ele>344.56546</ele><time>2026-07-03T16:41:21.000Z</time></trkpt>
        <trkpt lat="29.007522" lon="104.77462"><ele>345.33847</ele><time>2026-07-03T16:41:23.000Z</time></trkpt>
        <trkpt lat="29.007533" lon="104.774614"><ele>345.79254</ele><time>2026-07-03T16:41:25.000Z</time></trkpt>
        <trkpt lat="29.007549" lon="104.774612"><ele>346.18622</ele><time>2026-07-03T16:41:27.000Z</time></trkpt>
        <trkpt lat="29.007573" lon="104.774617"><ele>346.46982</ele><time>2026-07-03T16:41:29.000Z</time></trkpt>
        <trkpt lat="29.00759" lon="104.774624"><ele>346.46982</ele><time>2026-07-03T16:41:31.000Z</time></trkpt>
        <trkpt lat="29.007605" lon="104.774629"><ele>346.46982</ele><time>2026-07-03T16:41:33.000Z</time></trkpt>
        <trkpt lat="29.007617" lon="104.774631"><ele>346.1143</ele><time>2026-07-03T16:41:35.000Z</time></trkpt>
        <trkpt lat="29.007627" lon="104.77463"><ele>345.8911</ele><time>2026-07-03T16:41:37.000Z</time></trkpt>
        <trkpt lat="29.007645" lon="104.774626"><ele>345.62872</ele><time>2026-07-03T16:41:41.000Z</time></trkpt>
        <trkpt lat="29.007652" lon="104.774622"><ele>345.41882</ele><time>2026-07-03T16:41:43.000Z</time></trkpt>
        <trkpt lat="29.007656" lon="104.774616"><ele>345.41882</ele><time>2026-07-03T16:41:47.000Z</time></trkpt>
        <trkpt lat="29.007684" lon="104.774573"><ele>345.3891</ele><time>2026-07-03T16:41:57.000Z</time></trkpt>
        <trkpt lat="29.007684" lon="104.774573"><ele>345.3075</ele><time>2026-07-03T16:41:59.000Z</time></trkpt>
        <trkpt lat="29.007686" lon="104.77457"><ele>345.3075</ele><time>2026-07-03T16:42:01.000Z</time></trkpt>
        <trkpt lat="29.007728" lon="104.774532"><ele>345.13458</ele><time>2026-07-03T16:42:08.000Z</time></trkpt>
        <trkpt lat="29.007748" lon="104.774515"><ele>345.13458</ele><time>2026-07-03T16:42:10.000Z</time></trkpt>
        <trkpt lat="29.00777" lon="104.774499"><ele>345.17654</ele><time>2026-07-03T16:42:12.000Z</time></trkpt>
        <trkpt lat="29.007789" lon="104.77449"><ele>345.18967</ele><time>2026-07-03T16:42:14.000Z</time></trkpt>
        <trkpt lat="29.007806" lon="104.77448"><ele>345.18967</ele><time>2026-07-03T16:42:16.000Z</time></trkpt>
        <trkpt lat="29.007825" lon="104.774473"><ele>345.52136</ele><time>2026-07-03T16:42:18.000Z</time></trkpt>
        <trkpt lat="29.007843" lon="104.774466"><ele>345.64795</ele><time>2026-07-03T16:42:20.000Z</time></trkpt>
        <trkpt lat="29.00786" lon="104.774457"><ele>345.73004</ele><time>2026-07-03T16:42:22.000Z</time></trkpt>
        <trkpt lat="29.007872" lon="104.774446"><ele>345.73004</ele><time>2026-07-03T16:42:24.000Z</time></trkpt>
        <trkpt lat="29.007883" lon="104.774434"><ele>345.73004</ele><time>2026-07-03T16:42:26.000Z</time></trkpt>
        <trkpt lat="29.007891" lon="104.774423"><ele>345.57703</ele><time>2026-07-03T16:42:28.000Z</time></trkpt>
        <trkpt lat="29.007903" lon="104.774408"><ele>345.45877</ele><time>2026-07-03T16:42:30.000Z</time></trkpt>
        <trkpt lat="29.007914" lon="104.774395"><ele>345.45877</ele><time>2026-07-03T16:42:32.000Z</time></trkpt>
        <trkpt lat="29.007927" lon="104.774386"><ele>345.45877</ele><time>2026-07-03T16:42:34.000Z</time></trkpt>
        <trkpt lat="29.007945" lon="104.774382"><ele>345.45877</ele><time>2026-07-03T16:42:36.000Z</time></trkpt>
        <trkpt lat="29.007969" lon="104.774383"><ele>345.45877</ele><time>2026-07-03T16:42:38.000Z</time></trkpt>
        <trkpt lat="29.007989" lon="104.774388"><ele>345.35724</ele><time>2026-07-03T16:42:40.000Z</time></trkpt>
        <trkpt lat="29.007996" lon="104.774393"><ele>345.33044</ele><time>2026-07-03T16:42:42.000Z</time></trkpt>
        <trkpt lat="29.008001" lon="104.774397"><ele>345.23962</ele><time>2026-07-03T16:42:44.000Z</time></trkpt>
        <trkpt lat="29.008024" lon="104.774405"><ele>345.03015</ele><time>2026-07-03T16:42:50.000Z</time></trkpt>
        <trkpt lat="29.008039" lon="104.774403"><ele>344.89963</ele><time>2026-07-03T16:42:52.000Z</time></trkpt>
        <trkpt lat="29.008055" lon="104.774396"><ele>344.17792</ele><time>2026-07-03T16:42:54.000Z</time></trkpt>
        <trkpt lat="29.008072" lon="104.774387"><ele>343.7582</ele><time>2026-07-03T16:42:56.000Z</time></trkpt>
        <trkpt lat="29.008091" lon="104.774376"><ele>343.33267</ele><time>2026-07-03T16:42:58.000Z</time></trkpt>
        <trkpt lat="29.00811" lon="104.774364"><ele>343.1236</ele><time>2026-07-03T16:43:00.000Z</time></trkpt>
        <trkpt lat="29.008128" lon="104.77435"><ele>343.0263</ele><time>2026-07-03T16:43:02.000Z</time></trkpt>
        <trkpt lat="29.008146" lon="104.774336"><ele>342.93973</ele><time>2026-07-03T16:43:05.000Z</time></trkpt>
        <trkpt lat="29.008166" lon="104.77432"><ele>342.80362</ele><time>2026-07-03T16:43:07.000Z</time></trkpt>
        <trkpt lat="29.008187" lon="104.774304"><ele>342.65582</ele><time>2026-07-03T16:43:09.000Z</time></trkpt>
        <trkpt lat="29.008206" lon="104.77429"><ele>342.5254</ele><time>2026-07-03T16:43:11.000Z</time></trkpt>
        <trkpt lat="29.00822" lon="104.774279"><ele>342.45758</ele><time>2026-07-03T16:43:13.000Z</time></trkpt>
        <trkpt lat="29.008237" lon="104.774268"><ele>342.2798</ele><time>2026-07-03T16:43:15.000Z</time></trkpt>
        <trkpt lat="29.008262" lon="104.774255"><ele>342.11948</ele><time>2026-07-03T16:43:17.000Z</time></trkpt>
        <trkpt lat="29.008285" lon="104.774244"><ele>341.79987</ele><time>2026-07-03T16:43:19.000Z</time></trkpt>
        <trkpt lat="29.008308" lon="104.774233"><ele>341.63266</ele><time>2026-07-03T16:43:21.000Z</time></trkpt>
        <trkpt lat="29.008327" lon="104.774223"><ele>341.62234</ele><time>2026-07-03T16:43:23.000Z</time></trkpt>
        <trkpt lat="29.008336" lon="104.774218"><ele>341.5847</ele><time>2026-07-03T16:43:25.000Z</time></trkpt>
        <trkpt lat="29.008344" lon="104.774213"><ele>341.51477</ele><time>2026-07-03T16:43:27.000Z</time></trkpt>
        <trkpt lat="29.008357" lon="104.774207"><ele>341.50653</ele><time>2026-07-03T16:43:29.000Z</time></trkpt>
        <trkpt lat="29.008372" lon="104.774201"><ele>341.32867</ele><time>2026-07-03T16:43:31.000Z</time></trkpt>
        <trkpt lat="29.008393" lon="104.77419"><ele>341.30945</ele><time>2026-07-03T16:43:33.000Z</time></trkpt>
        <trkpt lat="29.008414" lon="104.774178"><ele>341.28152</ele><time>2026-07-03T16:43:35.000Z</time></trkpt>
        <trkpt lat="29.008434" lon="104.774165"><ele>341.27243</ele><time>2026-07-03T16:43:37.000Z</time></trkpt>
        <trkpt lat="29.008459" lon="104.774148"><ele>341.05887</ele><time>2026-07-03T16:43:39.000Z</time></trkpt>
        <trkpt lat="29.008483" lon="104.774132"><ele>340.25058</ele><time>2026-07-03T16:43:41.000Z</time></trkpt>
        <trkpt lat="29.008503" lon="104.774116"><ele>339.64206</ele><time>2026-07-03T16:43:43.000Z</time></trkpt>
        <trkpt lat="29.008519" lon="104.7741"><ele>339.48236</ele><time>2026-07-03T16:43:45.000Z</time></trkpt>
        <trkpt lat="29.008538" lon="104.774082"><ele>339.3234</ele><time>2026-07-03T16:43:47.000Z</time></trkpt>
        <trkpt lat="29.008552" lon="104.774064"><ele>339.3234</ele><time>2026-07-03T16:43:49.000Z</time></trkpt>
        <trkpt lat="29.008567" lon="104.774045"><ele>339.28275</ele><time>2026-07-03T16:43:51.000Z</time></trkpt>
        <trkpt lat="29.008583" lon="104.774028"><ele>339.22437</ele><time>2026-07-03T16:43:53.000Z</time></trkpt>
        <trkpt lat="29.008596" lon="104.77402"><ele>339.15662</ele><time>2026-07-03T16:43:55.000Z</time></trkpt>
        <trkpt lat="29.008606" lon="104.774017"><ele>338.87424</ele><time>2026-07-03T16:43:57.000Z</time></trkpt>
        <trkpt lat="29.008612" lon="104.774019"><ele>338.23645</ele><time>2026-07-03T16:43:59.000Z</time></trkpt>
        <trkpt lat="29.008644" lon="104.77403"><ele>337.7993</ele><time>2026-07-03T16:44:04.000Z</time></trkpt>
        <trkpt lat="29.008665" lon="104.774038"><ele>337.69946</ele><time>2026-07-03T16:44:06.000Z</time></trkpt>
        <trkpt lat="29.008683" lon="104.774047"><ele>337.69946</ele><time>2026-07-03T16:44:08.000Z</time></trkpt>
        <trkpt lat="29.008699" lon="104.774055"><ele>337.69946</ele><time>2026-07-03T16:44:10.000Z</time></trkpt>
        <trkpt lat="29.008713" lon="104.774066"><ele>337.69946</ele><time>2026-07-03T16:44:12.000Z</time></trkpt>
        <trkpt lat="29.008729" lon="104.77408"><ele>337.69946</ele><time>2026-07-03T16:44:14.000Z</time></trkpt>
        <trkpt lat="29.008737" lon="104.77409"><ele>337.6457</ele><time>2026-07-03T16:44:16.000Z</time></trkpt>
        <trkpt lat="29.008739" lon="104.774095"><ele>337.6457</ele><time>2026-07-03T16:44:18.000Z</time></trkpt>
        <trkpt lat="29.008746" lon="104.774109"><ele>337.6457</ele><time>2026-07-03T16:44:24.000Z</time></trkpt>
        <trkpt lat="29.008763" lon="104.774144"><ele>338.00027</ele><time>2026-07-03T16:44:34.000Z</time></trkpt>
        <trkpt lat="29.008763" lon="104.774144"><ele>339.21048</ele><time>2026-07-03T16:44:36.000Z</time></trkpt>
        <trkpt lat="29.008777" lon="104.774152"><ele>340.0073</ele><time>2026-07-03T16:44:42.000Z</time></trkpt>
        <trkpt lat="29.008813" lon="104.774173"><ele>340.01065</ele><time>2026-07-03T16:44:45.000Z</time></trkpt>
        <trkpt lat="29.008815" lon="104.774173"><ele>340.60135</ele><time>2026-07-03T16:44:47.000Z</time></trkpt>
        <trkpt lat="29.008842" lon="104.774174"><ele>340.91907</ele><time>2026-07-03T16:44:51.000Z</time></trkpt>
        <trkpt lat="29.008866" lon="104.774175"><ele>340.92136</ele><time>2026-07-03T16:44:53.000Z</time></trkpt>
        <trkpt lat="29.008891" lon="104.774178"><ele>341.28955</ele><time>2026-07-03T16:44:55.000Z</time></trkpt>
        <trkpt lat="29.008913" lon="104.774182"><ele>341.81845</ele><time>2026-07-03T16:44:57.000Z</time></trkpt>
        <trkpt lat="29.008938" lon="104.774189"><ele>342.30838</ele><time>2026-07-03T16:44:59.000Z</time></trkpt>
        <trkpt lat="29.008959" lon="104.774197"><ele>342.67337</ele><time>2026-07-03T16:45:01.000Z</time></trkpt>
        <trkpt lat="29.008978" lon="104.774207"><ele>342.8231</ele><time>2026-07-03T16:45:03.000Z</time></trkpt>
        <trkpt lat="29.008998" lon="104.774218"><ele>342.8835</ele><time>2026-07-03T16:45:05.000Z</time></trkpt>
        <trkpt lat="29.009019" lon="104.774232"><ele>342.88666</ele><time>2026-07-03T16:45:07.000Z</time></trkpt>
        <trkpt lat="29.009038" lon="104.774248"><ele>342.88666</ele><time>2026-07-03T16:45:09.000Z</time></trkpt>
        <trkpt lat="29.009052" lon="104.774262"><ele>342.88666</ele><time>2026-07-03T16:45:12.000Z</time></trkpt>
        <trkpt lat="29.009063" lon="104.774274"><ele>342.83023</ele><time>2026-07-03T16:45:14.000Z</time></trkpt>
        <trkpt lat="29.009072" lon="104.774284"><ele>342.78143</ele><time>2026-07-03T16:45:16.000Z</time></trkpt>
        <trkpt lat="29.009081" lon="104.774292"><ele>342.5278</ele><time>2026-07-03T16:45:18.000Z</time></trkpt>
        <trkpt lat="29.009098" lon="104.774297"><ele>342.5278</ele><time>2026-07-03T16:45:22.000Z</time></trkpt>
        <trkpt lat="29.009018" lon="104.774277"><ele>342.5278</ele><time>2026-07-03T16:45:36.000Z</time></trkpt>
        <trkpt lat="29.008898" lon="104.774246"><ele>342.47382</ele><time>2026-07-03T16:45:57.000Z</time></trkpt>
        <trkpt lat="29.008898" lon="104.774246"><ele>342.47382</ele><time>2026-07-03T16:45:59.000Z</time></trkpt>
        <trkpt lat="29.008893" lon="104.774245"><ele>342.00085</ele><time>2026-07-03T16:46:01.000Z</time></trkpt>
        <trkpt lat="29.008848" lon="104.774232"><ele>341.999</ele><time>2026-07-03T16:46:05.000Z</time></trkpt>
        <trkpt lat="29.008818" lon="104.774223"><ele>341.9411</ele><time>2026-07-03T16:46:06.000Z</time></trkpt>
        <trkpt lat="29.008794" lon="104.774214"><ele>341.60242</ele><time>2026-07-03T16:46:08.000Z</time></trkpt>
        <trkpt lat="29.008774" lon="104.774204"><ele>341.60242</ele><time>2026-07-03T16:46:10.000Z</time></trkpt>
        <trkpt lat="29.008756" lon="104.774191"><ele>341.60242</ele><time>2026-07-03T16:46:12.000Z</time></trkpt>
        <trkpt lat="29.008741" lon="104.774181"><ele>341.7636</ele><time>2026-07-03T16:46:14.000Z</time></trkpt>
        <trkpt lat="29.00873" lon="104.774171"><ele>342.15738</ele><time>2026-07-03T16:46:16.000Z</time></trkpt>
        <trkpt lat="29.008722" lon="104.774159"><ele>342.36713</ele><time>2026-07-03T16:46:18.000Z</time></trkpt>
        <trkpt lat="29.008711" lon="104.774137"><ele>342.36713</ele><time>2026-07-03T16:46:20.000Z</time></trkpt>
        <trkpt lat="29.008703" lon="104.774115"><ele>342.36713</ele><time>2026-07-03T16:46:22.000Z</time></trkpt>
        <trkpt lat="29.008696" lon="104.774094"><ele>341.94244</ele><time>2026-07-03T16:46:24.000Z</time></trkpt>
        <trkpt lat="29.008693" lon="104.774081"><ele>341.41373</ele><time>2026-07-03T16:46:26.000Z</time></trkpt>
        <trkpt lat="29.00869" lon="104.774079"><ele>340.9689</ele><time>2026-07-03T16:46:28.000Z</time></trkpt>
        <trkpt lat="29.008737" lon="104.774101"><ele>340.4817</ele><time>2026-07-03T16:46:44.000Z</time></trkpt>
        <trkpt lat="29.008742" lon="104.774072"><ele>340.2826</ele><time>2026-07-03T16:46:46.000Z</time></trkpt>
        <trkpt lat="29.008925" lon="104.774012"><ele>340.2826</ele><time>2026-07-03T16:47:18.000Z</time></trkpt>
        <trkpt lat="29.008925" lon="104.774012"><ele>340.2826</ele><time>2026-07-03T16:47:20.000Z</time></trkpt>
        <trkpt lat="29.008932" lon="104.774012"><ele>341.41272</ele><time>2026-07-03T16:47:22.000Z</time></trkpt>
        <trkpt lat="29.008952" lon="104.774012"><ele>341.41632</ele><time>2026-07-03T16:47:24.000Z</time></trkpt>
        <trkpt lat="29.008977" lon="104.774013"><ele>341.4296</ele><time>2026-07-03T16:47:26.000Z</time></trkpt>
        <trkpt lat="29.008997" lon="104.774012"><ele>341.6207</ele><time>2026-07-03T16:47:28.000Z</time></trkpt>
        <trkpt lat="29.009009" lon="104.774012"><ele>341.91855</ele><time>2026-07-03T16:47:30.000Z</time></trkpt>
        <trkpt lat="29.009019" lon="104.774012"><ele>342.5453</ele><time>2026-07-03T16:47:32.000Z</time></trkpt>
        <trkpt lat="29.009032" lon="104.774013"><ele>343.13455</ele><time>2026-07-03T16:47:34.000Z</time></trkpt>
        <trkpt lat="29.009043" lon="104.774013"><ele>343.55957</ele><time>2026-07-03T16:47:36.000Z</time></trkpt>
        <trkpt lat="29.009051" lon="104.774012"><ele>343.725</ele><time>2026-07-03T16:47:38.000Z</time></trkpt>
        <trkpt lat="29.009062" lon="104.774013"><ele>343.74216</ele><time>2026-07-03T16:47:40.000Z</time></trkpt>
        <trkpt lat="29.009077" lon="104.774014"><ele>343.85226</ele><time>2026-07-03T16:47:42.000Z</time></trkpt>
        <trkpt lat="29.009092" lon="104.774015"><ele>343.9748</ele><time>2026-07-03T16:47:44.000Z</time></trkpt>
        <trkpt lat="29.009105" lon="104.774016"><ele>344.10977</ele><time>2026-07-03T16:47:46.000Z</time></trkpt>
        <trkpt lat="29.009121" lon="104.774018"><ele>344.33362</ele><time>2026-07-03T16:47:48.000Z</time></trkpt>
        <trkpt lat="29.009136" lon="104.774017"><ele>344.78918</ele><time>2026-07-03T16:47:50.000Z</time></trkpt>
        <trkpt lat="29.009153" lon="104.774011"><ele>345.29468</ele><time>2026-07-03T16:47:52.000Z</time></trkpt>
        <trkpt lat="29.009163" lon="104.774005"><ele>345.463</ele><time>2026-07-03T16:47:54.000Z</time></trkpt>
        <trkpt lat="29.009173" lon="104.774001"><ele>345.463</ele><time>2026-07-03T16:47:56.000Z</time></trkpt>
        <trkpt lat="29.009181" lon="104.774"><ele>345.463</ele><time>2026-07-03T16:48:00.000Z</time></trkpt>
        <trkpt lat="29.009188" lon="104.773998"><ele>345.1053</ele><time>2026-07-03T16:48:02.000Z</time></trkpt>
        <trkpt lat="29.009204" lon="104.773999"><ele>345.1053</ele><time>2026-07-03T16:48:06.000Z</time></trkpt>
        <trkpt lat="29.009227" lon="104.773999"><ele>345.1053</ele><time>2026-07-03T16:48:09.000Z</time></trkpt>
        <trkpt lat="29.009228" lon="104.773999"><ele>345.4638</ele><time>2026-07-03T16:48:10.000Z</time></trkpt>
        <trkpt lat="29.009232" lon="104.774"><ele>345.54092</ele><time>2026-07-03T16:48:12.000Z</time></trkpt>
        <trkpt lat="29.009273" lon="104.773997"><ele>345.5415</ele><time>2026-07-03T16:48:16.000Z</time></trkpt>
        <trkpt lat="29.009293" lon="104.773991"><ele>345.6195</ele><time>2026-07-03T16:48:18.000Z</time></trkpt>
        <trkpt lat="29.009306" lon="104.773984"><ele>346.2029</ele><time>2026-07-03T16:48:20.000Z</time></trkpt>
        <trkpt lat="29.009316" lon="104.773976"><ele>346.4604</ele><time>2026-07-03T16:48:22.000Z</time></trkpt>
        <trkpt lat="29.009324" lon="104.773969"><ele>346.76587</ele><time>2026-07-03T16:48:24.000Z</time></trkpt>
        <trkpt lat="29.009333" lon="104.773963"><ele>346.76587</ele><time>2026-07-03T16:48:26.000Z</time></trkpt>
        <trkpt lat="29.009347" lon="104.773955"><ele>346.76587</ele><time>2026-07-03T16:48:28.000Z</time></trkpt>
        <trkpt lat="29.009358" lon="104.773948"><ele>346.7749</ele><time>2026-07-03T16:48:30.000Z</time></trkpt>
        <trkpt lat="29.009368" lon="104.773939"><ele>346.7749</ele><time>2026-07-03T16:48:32.000Z</time></trkpt>
        <trkpt lat="29.009379" lon="104.773929"><ele>346.78775</ele><time>2026-07-03T16:48:34.000Z</time></trkpt>
        <trkpt lat="29.00939" lon="104.773918"><ele>347.04147</ele><time>2026-07-03T16:48:36.000Z</time></trkpt>
        <trkpt lat="29.0094" lon="104.77391"><ele>347.3947</ele><time>2026-07-03T16:48:38.000Z</time></trkpt>
        <trkpt lat="29.009411" lon="104.773901"><ele>347.63824</ele><time>2026-07-03T16:48:40.000Z</time></trkpt>
        <trkpt lat="29.009421" lon="104.77389"><ele>348.04794</ele><time>2026-07-03T16:48:42.000Z</time></trkpt>
        <trkpt lat="29.009434" lon="104.773876"><ele>348.39038</ele><time>2026-07-03T16:48:44.000Z</time></trkpt>
        <trkpt lat="29.009446" lon="104.773865"><ele>348.60742</ele><time>2026-07-03T16:48:46.000Z</time></trkpt>
        <trkpt lat="29.009458" lon="104.773852"><ele>349.0151</ele><time>2026-07-03T16:48:48.000Z</time></trkpt>
        <trkpt lat="29.009471" lon="104.773839"><ele>349.38965</ele><time>2026-07-03T16:48:50.000Z</time></trkpt>
        <trkpt lat="29.009482" lon="104.773828"><ele>349.45886</ele><time>2026-07-03T16:48:52.000Z</time></trkpt>
        <trkpt lat="29.009494" lon="104.773817"><ele>349.7954</ele><time>2026-07-03T16:48:54.000Z</time></trkpt>
        <trkpt lat="29.009508" lon="104.773808"><ele>350.12207</ele><time>2026-07-03T16:48:56.000Z</time></trkpt>
        <trkpt lat="29.009523" lon="104.773801"><ele>350.5269</ele><time>2026-07-03T16:48:58.000Z</time></trkpt>
        <trkpt lat="29.009541" lon="104.773793"><ele>350.72543</ele><time>2026-07-03T16:49:00.000Z</time></trkpt>
        <trkpt lat="29.009558" lon="104.773783"><ele>350.97043</ele><time>2026-07-03T16:49:02.000Z</time></trkpt>
        <trkpt lat="29.009575" lon="104.773773"><ele>351.2115</ele><time>2026-07-03T16:49:04.000Z</time></trkpt>
        <trkpt lat="29.009591" lon="104.773762"><ele>351.34744</ele><time>2026-07-03T16:49:06.000Z</time></trkpt>
        <trkpt lat="29.009609" lon="104.773752"><ele>351.71408</ele><time>2026-07-03T16:49:08.000Z</time></trkpt>
        <trkpt lat="29.009624" lon="104.773745"><ele>352.13712</ele><time>2026-07-03T16:49:10.000Z</time></trkpt>
        <trkpt lat="29.009638" lon="104.773739"><ele>352.647</ele><time>2026-07-03T16:49:12.000Z</time></trkpt>
        <trkpt lat="29.009657" lon="104.773735"><ele>353.24448</ele><time>2026-07-03T16:49:14.000Z</time></trkpt>
        <trkpt lat="29.009679" lon="104.773733"><ele>353.62784</ele><time>2026-07-03T16:49:16.000Z</time></trkpt>
        <trkpt lat="29.0097" lon="104.77373"><ele>354.06854</ele><time>2026-07-03T16:49:18.000Z</time></trkpt>
        <trkpt lat="29.009718" lon="104.773728"><ele>354.39703</ele><time>2026-07-03T16:49:20.000Z</time></trkpt>
        <trkpt lat="29.009737" lon="104.773727"><ele>354.65286</ele><time>2026-07-03T16:49:23.000Z</time></trkpt>
        <trkpt lat="29.009757" lon="104.773725"><ele>354.98224</ele><time>2026-07-03T16:49:25.000Z</time></trkpt>
        <trkpt lat="29.009777" lon="104.773722"><ele>355.1131</ele><time>2026-07-03T16:49:27.000Z</time></trkpt>
        <trkpt lat="29.009795" lon="104.773719"><ele>355.1273</ele><time>2026-07-03T16:49:29.000Z</time></trkpt>
        <trkpt lat="29.009812" lon="104.773716"><ele>355.2363</ele><time>2026-07-03T16:49:31.000Z</time></trkpt>
        <trkpt lat="29.009827" lon="104.773714"><ele>355.3897</ele><time>2026-07-03T16:49:33.000Z</time></trkpt>
        <trkpt lat="29.009842" lon="104.773713"><ele>355.5886</ele><time>2026-07-03T16:49:35.000Z</time></trkpt>
        <trkpt lat="29.009858" lon="104.773713"><ele>355.65857</ele><time>2026-07-03T16:49:37.000Z</time></trkpt>
        <trkpt lat="29.009876" lon="104.773714"><ele>355.6945</ele><time>2026-07-03T16:49:39.000Z</time></trkpt>
        <trkpt lat="29.009894" lon="104.773719"><ele>355.9192</ele><time>2026-07-03T16:49:41.000Z</time></trkpt>
        <trkpt lat="29.00991" lon="104.773724"><ele>355.9641</ele><time>2026-07-03T16:49:43.000Z</time></trkpt>
        <trkpt lat="29.009926" lon="104.773731"><ele>355.99063</ele><time>2026-07-03T16:49:45.000Z</time></trkpt>
        <trkpt lat="29.009943" lon="104.773738"><ele>356.1013</ele><time>2026-07-03T16:49:47.000Z</time></trkpt>
        <trkpt lat="29.009962" lon="104.773741"><ele>356.30432</ele><time>2026-07-03T16:49:49.000Z</time></trkpt>
        <trkpt lat="29.009979" lon="104.773745"><ele>356.64417</ele><time>2026-07-03T16:49:51.000Z</time></trkpt>
        <trkpt lat="29.009995" lon="104.773748"><ele>356.71097</ele><time>2026-07-03T16:49:53.000Z</time></trkpt>
        <trkpt lat="29.010011" lon="104.773751"><ele>356.71097</ele><time>2026-07-03T16:49:55.000Z</time></trkpt>
        <trkpt lat="29.010024" lon="104.773753"><ele>356.71097</ele><time>2026-07-03T16:49:57.000Z</time></trkpt>
        <trkpt lat="29.010036" lon="104.773756"><ele>356.61996</ele><time>2026-07-03T16:49:59.000Z</time></trkpt>
        <trkpt lat="29.01005" lon="104.77376"><ele>356.61996</ele><time>2026-07-03T16:50:01.000Z</time></trkpt>
        <trkpt lat="29.010064" lon="104.773765"><ele>356.61996</ele><time>2026-07-03T16:50:03.000Z</time></trkpt>
        <trkpt lat="29.010076" lon="104.773767"><ele>356.61996</ele><time>2026-07-03T16:50:04.000Z</time></trkpt>
        <trkpt lat="29.010087" lon="104.77377"><ele>356.61996</ele><time>2026-07-03T16:50:06.000Z</time></trkpt>
        <trkpt lat="29.010095" lon="104.773775"><ele>356.58728</ele><time>2026-07-03T16:50:08.000Z</time></trkpt>
        <trkpt lat="29.0101" lon="104.773781"><ele>356.49704</ele><time>2026-07-03T16:50:10.000Z</time></trkpt>
        <trkpt lat="29.010109" lon="104.773793"><ele>356.34546</ele><time>2026-07-03T16:50:14.000Z</time></trkpt>
        <trkpt lat="29.010135" lon="104.773827"><ele>356.0268</ele><time>2026-07-03T16:50:20.000Z</time></trkpt>
        <trkpt lat="29.010135" lon="104.773827"><ele>354.8648</ele><time>2026-07-03T16:50:22.000Z</time></trkpt>
        <trkpt lat="29.010141" lon="104.773823"><ele>353.71472</ele><time>2026-07-03T16:50:24.000Z</time></trkpt>
        <trkpt lat="29.01016" lon="104.773813"><ele>353.70758</ele><time>2026-07-03T16:50:26.000Z</time></trkpt>
        <trkpt lat="29.01019" lon="104.773802"><ele>353.59683</ele><time>2026-07-03T16:50:28.000Z</time></trkpt>
        <trkpt lat="29.01022" lon="104.773797"><ele>353.42734</ele><time>2026-07-03T16:50:30.000Z</time></trkpt>
        <trkpt lat="29.010246" lon="104.7738"><ele>352.95972</ele><time>2026-07-03T16:50:32.000Z</time></trkpt>
        <trkpt lat="29.010269" lon="104.773807"><ele>352.6072</ele><time>2026-07-03T16:50:34.000Z</time></trkpt>
        <trkpt lat="29.010291" lon="104.773814"><ele>352.3134</ele><time>2026-07-03T16:50:36.000Z</time></trkpt>
        <trkpt lat="29.01031" lon="104.773817"><ele>351.51038</ele><time>2026-07-03T16:50:38.000Z</time></trkpt>
        <trkpt lat="29.010326" lon="104.773816"><ele>351.14743</ele><time>2026-07-03T16:50:40.000Z</time></trkpt>
        <trkpt lat="29.010342" lon="104.773813"><ele>350.661</ele><time>2026-07-03T16:50:42.000Z</time></trkpt>
        <trkpt lat="29.010359" lon="104.773811"><ele>350.661</ele><time>2026-07-03T16:50:44.000Z</time></trkpt>
        <trkpt lat="29.010377" lon="104.773809"><ele>350.661</ele><time>2026-07-03T16:50:46.000Z</time></trkpt>
        <trkpt lat="29.010396" lon="104.773809"><ele>350.57123</ele><time>2026-07-03T16:50:48.000Z</time></trkpt>
        <trkpt lat="29.010421" lon="104.77381"><ele>350.57123</ele><time>2026-07-03T16:50:50.000Z</time></trkpt>
        <trkpt lat="29.01044" lon="104.773812"><ele>350.57123</ele><time>2026-07-03T16:50:52.000Z</time></trkpt>
        <trkpt lat="29.010457" lon="104.773816"><ele>350.02252</ele><time>2026-07-03T16:50:54.000Z</time></trkpt>
        <trkpt lat="29.010473" lon="104.773821"><ele>349.56396</ele><time>2026-07-03T16:50:56.000Z</time></trkpt>
        <trkpt lat="29.010491" lon="104.773825"><ele>349.15015</ele><time>2026-07-03T16:50:58.000Z</time></trkpt>
        <trkpt lat="29.010509" lon="104.773827"><ele>348.653</ele><time>2026-07-03T16:51:00.000Z</time></trkpt>
        <trkpt lat="29.010523" lon="104.773828"><ele>348.39502</ele><time>2026-07-03T16:51:02.000Z</time></trkpt>
        <trkpt lat="29.010535" lon="104.773827"><ele>348.39502</ele><time>2026-07-03T16:51:04.000Z</time></trkpt>
        <trkpt lat="29.010542" lon="104.773825"><ele>348.39502</ele><time>2026-07-03T16:51:06.000Z</time></trkpt>
        <trkpt lat="29.010556" lon="104.773823"><ele>348.60983</ele><time>2026-07-03T16:51:10.000Z</time></trkpt>
        <trkpt lat="29.010567" lon="104.773822"><ele>348.90417</ele><time>2026-07-03T16:51:12.000Z</time></trkpt>
        <trkpt lat="29.010576" lon="104.773823"><ele>348.90417</ele><time>2026-07-03T16:51:14.000Z</time></trkpt>
        <trkpt lat="29.010587" lon="104.773825"><ele>349.00803</ele><time>2026-07-03T16:51:18.000Z</time></trkpt>
        <trkpt lat="29.010596" lon="104.773828"><ele>348.90417</ele><time>2026-07-03T16:51:20.000Z</time></trkpt>
        <trkpt lat="29.010602" lon="104.773828"><ele>348.82755</ele><time>2026-07-03T16:51:22.000Z</time></trkpt>
        <trkpt lat="29.010626" lon="104.773827"><ele>348.7437</ele><time>2026-07-03T16:51:26.000Z</time></trkpt>
        <trkpt lat="29.010638" lon="104.773826"><ele>348.33142</ele><time>2026-07-03T16:51:29.000Z</time></trkpt>
        <trkpt lat="29.010655" lon="104.773826"><ele>347.6859</ele><time>2026-07-03T16:51:31.000Z</time></trkpt>
        <trkpt lat="29.010669" lon="104.773825"><ele>347.67297</ele><time>2026-07-03T16:51:33.000Z</time></trkpt>
        <trkpt lat="29.010682" lon="104.773823"><ele>347.67297</ele><time>2026-07-03T16:51:35.000Z</time></trkpt>
        <trkpt lat="29.010704" lon="104.773822"><ele>347.67297</ele><time>2026-07-03T16:51:37.000Z</time></trkpt>
        <trkpt lat="29.010729" lon="104.773825"><ele>347.99368</ele><time>2026-07-03T16:51:39.000Z</time></trkpt>
        <trkpt lat="29.010751" lon="104.773831"><ele>348.2482</ele><time>2026-07-03T16:51:41.000Z</time></trkpt>
        <trkpt lat="29.010762" lon="104.773838"><ele>348.6144</ele><time>2026-07-03T16:51:43.000Z</time></trkpt>
        <trkpt lat="29.010774" lon="104.77385"><ele>348.61795</ele><time>2026-07-03T16:51:45.000Z</time></trkpt>
        <trkpt lat="29.010785" lon="104.773866"><ele>348.61795</ele><time>2026-07-03T16:51:47.000Z</time></trkpt>
        <trkpt lat="29.010793" lon="104.773883"><ele>348.61795</ele><time>2026-07-03T16:51:49.000Z</time></trkpt>
        <trkpt lat="29.010802" lon="104.773905"><ele>348.38098</ele><time>2026-07-03T16:51:51.000Z</time></trkpt>
        <trkpt lat="29.010812" lon="104.773926"><ele>347.81052</ele><time>2026-07-03T16:51:53.000Z</time></trkpt>
        <trkpt lat="29.010818" lon="104.77394"><ele>347.4959</ele><time>2026-07-03T16:51:55.000Z</time></trkpt>
        <trkpt lat="29.010824" lon="104.77396"><ele>347.3753</ele><time>2026-07-03T16:51:57.000Z</time></trkpt>
        <trkpt lat="29.010828" lon="104.773985"><ele>347.05664</ele><time>2026-07-03T16:51:59.000Z</time></trkpt>
        <trkpt lat="29.01083" lon="104.774009"><ele>346.6532</ele><time>2026-07-03T16:52:01.000Z</time></trkpt>
        <trkpt lat="29.01083" lon="104.774023"><ele>346.4239</ele><time>2026-07-03T16:52:03.000Z</time></trkpt>
        <trkpt lat="29.010833" lon="104.774026"><ele>346.1179</ele><time>2026-07-03T16:52:05.000Z</time></trkpt>
        <trkpt lat="29.010854" lon="104.774041"><ele>345.809</ele><time>2026-07-03T16:52:09.000Z</time></trkpt>
        <trkpt lat="29.010863" lon="104.774046"><ele>345.37604</ele><time>2026-07-03T16:52:11.000Z</time></trkpt>
        <trkpt lat="29.010876" lon="104.774053"><ele>345.0211</ele><time>2026-07-03T16:52:13.000Z</time></trkpt>
        <trkpt lat="29.010889" lon="104.774061"><ele>344.83038</ele><time>2026-07-03T16:52:15.000Z</time></trkpt>
        <trkpt lat="29.010901" lon="104.77407"><ele>344.68793</ele><time>2026-07-03T16:52:16.000Z</time></trkpt>
        <trkpt lat="29.010912" lon="104.77408"><ele>344.41904</ele><time>2026-07-03T16:52:18.000Z</time></trkpt>
        <trkpt lat="29.010923" lon="104.774092"><ele>344.0285</ele><time>2026-07-03T16:52:20.000Z</time></trkpt>
        <trkpt lat="29.010934" lon="104.774103"><ele>343.55212</ele><time>2026-07-03T16:52:22.000Z</time></trkpt>
        <trkpt lat="29.01095" lon="104.774122"><ele>343.17133</ele><time>2026-07-03T16:52:24.000Z</time></trkpt>
        <trkpt lat="29.010964" lon="104.77414"><ele>342.91077</ele><time>2026-07-03T16:52:26.000Z</time></trkpt>
        <trkpt lat="29.010973" lon="104.774156"><ele>342.4961</ele><time>2026-07-03T16:52:28.000Z</time></trkpt>
        <trkpt lat="29.010981" lon="104.774177"><ele>342.4961</ele><time>2026-07-03T16:52:30.000Z</time></trkpt>
        <trkpt lat="29.010986" lon="104.774197"><ele>342.4961</ele><time>2026-07-03T16:52:32.000Z</time></trkpt>
        <trkpt lat="29.010989" lon="104.774211"><ele>342.55783</ele><time>2026-07-03T16:52:34.000Z</time></trkpt>
        <trkpt lat="29.010992" lon="104.774212"><ele>342.55783</ele><time>2026-07-03T16:52:36.000Z</time></trkpt>
        <trkpt lat="29.011052" lon="104.774213"><ele>342.55783</ele><time>2026-07-03T16:54:03.000Z</time></trkpt>
        <trkpt lat="29.011052" lon="104.774213"><ele>342.54614</ele><time>2026-07-03T16:54:05.000Z</time></trkpt>
        <trkpt lat="29.011056" lon="104.774217"><ele>342.08078</ele><time>2026-07-03T16:54:07.000Z</time></trkpt>
        <trkpt lat="29.011118" lon="104.774264"><ele>342.07422</ele><time>2026-07-03T16:54:14.000Z</time></trkpt>
        <trkpt lat="29.011128" lon="104.774269"><ele>342.0116</ele><time>2026-07-03T16:54:16.000Z</time></trkpt>
        <trkpt lat="29.011147" lon="104.774282"><ele>340.65158</ele><time>2026-07-03T16:54:18.000Z</time></trkpt>
        <trkpt lat="29.011177" lon="104.774305"><ele>340.3316</ele><time>2026-07-03T16:54:22.000Z</time></trkpt>
        <trkpt lat="29.011179" lon="104.774308"><ele>340.06924</ele><time>2026-07-03T16:54:24.000Z</time></trkpt>
        <trkpt lat="29.011195" lon="104.774316"><ele>339.52664</ele><time>2026-07-03T16:54:27.000Z</time></trkpt>
        <trkpt lat="29.011233" lon="104.774325"><ele>339.32373</ele><time>2026-07-03T16:54:31.000Z</time></trkpt>
        <trkpt lat="29.011248" lon="104.774322"><ele>339.16223</ele><time>2026-07-03T16:54:33.000Z</time></trkpt>
        <trkpt lat="29.011271" lon="104.774313"><ele>339.05682</ele><time>2026-07-03T16:54:35.000Z</time></trkpt>
        <trkpt lat="29.011294" lon="104.774298"><ele>339.01608</ele><time>2026-07-03T16:54:37.000Z</time></trkpt>
        <trkpt lat="29.011318" lon="104.774279"><ele>339.01608</ele><time>2026-07-03T16:54:39.000Z</time></trkpt>
        <trkpt lat="29.011342" lon="104.774257"><ele>339.05682</ele><time>2026-07-03T16:54:41.000Z</time></trkpt>
        <trkpt lat="29.011363" lon="104.774238"><ele>339.13327</ele><time>2026-07-03T16:54:43.000Z</time></trkpt>
        <trkpt lat="29.011382" lon="104.774221"><ele>339.13327</ele><time>2026-07-03T16:54:45.000Z</time></trkpt>
        <trkpt lat="29.011398" lon="104.774205"><ele>339.16687</ele><time>2026-07-03T16:54:47.000Z</time></trkpt>
        <trkpt lat="29.011414" lon="104.774192"><ele>339.2314</ele><time>2026-07-03T16:54:49.000Z</time></trkpt>
        <trkpt lat="29.011427" lon="104.774184"><ele>339.4203</ele><time>2026-07-03T16:54:51.000Z</time></trkpt>
        <trkpt lat="29.011446" lon="104.774173"><ele>339.7308</ele><time>2026-07-03T16:54:53.000Z</time></trkpt>
        <trkpt lat="29.011465" lon="104.774165"><ele>339.7308</ele><time>2026-07-03T16:54:55.000Z</time></trkpt>
        <trkpt lat="29.011487" lon="104.774155"><ele>339.77707</ele><time>2026-07-03T16:54:57.000Z</time></trkpt>
        <trkpt lat="29.01151" lon="104.774145"><ele>339.77707</ele><time>2026-07-03T16:54:59.000Z</time></trkpt>
        <trkpt lat="29.011531" lon="104.774137"><ele>339.74527</ele><time>2026-07-03T16:55:01.000Z</time></trkpt>
        <trkpt lat="29.011553" lon="104.774129"><ele>339.81122</ele><time>2026-07-03T16:55:03.000Z</time></trkpt>
        <trkpt lat="29.011572" lon="104.77412"><ele>339.81122</ele><time>2026-07-03T16:55:05.000Z</time></trkpt>
        <trkpt lat="29.011588" lon="104.774112"><ele>339.7581</ele><time>2026-07-03T16:55:07.000Z</time></trkpt>
        <trkpt lat="29.011601" lon="104.774106"><ele>339.74527</ele><time>2026-07-03T16:55:09.000Z</time></trkpt>
        <trkpt lat="29.011615" lon="104.774096"><ele>339.47076</ele><time>2026-07-03T16:55:11.000Z</time></trkpt>
        <trkpt lat="29.011632" lon="104.774084"><ele>338.95615</ele><time>2026-07-03T16:55:13.000Z</time></trkpt>
        <trkpt lat="29.011649" lon="104.774077"><ele>338.79755</ele><time>2026-07-03T16:55:15.000Z</time></trkpt>
        <trkpt lat="29.011669" lon="104.774072"><ele>338.79755</ele><time>2026-07-03T16:55:17.000Z</time></trkpt>
        <trkpt lat="29.011685" lon="104.774069"><ele>338.79755</ele><time>2026-07-03T16:55:19.000Z</time></trkpt>
        <trkpt lat="29.011699" lon="104.774065"><ele>339.224</ele><time>2026-07-03T16:55:21.000Z</time></trkpt>
        <trkpt lat="29.011718" lon="104.774057"><ele>339.5694</ele><time>2026-07-03T16:55:23.000Z</time></trkpt>
        <trkpt lat="29.011739" lon="104.774044"><ele>339.5694</ele><time>2026-07-03T16:55:25.000Z</time></trkpt>
        <trkpt lat="29.01176" lon="104.774029"><ele>339.5694</ele><time>2026-07-03T16:55:27.000Z</time></trkpt>
        <trkpt lat="29.01178" lon="104.774011"><ele>339.43924</ele><time>2026-07-03T16:55:29.000Z</time></trkpt>
        <trkpt lat="29.011798" lon="104.773991"><ele>339.37805</ele><time>2026-07-03T16:55:31.000Z</time></trkpt>
        <trkpt lat="29.011811" lon="104.773975"><ele>339.2435</ele><time>2026-07-03T16:55:33.000Z</time></trkpt>
        <trkpt lat="29.011824" lon="104.77396"><ele>339.0588</ele><time>2026-07-03T16:55:35.000Z</time></trkpt>
        <trkpt lat="29.011836" lon="104.773944"><ele>339.0588</ele><time>2026-07-03T16:55:37.000Z</time></trkpt>
        <trkpt lat="29.011852" lon="104.773923"><ele>339.0588</ele><time>2026-07-03T16:55:39.000Z</time></trkpt>
        <trkpt lat="29.011867" lon="104.773904"><ele>339.07745</ele><time>2026-07-03T16:55:42.000Z</time></trkpt>
        <trkpt lat="29.011876" lon="104.773893"><ele>339.07745</ele><time>2026-07-03T16:55:44.000Z</time></trkpt>
        <trkpt lat="29.011887" lon="104.77388"><ele>339.07745</ele><time>2026-07-03T16:55:46.000Z</time></trkpt>
        <trkpt lat="29.011899" lon="104.773868"><ele>338.9835</ele><time>2026-07-03T16:55:48.000Z</time></trkpt>
        <trkpt lat="29.011913" lon="104.77386"><ele>338.81943</ele><time>2026-07-03T16:55:50.000Z</time></trkpt>
        <trkpt lat="29.01193" lon="104.773849"><ele>338.40958</ele><time>2026-07-03T16:55:52.000Z</time></trkpt>
        <trkpt lat="29.011949" lon="104.773836"><ele>338.00723</ele><time>2026-07-03T16:55:54.000Z</time></trkpt>
        <trkpt lat="29.011968" lon="104.773819"><ele>337.49826</ele><time>2026-07-03T16:55:56.000Z</time></trkpt>
        <trkpt lat="29.011987" lon="104.773799"><ele>337.13483</ele><time>2026-07-03T16:55:58.000Z</time></trkpt>
        <trkpt lat="29.012007" lon="104.773779"><ele>337.07098</ele><time>2026-07-03T16:56:00.000Z</time></trkpt>
        <trkpt lat="29.012024" lon="104.773762"><ele>337.05048</ele><time>2026-07-03T16:56:02.000Z</time></trkpt>
        <trkpt lat="29.012036" lon="104.773747"><ele>337.04605</ele><time>2026-07-03T16:56:04.000Z</time></trkpt>
        <trkpt lat="29.012049" lon="104.77373"><ele>336.91745</ele><time>2026-07-03T16:56:06.000Z</time></trkpt>
        <trkpt lat="29.012064" lon="104.773712"><ele>336.52502</ele><time>2026-07-03T16:56:08.000Z</time></trkpt>
        <trkpt lat="29.012079" lon="104.773693"><ele>336.34607</ele><time>2026-07-03T16:56:10.000Z</time></trkpt>
        <trkpt lat="29.012095" lon="104.773673"><ele>336.3104</ele><time>2026-07-03T16:56:12.000Z</time></trkpt>
        <trkpt lat="29.012109" lon="104.773658"><ele>336.12378</ele><time>2026-07-03T16:56:14.000Z</time></trkpt>
        <trkpt lat="29.012127" lon="104.773643"><ele>335.71356</ele><time>2026-07-03T16:56:16.000Z</time></trkpt>
        <trkpt lat="29.012141" lon="104.773634"><ele>335.2006</ele><time>2026-07-03T16:56:18.000Z</time></trkpt>
        <trkpt lat="29.012157" lon="104.773628"><ele>334.72104</ele><time>2026-07-03T16:56:20.000Z</time></trkpt>
        <trkpt lat="29.012182" lon="104.77362"><ele>333.91437</ele><time>2026-07-03T16:56:22.000Z</time></trkpt>
        <trkpt lat="29.012209" lon="104.773614"><ele>333.32224</ele><time>2026-07-03T16:56:24.000Z</time></trkpt>
        <trkpt lat="29.012234" lon="104.773611"><ele>332.26855</ele><time>2026-07-03T16:56:26.000Z</time></trkpt>
        <trkpt lat="29.01226" lon="104.773612"><ele>331.3321</ele><time>2026-07-03T16:56:28.000Z</time></trkpt>
        <trkpt lat="29.012287" lon="104.773614"><ele>330.39468</ele><time>2026-07-03T16:56:30.000Z</time></trkpt>
        <trkpt lat="29.012312" lon="104.773612"><ele>329.7383</ele><time>2026-07-03T16:56:32.000Z</time></trkpt>
        <trkpt lat="29.012332" lon="104.773609"><ele>329.29828</ele><time>2026-07-03T16:56:34.000Z</time></trkpt>
        <trkpt lat="29.012347" lon="104.773606"><ele>329.05286</ele><time>2026-07-03T16:56:36.000Z</time></trkpt>
        <trkpt lat="29.012357" lon="104.773601"><ele>328.792</ele><time>2026-07-03T16:56:37.000Z</time></trkpt>
        <trkpt lat="29.012364" lon="104.773596"><ele>328.35025</ele><time>2026-07-03T16:56:39.000Z</time></trkpt>
        <trkpt lat="29.01238" lon="104.773582"><ele>327.80804</ele><time>2026-07-03T16:56:43.000Z</time></trkpt>
        <trkpt lat="29.01239" lon="104.773571"><ele>327.59833</ele><time>2026-07-03T16:56:45.000Z</time></trkpt>
        <trkpt lat="29.012403" lon="104.773561"><ele>327.37396</ele><time>2026-07-03T16:56:47.000Z</time></trkpt>
        <trkpt lat="29.012413" lon="104.77356"><ele>326.95944</ele><time>2026-07-03T16:56:49.000Z</time></trkpt>
        <trkpt lat="29.012424" lon="104.773563"><ele>326.3359</ele><time>2026-07-03T16:56:51.000Z</time></trkpt>
        <trkpt lat="29.012437" lon="104.77357"><ele>326.1577</ele><time>2026-07-03T16:56:53.000Z</time></trkpt>
        <trkpt lat="29.012447" lon="104.77358"><ele>326.1577</ele><time>2026-07-03T16:56:55.000Z</time></trkpt>
        <trkpt lat="29.012454" lon="104.773591"><ele>326.1577</ele><time>2026-07-03T16:56:57.000Z</time></trkpt>
        <trkpt lat="29.012461" lon="104.773596"><ele>326.24844</ele><time>2026-07-03T16:56:59.000Z</time></trkpt>
        <trkpt lat="29.012479" lon="104.773612"><ele>326.24844</ele><time>2026-07-03T16:57:06.000Z</time></trkpt>
        <trkpt lat="29.012512" lon="104.773641"><ele>326.24844</ele><time>2026-07-03T16:57:50.000Z</time></trkpt>
        <trkpt lat="29.012512" lon="104.773641"><ele>325.48755</ele><time>2026-07-03T16:57:52.000Z</time></trkpt>
        <trkpt lat="29.012543" lon="104.773664"><ele>325.48755</ele><time>2026-07-03T16:57:54.000Z</time></trkpt>
        <trkpt lat="29.012584" lon="104.773696"><ele>325.48755</ele><time>2026-07-03T16:58:02.000Z</time></trkpt>
        <trkpt lat="29.012599" lon="104.773708"><ele>326.9915</ele><time>2026-07-03T16:58:04.000Z</time></trkpt>
        <trkpt lat="29.012611" lon="104.77372"><ele>327.00552</ele><time>2026-07-03T16:58:06.000Z</time></trkpt>
        <trkpt lat="29.012637" lon="104.773748"><ele>327.00552</ele><time>2026-07-03T16:58:12.000Z</time></trkpt>
        <trkpt lat="29.012649" lon="104.773759"><ele>326.9915</ele><time>2026-07-03T16:58:14.000Z</time></trkpt>
        <trkpt lat="29.012663" lon="104.77377"><ele>326.75995</ele><time>2026-07-03T16:58:16.000Z</time></trkpt>
        <trkpt lat="29.012695" lon="104.773795"><ele>326.47458</ele><time>2026-07-03T16:58:20.000Z</time></trkpt>
        <trkpt lat="29.01271" lon="104.77381"><ele>326.1092</ele><time>2026-07-03T16:58:22.000Z</time></trkpt>
        <trkpt lat="29.012723" lon="104.773823"><ele>325.80737</ele><time>2026-07-03T16:58:24.000Z</time></trkpt>
        <trkpt lat="29.01274" lon="104.773838"><ele>325.75204</ele><time>2026-07-03T16:58:26.000Z</time></trkpt>
        <trkpt lat="29.012756" lon="104.773851"><ele>325.7439</ele><time>2026-07-03T16:58:28.000Z</time></trkpt>
        <trkpt lat="29.012772" lon="104.773867"><ele>325.693</ele><time>2026-07-03T16:58:30.000Z</time></trkpt>
        <trkpt lat="29.012784" lon="104.773881"><ele>325.693</ele><time>2026-07-03T16:58:32.000Z</time></trkpt>
        <trkpt lat="29.012798" lon="104.7739"><ele>325.693</ele><time>2026-07-03T16:58:34.000Z</time></trkpt>
        <trkpt lat="29.012812" lon="104.773924"><ele>325.3496</ele><time>2026-07-03T16:58:35.000Z</time></trkpt>
        <trkpt lat="29.012824" lon="104.77395"><ele>325.3496</ele><time>2026-07-03T16:58:37.000Z</time></trkpt>
        <trkpt lat="29.012827" lon="104.773967"><ele>325.3496</ele><time>2026-07-03T16:58:39.000Z</time></trkpt>
        <trkpt lat="29.01283" lon="104.773992"><ele>325.41302</ele><time>2026-07-03T16:58:41.000Z</time></trkpt>
        <trkpt lat="29.012833" lon="104.774025"><ele>325.59607</ele><time>2026-07-03T16:58:43.000Z</time></trkpt>
        <trkpt lat="29.012834" lon="104.774056"><ele>326.6755</ele><time>2026-07-03T16:58:45.000Z</time></trkpt>
        <trkpt lat="29.012834" lon="104.774086"><ele>327.95218</ele><time>2026-07-03T16:58:47.000Z</time></trkpt>
        <trkpt lat="29.012835" lon="104.774114"><ele>328.05258</ele><time>2026-07-03T16:58:49.000Z</time></trkpt>
        <trkpt lat="29.012833" lon="104.77414"><ele>328.23978</ele><time>2026-07-03T16:58:51.000Z</time></trkpt>
        <trkpt lat="29.012827" lon="104.774161"><ele>328.42517</ele><time>2026-07-03T16:58:53.000Z</time></trkpt>
        <trkpt lat="29.012829" lon="104.774163"><ele>328.75208</ele><time>2026-07-03T16:58:55.000Z</time></trkpt>
        <trkpt lat="29.012796" lon="104.774125"><ele>329.11606</ele><time>2026-07-03T16:58:59.000Z</time></trkpt>
        <trkpt lat="29.012778" lon="104.774102"><ele>329.2614</ele><time>2026-07-03T16:59:01.000Z</time></trkpt>
        <trkpt lat="29.012764" lon="104.774086"><ele>329.2614</ele><time>2026-07-03T16:59:03.000Z</time></trkpt>
        <trkpt lat="29.012753" lon="104.774075"><ele>329.2614</ele><time>2026-07-03T16:59:05.000Z</time></trkpt>
        <trkpt lat="29.012752" lon="104.774074"><ele>328.8293</ele><time>2026-07-03T16:59:07.000Z</time></trkpt>
        <trkpt lat="29.0128" lon="104.774128"><ele>328.73303</ele><time>2026-07-03T16:59:23.000Z</time></trkpt>
        <trkpt lat="29.012811" lon="104.774181"><ele>328.6655</ele><time>2026-07-03T16:59:27.000Z</time></trkpt>
        <trkpt lat="29.012811" lon="104.774181"><ele>328.6655</ele><time>2026-07-03T16:59:29.000Z</time></trkpt>
        <trkpt lat="29.012812" lon="104.774185"><ele>328.6655</ele><time>2026-07-03T16:59:31.000Z</time></trkpt>
        <trkpt lat="29.012829" lon="104.774218"><ele>328.69104</ele><time>2026-07-03T16:59:35.000Z</time></trkpt>
        <trkpt lat="29.01284" lon="104.774243"><ele>328.69104</ele><time>2026-07-03T16:59:37.000Z</time></trkpt>
        <trkpt lat="29.012846" lon="104.77426"><ele>329.0401</ele><time>2026-07-03T16:59:39.000Z</time></trkpt>
        <trkpt lat="29.012846" lon="104.774269"><ele>329.1279</ele><time>2026-07-03T16:59:41.000Z</time></trkpt>
        <trkpt lat="29.012847" lon="104.774295"><ele>329.46005</ele><time>2026-07-03T16:59:48.000Z</time></trkpt>
        <trkpt lat="29.012848" lon="104.774312"><ele>329.8958</ele><time>2026-07-03T16:59:55.000Z</time></trkpt>
        <trkpt lat="29.012852" lon="104.774337"><ele>330.0129</ele><time>2026-07-03T16:59:57.000Z</time></trkpt>
        <trkpt lat="29.01286" lon="104.774365"><ele>330.2416</ele><time>2026-07-03T16:59:59.000Z</time></trkpt>
        <trkpt lat="29.012874" lon="104.774393"><ele>330.2905</ele><time>2026-07-03T17:00:01.000Z</time></trkpt>
        <trkpt lat="29.01289" lon="104.77442"><ele>330.38742</ele><time>2026-07-03T17:00:03.000Z</time></trkpt>
        <trkpt lat="29.0129" lon="104.77444"><ele>330.541</ele><time>2026-07-03T17:00:05.000Z</time></trkpt>
        <trkpt lat="29.012904" lon="104.774455"><ele>330.95776</ele><time>2026-07-03T17:00:07.000Z</time></trkpt>
        <trkpt lat="29.012903" lon="104.774462"><ele>331.235</ele><time>2026-07-03T17:00:09.000Z</time></trkpt>
        <trkpt lat="29.012902" lon="104.7745"><ele>331.4393</ele><time>2026-07-03T17:00:13.000Z</time></trkpt>
        <trkpt lat="29.012904" lon="104.774521"><ele>331.4393</ele><time>2026-07-03T17:00:15.000Z</time></trkpt>
        <trkpt lat="29.01291" lon="104.774551"><ele>331.4393</ele><time>2026-07-03T17:00:17.000Z</time></trkpt>
        <trkpt lat="29.012915" lon="104.774581"><ele>331.12744</ele><time>2026-07-03T17:00:19.000Z</time></trkpt>
        <trkpt lat="29.012917" lon="104.774597"><ele>331.12744</ele><time>2026-07-03T17:00:21.000Z</time></trkpt>
        <trkpt lat="29.012919" lon="104.774603"><ele>331.12744</ele><time>2026-07-03T17:00:23.000Z</time></trkpt>
        <trkpt lat="29.012931" lon="104.774648"><ele>331.12744</ele><time>2026-07-03T17:00:32.000Z</time></trkpt>
        <trkpt lat="29.012935" lon="104.774656"><ele>331.12744</ele><time>2026-07-03T17:00:36.000Z</time></trkpt>
        <trkpt lat="29.012947" lon="104.77468"><ele>330.80457</ele><time>2026-07-03T17:00:38.000Z</time></trkpt>
        <trkpt lat="29.012965" lon="104.774712"><ele>330.671</ele><time>2026-07-03T17:00:40.000Z</time></trkpt>
        <trkpt lat="29.012984" lon="104.774739"><ele>330.27765</ele><time>2026-07-03T17:00:42.000Z</time></trkpt>
        <trkpt lat="29.013001" lon="104.774761"><ele>330.0335</ele><time>2026-07-03T17:00:44.000Z</time></trkpt>
        <trkpt lat="29.013014" lon="104.774777"><ele>329.8633</ele><time>2026-07-03T17:00:45.000Z</time></trkpt>
        <trkpt lat="29.013019" lon="104.774784"><ele>329.86008</ele><time>2026-07-03T17:00:47.000Z</time></trkpt>
        <trkpt lat="29.013038" lon="104.774811"><ele>329.6713</ele><time>2026-07-03T17:00:53.000Z</time></trkpt>
        <trkpt lat="29.013052" lon="104.774827"><ele>329.6493</ele><time>2026-07-03T17:00:55.000Z</time></trkpt>
        <trkpt lat="29.013069" lon="104.774845"><ele>328.8583</ele><time>2026-07-03T17:00:57.000Z</time></trkpt>
        <trkpt lat="29.013088" lon="104.774861"><ele>328.29816</ele><time>2026-07-03T17:00:59.000Z</time></trkpt>
        <trkpt lat="29.013106" lon="104.774874"><ele>327.65863</ele><time>2026-07-03T17:01:01.000Z</time></trkpt>
        <trkpt lat="29.013125" lon="104.774887"><ele>327.37067</ele><time>2026-07-03T17:01:03.000Z</time></trkpt>
        <trkpt lat="29.01314" lon="104.774896"><ele>327.37067</ele><time>2026-07-03T17:01:05.000Z</time></trkpt>
        <trkpt lat="29.013159" lon="104.774908"><ele>327.37067</ele><time>2026-07-03T17:01:07.000Z</time></trkpt>
        <trkpt lat="29.013176" lon="104.774918"><ele>327.4229</ele><time>2026-07-03T17:01:09.000Z</time></trkpt>
        <trkpt lat="29.013184" lon="104.774926"><ele>327.65152</ele><time>2026-07-03T17:01:11.000Z</time></trkpt>
        <trkpt lat="29.013209" lon="104.774952"><ele>328.00385</ele><time>2026-07-03T17:01:21.000Z</time></trkpt>
        <trkpt lat="29.013213" lon="104.774958"><ele>328.4758</ele><time>2026-07-03T17:01:25.000Z</time></trkpt>
        <trkpt lat="29.013225" lon="104.774979"><ele>329.32028</ele><time>2026-07-03T17:01:27.000Z</time></trkpt>
        <trkpt lat="29.013245" lon="104.775011"><ele>329.32028</ele><time>2026-07-03T17:01:29.000Z</time></trkpt>
        <trkpt lat="29.013262" lon="104.775046"><ele>329.53854</ele><time>2026-07-03T17:01:31.000Z</time></trkpt>
        <trkpt lat="29.013272" lon="104.77508"><ele>329.53854</ele><time>2026-07-03T17:01:33.000Z</time></trkpt>
        <trkpt lat="29.013274" lon="104.775112"><ele>329.53854</ele><time>2026-07-03T17:01:35.000Z</time></trkpt>
        <trkpt lat="29.013268" lon="104.775138"><ele>330.34778</ele><time>2026-07-03T17:01:37.000Z</time></trkpt>
        <trkpt lat="29.013259" lon="104.77516"><ele>330.7861</ele><time>2026-07-03T17:01:39.000Z</time></trkpt>
        <trkpt lat="29.013254" lon="104.77516"><ele>331.1039</ele><time>2026-07-03T17:01:41.000Z</time></trkpt>
        <trkpt lat="29.013223" lon="104.775159"><ele>331.50433</ele><time>2026-07-03T17:01:47.000Z</time></trkpt>
        <trkpt lat="29.01322" lon="104.775164"><ele>331.60587</ele><time>2026-07-03T17:01:51.000Z</time></trkpt>
        <trkpt lat="29.013209" lon="104.775185"><ele>331.9271</ele><time>2026-07-03T17:01:53.000Z</time></trkpt>
        <trkpt lat="29.013177" lon="104.775241"><ele>332.02304</ele><time>2026-07-03T17:02:08.000Z</time></trkpt>
        <trkpt lat="29.013177" lon="104.775241"><ele>332.02304</ele><time>2026-07-03T17:02:10.000Z</time></trkpt>
        <trkpt lat="29.013175" lon="104.775244"><ele>332.02304</ele><time>2026-07-03T17:02:12.000Z</time></trkpt>
        <trkpt lat="29.013148" lon="104.775287"><ele>332.02304</ele><time>2026-07-03T17:02:31.000Z</time></trkpt>
        <trkpt lat="29.01314" lon="104.775306"><ele>332.02304</ele><time>2026-07-03T17:02:36.000Z</time></trkpt>
        <trkpt lat="29.013129" lon="104.775339"><ele>332.11948</ele><time>2026-07-03T17:02:38.000Z</time></trkpt>
        <trkpt lat="29.013118" lon="104.775374"><ele>332.1324</ele><time>2026-07-03T17:02:40.000Z</time></trkpt>
        <trkpt lat="29.013107" lon="104.775399"><ele>332.24506</ele><time>2026-07-03T17:02:41.000Z</time></trkpt>
        <trkpt lat="29.013095" lon="104.775413"><ele>332.40826</ele><time>2026-07-03T17:02:43.000Z</time></trkpt>
        <trkpt lat="29.013081" lon="104.775425"><ele>332.76874</ele><time>2026-07-03T17:02:45.000Z</time></trkpt>
        <trkpt lat="29.013067" lon="104.775443"><ele>333.21732</ele><time>2026-07-03T17:02:47.000Z</time></trkpt>
        <trkpt lat="29.013059" lon="104.775455"><ele>333.44586</ele><time>2026-07-03T17:02:49.000Z</time></trkpt>
        <trkpt lat="29.01305" lon="104.775457"><ele>333.7123</ele><time>2026-07-03T17:02:55.000Z</time></trkpt>
        <trkpt lat="29.013136" lon="104.775439"><ele>333.9308</ele><time>2026-07-03T17:03:03.000Z</time></trkpt>
        <trkpt lat="29.013136" lon="104.775439"><ele>334.15585</ele><time>2026-07-03T17:03:05.000Z</time></trkpt>
        <trkpt lat="29.013137" lon="104.775437"><ele>334.43454</ele><time>2026-07-03T17:03:07.000Z</time></trkpt>
        <trkpt lat="29.013167" lon="104.775366"><ele>334.43454</ele><time>2026-07-03T17:04:38.000Z</time></trkpt>
        <trkpt lat="29.013167" lon="104.775366"><ele>334.43454</ele><time>2026-07-03T17:04:40.000Z</time></trkpt>
        <trkpt lat="29.013209" lon="104.775389"><ele>334.43933</ele><time>2026-07-03T17:05:12.000Z</time></trkpt>
        <trkpt lat="29.013269" lon="104.775278"><ele>334.52603</ele><time>2026-07-03T17:05:59.000Z</time></trkpt>
        <trkpt lat="29.013234" lon="104.775283"><ele>334.65237</ele><time>2026-07-03T17:06:15.000Z</time></trkpt>
        <trkpt lat="29.013109" lon="104.775483"><ele>334.89066</ele><time>2026-07-03T17:08:32.000Z</time></trkpt>
        <trkpt lat="29.013062" lon="104.775559"><ele>335.2602</ele><time>2026-07-03T17:08:34.000Z</time></trkpt>
        <trkpt lat="29.013059" lon="104.775565"><ele>335.29068</ele><time>2026-07-03T17:08:36.000Z</time></trkpt>
        <trkpt lat="29.013047" lon="104.775598"><ele>335.8053</ele><time>2026-07-03T17:08:40.000Z</time></trkpt>
        <trkpt lat="29.013019" lon="104.775669"><ele>335.80615</ele><time>2026-07-03T17:08:44.000Z</time></trkpt>
        <trkpt lat="29.013006" lon="104.775691"><ele>336.0908</ele><time>2026-07-03T17:08:46.000Z</time></trkpt>
        <trkpt lat="29.012992" lon="104.775709"><ele>336.2594</ele><time>2026-07-03T17:08:48.000Z</time></trkpt>
        <trkpt lat="29.012945" lon="104.775767"><ele>336.3113</ele><time>2026-07-03T17:09:20.000Z</time></trkpt>
        <trkpt lat="29.012945" lon="104.775768"><ele>336.4238</ele><time>2026-07-03T17:09:22.000Z</time></trkpt>
        <trkpt lat="29.012946" lon="104.775774"><ele>338.27554</ele><time>2026-07-03T17:09:24.000Z</time></trkpt>
        <trkpt lat="29.01296" lon="104.775839"><ele>338.27554</ele><time>2026-07-03T17:09:28.000Z</time></trkpt>
        <trkpt lat="29.012974" lon="104.77587"><ele>338.27554</ele><time>2026-07-03T17:09:30.000Z</time></trkpt>
        <trkpt lat="29.013011" lon="104.775947"><ele>338.27554</ele><time>2026-07-03T17:09:33.000Z</time></trkpt>
        <trkpt lat="29.013011" lon="104.775947"><ele>338.27554</ele><time>2026-07-03T17:09:35.000Z</time></trkpt>
        <trkpt lat="29.013013" lon="104.775955"><ele>339.28287</ele><time>2026-07-03T17:09:37.000Z</time></trkpt>
        <trkpt lat="29.013026" lon="104.776033"><ele>339.28458</ele><time>2026-07-03T17:09:41.000Z</time></trkpt>
        <trkpt lat="29.013046" lon="104.776144"><ele>339.382</ele><time>2026-07-03T17:09:45.000Z</time></trkpt>
        <trkpt lat="29.013046" lon="104.776144"><ele>340.70706</ele><time>2026-07-03T17:09:47.000Z</time></trkpt>
        <trkpt lat="29.01305" lon="104.776157"><ele>341.98502</ele><time>2026-07-03T17:09:49.000Z</time></trkpt>
        <trkpt lat="29.013079" lon="104.776253"><ele>341.99878</ele><time>2026-07-03T17:09:53.000Z</time></trkpt>
        <trkpt lat="29.013092" lon="104.776293"><ele>342.0017</ele><time>2026-07-03T17:09:55.000Z</time></trkpt>
        <trkpt lat="29.013099" lon="104.776321"><ele>342.12183</ele><time>2026-07-03T17:09:57.000Z</time></trkpt>
        <trkpt lat="29.013105" lon="104.776339"><ele>342.20947</ele><time>2026-07-03T17:09:59.000Z</time></trkpt>
        <trkpt lat="29.01311" lon="104.776356"><ele>342.3205</ele><time>2026-07-03T17:10:01.000Z</time></trkpt>
        <trkpt lat="29.013116" lon="104.7764"><ele>342.3487</ele><time>2026-07-03T17:10:05.000Z</time></trkpt>
        <trkpt lat="29.013114" lon="104.776424"><ele>342.40598</ele><time>2026-07-03T17:10:07.000Z</time></trkpt>
        <trkpt lat="29.013113" lon="104.77645"><ele>342.40793</ele><time>2026-07-03T17:10:09.000Z</time></trkpt>
        <trkpt lat="29.013111" lon="104.776473"><ele>342.4625</ele><time>2026-07-03T17:10:11.000Z</time></trkpt>
        <trkpt lat="29.013109" lon="104.7765"><ele>342.53653</ele><time>2026-07-03T17:10:13.000Z</time></trkpt>
        <trkpt lat="29.013107" lon="104.776521"><ele>342.53653</ele><time>2026-07-03T17:10:15.000Z</time></trkpt>
        <trkpt lat="29.013108" lon="104.77654"><ele>342.53653</ele><time>2026-07-03T17:10:17.000Z</time></trkpt>
        <trkpt lat="29.013111" lon="104.776572"><ele>342.48624</ele><time>2026-07-03T17:10:21.000Z</time></trkpt>
        <trkpt lat="29.013117" lon="104.776594"><ele>342.32733</ele><time>2026-07-03T17:10:26.000Z</time></trkpt>
        <trkpt lat="29.013121" lon="104.776611"><ele>342.07965</ele><time>2026-07-03T17:10:28.000Z</time></trkpt>
        <trkpt lat="29.013132" lon="104.776656"><ele>341.65436</ele><time>2026-07-03T17:10:32.000Z</time></trkpt>
        <trkpt lat="29.013138" lon="104.776675"><ele>341.65436</ele><time>2026-07-03T17:10:34.000Z</time></trkpt>
        <trkpt lat="29.013145" lon="104.776698"><ele>341.65436</ele><time>2026-07-03T17:10:36.000Z</time></trkpt>
        <trkpt lat="29.01316" lon="104.776737"><ele>341.65594</ele><time>2026-07-03T17:10:40.000Z</time></trkpt>
        <trkpt lat="29.013167" lon="104.776757"><ele>341.65594</ele><time>2026-07-03T17:10:42.000Z</time></trkpt>
        <trkpt lat="29.013182" lon="104.77678"><ele>341.65594</ele><time>2026-07-03T17:10:44.000Z</time></trkpt>
        <trkpt lat="29.013199" lon="104.776797"><ele>341.6422</ele><time>2026-07-03T17:10:46.000Z</time></trkpt>
        <trkpt lat="29.013226" lon="104.77681"><ele>341.59616</ele><time>2026-07-03T17:10:48.000Z</time></trkpt>
        <trkpt lat="29.013249" lon="104.776816"><ele>341.40363</ele><time>2026-07-03T17:10:50.000Z</time></trkpt>
        <trkpt lat="29.013268" lon="104.77682"><ele>341.24197</ele><time>2026-07-03T17:10:52.000Z</time></trkpt>
        <trkpt lat="29.013285" lon="104.776823"><ele>341.18268</ele><time>2026-07-03T17:10:54.000Z</time></trkpt>
        <trkpt lat="29.013309" lon="104.776828"><ele>340.90875</ele><time>2026-07-03T17:10:56.000Z</time></trkpt>
        <trkpt lat="29.013334" lon="104.776834"><ele>340.3852</ele><time>2026-07-03T17:10:58.000Z</time></trkpt>
        <trkpt lat="29.013359" lon="104.776839"><ele>340.21683</ele><time>2026-07-03T17:11:00.000Z</time></trkpt>
        <trkpt lat="29.013366" lon="104.776841"><ele>340.1262</ele><time>2026-07-03T17:11:02.000Z</time></trkpt>
        <trkpt lat="29.013386" lon="104.776851"><ele>340.1144</ele><time>2026-07-03T17:11:06.000Z</time></trkpt>
        <trkpt lat="29.013408" lon="104.776865"><ele>339.92157</ele><time>2026-07-03T17:11:08.000Z</time></trkpt>
        <trkpt lat="29.013437" lon="104.776884"><ele>339.92157</ele><time>2026-07-03T17:11:10.000Z</time></trkpt>
        <trkpt lat="29.013464" lon="104.776903"><ele>339.7262</ele><time>2026-07-03T17:11:12.000Z</time></trkpt>
        <trkpt lat="29.013492" lon="104.776924"><ele>339.7262</ele><time>2026-07-03T17:11:14.000Z</time></trkpt>
        <trkpt lat="29.01352" lon="104.776947"><ele>339.73474</ele><time>2026-07-03T17:11:16.000Z</time></trkpt>
        <trkpt lat="29.013547" lon="104.776969"><ele>339.73474</ele><time>2026-07-03T17:11:18.000Z</time></trkpt>
        <trkpt lat="29.013572" lon="104.776989"><ele>339.71622</ele><time>2026-07-03T17:11:20.000Z</time></trkpt>
        <trkpt lat="29.013586" lon="104.777006"><ele>339.71622</ele><time>2026-07-03T17:11:22.000Z</time></trkpt>
        <trkpt lat="29.013597" lon="104.777027"><ele>339.51196</ele><time>2026-07-03T17:11:24.000Z</time></trkpt>
        <trkpt lat="29.013608" lon="104.777051"><ele>339.3561</ele><time>2026-07-03T17:11:26.000Z</time></trkpt>
        <trkpt lat="29.013618" lon="104.777073"><ele>339.1451</ele><time>2026-07-03T17:11:27.000Z</time></trkpt>
        <trkpt lat="29.013633" lon="104.777095"><ele>338.9117</ele><time>2026-07-03T17:11:29.000Z</time></trkpt>
        <trkpt lat="29.013646" lon="104.777107"><ele>338.87378</ele><time>2026-07-03T17:11:31.000Z</time></trkpt>
        <trkpt lat="29.013662" lon="104.777114"><ele>338.8592</ele><time>2026-07-03T17:11:33.000Z</time></trkpt>
        <trkpt lat="29.013682" lon="104.777123"><ele>338.61014</ele><time>2026-07-03T17:11:35.000Z</time></trkpt>
        <trkpt lat="29.013698" lon="104.777133"><ele>338.61014</ele><time>2026-07-03T17:11:37.000Z</time></trkpt>
        <trkpt lat="29.013716" lon="104.777145"><ele>338.61014</ele><time>2026-07-03T17:11:39.000Z</time></trkpt>
        <trkpt lat="29.01373" lon="104.777157"><ele>338.7256</ele><time>2026-07-03T17:11:41.000Z</time></trkpt>
        <trkpt lat="29.013746" lon="104.777171"><ele>338.7256</ele><time>2026-07-03T17:11:43.000Z</time></trkpt>
        <trkpt lat="29.013761" lon="104.777188"><ele>338.7256</ele><time>2026-07-03T17:11:45.000Z</time></trkpt>
        <trkpt lat="29.013773" lon="104.777207"><ele>338.6994</ele><time>2026-07-03T17:11:47.000Z</time></trkpt>
        <trkpt lat="29.013782" lon="104.777229"><ele>338.60062</ele><time>2026-07-03T17:11:49.000Z</time></trkpt>
        <trkpt lat="29.013791" lon="104.777252"><ele>338.22998</ele><time>2026-07-03T17:11:51.000Z</time></trkpt>
        <trkpt lat="29.013799" lon="104.777275"><ele>338.22998</ele><time>2026-07-03T17:11:53.000Z</time></trkpt>
        <trkpt lat="29.013803" lon="104.777285"><ele>338.22998</ele><time>2026-07-03T17:11:55.000Z</time></trkpt>
        <trkpt lat="29.013815" lon="104.777307"><ele>338.31094</ele><time>2026-07-03T17:11:59.000Z</time></trkpt>
        <trkpt lat="29.013826" lon="104.777322"><ele>338.47318</ele><time>2026-07-03T17:12:01.000Z</time></trkpt>
        <trkpt lat="29.013836" lon="104.777333"><ele>339.22614</ele><time>2026-07-03T17:12:03.000Z</time></trkpt>
        <trkpt lat="29.013847" lon="104.777347"><ele>339.5637</ele><time>2026-07-03T17:12:05.000Z</time></trkpt>
        <trkpt lat="29.013857" lon="104.777363"><ele>339.68222</ele><time>2026-07-03T17:12:07.000Z</time></trkpt>
        <trkpt lat="29.013864" lon="104.777382"><ele>339.75662</ele><time>2026-07-03T17:12:09.000Z</time></trkpt>
        <trkpt lat="29.013872" lon="104.777404"><ele>339.75662</ele><time>2026-07-03T17:12:11.000Z</time></trkpt>
        <trkpt lat="29.013881" lon="104.777423"><ele>339.75662</ele><time>2026-07-03T17:12:13.000Z</time></trkpt>
        <trkpt lat="29.01389" lon="104.777437"><ele>339.68738</ele><time>2026-07-03T17:12:15.000Z</time></trkpt>
        <trkpt lat="29.013903" lon="104.777452"><ele>339.3154</ele><time>2026-07-03T17:12:17.000Z</time></trkpt>
        <trkpt lat="29.013923" lon="104.777469"><ele>339.1031</ele><time>2026-07-03T17:12:19.000Z</time></trkpt>
        <trkpt lat="29.013946" lon="104.777481"><ele>338.79523</ele><time>2026-07-03T17:12:21.000Z</time></trkpt>
        <trkpt lat="29.013971" lon="104.77749"><ele>338.74966</ele><time>2026-07-03T17:12:23.000Z</time></trkpt>
        <trkpt lat="29.013995" lon="104.777499"><ele>338.74966</ele><time>2026-07-03T17:12:25.000Z</time></trkpt>
        <trkpt lat="29.014016" lon="104.777503"><ele>338.74966</ele><time>2026-07-03T17:12:27.000Z</time></trkpt>
        <trkpt lat="29.014037" lon="104.777505"><ele>338.75647</ele><time>2026-07-03T17:12:30.000Z</time></trkpt>
        <trkpt lat="29.01406" lon="104.777506"><ele>339.03085</ele><time>2026-07-03T17:12:32.000Z</time></trkpt>
        <trkpt lat="29.014081" lon="104.777506"><ele>339.3904</ele><time>2026-07-03T17:12:34.000Z</time></trkpt>
        <trkpt lat="29.014102" lon="104.777504"><ele>339.81293</ele><time>2026-07-03T17:12:36.000Z</time></trkpt>
        <trkpt lat="29.01412" lon="104.777503"><ele>340.2987</ele><time>2026-07-03T17:12:38.000Z</time></trkpt>
        <trkpt lat="29.014137" lon="104.777501"><ele>340.8273</ele><time>2026-07-03T17:12:40.000Z</time></trkpt>
        <trkpt lat="29.014156" lon="104.7775"><ele>341.23492</ele><time>2026-07-03T17:12:42.000Z</time></trkpt>
        <trkpt lat="29.014178" lon="104.777501"><ele>341.60464</ele><time>2026-07-03T17:12:44.000Z</time></trkpt>
        <trkpt lat="29.0142" lon="104.777504"><ele>341.7287</ele><time>2026-07-03T17:12:46.000Z</time></trkpt>
        <trkpt lat="29.014224" lon="104.777509"><ele>342.05426</ele><time>2026-07-03T17:12:48.000Z</time></trkpt>
        <trkpt lat="29.014252" lon="104.777515"><ele>342.33728</ele><time>2026-07-03T17:12:50.000Z</time></trkpt>
        <trkpt lat="29.01428" lon="104.777523"><ele>342.3374</ele><time>2026-07-03T17:12:52.000Z</time></trkpt>
        <trkpt lat="29.014306" lon="104.777539"><ele>342.39536</ele><time>2026-07-03T17:12:54.000Z</time></trkpt>
        <trkpt lat="29.014331" lon="104.777558"><ele>342.73224</ele><time>2026-07-03T17:12:56.000Z</time></trkpt>
        <trkpt lat="29.014354" lon="104.77758"><ele>343.0735</ele><time>2026-07-03T17:12:58.000Z</time></trkpt>
        <trkpt lat="29.014376" lon="104.777603"><ele>343.0859</ele><time>2026-07-03T17:13:00.000Z</time></trkpt>
        <trkpt lat="29.014396" lon="104.777623"><ele>343.0859</ele><time>2026-07-03T17:13:02.000Z</time></trkpt>
        <trkpt lat="29.014416" lon="104.777638"><ele>343.0859</ele><time>2026-07-03T17:13:04.000Z</time></trkpt>
        <trkpt lat="29.014434" lon="104.777649"><ele>342.95468</ele><time>2026-07-03T17:13:06.000Z</time></trkpt>
        <trkpt lat="29.014452" lon="104.777657"><ele>342.79782</ele><time>2026-07-03T17:13:08.000Z</time></trkpt>
        <trkpt lat="29.014467" lon="104.777663"><ele>342.54007</ele><time>2026-07-03T17:13:10.000Z</time></trkpt>
        <trkpt lat="29.01448" lon="104.777671"><ele>342.24698</ele><time>2026-07-03T17:13:12.000Z</time></trkpt>
        <trkpt lat="29.014494" lon="104.777679"><ele>342.24698</ele><time>2026-07-03T17:13:14.000Z</time></trkpt>
        <trkpt lat="29.014507" lon="104.77769"><ele>342.24698</ele><time>2026-07-03T17:13:16.000Z</time></trkpt>
        <trkpt lat="29.01452" lon="104.777702"><ele>342.474</ele><time>2026-07-03T17:13:18.000Z</time></trkpt>
        <trkpt lat="29.01453" lon="104.777712"><ele>342.51895</ele><time>2026-07-03T17:13:20.000Z</time></trkpt>
        <trkpt lat="29.014539" lon="104.777721"><ele>342.5988</ele><time>2026-07-03T17:13:22.000Z</time></trkpt>
        <trkpt lat="29.014551" lon="104.777734"><ele>342.86444</ele><time>2026-07-03T17:13:25.000Z</time></trkpt>
        <trkpt lat="29.014553" lon="104.777748"><ele>342.86444</ele><time>2026-07-03T17:13:29.000Z</time></trkpt>
        <trkpt lat="29.014559" lon="104.777761"><ele>342.90253</ele><time>2026-07-03T17:13:34.000Z</time></trkpt>
        <trkpt lat="29.014573" lon="104.777783"><ele>342.86444</ele><time>2026-07-03T17:13:40.000Z</time></trkpt>
        <trkpt lat="29.014587" lon="104.777801"><ele>342.83035</ele><time>2026-07-03T17:13:42.000Z</time></trkpt>
        <trkpt lat="29.014603" lon="104.777818"><ele>342.67114</ele><time>2026-07-03T17:13:44.000Z</time></trkpt>
        <trkpt lat="29.01462" lon="104.777832"><ele>342.67114</ele><time>2026-07-03T17:13:46.000Z</time></trkpt>
        <trkpt lat="29.014636" lon="104.777842"><ele>342.64877</ele><time>2026-07-03T17:13:48.000Z</time></trkpt>
        <trkpt lat="29.01465" lon="104.77785"><ele>342.64877</ele><time>2026-07-03T17:13:50.000Z</time></trkpt>
        <trkpt lat="29.014665" lon="104.777858"><ele>342.65054</ele><time>2026-07-03T17:13:52.000Z</time></trkpt>
        <trkpt lat="29.014675" lon="104.777864"><ele>342.65054</ele><time>2026-07-03T17:13:54.000Z</time></trkpt>
        <trkpt lat="29.014687" lon="104.77787"><ele>342.64877</ele><time>2026-07-03T17:13:56.000Z</time></trkpt>
        <trkpt lat="29.0147" lon="104.777877"><ele>342.59003</ele><time>2026-07-03T17:13:58.000Z</time></trkpt>
        <trkpt lat="29.014714" lon="104.777883"><ele>342.41824</ele><time>2026-07-03T17:14:00.000Z</time></trkpt>
        <trkpt lat="29.014731" lon="104.777892"><ele>342.3626</ele><time>2026-07-03T17:14:02.000Z</time></trkpt>
        <trkpt lat="29.01475" lon="104.777901"><ele>342.24173</ele><time>2026-07-03T17:14:04.000Z</time></trkpt>
        <trkpt lat="29.01477" lon="104.777913"><ele>342.23114</ele><time>2026-07-03T17:14:06.000Z</time></trkpt>
        <trkpt lat="29.014788" lon="104.777924"><ele>342.1584</ele><time>2026-07-03T17:14:08.000Z</time></trkpt>
        <trkpt lat="29.014804" lon="104.777935"><ele>342.0641</ele><time>2026-07-03T17:14:10.000Z</time></trkpt>
        <trkpt lat="29.014817" lon="104.777944"><ele>341.77454</ele><time>2026-07-03T17:14:12.000Z</time></trkpt>
        <trkpt lat="29.014825" lon="104.777953"><ele>341.75043</ele><time>2026-07-03T17:14:14.000Z</time></trkpt>
        <trkpt lat="29.014844" lon="104.777976"><ele>341.61105</ele><time>2026-07-03T17:14:18.000Z</time></trkpt>
        <trkpt lat="29.014851" lon="104.77799"><ele>341.45853</ele><time>2026-07-03T17:14:20.000Z</time></trkpt>
        <trkpt lat="29.014858" lon="104.778009"><ele>341.21063</ele><time>2026-07-03T17:14:22.000Z</time></trkpt>
        <trkpt lat="29.014861" lon="104.778027"><ele>340.96994</ele><time>2026-07-03T17:14:24.000Z</time></trkpt>
        <trkpt lat="29.014866" lon="104.77805"><ele>340.74258</ele><time>2026-07-03T17:14:26.000Z</time></trkpt>
        <trkpt lat="29.014875" lon="104.778067"><ele>340.32852</ele><time>2026-07-03T17:14:28.000Z</time></trkpt>
        <trkpt lat="29.014883" lon="104.778094"><ele>340.0322</ele><time>2026-07-03T17:14:30.000Z</time></trkpt>
        <trkpt lat="29.014892" lon="104.778125"><ele>339.15497</ele><time>2026-07-03T17:14:32.000Z</time></trkpt>
        <trkpt lat="29.014904" lon="104.778157"><ele>338.5846</ele><time>2026-07-03T17:14:35.000Z</time></trkpt>
        <trkpt lat="29.014915" lon="104.778185"><ele>337.93573</ele><time>2026-07-03T17:14:37.000Z</time></trkpt>
        <trkpt lat="29.014924" lon="104.778211"><ele>337.93573</ele><time>2026-07-03T17:14:39.000Z</time></trkpt>
        <trkpt lat="29.014932" lon="104.778237"><ele>337.93573</ele><time>2026-07-03T17:14:41.000Z</time></trkpt>
        <trkpt lat="29.01494" lon="104.778263"><ele>338.49466</ele><time>2026-07-03T17:14:43.000Z</time></trkpt>
        <trkpt lat="29.014949" lon="104.778284"><ele>338.49466</ele><time>2026-07-03T17:14:45.000Z</time></trkpt>
        <trkpt lat="29.014961" lon="104.778296"><ele>338.49466</ele><time>2026-07-03T17:14:47.000Z</time></trkpt>
        <trkpt lat="29.014979" lon="104.778306"><ele>338.20523</ele><time>2026-07-03T17:14:49.000Z</time></trkpt>
        <trkpt lat="29.015001" lon="104.778313"><ele>337.8651</ele><time>2026-07-03T17:14:51.000Z</time></trkpt>
        <trkpt lat="29.015029" lon="104.778318"><ele>337.17886</ele><time>2026-07-03T17:14:53.000Z</time></trkpt>
        <trkpt lat="29.015053" lon="104.778323"><ele>336.33585</ele><time>2026-07-03T17:14:55.000Z</time></trkpt>
        <trkpt lat="29.015077" lon="104.778327"><ele>335.59033</ele><time>2026-07-03T17:14:57.000Z</time></trkpt>
        <trkpt lat="29.015102" lon="104.77833"><ele>334.9373</ele><time>2026-07-03T17:14:59.000Z</time></trkpt>
        <trkpt lat="29.015125" lon="104.778335"><ele>334.45404</ele><time>2026-07-03T17:15:01.000Z</time></trkpt>
        <trkpt lat="29.015147" lon="104.778338"><ele>334.13223</ele><time>2026-07-03T17:15:03.000Z</time></trkpt>
        <trkpt lat="29.015168" lon="104.778337"><ele>333.88965</ele><time>2026-07-03T17:15:05.000Z</time></trkpt>
        <trkpt lat="29.015193" lon="104.778331"><ele>333.73853</ele><time>2026-07-03T17:15:07.000Z</time></trkpt>
        <trkpt lat="29.015219" lon="104.778321"><ele>333.59586</ele><time>2026-07-03T17:15:09.000Z</time></trkpt>
        <trkpt lat="29.015244" lon="104.778305"><ele>333.489</ele><time>2026-07-03T17:15:11.000Z</time></trkpt>
        <trkpt lat="29.015271" lon="104.778287"><ele>333.489</ele><time>2026-07-03T17:15:13.000Z</time></trkpt>
        <trkpt lat="29.0153" lon="104.77827"><ele>333.489</ele><time>2026-07-03T17:15:15.000Z</time></trkpt>
        <trkpt lat="29.015329" lon="104.778258"><ele>333.8863</ele><time>2026-07-03T17:15:17.000Z</time></trkpt>
        <trkpt lat="29.015357" lon="104.778255"><ele>334.80426</ele><time>2026-07-03T17:15:19.000Z</time></trkpt>
        <trkpt lat="29.015381" lon="104.778259"><ele>335.2888</ele><time>2026-07-03T17:15:21.000Z</time></trkpt>
        <trkpt lat="29.015403" lon="104.77827"><ele>336.21475</ele><time>2026-07-03T17:15:23.000Z</time></trkpt>
        <trkpt lat="29.015419" lon="104.778285"><ele>336.95523</ele><time>2026-07-03T17:15:25.000Z</time></trkpt>
        <trkpt lat="29.015431" lon="104.778303"><ele>337.3355</ele><time>2026-07-03T17:15:26.000Z</time></trkpt>
        <trkpt lat="29.015439" lon="104.778323"><ele>337.5511</ele><time>2026-07-03T17:15:28.000Z</time></trkpt>
        <trkpt lat="29.015441" lon="104.778342"><ele>337.78656</ele><time>2026-07-03T17:15:30.000Z</time></trkpt>
        <trkpt lat="29.015441" lon="104.778369"><ele>338.05698</ele><time>2026-07-03T17:15:32.000Z</time></trkpt>
        <trkpt lat="29.015442" lon="104.778394"><ele>338.0584</ele><time>2026-07-03T17:15:34.000Z</time></trkpt>
        <trkpt lat="29.015444" lon="104.778421"><ele>338.36536</ele><time>2026-07-03T17:15:36.000Z</time></trkpt>
        <trkpt lat="29.015446" lon="104.778445"><ele>338.931</ele><time>2026-07-03T17:15:38.000Z</time></trkpt>
        <trkpt lat="29.015448" lon="104.778467"><ele>339.274</ele><time>2026-07-03T17:15:40.000Z</time></trkpt>
        <trkpt lat="29.015451" lon="104.778482"><ele>339.40106</ele><time>2026-07-03T17:15:42.000Z</time></trkpt>
        <trkpt lat="29.015452" lon="104.778491"><ele>339.77396</ele><time>2026-07-03T17:15:44.000Z</time></trkpt>
        <trkpt lat="29.015455" lon="104.778507"><ele>340.0365</ele><time>2026-07-03T17:16:04.000Z</time></trkpt>
        <trkpt lat="29.015458" lon="104.778527"><ele>340.0365</ele><time>2026-07-03T17:16:10.000Z</time></trkpt>
        <trkpt lat="29.01546" lon="104.778533"><ele>340.0365</ele><time>2026-07-03T17:16:12.000Z</time></trkpt>
        <trkpt lat="29.01547" lon="104.778554"><ele>339.98187</ele><time>2026-07-03T17:16:22.000Z</time></trkpt>
        <trkpt lat="29.015493" lon="104.778602"><ele>339.75107</ele><time>2026-07-03T17:16:25.000Z</time></trkpt>
        <trkpt lat="29.015494" lon="104.778605"><ele>339.5498</ele><time>2026-07-03T17:16:27.000Z</time></trkpt>
        <trkpt lat="29.015497" lon="104.77861"><ele>338.93863</ele><time>2026-07-03T17:16:29.000Z</time></trkpt>
        <trkpt lat="29.015519" lon="104.778654"><ele>338.93863</ele><time>2026-07-03T17:16:33.000Z</time></trkpt>
        <trkpt lat="29.015528" lon="104.778676"><ele>338.93863</ele><time>2026-07-03T17:16:35.000Z</time></trkpt>
        <trkpt lat="29.015537" lon="104.778699"><ele>339.81396</ele><time>2026-07-03T17:16:37.000Z</time></trkpt>
        <trkpt lat="29.015544" lon="104.778721"><ele>340.34714</ele><time>2026-07-03T17:16:39.000Z</time></trkpt>
        <trkpt lat="29.015549" lon="104.778743"><ele>340.80002</ele><time>2026-07-03T17:16:42.000Z</time></trkpt>
        <trkpt lat="29.015558" lon="104.77877"><ele>341.0413</ele><time>2026-07-03T17:16:44.000Z</time></trkpt>
        <trkpt lat="29.015566" lon="104.778782"><ele>341.30212</ele><time>2026-07-03T17:16:46.000Z</time></trkpt>
        <trkpt lat="29.015573" lon="104.778788"><ele>341.49643</ele><time>2026-07-03T17:16:48.000Z</time></trkpt>
        <trkpt lat="29.01559" lon="104.778805"><ele>341.7789</ele><time>2026-07-03T17:16:52.000Z</time></trkpt>
        <trkpt lat="29.0156" lon="104.778814"><ele>342.0116</ele><time>2026-07-03T17:16:54.000Z</time></trkpt>
        <trkpt lat="29.015611" lon="104.778825"><ele>342.72668</ele><time>2026-07-03T17:16:56.000Z</time></trkpt>
        <trkpt lat="29.015623" lon="104.778838"><ele>342.72668</ele><time>2026-07-03T17:16:58.000Z</time></trkpt>
        <trkpt lat="29.015636" lon="104.778853"><ele>342.72668</ele><time>2026-07-03T17:17:00.000Z</time></trkpt>
        <trkpt lat="29.015648" lon="104.778868"><ele>342.82208</ele><time>2026-07-03T17:17:02.000Z</time></trkpt>
        <trkpt lat="29.015663" lon="104.778885"><ele>342.82208</ele><time>2026-07-03T17:17:04.000Z</time></trkpt>
        <trkpt lat="29.015678" lon="104.7789"><ele>342.94165</ele><time>2026-07-03T17:17:06.000Z</time></trkpt>
        <trkpt lat="29.01569" lon="104.778912"><ele>343.55658</ele><time>2026-07-03T17:17:08.000Z</time></trkpt>
        <trkpt lat="29.015699" lon="104.778923"><ele>344.29144</ele><time>2026-07-03T17:17:10.000Z</time></trkpt>
        <trkpt lat="29.015707" lon="104.778935"><ele>344.9403</ele><time>2026-07-03T17:17:12.000Z</time></trkpt>
        <trkpt lat="29.015716" lon="104.778949"><ele>345.56555</ele><time>2026-07-03T17:17:14.000Z</time></trkpt>
        <trkpt lat="29.015721" lon="104.778962"><ele>346.0367</ele><time>2026-07-03T17:17:16.000Z</time></trkpt>
        <trkpt lat="29.015726" lon="104.778976"><ele>346.5156</ele><time>2026-07-03T17:17:18.000Z</time></trkpt>
        <trkpt lat="29.015737" lon="104.779004"><ele>347.05844</ele><time>2026-07-03T17:17:22.000Z</time></trkpt>
        <trkpt lat="29.015743" lon="104.779013"><ele>347.57108</ele><time>2026-07-03T17:17:24.000Z</time></trkpt>
        <trkpt lat="29.01575" lon="104.779022"><ele>348.2431</ele><time>2026-07-03T17:17:26.000Z</time></trkpt>
        <trkpt lat="29.015766" lon="104.779045"><ele>348.37097</ele><time>2026-07-03T17:17:30.000Z</time></trkpt>
        <trkpt lat="29.015771" lon="104.779056"><ele>348.52795</ele><time>2026-07-03T17:17:32.000Z</time></trkpt>
        <trkpt lat="29.01578" lon="104.77907"><ele>349.06204</ele><time>2026-07-03T17:17:34.000Z</time></trkpt>
        <trkpt lat="29.0158" lon="104.779088"><ele>349.39835</ele><time>2026-07-03T17:17:38.000Z</time></trkpt>
        <trkpt lat="29.015812" lon="104.779091"><ele>349.76157</ele><time>2026-07-03T17:17:39.000Z</time></trkpt>
        <trkpt lat="29.015831" lon="104.779095"><ele>350.32416</ele><time>2026-07-03T17:17:41.000Z</time></trkpt>
        <trkpt lat="29.015847" lon="104.779098"><ele>350.51123</ele><time>2026-07-03T17:17:43.000Z</time></trkpt>
        <trkpt lat="29.015865" lon="104.779102"><ele>350.72864</ele><time>2026-07-03T17:17:45.000Z</time></trkpt>
        <trkpt lat="29.015884" lon="104.779109"><ele>350.86328</ele><time>2026-07-03T17:17:47.000Z</time></trkpt>
        <trkpt lat="29.015904" lon="104.779115"><ele>351.04883</ele><time>2026-07-03T17:17:49.000Z</time></trkpt>
        <trkpt lat="29.015927" lon="104.779124"><ele>351.3129</ele><time>2026-07-03T17:17:51.000Z</time></trkpt>
        <trkpt lat="29.015945" lon="104.779133"><ele>351.67157</ele><time>2026-07-03T17:17:53.000Z</time></trkpt>
        <trkpt lat="29.015964" lon="104.77914"><ele>352.13522</ele><time>2026-07-03T17:17:55.000Z</time></trkpt>
        <trkpt lat="29.015979" lon="104.779145"><ele>352.77475</ele><time>2026-07-03T17:17:57.000Z</time></trkpt>
        <trkpt lat="29.015994" lon="104.779147"><ele>353.2093</ele><time>2026-07-03T17:17:59.000Z</time></trkpt>
        <trkpt lat="29.01601" lon="104.779151"><ele>353.59528</ele><time>2026-07-03T17:18:01.000Z</time></trkpt>
        <trkpt lat="29.016023" lon="104.779158"><ele>353.85956</ele><time>2026-07-03T17:18:03.000Z</time></trkpt>
        <trkpt lat="29.01604" lon="104.779172"><ele>353.99756</ele><time>2026-07-03T17:18:05.000Z</time></trkpt>
        <trkpt lat="29.01606" lon="104.779184"><ele>354.10614</ele><time>2026-07-03T17:18:07.000Z</time></trkpt>
        <trkpt lat="29.016075" lon="104.779189"><ele>354.12137</ele><time>2026-07-03T17:18:09.000Z</time></trkpt>
        <trkpt lat="29.016087" lon="104.779192"><ele>354.1688</ele><time>2026-07-03T17:18:11.000Z</time></trkpt>
        <trkpt lat="29.016105" lon="104.779195"><ele>354.406</ele><time>2026-07-03T17:18:13.000Z</time></trkpt>
        <trkpt lat="29.016117" lon="104.779201"><ele>354.68954</ele><time>2026-07-03T17:18:15.000Z</time></trkpt>
        <trkpt lat="29.016136" lon="104.779216"><ele>354.7311</ele><time>2026-07-03T17:18:19.000Z</time></trkpt>
        <trkpt lat="29.016141" lon="104.779222"><ele>354.86124</ele><time>2026-07-03T17:18:21.000Z</time></trkpt>
        <trkpt lat="29.016141" lon="104.779232"><ele>355.6129</ele><time>2026-07-03T17:18:23.000Z</time></trkpt>
        <trkpt lat="29.016141" lon="104.779269"><ele>355.6129</ele><time>2026-07-03T17:18:29.000Z</time></trkpt>
        <trkpt lat="29.016143" lon="104.779275"><ele>355.6129</ele><time>2026-07-03T17:18:31.000Z</time></trkpt>
        <trkpt lat="29.016151" lon="104.77929"><ele>355.2371</ele><time>2026-07-03T17:18:33.000Z</time></trkpt>
        <trkpt lat="29.016171" lon="104.779317"><ele>355.1242</ele><time>2026-07-03T17:18:37.000Z</time></trkpt>
        <trkpt lat="29.016185" lon="104.779333"><ele>354.223</ele><time>2026-07-03T17:18:39.000Z</time></trkpt>
        <trkpt lat="29.016203" lon="104.779351"><ele>353.56644</ele><time>2026-07-03T17:18:41.000Z</time></trkpt>
        <trkpt lat="29.016219" lon="104.779367"><ele>353.50342</ele><time>2026-07-03T17:18:43.000Z</time></trkpt>
        <trkpt lat="29.016232" lon="104.779383"><ele>353.3979</ele><time>2026-07-03T17:18:45.000Z</time></trkpt>
        <trkpt lat="29.016242" lon="104.779396"><ele>353.30792</ele><time>2026-07-03T17:18:48.000Z</time></trkpt>
        <trkpt lat="29.01625" lon="104.779407"><ele>353.30185</ele><time>2026-07-03T17:18:50.000Z</time></trkpt>
        <trkpt lat="29.016256" lon="104.779426"><ele>353.12268</ele><time>2026-07-03T17:18:54.000Z</time></trkpt>
        <trkpt lat="29.01626" lon="104.779444"><ele>353.01614</ele><time>2026-07-03T17:19:00.000Z</time></trkpt>
        <trkpt lat="29.016266" lon="104.779473"><ele>352.86154</ele><time>2026-07-03T17:19:03.000Z</time></trkpt>
        <trkpt lat="29.016266" lon="104.779475"><ele>352.3532</ele><time>2026-07-03T17:19:05.000Z</time></trkpt>
        <trkpt lat="29.016268" lon="104.779492"><ele>352.0578</ele><time>2026-07-03T17:19:09.000Z</time></trkpt>
        <trkpt lat="29.016273" lon="104.779539"><ele>351.92975</ele><time>2026-07-03T17:19:13.000Z</time></trkpt>
        <trkpt lat="29.016277" lon="104.779558"><ele>351.92926</ele><time>2026-07-03T17:19:15.000Z</time></trkpt>
        <trkpt lat="29.016279" lon="104.779577"><ele>351.5232</ele><time>2026-07-03T17:19:17.000Z</time></trkpt>
        <trkpt lat="29.016282" lon="104.779596"><ele>351.1761</ele><time>2026-07-03T17:19:19.000Z</time></trkpt>
        <trkpt lat="29.016284" lon="104.779607"><ele>350.85397</ele><time>2026-07-03T17:19:21.000Z</time></trkpt>
        <trkpt lat="29.01629" lon="104.779626"><ele>350.5636</ele><time>2026-07-03T17:19:25.000Z</time></trkpt>
        <trkpt lat="29.016299" lon="104.779644"><ele>350.18607</ele><time>2026-07-03T17:19:29.000Z</time></trkpt>
        <trkpt lat="29.016306" lon="104.779645"><ele>349.96048</ele><time>2026-07-03T17:19:31.000Z</time></trkpt>
        <trkpt lat="29.016325" lon="104.779656"><ele>349.96048</ele><time>2026-07-03T17:19:37.000Z</time></trkpt>
        <trkpt lat="29.016345" lon="104.779671"><ele>349.96048</ele><time>2026-07-03T17:19:41.000Z</time></trkpt>
        <trkpt lat="29.016358" lon="104.779686"><ele>350.3815</ele><time>2026-07-03T17:19:43.000Z</time></trkpt>
        <trkpt lat="29.01637" lon="104.779707"><ele>350.3815</ele><time>2026-07-03T17:19:45.000Z</time></trkpt>
        <trkpt lat="29.016373" lon="104.779721"><ele>350.3815</ele><time>2026-07-03T17:19:47.000Z</time></trkpt>
        <trkpt lat="29.01637" lon="104.779727"><ele>350.22787</ele><time>2026-07-03T17:19:49.000Z</time></trkpt>
        <trkpt lat="29.016366" lon="104.779754"><ele>349.79828</ele><time>2026-07-03T17:19:52.000Z</time></trkpt>
        <trkpt lat="29.016369" lon="104.779779"><ele>349.29993</ele><time>2026-07-03T17:19:54.000Z</time></trkpt>
        <trkpt lat="29.016374" lon="104.779798"><ele>348.23724</ele><time>2026-07-03T17:19:56.000Z</time></trkpt>
        <trkpt lat="29.01638" lon="104.779813"><ele>347.732</ele><time>2026-07-03T17:19:58.000Z</time></trkpt>
        <trkpt lat="29.016389" lon="104.779829"><ele>347.732</ele><time>2026-07-03T17:20:00.000Z</time></trkpt>
        <trkpt lat="29.016396" lon="104.779843"><ele>347.732</ele><time>2026-07-03T17:20:02.000Z</time></trkpt>
        <trkpt lat="29.016402" lon="104.779856"><ele>347.8437</ele><time>2026-07-03T17:20:04.000Z</time></trkpt>
        <trkpt lat="29.016411" lon="104.779871"><ele>348.42285</ele><time>2026-07-03T17:20:06.000Z</time></trkpt>
        <trkpt lat="29.016422" lon="104.779879"><ele>349.0879</ele><time>2026-07-03T17:20:08.000Z</time></trkpt>
        <trkpt lat="29.01644" lon="104.779887"><ele>349.0879</ele><time>2026-07-03T17:20:10.000Z</time></trkpt>
        <trkpt lat="29.016456" lon="104.77989"><ele>349.14688</ele><time>2026-07-03T17:20:12.000Z</time></trkpt>
        <trkpt lat="29.016474" lon="104.779894"><ele>349.0879</ele><time>2026-07-03T17:20:14.000Z</time></trkpt>
        <trkpt lat="29.01649" lon="104.779899"><ele>349.02972</ele><time>2026-07-03T17:20:16.000Z</time></trkpt>
        <trkpt lat="29.016501" lon="104.779907"><ele>348.95496</ele><time>2026-07-03T17:20:18.000Z</time></trkpt>
        <trkpt lat="29.016506" lon="104.77992"><ele>348.77902</ele><time>2026-07-03T17:20:20.000Z</time></trkpt>
        <trkpt lat="29.016506" lon="104.779934"><ele>348.77902</ele><time>2026-07-03T17:20:24.000Z</time></trkpt>
        <trkpt lat="29.016513" lon="104.779954"><ele>348.77176</ele><time>2026-07-03T17:20:32.000Z</time></trkpt>
        <trkpt lat="29.01652" lon="104.779961"><ele>348.6833</ele><time>2026-07-03T17:20:37.000Z</time></trkpt>
        <trkpt lat="29.016572" lon="104.780011"><ele>348.77902</ele><time>2026-07-03T17:20:45.000Z</time></trkpt>
        <trkpt lat="29.016572" lon="104.780011"><ele>348.91977</ele><time>2026-07-03T17:20:47.000Z</time></trkpt>
        <trkpt lat="29.016575" lon="104.780012"><ele>349.38895</ele><time>2026-07-03T17:20:49.000Z</time></trkpt>
        <trkpt lat="29.016622" lon="104.780027"><ele>349.38895</ele><time>2026-07-03T17:20:56.000Z</time></trkpt>
        <trkpt lat="29.016633" lon="104.780033"><ele>349.38895</ele><time>2026-07-03T17:20:58.000Z</time></trkpt>
        <trkpt lat="29.016642" lon="104.780038"><ele>349.1143</ele><time>2026-07-03T17:21:00.000Z</time></trkpt>
        <trkpt lat="29.016669" lon="104.780047"><ele>349.1143</ele><time>2026-07-03T17:21:04.000Z</time></trkpt>
        <trkpt lat="29.016681" lon="104.780045"><ele>349.1143</ele><time>2026-07-03T17:21:06.000Z</time></trkpt>
        <trkpt lat="29.016702" lon="104.780037"><ele>349.1351</ele><time>2026-07-03T17:21:08.000Z</time></trkpt>
        <trkpt lat="29.016724" lon="104.780031"><ele>349.153</ele><time>2026-07-03T17:21:10.000Z</time></trkpt>
        <trkpt lat="29.016734" lon="104.780033"><ele>349.2051</ele><time>2026-07-03T17:21:12.000Z</time></trkpt>
        <trkpt lat="29.016735" lon="104.780038"><ele>349.38177</ele><time>2026-07-03T17:21:14.000Z</time></trkpt>
        <trkpt lat="29.016742" lon="104.780073"><ele>349.38177</ele><time>2026-07-03T17:21:20.000Z</time></trkpt>
        <trkpt lat="29.016742" lon="104.780073"><ele>349.38177</ele><time>2026-07-03T17:21:22.000Z</time></trkpt>
        <trkpt lat="29.016813" lon="104.780068"><ele>349.38852</ele><time>2026-07-03T17:21:30.000Z</time></trkpt>
        <trkpt lat="29.016814" lon="104.780068"><ele>349.38992</ele><time>2026-07-03T17:21:32.000Z</time></trkpt>
        <trkpt lat="29.016815" lon="104.780071"><ele>350.19937</ele><time>2026-07-03T17:21:34.000Z</time></trkpt>
        <trkpt lat="29.016827" lon="104.780114"><ele>350.19937</ele><time>2026-07-03T17:21:38.000Z</time></trkpt>
        <trkpt lat="29.016832" lon="104.780138"><ele>350.19937</ele><time>2026-07-03T17:21:40.000Z</time></trkpt>
        <trkpt lat="29.016835" lon="104.780159"><ele>349.9731</ele><time>2026-07-03T17:21:42.000Z</time></trkpt>
        <trkpt lat="29.016839" lon="104.780171"><ele>349.6139</ele><time>2026-07-03T17:21:44.000Z</time></trkpt>
        <trkpt lat="29.016845" lon="104.78019"><ele>349.33517</ele><time>2026-07-03T17:21:46.000Z</time></trkpt>
        <trkpt lat="29.016853" lon="104.780212"><ele>349.26105</ele><time>2026-07-03T17:21:48.000Z</time></trkpt>
        <trkpt lat="29.016863" lon="104.78024"><ele>349.2112</ele><time>2026-07-03T17:21:50.000Z</time></trkpt>
        <trkpt lat="29.016873" lon="104.780265"><ele>349.2112</ele><time>2026-07-03T17:21:52.000Z</time></trkpt>
        <trkpt lat="29.016884" lon="104.780289"><ele>349.1501</ele><time>2026-07-03T17:21:54.000Z</time></trkpt>
        <trkpt lat="29.016896" lon="104.780307"><ele>349.09073</ele><time>2026-07-03T17:21:55.000Z</time></trkpt>
        <trkpt lat="29.016908" lon="104.780322"><ele>349.003</ele><time>2026-07-03T17:21:57.000Z</time></trkpt>
        <trkpt lat="29.016914" lon="104.780331"><ele>348.82578</ele><time>2026-07-03T17:21:59.000Z</time></trkpt>
        <trkpt lat="29.01692" lon="104.780342"><ele>348.74695</ele><time>2026-07-03T17:22:01.000Z</time></trkpt>
        <trkpt lat="29.016928" lon="104.78036"><ele>348.35626</ele><time>2026-07-03T17:22:05.000Z</time></trkpt>
        <trkpt lat="29.016889" lon="104.780379"><ele>348.30667</ele><time>2026-07-03T17:22:11.000Z</time></trkpt>
        <trkpt lat="29.016889" lon="104.780379"><ele>348.29547</ele><time>2026-07-03T17:22:14.000Z</time></trkpt>
        <trkpt lat="29.016907" lon="104.780421"><ele>348.29547</ele><time>2026-07-03T17:22:18.000Z</time></trkpt>
        <trkpt lat="29.016907" lon="104.780421"><ele>348.30667</ele><time>2026-07-03T17:22:20.000Z</time></trkpt>
        <trkpt lat="29.016907" lon="104.780427"><ele>348.91296</ele><time>2026-07-03T17:22:22.000Z</time></trkpt>
        <trkpt lat="29.0169" lon="104.780475"><ele>348.91296</ele><time>2026-07-03T17:22:26.000Z</time></trkpt>
        <trkpt lat="29.016892" lon="104.780503"><ele>348.91296</ele><time>2026-07-03T17:22:28.000Z</time></trkpt>
        <trkpt lat="29.016882" lon="104.780528"><ele>348.20798</ele><time>2026-07-03T17:22:30.000Z</time></trkpt>
        <trkpt lat="29.01687" lon="104.780548"><ele>348.0212</ele><time>2026-07-03T17:22:32.000Z</time></trkpt>
        <trkpt lat="29.016858" lon="104.780564"><ele>348.0212</ele><time>2026-07-03T17:22:34.000Z</time></trkpt>
        <trkpt lat="29.016851" lon="104.780581"><ele>348.0212</ele><time>2026-07-03T17:22:36.000Z</time></trkpt>
        <trkpt lat="29.01685" lon="104.780597"><ele>348.31992</ele><time>2026-07-03T17:22:38.000Z</time></trkpt>
        <trkpt lat="29.016854" lon="104.78061"><ele>348.8964</ele><time>2026-07-03T17:22:40.000Z</time></trkpt>
        <trkpt lat="29.016864" lon="104.780623"><ele>349.43298</ele><time>2026-07-03T17:22:42.000Z</time></trkpt>
        <trkpt lat="29.016878" lon="104.780638"><ele>349.85315</ele><time>2026-07-03T17:22:44.000Z</time></trkpt>
        <trkpt lat="29.016893" lon="104.780651"><ele>349.85315</ele><time>2026-07-03T17:22:46.000Z</time></trkpt>
        <trkpt lat="29.016906" lon="104.780665"><ele>349.85315</ele><time>2026-07-03T17:22:48.000Z</time></trkpt>
        <trkpt lat="29.016919" lon="104.78068"><ele>349.6715</ele><time>2026-07-03T17:22:50.000Z</time></trkpt>
        <trkpt lat="29.016931" lon="104.780693"><ele>349.30945</ele><time>2026-07-03T17:22:52.000Z</time></trkpt>
        <trkpt lat="29.01694" lon="104.780706"><ele>349.15234</ele><time>2026-07-03T17:22:54.000Z</time></trkpt>
        <trkpt lat="29.016951" lon="104.780716"><ele>348.961</ele><time>2026-07-03T17:22:56.000Z</time></trkpt>
        <trkpt lat="29.016963" lon="104.780726"><ele>348.79834</ele><time>2026-07-03T17:22:59.000Z</time></trkpt>
        <trkpt lat="29.016978" lon="104.780738"><ele>348.41937</ele><time>2026-07-03T17:23:01.000Z</time></trkpt>
        <trkpt lat="29.016992" lon="104.780749"><ele>348.27072</ele><time>2026-07-03T17:23:03.000Z</time></trkpt>
        <trkpt lat="29.017007" lon="104.780761"><ele>348.27072</ele><time>2026-07-03T17:23:05.000Z</time></trkpt>
        <trkpt lat="29.017018" lon="104.78077"><ele>348.27072</ele><time>2026-07-03T17:23:07.000Z</time></trkpt>
        <trkpt lat="29.01703" lon="104.780779"><ele>348.5644</ele><time>2026-07-03T17:23:09.000Z</time></trkpt>
        <trkpt lat="29.017033" lon="104.780776"><ele>348.88147</ele><time>2026-07-03T17:23:11.000Z</time></trkpt>
        <trkpt lat="29.017055" lon="104.780762"><ele>348.9521</ele><time>2026-07-03T17:23:18.000Z</time></trkpt>
        <trkpt lat="29.017077" lon="104.780748"><ele>349.3156</ele><time>2026-07-03T17:23:21.000Z</time></trkpt>
        <trkpt lat="29.017077" lon="104.780748"><ele>350.96735</ele><time>2026-07-03T17:23:23.000Z</time></trkpt>
        <trkpt lat="29.017075" lon="104.780724"><ele>352.25504</ele><time>2026-07-03T17:23:27.000Z</time></trkpt>
        <trkpt lat="29.017071" lon="104.780712"><ele>352.25653</ele><time>2026-07-03T17:23:29.000Z</time></trkpt>
        <trkpt lat="29.017069" lon="104.780713"><ele>352.35556</ele><time>2026-07-03T17:23:31.000Z</time></trkpt>
        <trkpt lat="29.017141" lon="104.780699"><ele>352.49335</ele><time>2026-07-03T17:23:59.000Z</time></trkpt>
        <trkpt lat="29.017139" lon="104.780702"><ele>352.52744</ele><time>2026-07-03T17:23:58.000Z</time></trkpt>
        <trkpt lat="29.017199" lon="104.780628"><ele>352.7578</ele><time>2026-07-03T17:24:08.000Z</time></trkpt>
        <trkpt lat="29.017199" lon="104.780628"><ele>353.24963</ele><time>2026-07-03T17:24:10.000Z</time></trkpt>
        <trkpt lat="29.017203" lon="104.780623"><ele>353.6578</ele><time>2026-07-03T17:24:12.000Z</time></trkpt>
        <trkpt lat="29.017252" lon="104.780582"><ele>353.67352</ele><time>2026-07-03T17:24:18.000Z</time></trkpt>
        <trkpt lat="29.017268" lon="104.780573"><ele>353.67395</ele><time>2026-07-03T17:24:20.000Z</time></trkpt>
        <trkpt lat="29.017287" lon="104.780566"><ele>354.88898</ele><time>2026-07-03T17:24:22.000Z</time></trkpt>
        <trkpt lat="29.017306" lon="104.780561"><ele>355.34277</ele><time>2026-07-03T17:24:24.000Z</time></trkpt>
        <trkpt lat="29.017318" lon="104.780559"><ele>355.7189</ele><time>2026-07-03T17:24:26.000Z</time></trkpt>
        <trkpt lat="29.017329" lon="104.780553"><ele>356.1765</ele><time>2026-07-03T17:24:30.000Z</time></trkpt>
        <trkpt lat="29.017348" lon="104.780543"><ele>356.59363</ele><time>2026-07-03T17:24:34.000Z</time></trkpt>
        <trkpt lat="29.017357" lon="104.780538"><ele>357.5904</ele><time>2026-07-03T17:24:36.000Z</time></trkpt>
        <trkpt lat="29.017363" lon="104.780539"><ele>358.28787</ele><time>2026-07-03T17:24:38.000Z</time></trkpt>
        <trkpt lat="29.01739" lon="104.780545"><ele>358.37057</ele><time>2026-07-03T17:24:44.000Z</time></trkpt>
        <trkpt lat="29.017409" lon="104.78055"><ele>358.54092</ele><time>2026-07-03T17:24:52.000Z</time></trkpt>
        <trkpt lat="29.017409" lon="104.78055"><ele>359.42044</ele><time>2026-07-03T17:24:54.000Z</time></trkpt>
        <trkpt lat="29.017428" lon="104.780552"><ele>360.39966</ele><time>2026-07-03T17:25:00.000Z</time></trkpt>
        <trkpt lat="29.017444" lon="104.780557"><ele>360.40326</ele><time>2026-07-03T17:25:09.000Z</time></trkpt>
        <trkpt lat="29.01745" lon="104.780559"><ele>361.2209</ele><time>2026-07-03T17:25:11.000Z</time></trkpt>
        <trkpt lat="29.017469" lon="104.780568"><ele>362.5264</ele><time>2026-07-03T17:25:13.000Z</time></trkpt>
        <trkpt lat="29.017482" lon="104.780578"><ele>363.19467</ele><time>2026-07-03T17:25:18.000Z</time></trkpt>
        <trkpt lat="29.017495" lon="104.780589"><ele>364.15802</ele><time>2026-07-03T17:25:20.000Z</time></trkpt>
        <trkpt lat="29.017511" lon="104.780609"><ele>364.48032</ele><time>2026-07-03T17:25:22.000Z</time></trkpt>
        <trkpt lat="29.017518" lon="104.780623"><ele>365.0834</ele><time>2026-07-03T17:25:24.000Z</time></trkpt>
        <trkpt lat="29.017521" lon="104.780635"><ele>365.7475</ele><time>2026-07-03T17:25:26.000Z</time></trkpt>
        <trkpt lat="29.017524" lon="104.780648"><ele>366.37164</ele><time>2026-07-03T17:25:28.000Z</time></trkpt>
        <trkpt lat="29.017527" lon="104.780662"><ele>366.96194</ele><time>2026-07-03T17:25:30.000Z</time></trkpt>
        <trkpt lat="29.017532" lon="104.780669"><ele>367.57535</ele><time>2026-07-03T17:25:32.000Z</time></trkpt>
        <trkpt lat="29.017536" lon="104.780679"><ele>367.94836</ele><time>2026-07-03T17:25:34.000Z</time></trkpt>
        <trkpt lat="29.01755" lon="104.780686"><ele>368.06863</ele><time>2026-07-03T17:25:42.000Z</time></trkpt>
        <trkpt lat="29.017611" lon="104.780718"><ele>368.10086</ele><time>2026-07-03T17:25:53.000Z</time></trkpt>
        <trkpt lat="29.017611" lon="104.780718"><ele>368.52063</ele><time>2026-07-03T17:25:55.000Z</time></trkpt>
        <trkpt lat="29.017617" lon="104.780719"><ele>369.53857</ele><time>2026-07-03T17:25:57.000Z</time></trkpt>
        <trkpt lat="29.017669" lon="104.780721"><ele>369.53992</ele><time>2026-07-03T17:26:00.000Z</time></trkpt>
        <trkpt lat="29.017695" lon="104.780723"><ele>369.56873</ele><time>2026-07-03T17:26:02.000Z</time></trkpt>
        <trkpt lat="29.01772" lon="104.780727"><ele>370.13953</ele><time>2026-07-03T17:26:04.000Z</time></trkpt>
        <trkpt lat="29.017744" lon="104.780731"><ele>370.6471</ele><time>2026-07-03T17:26:06.000Z</time></trkpt>
        <trkpt lat="29.017758" lon="104.780738"><ele>370.87662</ele><time>2026-07-03T17:26:08.000Z</time></trkpt>
        <trkpt lat="29.017769" lon="104.780746"><ele>371.0471</ele><time>2026-07-03T17:26:10.000Z</time></trkpt>
        <trkpt lat="29.017783" lon="104.780753"><ele>371.08636</ele><time>2026-07-03T17:26:12.000Z</time></trkpt>
        <trkpt lat="29.017796" lon="104.780761"><ele>371.35657</ele><time>2026-07-03T17:26:14.000Z</time></trkpt>
        <trkpt lat="29.017807" lon="104.78077"><ele>371.6728</ele><time>2026-07-03T17:26:16.000Z</time></trkpt>
        <trkpt lat="29.017819" lon="104.780781"><ele>371.6728</ele><time>2026-07-03T17:26:18.000Z</time></trkpt>
        <trkpt lat="29.017833" lon="104.780797"><ele>371.6728</ele><time>2026-07-03T17:26:20.000Z</time></trkpt>
        <trkpt lat="29.017846" lon="104.780812"><ele>371.63474</ele><time>2026-07-03T17:26:22.000Z</time></trkpt>
        <trkpt lat="29.017856" lon="104.780825"><ele>371.63474</ele><time>2026-07-03T17:26:24.000Z</time></trkpt>
        <trkpt lat="29.017862" lon="104.780836"><ele>371.63474</ele><time>2026-07-03T17:26:26.000Z</time></trkpt>
        <trkpt lat="29.017866" lon="104.780846"><ele>372.00708</ele><time>2026-07-03T17:26:28.000Z</time></trkpt>
        <trkpt lat="29.017869" lon="104.780857"><ele>372.30975</ele><time>2026-07-03T17:26:30.000Z</time></trkpt>
        <trkpt lat="29.017871" lon="104.780874"><ele>372.4043</ele><time>2026-07-03T17:26:32.000Z</time></trkpt>
        <trkpt lat="29.01787" lon="104.780893"><ele>372.62134</ele><time>2026-07-03T17:26:34.000Z</time></trkpt>
        <trkpt lat="29.01787" lon="104.780906"><ele>372.74567</ele><time>2026-07-03T17:26:36.000Z</time></trkpt>
        <trkpt lat="29.017872" lon="104.78091"><ele>373.00992</ele><time>2026-07-03T17:26:38.000Z</time></trkpt>
        <trkpt lat="29.017882" lon="104.780923"><ele>373.34015</ele><time>2026-07-03T17:26:46.000Z</time></trkpt>
        <trkpt lat="29.017894" lon="104.780934"><ele>373.6635</ele><time>2026-07-03T17:26:50.000Z</time></trkpt>
        <trkpt lat="29.017915" lon="104.780944"><ele>374.14932</ele><time>2026-07-03T17:26:52.000Z</time></trkpt>
        <trkpt lat="29.017936" lon="104.780954"><ele>374.14932</ele><time>2026-07-03T17:26:55.000Z</time></trkpt>
        <trkpt lat="29.017937" lon="104.780954"><ele>374.14932</ele><time>2026-07-03T17:26:57.000Z</time></trkpt>
        <trkpt lat="29.017945" lon="104.780952"><ele>374.0565</ele><time>2026-07-03T17:27:01.000Z</time></trkpt>
        <trkpt lat="29.01797" lon="104.780944"><ele>374.0565</ele><time>2026-07-03T17:27:09.000Z</time></trkpt>
        <trkpt lat="29.01799" lon="104.780947"><ele>374.0565</ele><time>2026-07-03T17:27:12.000Z</time></trkpt>
        <trkpt lat="29.018054" lon="104.780956"><ele>374.0565</ele><time>2026-07-03T17:27:28.000Z</time></trkpt>
        <trkpt lat="29.018063" lon="104.780957"><ele>374.22794</ele><time>2026-07-03T17:27:32.000Z</time></trkpt>
        <trkpt lat="29.018063" lon="104.780957"><ele>374.22794</ele><time>2026-07-03T17:27:34.000Z</time></trkpt>
        <trkpt lat="29.018085" lon="104.780962"><ele>374.22452</ele><time>2026-07-03T17:27:38.000Z</time></trkpt>
        <trkpt lat="29.018109" lon="104.78097"><ele>374.0126</ele><time>2026-07-03T17:27:40.000Z</time></trkpt>
        <trkpt lat="29.018131" lon="104.78098"><ele>373.85944</ele><time>2026-07-03T17:27:42.000Z</time></trkpt>
        <trkpt lat="29.01815" lon="104.780989"><ele>373.78613</ele><time>2026-07-03T17:27:44.000Z</time></trkpt>
        <trkpt lat="29.018165" lon="104.780999"><ele>373.74228</ele><time>2026-07-03T17:27:46.000Z</time></trkpt>
        <trkpt lat="29.018176" lon="104.781007"><ele>373.6209</ele><time>2026-07-03T17:27:48.000Z</time></trkpt>
        <trkpt lat="29.018187" lon="104.781016"><ele>373.5001</ele><time>2026-07-03T17:27:50.000Z</time></trkpt>
        <trkpt lat="29.018202" lon="104.781025"><ele>373.46805</ele><time>2026-07-03T17:27:52.000Z</time></trkpt>
        <trkpt lat="29.018214" lon="104.781029"><ele>373.41928</ele><time>2026-07-03T17:27:54.000Z</time></trkpt>
        <trkpt lat="29.018228" lon="104.78103"><ele>373.23953</ele><time>2026-07-03T17:27:56.000Z</time></trkpt>
        <trkpt lat="29.018243" lon="104.781029"><ele>373.04987</ele><time>2026-07-03T17:27:58.000Z</time></trkpt>
        <trkpt lat="29.018262" lon="104.781028"><ele>372.9946</ele><time>2026-07-03T17:28:00.000Z</time></trkpt>
        <trkpt lat="29.018285" lon="104.781028"><ele>372.91162</ele><time>2026-07-03T17:28:02.000Z</time></trkpt>
        <trkpt lat="29.018306" lon="104.78103"><ele>372.6521</ele><time>2026-07-03T17:28:04.000Z</time></trkpt>
        <trkpt lat="29.018329" lon="104.781034"><ele>372.18057</ele><time>2026-07-03T17:28:05.000Z</time></trkpt>
        <trkpt lat="29.018352" lon="104.78104"><ele>371.8512</ele><time>2026-07-03T17:28:07.000Z</time></trkpt>
        <trkpt lat="29.018379" lon="104.781044"><ele>371.67853</ele><time>2026-07-03T17:28:09.000Z</time></trkpt>
        <trkpt lat="29.018402" lon="104.781045"><ele>371.67853</ele><time>2026-07-03T17:28:11.000Z</time></trkpt>
        <trkpt lat="29.01842" lon="104.781042"><ele>371.67853</ele><time>2026-07-03T17:28:13.000Z</time></trkpt>
        <trkpt lat="29.018432" lon="104.781035"><ele>371.8572</ele><time>2026-07-03T17:28:15.000Z</time></trkpt>
        <trkpt lat="29.018447" lon="104.781026"><ele>371.96478</ele><time>2026-07-03T17:28:17.000Z</time></trkpt>
        <trkpt lat="29.018463" lon="104.781014"><ele>371.97632</ele><time>2026-07-03T17:28:19.000Z</time></trkpt>
        <trkpt lat="29.018474" lon="104.781002"><ele>371.97632</ele><time>2026-07-03T17:28:21.000Z</time></trkpt>
        <trkpt lat="29.018488" lon="104.780989"><ele>371.96478</ele><time>2026-07-03T17:28:23.000Z</time></trkpt>
        <trkpt lat="29.018503" lon="104.780976"><ele>371.95703</ele><time>2026-07-03T17:28:25.000Z</time></trkpt>
        <trkpt lat="29.018515" lon="104.780966"><ele>371.77573</ele><time>2026-07-03T17:28:27.000Z</time></trkpt>
        <trkpt lat="29.018527" lon="104.780958"><ele>371.60043</ele><time>2026-07-03T17:28:29.000Z</time></trkpt>
        <trkpt lat="29.018539" lon="104.780951"><ele>371.4351</ele><time>2026-07-03T17:28:31.000Z</time></trkpt>
        <trkpt lat="29.01855" lon="104.780944"><ele>371.08133</ele><time>2026-07-03T17:28:33.000Z</time></trkpt>
        <trkpt lat="29.018554" lon="104.780937"><ele>371.06915</ele><time>2026-07-03T17:28:35.000Z</time></trkpt>
        <trkpt lat="29.018558" lon="104.780934"><ele>370.86298</ele><time>2026-07-03T17:28:39.000Z</time></trkpt>
        <trkpt lat="29.018598" lon="104.780901"><ele>370.65897</ele><time>2026-07-03T17:28:43.000Z</time></trkpt>
        <trkpt lat="29.018598" lon="104.780901"><ele>370.51425</ele><time>2026-07-03T17:28:45.000Z</time></trkpt>
        <trkpt lat="29.018605" lon="104.780898"><ele>369.4568</ele><time>2026-07-03T17:28:47.000Z</time></trkpt>
        <trkpt lat="29.018631" lon="104.78089"><ele>369.45068</ele><time>2026-07-03T17:28:49.000Z</time></trkpt>
        <trkpt lat="29.018659" lon="104.780882"><ele>369.30542</ele><time>2026-07-03T17:28:51.000Z</time></trkpt>
        <trkpt lat="29.018687" lon="104.780878"><ele>368.7551</ele><time>2026-07-03T17:28:53.000Z</time></trkpt>
        <trkpt lat="29.018709" lon="104.780877"><ele>368.3337</ele><time>2026-07-03T17:28:55.000Z</time></trkpt>
        <trkpt lat="29.018735" lon="104.780876"><ele>368.1658</ele><time>2026-07-03T17:28:57.000Z</time></trkpt>
        <trkpt lat="29.01876" lon="104.780876"><ele>367.9807</ele><time>2026-07-03T17:28:59.000Z</time></trkpt>
        <trkpt lat="29.018784" lon="104.78088"><ele>367.6375</ele><time>2026-07-03T17:29:01.000Z</time></trkpt>
        <trkpt lat="29.018804" lon="104.780886"><ele>367.6375</ele><time>2026-07-03T17:29:03.000Z</time></trkpt>
        <trkpt lat="29.018823" lon="104.780893"><ele>367.6375</ele><time>2026-07-03T17:29:05.000Z</time></trkpt>
        <trkpt lat="29.018841" lon="104.780903"><ele>367.76874</ele><time>2026-07-03T17:29:07.000Z</time></trkpt>
        <trkpt lat="29.018856" lon="104.780916"><ele>367.93384</ele><time>2026-07-03T17:29:09.000Z</time></trkpt>
        <trkpt lat="29.01887" lon="104.780931"><ele>367.9446</ele><time>2026-07-03T17:29:11.000Z</time></trkpt>
        <trkpt lat="29.018883" lon="104.780946"><ele>367.97873</ele><time>2026-07-03T17:29:13.000Z</time></trkpt>
        <trkpt lat="29.018896" lon="104.78096"><ele>368.18454</ele><time>2026-07-03T17:29:15.000Z</time></trkpt>
        <trkpt lat="29.018909" lon="104.780972"><ele>368.79797</ele><time>2026-07-03T17:29:18.000Z</time></trkpt>
        <trkpt lat="29.018925" lon="104.78099"><ele>369.33356</ele><time>2026-07-03T17:29:20.000Z</time></trkpt>
        <trkpt lat="29.018935" lon="104.781005"><ele>369.34543</ele><time>2026-07-03T17:29:22.000Z</time></trkpt>
        <trkpt lat="29.018946" lon="104.781019"><ele>369.35385</ele><time>2026-07-03T17:29:24.000Z</time></trkpt>
        <trkpt lat="29.018962" lon="104.78104"><ele>369.4315</ele><time>2026-07-03T17:29:26.000Z</time></trkpt>
        <trkpt lat="29.018976" lon="104.781057"><ele>369.9561</ele><time>2026-07-03T17:29:28.000Z</time></trkpt>
        <trkpt lat="29.018989" lon="104.781069"><ele>370.627</ele><time>2026-07-03T17:29:30.000Z</time></trkpt>
        <trkpt lat="29.019005" lon="104.78108"><ele>371.0812</ele><time>2026-07-03T17:29:32.000Z</time></trkpt>
        <trkpt lat="29.019023" lon="104.781091"><ele>371.10745</ele><time>2026-07-03T17:29:34.000Z</time></trkpt>
        <trkpt lat="29.019043" lon="104.781101"><ele>371.11652</ele><time>2026-07-03T17:29:36.000Z</time></trkpt>
        <trkpt lat="29.019057" lon="104.781104"><ele>371.10745</ele><time>2026-07-03T17:29:38.000Z</time></trkpt>
        <trkpt lat="29.019074" lon="104.781103"><ele>371.0812</ele><time>2026-07-03T17:29:40.000Z</time></trkpt>
        <trkpt lat="29.019089" lon="104.7811"><ele>370.87183</ele><time>2026-07-03T17:29:42.000Z</time></trkpt>
        <trkpt lat="29.019101" lon="104.781095"><ele>370.78604</ele><time>2026-07-03T17:29:44.000Z</time></trkpt>
        <trkpt lat="29.019111" lon="104.781089"><ele>370.69528</ele><time>2026-07-03T17:29:46.000Z</time></trkpt>
        <trkpt lat="29.019122" lon="104.781082"><ele>370.5009</ele><time>2026-07-03T17:29:48.000Z</time></trkpt>
        <trkpt lat="29.019134" lon="104.781073"><ele>370.5009</ele><time>2026-07-03T17:29:50.000Z</time></trkpt>
        <trkpt lat="29.019145" lon="104.781064"><ele>370.5009</ele><time>2026-07-03T17:29:52.000Z</time></trkpt>
        <trkpt lat="29.019156" lon="104.781051"><ele>370.55084</ele><time>2026-07-03T17:29:54.000Z</time></trkpt>
        <trkpt lat="29.019168" lon="104.781038"><ele>370.7138</ele><time>2026-07-03T17:29:56.000Z</time></trkpt>
        <trkpt lat="29.019176" lon="104.781025"><ele>371.0064</ele><time>2026-07-03T17:29:58.000Z</time></trkpt>
        <trkpt lat="29.01918" lon="104.781013"><ele>371.0501</ele><time>2026-07-03T17:30:00.000Z</time></trkpt>
        <trkpt lat="29.019181" lon="104.780998"><ele>371.0501</ele><time>2026-07-03T17:30:02.000Z</time></trkpt>
        <trkpt lat="29.019176" lon="104.78098"><ele>371.0501</ele><time>2026-07-03T17:30:04.000Z</time></trkpt>
        <trkpt lat="29.019166" lon="104.780963"><ele>370.6227</ele><time>2026-07-03T17:30:06.000Z</time></trkpt>
        <trkpt lat="29.019154" lon="104.78094"><ele>370.1791</ele><time>2026-07-03T17:30:08.000Z</time></trkpt>
        <trkpt lat="29.019146" lon="104.780914"><ele>369.71344</ele><time>2026-07-03T17:30:10.000Z</time></trkpt>
        <trkpt lat="29.019143" lon="104.780891"><ele>369.40625</ele><time>2026-07-03T17:30:12.000Z</time></trkpt>
        <trkpt lat="29.019143" lon="104.780866"><ele>369.40625</ele><time>2026-07-03T17:30:13.000Z</time></trkpt>
        <trkpt lat="29.019144" lon="104.780842"><ele>369.40625</ele><time>2026-07-03T17:30:15.000Z</time></trkpt>
        <trkpt lat="29.019144" lon="104.780822"><ele>369.43948</ele><time>2026-07-03T17:30:17.000Z</time></trkpt>
        <trkpt lat="29.019147" lon="104.780807"><ele>369.69046</ele><time>2026-07-03T17:30:19.000Z</time></trkpt>
        <trkpt lat="29.019155" lon="104.780791"><ele>369.86777</ele><time>2026-07-03T17:30:21.000Z</time></trkpt>
        <trkpt lat="29.019167" lon="104.780773"><ele>369.86777</ele><time>2026-07-03T17:30:23.000Z</time></trkpt>
        <trkpt lat="29.019181" lon="104.780754"><ele>369.86777</ele><time>2026-07-03T17:30:25.000Z</time></trkpt>
        <trkpt lat="29.019195" lon="104.780736"><ele>369.3114</ele><time>2026-07-03T17:30:27.000Z</time></trkpt>
        <trkpt lat="29.019209" lon="104.780719"><ele>368.8596</ele><time>2026-07-03T17:30:29.000Z</time></trkpt>
        <trkpt lat="29.019223" lon="104.780702"><ele>368.45367</ele><time>2026-07-03T17:30:31.000Z</time></trkpt>
        <trkpt lat="29.019237" lon="104.780684"><ele>368.27042</ele><time>2026-07-03T17:30:33.000Z</time></trkpt>
        <trkpt lat="29.019251" lon="104.780666"><ele>368.27042</ele><time>2026-07-03T17:30:35.000Z</time></trkpt>
        <trkpt lat="29.019256" lon="104.78066"><ele>368.27042</ele><time>2026-07-03T17:30:37.000Z</time></trkpt>
        <trkpt lat="29.01926" lon="104.780657"><ele>368.6607</ele><time>2026-07-03T17:30:39.000Z</time></trkpt>
        <trkpt lat="29.019282" lon="104.780635"><ele>368.6607</ele><time>2026-07-03T17:30:43.000Z</time></trkpt>
        <trkpt lat="29.019294" lon="104.780619"><ele>368.7778</ele><time>2026-07-03T17:30:45.000Z</time></trkpt>
        <trkpt lat="29.019302" lon="104.780599"><ele>368.85135</ele><time>2026-07-03T17:30:47.000Z</time></trkpt>
        <trkpt lat="29.019306" lon="104.780572"><ele>368.85135</ele><time>2026-07-03T17:30:49.000Z</time></trkpt>
        <trkpt lat="29.019305" lon="104.780545"><ele>368.7778</ele><time>2026-07-03T17:30:51.000Z</time></trkpt>
        <trkpt lat="29.0193" lon="104.780517"><ele>368.7778</ele><time>2026-07-03T17:30:53.000Z</time></trkpt>
        <trkpt lat="29.019292" lon="104.78049"><ele>368.76144</ele><time>2026-07-03T17:30:55.000Z</time></trkpt>
        <trkpt lat="29.019285" lon="104.780466"><ele>368.42035</ele><time>2026-07-03T17:30:57.000Z</time></trkpt>
        <trkpt lat="29.019278" lon="104.780453"><ele>368.0641</ele><time>2026-07-03T17:30:59.000Z</time></trkpt>
        <trkpt lat="29.019267" lon="104.780439"><ele>367.7828</ele><time>2026-07-03T17:31:01.000Z</time></trkpt>
        <trkpt lat="29.019256" lon="104.780424"><ele>367.46558</ele><time>2026-07-03T17:31:03.000Z</time></trkpt>
        <trkpt lat="29.019247" lon="104.780408"><ele>367.46558</ele><time>2026-07-03T17:31:05.000Z</time></trkpt>
        <trkpt lat="29.019239" lon="104.780392"><ele>367.45465</ele><time>2026-07-03T17:31:07.000Z</time></trkpt>
        <trkpt lat="29.019235" lon="104.780381"><ele>367.45465</ele><time>2026-07-03T17:31:09.000Z</time></trkpt>
        <trkpt lat="29.019228" lon="104.780366"><ele>367.4759</ele><time>2026-07-03T17:31:11.000Z</time></trkpt>
        <trkpt lat="29.019221" lon="104.780352"><ele>367.53894</ele><time>2026-07-03T17:31:13.000Z</time></trkpt>
        <trkpt lat="29.019215" lon="104.780339"><ele>367.59326</ele><time>2026-07-03T17:31:15.000Z</time></trkpt>
        <trkpt lat="29.01921" lon="104.780327"><ele>367.81378</ele><time>2026-07-03T17:31:17.000Z</time></trkpt>
        <trkpt lat="29.019206" lon="104.780314"><ele>367.98917</ele><time>2026-07-03T17:31:19.000Z</time></trkpt>
        <trkpt lat="29.019203" lon="104.780305"><ele>368.0463</ele><time>2026-07-03T17:31:21.000Z</time></trkpt>
        <trkpt lat="29.019199" lon="104.780297"><ele>368.0463</ele><time>2026-07-03T17:31:24.000Z</time></trkpt>
        <trkpt lat="29.019192" lon="104.780289"><ele>368.0463</ele><time>2026-07-03T17:31:30.000Z</time></trkpt>
        <trkpt lat="29.019169" lon="104.780276"><ele>367.95267</ele><time>2026-07-03T17:31:56.000Z</time></trkpt>
        <trkpt lat="29.019168" lon="104.780277"><ele>367.60333</ele><time>2026-07-03T17:33:31.000Z</time></trkpt>
        <trkpt lat="29.019204" lon="104.780234"><ele>367.47305</ele><time>2026-07-03T17:37:15.000Z</time></trkpt>
        <trkpt lat="29.0192" lon="104.780198"><ele>367.43033</ele><time>2026-07-03T17:37:17.000Z</time></trkpt>
        <trkpt lat="29.019201" lon="104.780197"><ele>366.44992</ele><time>2026-07-03T17:37:19.000Z</time></trkpt>
        <trkpt lat="29.019222" lon="104.780169"><ele>366.44992</ele><time>2026-07-03T17:37:23.000Z</time></trkpt>
        <trkpt lat="29.019237" lon="104.780145"><ele>366.44992</ele><time>2026-07-03T17:37:25.000Z</time></trkpt>
        <trkpt lat="29.019244" lon="104.78013"><ele>366.59875</ele><time>2026-07-03T17:37:27.000Z</time></trkpt>
        <trkpt lat="29.019243" lon="104.780126"><ele>366.82004</ele><time>2026-07-03T17:37:29.000Z</time></trkpt>
        <trkpt lat="29.019246" lon="104.780098"><ele>366.83716</ele><time>2026-07-03T17:38:37.000Z</time></trkpt>
        <trkpt lat="29.01925" lon="104.780071"><ele>366.84573</ele><time>2026-07-03T17:38:39.000Z</time></trkpt>
        <trkpt lat="29.019251" lon="104.780069"><ele>366.9573</ele><time>2026-07-03T17:38:41.000Z</time></trkpt>
        <trkpt lat="29.0192" lon="104.780125"><ele>367.0339</ele><time>2026-07-03T17:39:51.000Z</time></trkpt>
        <trkpt lat="29.019177" lon="104.780245"><ele>367.0339</ele><time>2026-07-03T17:40:07.000Z</time></trkpt>
        <trkpt lat="29.019169" lon="104.780283"><ele>367.0339</ele><time>2026-07-03T17:40:16.000Z</time></trkpt>
        <trkpt lat="29.019167" lon="104.780291"><ele>365.93655</ele><time>2026-07-03T17:40:18.000Z</time></trkpt>
        <trkpt lat="29.019166" lon="104.780296"><ele>365.76834</ele><time>2026-07-03T17:40:20.000Z</time></trkpt>
        <trkpt lat="29.019197" lon="104.780228"><ele>365.76834</ele><time>2026-07-03T17:43:39.000Z</time></trkpt>
        <trkpt lat="29.019205" lon="104.780206"><ele>365.76834</ele><time>2026-07-03T17:43:41.000Z</time></trkpt>
        <trkpt lat="29.019208" lon="104.780187"><ele>366.7999</ele><time>2026-07-03T17:43:43.000Z</time></trkpt>
        <trkpt lat="29.019211" lon="104.780159"><ele>366.7999</ele><time>2026-07-03T17:43:46.000Z</time></trkpt>
        <trkpt lat="29.019212" lon="104.780139"><ele>366.89417</ele><time>2026-07-03T17:43:52.000Z</time></trkpt>
        <trkpt lat="29.019215" lon="104.780128"><ele>367.16714</ele><time>2026-07-03T17:43:54.000Z</time></trkpt>
        <trkpt lat="29.019221" lon="104.780099"><ele>367.16714</ele><time>2026-07-03T17:44:09.000Z</time></trkpt>
        <trkpt lat="29.019224" lon="104.780077"><ele>367.48315</ele><time>2026-07-03T17:44:17.000Z</time></trkpt>
        <trkpt lat="29.019233" lon="104.780013"><ele>367.48315</ele><time>2026-07-03T17:44:23.000Z</time></trkpt>
        <trkpt lat="29.019233" lon="104.780013"><ele>367.48315</ele><time>2026-07-03T17:44:25.000Z</time></trkpt>
        <trkpt lat="29.019233" lon="104.780008"><ele>367.16162</ele><time>2026-07-03T17:44:27.000Z</time></trkpt>
        <trkpt lat="29.019234" lon="104.779952"><ele>367.144</ele><time>2026-07-03T17:44:31.000Z</time></trkpt>
        <trkpt lat="29.019237" lon="104.779925"><ele>366.96555</ele><time>2026-07-03T17:44:33.000Z</time></trkpt>
        <trkpt lat="29.019242" lon="104.779904"><ele>366.5107</ele><time>2026-07-03T17:44:35.000Z</time></trkpt>
        <trkpt lat="29.019248" lon="104.77989"><ele>366.5107</ele><time>2026-07-03T17:44:37.000Z</time></trkpt>
        <trkpt lat="29.019258" lon="104.779877"><ele>366.5107</ele><time>2026-07-03T17:44:39.000Z</time></trkpt>
        <trkpt lat="29.01927" lon="104.779869"><ele>366.5107</ele><time>2026-07-03T17:44:41.000Z</time></trkpt>
        <trkpt lat="29.01928" lon="104.779866"><ele>366.51315</ele><time>2026-07-03T17:44:43.000Z</time></trkpt>
        <trkpt lat="29.019291" lon="104.779866"><ele>366.545</ele><time>2026-07-03T17:44:45.000Z</time></trkpt>
        <trkpt lat="29.019303" lon="104.779868"><ele>366.6883</ele><time>2026-07-03T17:44:47.000Z</time></trkpt>
        <trkpt lat="29.019318" lon="104.779871"><ele>366.76303</ele><time>2026-07-03T17:44:49.000Z</time></trkpt>
        <trkpt lat="29.019337" lon="104.779875"><ele>366.87427</ele><time>2026-07-03T17:44:51.000Z</time></trkpt>
        <trkpt lat="29.019363" lon="104.779882"><ele>367.27795</ele><time>2026-07-03T17:44:53.000Z</time></trkpt>
        <trkpt lat="29.019388" lon="104.779888"><ele>367.66235</ele><time>2026-07-03T17:44:55.000Z</time></trkpt>
        <trkpt lat="29.019415" lon="104.779893"><ele>368.0202</ele><time>2026-07-03T17:44:56.000Z</time></trkpt>
        <trkpt lat="29.019442" lon="104.779894"><ele>368.0305</ele><time>2026-07-03T17:44:58.000Z</time></trkpt>
        <trkpt lat="29.019472" lon="104.77989"><ele>368.0688</ele><time>2026-07-03T17:45:00.000Z</time></trkpt>
        <trkpt lat="29.019496" lon="104.77988"><ele>368.1265</ele><time>2026-07-03T17:45:02.000Z</time></trkpt>
        <trkpt lat="29.019514" lon="104.779866"><ele>368.3112</ele><time>2026-07-03T17:45:04.000Z</time></trkpt>
        <trkpt lat="29.019526" lon="104.779853"><ele>368.40887</ele><time>2026-07-03T17:45:06.000Z</time></trkpt>
        <trkpt lat="29.019535" lon="104.77984"><ele>368.6057</ele><time>2026-07-03T17:45:08.000Z</time></trkpt>
        <trkpt lat="29.019541" lon="104.779828"><ele>368.7397</ele><time>2026-07-03T17:45:10.000Z</time></trkpt>
        <trkpt lat="29.019542" lon="104.779822"><ele>368.89172</ele><time>2026-07-03T17:45:12.000Z</time></trkpt>
        <trkpt lat="29.019551" lon="104.779774"><ele>368.89172</ele><time>2026-07-03T17:45:19.000Z</time></trkpt>
        <trkpt lat="29.019551" lon="104.779774"><ele>368.89172</ele><time>2026-07-03T17:45:21.000Z</time></trkpt>
        <trkpt lat="29.019551" lon="104.779766"><ele>368.7157</ele><time>2026-07-03T17:45:23.000Z</time></trkpt>
        <trkpt lat="29.019552" lon="104.779736"><ele>368.7141</ele><time>2026-07-03T17:45:25.000Z</time></trkpt>
        <trkpt lat="29.019553" lon="104.779621"><ele>368.6524</ele><time>2026-07-03T17:45:29.000Z</time></trkpt>
        <trkpt lat="29.019553" lon="104.77962"><ele>368.36154</ele><time>2026-07-03T17:45:31.000Z</time></trkpt>
        <trkpt lat="29.019553" lon="104.779612"><ele>367.18225</ele><time>2026-07-03T17:45:33.000Z</time></trkpt>
        <trkpt lat="29.01956" lon="104.779536"><ele>367.14154</ele><time>2026-07-03T17:45:37.000Z</time></trkpt>
        <trkpt lat="29.019564" lon="104.779495"><ele>367.13928</ele><time>2026-07-03T17:45:39.000Z</time></trkpt>
        <trkpt lat="29.019568" lon="104.779457"><ele>367.13928</ele><time>2026-07-03T17:45:41.000Z</time></trkpt>
        <trkpt lat="29.019572" lon="104.779421"><ele>366.86588</ele><time>2026-07-03T17:45:43.000Z</time></trkpt>
        <trkpt lat="29.019574" lon="104.779387"><ele>365.69727</ele><time>2026-07-03T17:45:45.000Z</time></trkpt>
        <trkpt lat="29.019573" lon="104.779354"><ele>365.03088</ele><time>2026-07-03T17:45:47.000Z</time></trkpt>
        <trkpt lat="29.01957" lon="104.779323"><ele>365.03088</ele><time>2026-07-03T17:45:49.000Z</time></trkpt>
        <trkpt lat="29.019565" lon="104.779291"><ele>365.0003</ele><time>2026-07-03T17:45:51.000Z</time></trkpt>
        <trkpt lat="29.019559" lon="104.779259"><ele>364.92233</ele><time>2026-07-03T17:45:53.000Z</time></trkpt>
        <trkpt lat="29.019551" lon="104.77923"><ele>364.92233</ele><time>2026-07-03T17:45:55.000Z</time></trkpt>
        <trkpt lat="29.01954" lon="104.779204"><ele>364.80347</ele><time>2026-07-03T17:45:57.000Z</time></trkpt>
        <trkpt lat="29.019527" lon="104.77918"><ele>364.80347</ele><time>2026-07-03T17:45:59.000Z</time></trkpt>
        <trkpt lat="29.019511" lon="104.779157"><ele>364.80347</ele><time>2026-07-03T17:46:01.000Z</time></trkpt>
        <trkpt lat="29.019495" lon="104.779133"><ele>364.8903</ele><time>2026-07-03T17:46:03.000Z</time></trkpt>
        <trkpt lat="29.019479" lon="104.77911"><ele>364.8903</ele><time>2026-07-03T17:46:06.000Z</time></trkpt>
        <trkpt lat="29.019462" lon="104.779091"><ele>364.8903</ele><time>2026-07-03T17:46:08.000Z</time></trkpt>
        <trkpt lat="29.019443" lon="104.779075"><ele>364.66867</ele><time>2026-07-03T17:46:10.000Z</time></trkpt>
        <trkpt lat="29.019421" lon="104.779056"><ele>364.4541</ele><time>2026-07-03T17:46:12.000Z</time></trkpt>
        <trkpt lat="29.019401" lon="104.779039"><ele>364.15393</ele><time>2026-07-03T17:46:14.000Z</time></trkpt>
        <trkpt lat="29.01938" lon="104.77902"><ele>363.76392</ele><time>2026-07-03T17:46:16.000Z</time></trkpt>
        <trkpt lat="29.01936" lon="104.778998"><ele>363.761</ele><time>2026-07-03T17:46:18.000Z</time></trkpt>
        <trkpt lat="29.019345" lon="104.778975"><ele>363.04245</ele><time>2026-07-03T17:46:20.000Z</time></trkpt>
        <trkpt lat="29.019334" lon="104.778948"><ele>362.94623</ele><time>2026-07-03T17:46:22.000Z</time></trkpt>
        <trkpt lat="29.019328" lon="104.778919"><ele>362.80966</ele><time>2026-07-03T17:46:24.000Z</time></trkpt>
        <trkpt lat="29.019326" lon="104.778889"><ele>362.94623</ele><time>2026-07-03T17:46:26.000Z</time></trkpt>
        <trkpt lat="29.019326" lon="104.778858"><ele>362.96957</ele><time>2026-07-03T17:46:28.000Z</time></trkpt>
        <trkpt lat="29.019329" lon="104.778826"><ele>362.96957</ele><time>2026-07-03T17:46:30.000Z</time></trkpt>
        <trkpt lat="29.019333" lon="104.778795"><ele>363.7449</ele><time>2026-07-03T17:46:32.000Z</time></trkpt>
        <trkpt lat="29.019338" lon="104.778765"><ele>364.20914</ele><time>2026-07-03T17:46:34.000Z</time></trkpt>
        <trkpt lat="29.019342" lon="104.778735"><ele>364.30963</ele><time>2026-07-03T17:46:36.000Z</time></trkpt>
        <trkpt lat="29.019343" lon="104.778705"><ele>364.30963</ele><time>2026-07-03T17:46:38.000Z</time></trkpt>
        <trkpt lat="29.019336" lon="104.778681"><ele>364.30963</ele><time>2026-07-03T17:46:40.000Z</time></trkpt>
        <trkpt lat="29.019327" lon="104.778659"><ele>363.8211</ele><time>2026-07-03T17:46:42.000Z</time></trkpt>
        <trkpt lat="29.019314" lon="104.778634"><ele>363.62653</ele><time>2026-07-03T17:46:44.000Z</time></trkpt>
        <trkpt lat="29.019303" lon="104.778613"><ele>363.29898</ele><time>2026-07-03T17:46:46.000Z</time></trkpt>
        <trkpt lat="29.019292" lon="104.778589"><ele>363.127</ele><time>2026-07-03T17:46:48.000Z</time></trkpt>
        <trkpt lat="29.019281" lon="104.778565"><ele>363.11142</ele><time>2026-07-03T17:46:50.000Z</time></trkpt>
        <trkpt lat="29.019271" lon="104.778539"><ele>362.96954</ele><time>2026-07-03T17:46:52.000Z</time></trkpt>
        <trkpt lat="29.019262" lon="104.778515"><ele>362.524</ele><time>2026-07-03T17:46:54.000Z</time></trkpt>
        <trkpt lat="29.019253" lon="104.778491"><ele>362.32455</ele><time>2026-07-03T17:46:55.000Z</time></trkpt>
        <trkpt lat="29.019243" lon="104.778467"><ele>362.14786</ele><time>2026-07-03T17:46:57.000Z</time></trkpt>
        <trkpt lat="29.019231" lon="104.778445"><ele>362.14786</ele><time>2026-07-03T17:46:59.000Z</time></trkpt>
        <trkpt lat="29.019219" lon="104.778428"><ele>362.14786</ele><time>2026-07-03T17:47:01.000Z</time></trkpt>
        <trkpt lat="29.019204" lon="104.778411"><ele>362.24728</ele><time>2026-07-03T17:47:03.000Z</time></trkpt>
        <trkpt lat="29.01919" lon="104.7784"><ele>362.24728</ele><time>2026-07-03T17:47:05.000Z</time></trkpt>
        <trkpt lat="29.019171" lon="104.778388"><ele>362.24728</ele><time>2026-07-03T17:47:07.000Z</time></trkpt>
        <trkpt lat="29.019152" lon="104.778373"><ele>362.09836</ele><time>2026-07-03T17:47:09.000Z</time></trkpt>
        <trkpt lat="29.019133" lon="104.778358"><ele>361.73962</ele><time>2026-07-03T17:47:11.000Z</time></trkpt>
        <trkpt lat="29.019113" lon="104.778336"><ele>361.21832</ele><time>2026-07-03T17:47:13.000Z</time></trkpt>
        <trkpt lat="29.019093" lon="104.77831"><ele>360.41748</ele><time>2026-07-03T17:47:15.000Z</time></trkpt>
        <trkpt lat="29.019076" lon="104.778282"><ele>360.08826</ele><time>2026-07-03T17:47:17.000Z</time></trkpt>
        <trkpt lat="29.01906" lon="104.778252"><ele>359.86707</ele><time>2026-07-03T17:47:19.000Z</time></trkpt>
        <trkpt lat="29.019044" lon="104.778222"><ele>359.86707</ele><time>2026-07-03T17:47:21.000Z</time></trkpt>
        <trkpt lat="29.01903" lon="104.778192"><ele>359.86707</ele><time>2026-07-03T17:47:23.000Z</time></trkpt>
        <trkpt lat="29.019016" lon="104.778162"><ele>359.7368</ele><time>2026-07-03T17:47:25.000Z</time></trkpt>
        <trkpt lat="29.019003" lon="104.778133"><ele>359.7368</ele><time>2026-07-03T17:47:27.000Z</time></trkpt>
        <trkpt lat="29.01899" lon="104.778105"><ele>359.46204</ele><time>2026-07-03T17:47:29.000Z</time></trkpt>
        <trkpt lat="29.018972" lon="104.77808"><ele>358.85938</ele><time>2026-07-03T17:47:31.000Z</time></trkpt>
        <trkpt lat="29.018953" lon="104.778057"><ele>358.38242</ele><time>2026-07-03T17:47:33.000Z</time></trkpt>
        <trkpt lat="29.018933" lon="104.778037"><ele>358.38242</ele><time>2026-07-03T17:47:35.000Z</time></trkpt>
        <trkpt lat="29.018914" lon="104.778021"><ele>358.38242</ele><time>2026-07-03T17:47:37.000Z</time></trkpt>
        <trkpt lat="29.018898" lon="104.778012"><ele>358.50275</ele><time>2026-07-03T17:47:39.000Z</time></trkpt>
        <trkpt lat="29.018891" lon="104.77801"><ele>358.69287</ele><time>2026-07-03T17:47:41.000Z</time></trkpt>
        <trkpt lat="29.018888" lon="104.778009"><ele>359.02847</ele><time>2026-07-03T17:47:43.000Z</time></trkpt>
        <trkpt lat="29.018851" lon="104.777987"><ele>359.02847</ele><time>2026-07-03T17:47:53.000Z</time></trkpt>
        <trkpt lat="29.01885" lon="104.777987"><ele>359.02847</ele><time>2026-07-03T17:47:55.000Z</time></trkpt>
        <trkpt lat="29.018843" lon="104.777986"><ele>358.67404</ele><time>2026-07-03T17:47:57.000Z</time></trkpt>
        <trkpt lat="29.018818" lon="104.777984"><ele>358.67404</ele><time>2026-07-03T17:47:59.000Z</time></trkpt>
        <trkpt lat="29.01879" lon="104.777981"><ele>358.67404</ele><time>2026-07-03T17:48:01.000Z</time></trkpt>
        <trkpt lat="29.018766" lon="104.777976"><ele>359.21213</ele><time>2026-07-03T17:48:03.000Z</time></trkpt>
        <trkpt lat="29.018752" lon="104.777973"><ele>359.72922</ele><time>2026-07-03T17:48:05.000Z</time></trkpt>
        <trkpt lat="29.01875" lon="104.777969"><ele>360.07065</ele><time>2026-07-03T17:48:07.000Z</time></trkpt>
        <trkpt lat="29.01874" lon="104.777947"><ele>360.27673</ele><time>2026-07-03T17:48:15.000Z</time></trkpt>
        <trkpt lat="29.01874" lon="104.777947"><ele>360.2791</ele><time>2026-07-03T17:48:17.000Z</time></trkpt>
        <trkpt lat="29.018729" lon="104.777944"><ele>360.2842</ele><time>2026-07-03T17:48:21.000Z</time></trkpt>
        <trkpt lat="29.018707" lon="104.777936"><ele>360.51114</ele><time>2026-07-03T17:48:23.000Z</time></trkpt>
        <trkpt lat="29.018706" lon="104.777936"><ele>360.7281</ele><time>2026-07-03T17:48:25.000Z</time></trkpt>
        <trkpt lat="29.018661" lon="104.777929"><ele>361.48273</ele><time>2026-07-03T17:48:32.000Z</time></trkpt>
        <trkpt lat="29.018661" lon="104.777929"><ele>361.48273</ele><time>2026-07-03T17:48:34.000Z</time></trkpt>
        <trkpt lat="29.018654" lon="104.777929"><ele>361.48273</ele><time>2026-07-03T17:48:36.000Z</time></trkpt>
        <trkpt lat="29.018631" lon="104.777929"><ele>361.48016</ele><time>2026-07-03T17:48:38.000Z</time></trkpt>
        <trkpt lat="29.018598" lon="104.777928"><ele>361.42816</ele><time>2026-07-03T17:48:40.000Z</time></trkpt>
        <trkpt lat="29.018567" lon="104.777924"><ele>361.08994</ele><time>2026-07-03T17:48:42.000Z</time></trkpt>
        <trkpt lat="29.018538" lon="104.777919"><ele>360.7587</ele><time>2026-07-03T17:48:44.000Z</time></trkpt>
        <trkpt lat="29.018513" lon="104.777915"><ele>360.53232</ele><time>2026-07-03T17:48:46.000Z</time></trkpt>
        <trkpt lat="29.018494" lon="104.777912"><ele>360.42258</ele><time>2026-07-03T17:48:48.000Z</time></trkpt>
        <trkpt lat="29.018473" lon="104.777907"><ele>360.29196</ele><time>2026-07-03T17:48:50.000Z</time></trkpt>
        <trkpt lat="29.018455" lon="104.7779"><ele>360.07202</ele><time>2026-07-03T17:48:52.000Z</time></trkpt>
        <trkpt lat="29.018433" lon="104.777892"><ele>360.07202</ele><time>2026-07-03T17:48:54.000Z</time></trkpt>
        <trkpt lat="29.01841" lon="104.777884"><ele>360.07202</ele><time>2026-07-03T17:48:56.000Z</time></trkpt>
        <trkpt lat="29.018386" lon="104.777877"><ele>360.677</ele><time>2026-07-03T17:48:58.000Z</time></trkpt>
        <trkpt lat="29.018367" lon="104.777867"><ele>360.9256</ele><time>2026-07-03T17:49:00.000Z</time></trkpt>
        <trkpt lat="29.018349" lon="104.777855"><ele>361.22867</ele><time>2026-07-03T17:49:02.000Z</time></trkpt>
        <trkpt lat="29.018334" lon="104.777843"><ele>361.61658</ele><time>2026-07-03T17:49:03.000Z</time></trkpt>
        <trkpt lat="29.018318" lon="104.777829"><ele>361.89786</ele><time>2026-07-03T17:49:05.000Z</time></trkpt>
        <trkpt lat="29.018304" lon="104.777814"><ele>362.3582</ele><time>2026-07-03T17:49:07.000Z</time></trkpt>
        <trkpt lat="29.018291" lon="104.777797"><ele>362.3582</ele><time>2026-07-03T17:49:09.000Z</time></trkpt>
        <trkpt lat="29.018282" lon="104.77778"><ele>362.3582</ele><time>2026-07-03T17:49:11.000Z</time></trkpt>
        <trkpt lat="29.018273" lon="104.777759"><ele>362.4143</ele><time>2026-07-03T17:49:13.000Z</time></trkpt>
        <trkpt lat="29.018265" lon="104.777735"><ele>362.4143</ele><time>2026-07-03T17:49:15.000Z</time></trkpt>
        <trkpt lat="29.018254" lon="104.777713"><ele>362.5762</ele><time>2026-07-03T17:49:17.000Z</time></trkpt>
        <trkpt lat="29.018243" lon="104.777686"><ele>362.58078</ele><time>2026-07-03T17:49:19.000Z</time></trkpt>
        <trkpt lat="29.018233" lon="104.77766"><ele>362.7037</ele><time>2026-07-03T17:49:21.000Z</time></trkpt>
        <trkpt lat="29.018226" lon="104.777628"><ele>363.14127</ele><time>2026-07-03T17:49:23.000Z</time></trkpt>
        <trkpt lat="29.01822" lon="104.777594"><ele>363.3551</ele><time>2026-07-03T17:49:25.000Z</time></trkpt>
        <trkpt lat="29.018219" lon="104.777558"><ele>363.3551</ele><time>2026-07-03T17:49:27.000Z</time></trkpt>
        <trkpt lat="29.01822" lon="104.777525"><ele>363.3551</ele><time>2026-07-03T17:49:29.000Z</time></trkpt>
        <trkpt lat="29.018228" lon="104.777502"><ele>363.12503</ele><time>2026-07-03T17:49:31.000Z</time></trkpt>
        <trkpt lat="29.018241" lon="104.777476"><ele>362.50778</ele><time>2026-07-03T17:49:33.000Z</time></trkpt>
        <trkpt lat="29.018254" lon="104.777448"><ele>362.1401</ele><time>2026-07-03T17:49:35.000Z</time></trkpt>
        <trkpt lat="29.018265" lon="104.77742"><ele>361.85104</ele><time>2026-07-03T17:49:37.000Z</time></trkpt>
        <trkpt lat="29.018273" lon="104.777392"><ele>360.92096</ele><time>2026-07-03T17:49:39.000Z</time></trkpt>
        <trkpt lat="29.018284" lon="104.777365"><ele>360.16245</ele><time>2026-07-03T17:49:41.000Z</time></trkpt>
        <trkpt lat="29.018297" lon="104.777339"><ele>360.08435</ele><time>2026-07-03T17:49:43.000Z</time></trkpt>
        <trkpt lat="29.018307" lon="104.777312"><ele>360.08435</ele><time>2026-07-03T17:49:45.000Z</time></trkpt>
        <trkpt lat="29.018316" lon="104.777285"><ele>360.08435</ele><time>2026-07-03T17:49:47.000Z</time></trkpt>
        <trkpt lat="29.018324" lon="104.777257"><ele>360.2173</ele><time>2026-07-03T17:49:49.000Z</time></trkpt>
        <trkpt lat="29.018332" lon="104.77723"><ele>360.2173</ele><time>2026-07-03T17:49:51.000Z</time></trkpt>
        <trkpt lat="29.01834" lon="104.777202"><ele>360.2173</ele><time>2026-07-03T17:49:53.000Z</time></trkpt>
        <trkpt lat="29.01835" lon="104.777173"><ele>359.9989</ele><time>2026-07-03T17:49:55.000Z</time></trkpt>
        <trkpt lat="29.018363" lon="104.777145"><ele>359.68546</ele><time>2026-07-03T17:49:57.000Z</time></trkpt>
        <trkpt lat="29.018377" lon="104.777118"><ele>359.5408</ele><time>2026-07-03T17:49:59.000Z</time></trkpt>
        <trkpt lat="29.018392" lon="104.77709"><ele>359.36194</ele><time>2026-07-03T17:50:01.000Z</time></trkpt>
        <trkpt lat="29.018408" lon="104.777063"><ele>358.79544</ele><time>2026-07-03T17:50:03.000Z</time></trkpt>
        <trkpt lat="29.018425" lon="104.777036"><ele>358.46512</ele><time>2026-07-03T17:50:05.000Z</time></trkpt>
        <trkpt lat="29.018442" lon="104.777009"><ele>358.34204</ele><time>2026-07-03T17:50:07.000Z</time></trkpt>
        <trkpt lat="29.018459" lon="104.776983"><ele>358.34204</ele><time>2026-07-03T17:50:09.000Z</time></trkpt>
        <trkpt lat="29.018475" lon="104.776957"><ele>358.34204</ele><time>2026-07-03T17:50:11.000Z</time></trkpt>
        <trkpt lat="29.018491" lon="104.776934"><ele>358.39526</ele><time>2026-07-03T17:50:13.000Z</time></trkpt>
        <trkpt lat="29.018508" lon="104.776913"><ele>358.39526</ele><time>2026-07-03T17:50:15.000Z</time></trkpt>
        <trkpt lat="29.018527" lon="104.776893"><ele>358.39526</ele><time>2026-07-03T17:50:18.000Z</time></trkpt>
        <trkpt lat="29.018546" lon="104.776875"><ele>358.13852</ele><time>2026-07-03T17:50:20.000Z</time></trkpt>
        <trkpt lat="29.018566" lon="104.776857"><ele>357.87296</ele><time>2026-07-03T17:50:22.000Z</time></trkpt>
        <trkpt lat="29.018586" lon="104.776838"><ele>357.84692</ele><time>2026-07-03T17:50:24.000Z</time></trkpt>
        <trkpt lat="29.018603" lon="104.776816"><ele>357.8454</ele><time>2026-07-03T17:50:26.000Z</time></trkpt>
        <trkpt lat="29.018616" lon="104.776791"><ele>357.36554</ele><time>2026-07-03T17:50:28.000Z</time></trkpt>
        <trkpt lat="29.018624" lon="104.776763"><ele>356.63086</ele><time>2026-07-03T17:50:30.000Z</time></trkpt>
        <trkpt lat="29.018626" lon="104.776732"><ele>355.94238</ele><time>2026-07-03T17:50:32.000Z</time></trkpt>
        <trkpt lat="29.018623" lon="104.7767"><ele>355.27817</ele><time>2026-07-03T17:50:34.000Z</time></trkpt>
        <trkpt lat="29.018618" lon="104.776668"><ele>354.33023</ele><time>2026-07-03T17:50:36.000Z</time></trkpt>
        <trkpt lat="29.018612" lon="104.776636"><ele>353.50604</ele><time>2026-07-03T17:50:38.000Z</time></trkpt>
        <trkpt lat="29.018602" lon="104.776606"><ele>352.14575</ele><time>2026-07-03T17:50:40.000Z</time></trkpt>
        <trkpt lat="29.018591" lon="104.776576"><ele>351.3193</ele><time>2026-07-03T17:50:42.000Z</time></trkpt>
        <trkpt lat="29.018581" lon="104.776549"><ele>351.0464</ele><time>2026-07-03T17:50:44.000Z</time></trkpt>
        <trkpt lat="29.01857" lon="104.776523"><ele>351.0464</ele><time>2026-07-03T17:50:46.000Z</time></trkpt>
        <trkpt lat="29.01856" lon="104.776496"><ele>351.0464</ele><time>2026-07-03T17:50:48.000Z</time></trkpt>
        <trkpt lat="29.01855" lon="104.776471"><ele>351.37735</ele><time>2026-07-03T17:50:50.000Z</time></trkpt>
        <trkpt lat="29.018539" lon="104.776447"><ele>351.77155</ele><time>2026-07-03T17:50:52.000Z</time></trkpt>
        <trkpt lat="29.018527" lon="104.776422"><ele>351.8505</ele><time>2026-07-03T17:50:54.000Z</time></trkpt>
        <trkpt lat="29.018516" lon="104.776397"><ele>351.86026</ele><time>2026-07-03T17:50:56.000Z</time></trkpt>
        <trkpt lat="29.018506" lon="104.776372"><ele>352.34607</ele><time>2026-07-03T17:50:58.000Z</time></trkpt>
        <trkpt lat="29.0185" lon="104.776346"><ele>352.7268</ele><time>2026-07-03T17:51:00.000Z</time></trkpt>
        <trkpt lat="29.018494" lon="104.776318"><ele>353.19733</ele><time>2026-07-03T17:51:02.000Z</time></trkpt>
        <trkpt lat="29.018489" lon="104.776293"><ele>353.3396</ele><time>2026-07-03T17:51:04.000Z</time></trkpt>
        <trkpt lat="29.018487" lon="104.776262"><ele>353.5654</ele><time>2026-07-03T17:51:06.000Z</time></trkpt>
        <trkpt lat="29.018486" lon="104.776231"><ele>354.04828</ele><time>2026-07-03T17:51:08.000Z</time></trkpt>
        <trkpt lat="29.018484" lon="104.776202"><ele>354.38657</ele><time>2026-07-03T17:51:10.000Z</time></trkpt>
        <trkpt lat="29.018479" lon="104.776174"><ele>354.60083</ele><time>2026-07-03T17:51:12.000Z</time></trkpt>
        <trkpt lat="29.018469" lon="104.77614"><ele>354.75467</ele><time>2026-07-03T17:51:14.000Z</time></trkpt>
        <trkpt lat="29.018457" lon="104.776116"><ele>354.75467</ele><time>2026-07-03T17:51:16.000Z</time></trkpt>
        <trkpt lat="29.018441" lon="104.776095"><ele>354.60083</ele><time>2026-07-03T17:51:17.000Z</time></trkpt>
        <trkpt lat="29.018424" lon="104.776076"><ele>354.52026</ele><time>2026-07-03T17:51:19.000Z</time></trkpt>
        <trkpt lat="29.018404" lon="104.77606"><ele>353.98648</ele><time>2026-07-03T17:51:21.000Z</time></trkpt>
        <trkpt lat="29.018381" lon="104.776046"><ele>353.544</ele><time>2026-07-03T17:51:23.000Z</time></trkpt>
        <trkpt lat="29.01836" lon="104.77604"><ele>353.33887</ele><time>2026-07-03T17:51:25.000Z</time></trkpt>
        <trkpt lat="29.018338" lon="104.776037"><ele>353.20834</ele><time>2026-07-03T17:51:27.000Z</time></trkpt>
        <trkpt lat="29.018321" lon="104.776038"><ele>353.04263</ele><time>2026-07-03T17:51:29.000Z</time></trkpt>
        <trkpt lat="29.018306" lon="104.776039"><ele>352.1143</ele><time>2026-07-03T17:51:31.000Z</time></trkpt>
        <trkpt lat="29.018282" lon="104.776042"><ele>349.41425</ele><time>2026-07-03T17:51:33.000Z</time></trkpt>
        <trkpt lat="29.018254" lon="104.776048"><ele>348.3141</ele><time>2026-07-03T17:51:35.000Z</time></trkpt>
        <trkpt lat="29.018225" lon="104.776055"><ele>348.0778</ele><time>2026-07-03T17:51:37.000Z</time></trkpt>
        <trkpt lat="29.018197" lon="104.776067"><ele>348.0778</ele><time>2026-07-03T17:51:39.000Z</time></trkpt>
        <trkpt lat="29.018175" lon="104.776079"><ele>348.0778</ele><time>2026-07-03T17:51:41.000Z</time></trkpt>
        <trkpt lat="29.018154" lon="104.776096"><ele>348.0778</ele><time>2026-07-03T17:51:43.000Z</time></trkpt>
        <trkpt lat="29.018134" lon="104.776115"><ele>347.70737</ele><time>2026-07-03T17:51:45.000Z</time></trkpt>
        <trkpt lat="29.018114" lon="104.776135"><ele>347.1204</ele><time>2026-07-03T17:51:47.000Z</time></trkpt>
        <trkpt lat="29.018094" lon="104.776157"><ele>345.88324</ele><time>2026-07-03T17:51:49.000Z</time></trkpt>
        <trkpt lat="29.018076" lon="104.776175"><ele>345.48117</ele><time>2026-07-03T17:51:51.000Z</time></trkpt>
        <trkpt lat="29.018055" lon="104.776191"><ele>345.48117</ele><time>2026-07-03T17:51:53.000Z</time></trkpt>
        <trkpt lat="29.018037" lon="104.776211"><ele>345.48117</ele><time>2026-07-03T17:51:55.000Z</time></trkpt>
        <trkpt lat="29.018021" lon="104.776226"><ele>345.6892</ele><time>2026-07-03T17:51:57.000Z</time></trkpt>
        <trkpt lat="29.018002" lon="104.776237"><ele>346.0137</ele><time>2026-07-03T17:51:59.000Z</time></trkpt>
        <trkpt lat="29.017982" lon="104.776244"><ele>346.0137</ele><time>2026-07-03T17:52:01.000Z</time></trkpt>
        <trkpt lat="29.017959" lon="104.77625"><ele>346.3328</ele><time>2026-07-03T17:52:03.000Z</time></trkpt>
        <trkpt lat="29.017935" lon="104.776256"><ele>346.3328</ele><time>2026-07-03T17:52:05.000Z</time></trkpt>
        <trkpt lat="29.017912" lon="104.776259"><ele>346.51492</ele><time>2026-07-03T17:52:07.000Z</time></trkpt>
        <trkpt lat="29.017888" lon="104.776259"><ele>346.91183</ele><time>2026-07-03T17:52:09.000Z</time></trkpt>
        <trkpt lat="29.017865" lon="104.776257"><ele>347.5995</ele><time>2026-07-03T17:52:11.000Z</time></trkpt>
        <trkpt lat="29.017842" lon="104.776254"><ele>347.5995</ele><time>2026-07-03T17:52:13.000Z</time></trkpt>
        <trkpt lat="29.017819" lon="104.776247"><ele>347.5995</ele><time>2026-07-03T17:52:15.000Z</time></trkpt>
        <trkpt lat="29.017797" lon="104.776237"><ele>347.39987</ele><time>2026-07-03T17:52:17.000Z</time></trkpt>
        <trkpt lat="29.017779" lon="104.776226"><ele>347.32626</ele><time>2026-07-03T17:52:19.000Z</time></trkpt>
        <trkpt lat="29.017756" lon="104.77621"><ele>347.23752</ele><time>2026-07-03T17:52:21.000Z</time></trkpt>
        <trkpt lat="29.017734" lon="104.776194"><ele>347.21658</ele><time>2026-07-03T17:52:24.000Z</time></trkpt>
        <trkpt lat="29.017717" lon="104.776177"><ele>347.1417</ele><time>2026-07-03T17:52:26.000Z</time></trkpt>
        <trkpt lat="29.017704" lon="104.776156"><ele>347.03656</ele><time>2026-07-03T17:52:28.000Z</time></trkpt>
        <trkpt lat="29.017692" lon="104.776135"><ele>346.6861</ele><time>2026-07-03T17:52:30.000Z</time></trkpt>
        <trkpt lat="29.017684" lon="104.776118"><ele>346.52744</ele><time>2026-07-03T17:52:32.000Z</time></trkpt>
        <trkpt lat="29.017679" lon="104.776104"><ele>346.3957</ele><time>2026-07-03T17:52:34.000Z</time></trkpt>
        <trkpt lat="29.017673" lon="104.776082"><ele>346.52744</ele><time>2026-07-03T17:52:36.000Z</time></trkpt>
        <trkpt lat="29.017671" lon="104.776058"><ele>346.6861</ele><time>2026-07-03T17:52:38.000Z</time></trkpt>
        <trkpt lat="29.017668" lon="104.776032"><ele>346.52744</ele><time>2026-07-03T17:52:40.000Z</time></trkpt>
        <trkpt lat="29.017669" lon="104.776005"><ele>346.42545</ele><time>2026-07-03T17:52:42.000Z</time></trkpt>
        <trkpt lat="29.017674" lon="104.775976"><ele>346.4364</ele><time>2026-07-03T17:52:44.000Z</time></trkpt>
        <trkpt lat="29.017683" lon="104.775949"><ele>346.4364</ele><time>2026-07-03T17:52:46.000Z</time></trkpt>
        <trkpt lat="29.017693" lon="104.775923"><ele>346.4364</ele><time>2026-07-03T17:52:48.000Z</time></trkpt>
        <trkpt lat="29.017695" lon="104.775897"><ele>346.45456</ele><time>2026-07-03T17:52:50.000Z</time></trkpt>
        <trkpt lat="29.017694" lon="104.775872"><ele>346.45456</ele><time>2026-07-03T17:52:52.000Z</time></trkpt>
        <trkpt lat="29.017693" lon="104.775843"><ele>346.45456</ele><time>2026-07-03T17:52:54.000Z</time></trkpt>
        <trkpt lat="29.017696" lon="104.775812"><ele>345.57843</ele><time>2026-07-03T17:52:56.000Z</time></trkpt>
        <trkpt lat="29.017703" lon="104.775785"><ele>344.87036</ele><time>2026-07-03T17:52:58.000Z</time></trkpt>
        <trkpt lat="29.017706" lon="104.775756"><ele>344.4118</ele><time>2026-07-03T17:53:00.000Z</time></trkpt>
        <trkpt lat="29.017707" lon="104.775722"><ele>344.4118</ele><time>2026-07-03T17:53:02.000Z</time></trkpt>
        <trkpt lat="29.017707" lon="104.77569"><ele>344.4077</ele><time>2026-07-03T17:53:04.000Z</time></trkpt>
        <trkpt lat="29.017707" lon="104.775659"><ele>344.4077</ele><time>2026-07-03T17:53:06.000Z</time></trkpt>
        <trkpt lat="29.017706" lon="104.77564"><ele>344.4077</ele><time>2026-07-03T17:53:08.000Z</time></trkpt>
        <trkpt lat="29.017706" lon="104.775618"><ele>344.00928</ele><time>2026-07-03T17:53:10.000Z</time></trkpt>
        <trkpt lat="29.017705" lon="104.775594"><ele>343.11722</ele><time>2026-07-03T17:53:12.000Z</time></trkpt>
        <trkpt lat="29.017699" lon="104.775569"><ele>342.34537</ele><time>2026-07-03T17:53:14.000Z</time></trkpt>
        <trkpt lat="29.017691" lon="104.77555"><ele>342.03226</ele><time>2026-07-03T17:53:16.000Z</time></trkpt>
        <trkpt lat="29.017679" lon="104.775532"><ele>341.53665</ele><time>2026-07-03T17:53:18.000Z</time></trkpt>
        <trkpt lat="29.017661" lon="104.775509"><ele>340.8723</ele><time>2026-07-03T17:53:20.000Z</time></trkpt>
        <trkpt lat="29.017643" lon="104.775487"><ele>339.1574</ele><time>2026-07-03T17:53:22.000Z</time></trkpt>
        <trkpt lat="29.017622" lon="104.775466"><ele>339.1574</ele><time>2026-07-03T17:53:24.000Z</time></trkpt>
        <trkpt lat="29.017601" lon="104.775446"><ele>339.1574</ele><time>2026-07-03T17:53:26.000Z</time></trkpt>
        <trkpt lat="29.017581" lon="104.775431"><ele>339.14545</ele><time>2026-07-03T17:53:28.000Z</time></trkpt>
        <trkpt lat="29.01756" lon="104.775421"><ele>339.36533</ele><time>2026-07-03T17:53:29.000Z</time></trkpt>
        <trkpt lat="29.017543" lon="104.775415"><ele>339.36533</ele><time>2026-07-03T17:53:31.000Z</time></trkpt>
        <trkpt lat="29.017521" lon="104.77541"><ele>339.23358</ele><time>2026-07-03T17:53:33.000Z</time></trkpt>
        <trkpt lat="29.017499" lon="104.775404"><ele>339.23358</ele><time>2026-07-03T17:53:35.000Z</time></trkpt>
        <trkpt lat="29.017476" lon="104.775396"><ele>339.41354</ele><time>2026-07-03T17:53:37.000Z</time></trkpt>
        <trkpt lat="29.017451" lon="104.775388"><ele>339.3434</ele><time>2026-07-03T17:53:39.000Z</time></trkpt>
        <trkpt lat="29.017427" lon="104.775383"><ele>339.41354</ele><time>2026-07-03T17:53:41.000Z</time></trkpt>
        <trkpt lat="29.017403" lon="104.775377"><ele>339.41354</ele><time>2026-07-03T17:53:43.000Z</time></trkpt>
        <trkpt lat="29.017379" lon="104.775372"><ele>339.3434</ele><time>2026-07-03T17:53:45.000Z</time></trkpt>
        <trkpt lat="29.017357" lon="104.775365"><ele>339.3434</ele><time>2026-07-03T17:53:47.000Z</time></trkpt>
        <trkpt lat="29.017334" lon="104.775354"><ele>339.52423</ele><time>2026-07-03T17:53:49.000Z</time></trkpt>
        <trkpt lat="29.017314" lon="104.775342"><ele>340.4781</ele><time>2026-07-03T17:53:51.000Z</time></trkpt>
        <trkpt lat="29.017293" lon="104.775326"><ele>340.47897</ele><time>2026-07-03T17:53:53.000Z</time></trkpt>
        <trkpt lat="29.017273" lon="104.775306"><ele>340.47897</ele><time>2026-07-03T17:53:55.000Z</time></trkpt>
        <trkpt lat="29.017256" lon="104.775284"><ele>340.47897</ele><time>2026-07-03T17:53:57.000Z</time></trkpt>
        <trkpt lat="29.017241" lon="104.775259"><ele>340.47897</ele><time>2026-07-03T17:53:59.000Z</time></trkpt>
        <trkpt lat="29.017232" lon="104.775232"><ele>341.57608</ele><time>2026-07-03T17:54:01.000Z</time></trkpt>
        <trkpt lat="29.017223" lon="104.775206"><ele>342.2209</ele><time>2026-07-03T17:54:03.000Z</time></trkpt>
        <trkpt lat="29.017219" lon="104.775184"><ele>342.2209</ele><time>2026-07-03T17:54:05.000Z</time></trkpt>
        <trkpt lat="29.017218" lon="104.775159"><ele>342.2209</ele><time>2026-07-03T17:54:07.000Z</time></trkpt>
        <trkpt lat="29.017215" lon="104.775132"><ele>341.00607</ele><time>2026-07-03T17:54:09.000Z</time></trkpt>
        <trkpt lat="29.017207" lon="104.775109"><ele>339.55066</ele><time>2026-07-03T17:54:11.000Z</time></trkpt>
        <trkpt lat="29.017194" lon="104.775087"><ele>338.19315</ele><time>2026-07-03T17:54:13.000Z</time></trkpt>
        <trkpt lat="29.017176" lon="104.775064"><ele>336.15625</ele><time>2026-07-03T17:54:15.000Z</time></trkpt>
        <trkpt lat="29.017159" lon="104.775043"><ele>334.13574</ele><time>2026-07-03T17:54:17.000Z</time></trkpt>
        <trkpt lat="29.017142" lon="104.775021"><ele>333.0649</ele><time>2026-07-03T17:54:19.000Z</time></trkpt>
        <trkpt lat="29.017126" lon="104.775"><ele>331.8435</ele><time>2026-07-03T17:54:21.000Z</time></trkpt>
        <trkpt lat="29.017109" lon="104.774978"><ele>331.4638</ele><time>2026-07-03T17:54:23.000Z</time></trkpt>
        <trkpt lat="29.017092" lon="104.774956"><ele>331.4638</ele><time>2026-07-03T17:54:25.000Z</time></trkpt>
        <trkpt lat="29.017073" lon="104.774937"><ele>331.28082</ele><time>2026-07-03T17:54:27.000Z</time></trkpt>
        <trkpt lat="29.017055" lon="104.77492"><ele>330.98514</ele><time>2026-07-03T17:54:30.000Z</time></trkpt>
        <trkpt lat="29.017037" lon="104.774903"><ele>330.55646</ele><time>2026-07-03T17:54:32.000Z</time></trkpt>
        <trkpt lat="29.017018" lon="104.774887"><ele>329.26117</ele><time>2026-07-03T17:54:34.000Z</time></trkpt>
        <trkpt lat="29.016998" lon="104.774871"><ele>328.37473</ele><time>2026-07-03T17:54:36.000Z</time></trkpt>
        <trkpt lat="29.016978" lon="104.774855"><ele>327.23624</ele><time>2026-07-03T17:54:38.000Z</time></trkpt>
        <trkpt lat="29.016956" lon="104.77484"><ele>326.81573</ele><time>2026-07-03T17:54:40.000Z</time></trkpt>
        <trkpt lat="29.016932" lon="104.774828"><ele>326.81573</ele><time>2026-07-03T17:54:42.000Z</time></trkpt>
        <trkpt lat="29.016908" lon="104.774816"><ele>326.58514</ele><time>2026-07-03T17:54:44.000Z</time></trkpt>
        <trkpt lat="29.016886" lon="104.774806"><ele>326.58514</ele><time>2026-07-03T17:54:46.000Z</time></trkpt>
        <trkpt lat="29.016863" lon="104.774797"><ele>326.58514</ele><time>2026-07-03T17:54:48.000Z</time></trkpt>
        <trkpt lat="29.016841" lon="104.77479"><ele>326.3836</ele><time>2026-07-03T17:54:50.000Z</time></trkpt>
        <trkpt lat="29.016816" lon="104.774783"><ele>326.29477</ele><time>2026-07-03T17:54:52.000Z</time></trkpt>
        <trkpt lat="29.016788" lon="104.774779"><ele>326.2241</ele><time>2026-07-03T17:54:54.000Z</time></trkpt>
        <trkpt lat="29.016761" lon="104.774777"><ele>325.88693</ele><time>2026-07-03T17:54:56.000Z</time></trkpt>
        <trkpt lat="29.016735" lon="104.774774"><ele>325.3327</ele><time>2026-07-03T17:54:58.000Z</time></trkpt>
        <trkpt lat="29.016707" lon="104.774771"><ele>324.3365</ele><time>2026-07-03T17:55:00.000Z</time></trkpt>
        <trkpt lat="29.016681" lon="104.774766"><ele>324.0318</ele><time>2026-07-03T17:55:02.000Z</time></trkpt>
        <trkpt lat="29.016656" lon="104.774759"><ele>324.0318</ele><time>2026-07-03T17:55:04.000Z</time></trkpt>
        <trkpt lat="29.016631" lon="104.77475"><ele>324.0318</ele><time>2026-07-03T17:55:06.000Z</time></trkpt>
        <trkpt lat="29.016608" lon="104.774741"><ele>324.62555</ele><time>2026-07-03T17:55:08.000Z</time></trkpt>
        <trkpt lat="29.016584" lon="104.774734"><ele>324.62555</ele><time>2026-07-03T17:55:10.000Z</time></trkpt>
        <trkpt lat="29.016559" lon="104.77473"><ele>324.62555</ele><time>2026-07-03T17:55:12.000Z</time></trkpt>
        <trkpt lat="29.016535" lon="104.774727"><ele>323.07727</ele><time>2026-07-03T17:55:14.000Z</time></trkpt>
        <trkpt lat="29.016507" lon="104.774724"><ele>322.53613</ele><time>2026-07-03T17:55:16.000Z</time></trkpt>
        <trkpt lat="29.016482" lon="104.774722"><ele>322.53613</ele><time>2026-07-03T17:55:18.000Z</time></trkpt>
        <trkpt lat="29.016462" lon="104.774722"><ele>322.53613</ele><time>2026-07-03T17:55:20.000Z</time></trkpt>
        <trkpt lat="29.016442" lon="104.774724"><ele>323.29514</ele><time>2026-07-03T17:55:22.000Z</time></trkpt>
        <trkpt lat="29.016419" lon="104.774726"><ele>323.29514</ele><time>2026-07-03T17:55:24.000Z</time></trkpt>
        <trkpt lat="29.016394" lon="104.774728"><ele>323.29514</ele><time>2026-07-03T17:55:26.000Z</time></trkpt>
        <trkpt lat="29.016368" lon="104.77473"><ele>322.20837</ele><time>2026-07-03T17:55:28.000Z</time></trkpt>
        <trkpt lat="29.016345" lon="104.774733"><ele>322.18967</ele><time>2026-07-03T17:55:30.000Z</time></trkpt>
        <trkpt lat="29.016319" lon="104.77474"><ele>322.09097</ele><time>2026-07-03T17:55:32.000Z</time></trkpt>
        <trkpt lat="29.016295" lon="104.774749"><ele>321.91318</ele><time>2026-07-03T17:55:34.000Z</time></trkpt>
        <trkpt lat="29.01627" lon="104.774761"><ele>321.91318</ele><time>2026-07-03T17:55:36.000Z</time></trkpt>
        <trkpt lat="29.016246" lon="104.774775"><ele>321.65622</ele><time>2026-07-03T17:55:38.000Z</time></trkpt>
        <trkpt lat="29.016221" lon="104.774788"><ele>321.38843</ele><time>2026-07-03T17:55:40.000Z</time></trkpt>
        <trkpt lat="29.016195" lon="104.774801"><ele>321.28986</ele><time>2026-07-03T17:55:41.000Z</time></trkpt>
        <trkpt lat="29.01617" lon="104.774813"><ele>320.94348</ele><time>2026-07-03T17:55:43.000Z</time></trkpt>
        <trkpt lat="29.016147" lon="104.774822"><ele>320.26315</ele><time>2026-07-03T17:55:45.000Z</time></trkpt>
        <trkpt lat="29.016124" lon="104.774828"><ele>319.66864</ele><time>2026-07-03T17:55:47.000Z</time></trkpt>
        <trkpt lat="29.0161" lon="104.774831"><ele>318.52484</ele><time>2026-07-03T17:55:49.000Z</time></trkpt>
        <trkpt lat="29.016076" lon="104.774834"><ele>318.52484</ele><time>2026-07-03T17:55:51.000Z</time></trkpt>
        <trkpt lat="29.016052" lon="104.774837"><ele>318.52484</ele><time>2026-07-03T17:55:53.000Z</time></trkpt>
        <trkpt lat="29.016026" lon="104.774838"><ele>319.11954</ele><time>2026-07-03T17:55:55.000Z</time></trkpt>
        <trkpt lat="29.016001" lon="104.774835"><ele>319.11954</ele><time>2026-07-03T17:55:57.000Z</time></trkpt>
        <trkpt lat="29.015976" lon="104.774829"><ele>319.11954</ele><time>2026-07-03T17:55:59.000Z</time></trkpt>
        <trkpt lat="29.015951" lon="104.774822"><ele>318.8516</ele><time>2026-07-03T17:56:01.000Z</time></trkpt>
        <trkpt lat="29.015928" lon="104.774816"><ele>318.67377</ele><time>2026-07-03T17:56:03.000Z</time></trkpt>
        <trkpt lat="29.015906" lon="104.774811"><ele>317.92023</ele><time>2026-07-03T17:56:05.000Z</time></trkpt>
        <trkpt lat="29.015885" lon="104.77481"><ele>317.00037</ele><time>2026-07-03T17:56:07.000Z</time></trkpt>
        <trkpt lat="29.015867" lon="104.774811"><ele>315.90833</ele><time>2026-07-03T17:56:09.000Z</time></trkpt>
        <trkpt lat="29.015845" lon="104.77481"><ele>314.93576</ele><time>2026-07-03T17:56:11.000Z</time></trkpt>
        <trkpt lat="29.015821" lon="104.774807"><ele>314.22586</ele><time>2026-07-03T17:56:13.000Z</time></trkpt>
        <trkpt lat="29.015798" lon="104.774804"><ele>314.22586</ele><time>2026-07-03T17:56:15.000Z</time></trkpt>
        <trkpt lat="29.015773" lon="104.774801"><ele>314.1076</ele><time>2026-07-03T17:56:17.000Z</time></trkpt>
        <trkpt lat="29.015746" lon="104.7748"><ele>314.22586</ele><time>2026-07-03T17:56:19.000Z</time></trkpt>
        <trkpt lat="29.015721" lon="104.774802"><ele>314.22586</ele><time>2026-07-03T17:56:21.000Z</time></trkpt>
        <trkpt lat="29.015696" lon="104.774806"><ele>314.1076</ele><time>2026-07-03T17:56:23.000Z</time></trkpt>
        <trkpt lat="29.015671" lon="104.774811"><ele>313.81183</ele><time>2026-07-03T17:56:25.000Z</time></trkpt>
        <trkpt lat="29.01565" lon="104.774813"><ele>313.60864</ele><time>2026-07-03T17:56:27.000Z</time></trkpt>
        <trkpt lat="29.015635" lon="104.774814"><ele>313.59055</ele><time>2026-07-03T17:56:29.000Z</time></trkpt>
        <trkpt lat="29.015615" lon="104.774814"><ele>313.54117</ele><time>2026-07-03T17:56:31.000Z</time></trkpt>
        <trkpt lat="29.015591" lon="104.774813"><ele>313.51233</ele><time>2026-07-03T17:56:33.000Z</time></trkpt>
        <trkpt lat="29.015567" lon="104.774812"><ele>313.24564</ele><time>2026-07-03T17:56:36.000Z</time></trkpt>
        <trkpt lat="29.015543" lon="104.774811"><ele>313.19867</ele><time>2026-07-03T17:56:38.000Z</time></trkpt>
        <trkpt lat="29.01552" lon="104.774809"><ele>313.16586</ele><time>2026-07-03T17:56:40.000Z</time></trkpt>
        <trkpt lat="29.015499" lon="104.774808"><ele>313.16586</ele><time>2026-07-03T17:56:42.000Z</time></trkpt>
        <trkpt lat="29.015476" lon="104.774804"><ele>312.99692</ele><time>2026-07-03T17:56:44.000Z</time></trkpt>
        <trkpt lat="29.015454" lon="104.774795"><ele>312.11295</ele><time>2026-07-03T17:56:46.000Z</time></trkpt>
        <trkpt lat="29.015432" lon="104.774786"><ele>312.11295</ele><time>2026-07-03T17:56:48.000Z</time></trkpt>
        <trkpt lat="29.015411" lon="104.774778"><ele>312.11295</ele><time>2026-07-03T17:56:50.000Z</time></trkpt>
        <trkpt lat="29.015389" lon="104.774776"><ele>313.03473</ele><time>2026-07-03T17:56:52.000Z</time></trkpt>
        <trkpt lat="29.015366" lon="104.774779"><ele>314.23956</ele><time>2026-07-03T17:56:54.000Z</time></trkpt>
        <trkpt lat="29.015341" lon="104.774784"><ele>314.76883</ele><time>2026-07-03T17:56:56.000Z</time></trkpt>
        <trkpt lat="29.015317" lon="104.774791"><ele>314.9262</ele><time>2026-07-03T17:56:58.000Z</time></trkpt>
        <trkpt lat="29.015293" lon="104.774801"><ele>314.9262</ele><time>2026-07-03T17:57:00.000Z</time></trkpt>
        <trkpt lat="29.015268" lon="104.774815"><ele>314.9262</ele><time>2026-07-03T17:57:02.000Z</time></trkpt>
        <trkpt lat="29.01524" lon="104.774828"><ele>314.73666</ele><time>2026-07-03T17:57:04.000Z</time></trkpt>
        <trkpt lat="29.015214" lon="104.774828"><ele>314.6785</ele><time>2026-07-03T17:57:06.000Z</time></trkpt>
        <trkpt lat="29.015194" lon="104.774821"><ele>314.6785</ele><time>2026-07-03T17:57:08.000Z</time></trkpt>
        <trkpt lat="29.01517" lon="104.774808"><ele>314.73666</ele><time>2026-07-03T17:57:10.000Z</time></trkpt>
        <trkpt lat="29.01515" lon="104.774789"><ele>315.932</ele><time>2026-07-03T17:57:12.000Z</time></trkpt>
        <trkpt lat="29.01513" lon="104.774768"><ele>316.495</ele><time>2026-07-03T17:57:14.000Z</time></trkpt>
        <trkpt lat="29.015113" lon="104.77475"><ele>316.79053</ele><time>2026-07-03T17:57:16.000Z</time></trkpt>
        <trkpt lat="29.015099" lon="104.774733"><ele>317.5039</ele><time>2026-07-03T17:57:18.000Z</time></trkpt>
        <trkpt lat="29.015093" lon="104.774714"><ele>317.5211</ele><time>2026-07-03T17:57:20.000Z</time></trkpt>
        <trkpt lat="29.01509" lon="104.774696"><ele>317.8702</ele><time>2026-07-03T17:57:22.000Z</time></trkpt>
        <trkpt lat="29.015084" lon="104.774675"><ele>318.23825</ele><time>2026-07-03T17:57:24.000Z</time></trkpt>
        <trkpt lat="29.015079" lon="104.774653"><ele>318.6963</ele><time>2026-07-03T17:57:26.000Z</time></trkpt>
        <trkpt lat="29.015078" lon="104.77463"><ele>319.04462</ele><time>2026-07-03T17:57:28.000Z</time></trkpt>
        <trkpt lat="29.015079" lon="104.774607"><ele>319.516</ele><time>2026-07-03T17:57:30.000Z</time></trkpt>
        <trkpt lat="29.015077" lon="104.774577"><ele>319.8877</ele><time>2026-07-03T17:57:32.000Z</time></trkpt>
        <trkpt lat="29.015074" lon="104.774549"><ele>319.8877</ele><time>2026-07-03T17:57:34.000Z</time></trkpt>
        <trkpt lat="29.015072" lon="104.774523"><ele>319.8877</ele><time>2026-07-03T17:57:36.000Z</time></trkpt>
        <trkpt lat="29.015071" lon="104.774496"><ele>319.75195</ele><time>2026-07-03T17:57:38.000Z</time></trkpt>
        <trkpt lat="29.01507" lon="104.774473"><ele>319.48975</ele><time>2026-07-03T17:57:40.000Z</time></trkpt>
        <trkpt lat="29.015069" lon="104.774449"><ele>318.7586</ele><time>2026-07-03T17:57:42.000Z</time></trkpt>
        <trkpt lat="29.01507" lon="104.774424"><ele>318.73135</ele><time>2026-07-03T17:57:44.000Z</time></trkpt>
        <trkpt lat="29.015072" lon="104.774395"><ele>318.6888</ele><time>2026-07-03T17:57:46.000Z</time></trkpt>
        <trkpt lat="29.015073" lon="104.774363"><ele>318.5758</ele><time>2026-07-03T17:57:48.000Z</time></trkpt>
        <trkpt lat="29.015072" lon="104.774329"><ele>318.44568</ele><time>2026-07-03T17:57:49.000Z</time></trkpt>
        <trkpt lat="29.01507" lon="104.774295"><ele>318.27155</ele><time>2026-07-03T17:57:51.000Z</time></trkpt>
        <trkpt lat="29.015064" lon="104.774261"><ele>318.00867</ele><time>2026-07-03T17:57:53.000Z</time></trkpt>
        <trkpt lat="29.015059" lon="104.774229"><ele>317.4183</ele><time>2026-07-03T17:57:55.000Z</time></trkpt>
        <trkpt lat="29.015055" lon="104.774193"><ele>317.09872</ele><time>2026-07-03T17:57:57.000Z</time></trkpt>
        <trkpt lat="29.015053" lon="104.774164"><ele>316.79156</ele><time>2026-07-03T17:57:59.000Z</time></trkpt>
        <trkpt lat="29.015053" lon="104.774137"><ele>316.68045</ele><time>2026-07-03T17:58:01.000Z</time></trkpt>
        <trkpt lat="29.015055" lon="104.774112"><ele>316.68256</ele><time>2026-07-03T17:58:03.000Z</time></trkpt>
        <trkpt lat="29.015061" lon="104.774085"><ele>316.68045</ele><time>2026-07-03T17:58:05.000Z</time></trkpt>
        <trkpt lat="29.015068" lon="104.774061"><ele>316.66095</ele><time>2026-07-03T17:58:07.000Z</time></trkpt>
        <trkpt lat="29.015075" lon="104.774033"><ele>316.47095</ele><time>2026-07-03T17:58:09.000Z</time></trkpt>
        <trkpt lat="29.015082" lon="104.774005"><ele>316.41727</ele><time>2026-07-03T17:58:11.000Z</time></trkpt>
        <trkpt lat="29.015092" lon="104.773977"><ele>315.87244</ele><time>2026-07-03T17:58:13.000Z</time></trkpt>
        <trkpt lat="29.015101" lon="104.773946"><ele>315.3862</ele><time>2026-07-03T17:58:15.000Z</time></trkpt>
        <trkpt lat="29.01511" lon="104.773915"><ele>315.21384</ele><time>2026-07-03T17:58:17.000Z</time></trkpt>
        <trkpt lat="29.015112" lon="104.773885"><ele>315.21136</ele><time>2026-07-03T17:58:19.000Z</time></trkpt>
        <trkpt lat="29.015109" lon="104.773859"><ele>315.1865</ele><time>2026-07-03T17:58:21.000Z</time></trkpt>
        <trkpt lat="29.015101" lon="104.773833"><ele>314.7844</ele><time>2026-07-03T17:58:23.000Z</time></trkpt>
        <trkpt lat="29.015091" lon="104.773807"><ele>314.7844</ele><time>2026-07-03T17:58:25.000Z</time></trkpt>
        <trkpt lat="29.015076" lon="104.773783"><ele>314.76266</ele><time>2026-07-03T17:58:27.000Z</time></trkpt>
        <trkpt lat="29.015059" lon="104.773758"><ele>314.7252</ele><time>2026-07-03T17:58:29.000Z</time></trkpt>
        <trkpt lat="29.015039" lon="104.773735"><ele>314.7844</ele><time>2026-07-03T17:58:31.000Z</time></trkpt>
        <trkpt lat="29.015017" lon="104.773715"><ele>314.82095</ele><time>2026-07-03T17:58:33.000Z</time></trkpt>
        <trkpt lat="29.014993" lon="104.773699"><ele>314.7252</ele><time>2026-07-03T17:58:35.000Z</time></trkpt>
        <trkpt lat="29.014971" lon="104.773688"><ele>314.75473</ele><time>2026-07-03T17:58:37.000Z</time></trkpt>
        <trkpt lat="29.014949" lon="104.773679"><ele>314.82095</ele><time>2026-07-03T17:58:39.000Z</time></trkpt>
        <trkpt lat="29.014927" lon="104.773673"><ele>314.82095</ele><time>2026-07-03T17:58:42.000Z</time></trkpt>
        <trkpt lat="29.014905" lon="104.773666"><ele>314.88885</ele><time>2026-07-03T17:58:44.000Z</time></trkpt>
        <trkpt lat="29.014882" lon="104.773659"><ele>315.00006</ele><time>2026-07-03T17:58:46.000Z</time></trkpt>
        <trkpt lat="29.014857" lon="104.77365"><ele>315.00027</ele><time>2026-07-03T17:58:48.000Z</time></trkpt>
        <trkpt lat="29.014834" lon="104.773642"><ele>315.57285</ele><time>2026-07-03T17:58:50.000Z</time></trkpt>
        <trkpt lat="29.014813" lon="104.773634"><ele>315.68976</ele><time>2026-07-03T17:58:52.000Z</time></trkpt>
        <trkpt lat="29.014794" lon="104.773627"><ele>315.68976</ele><time>2026-07-03T17:58:54.000Z</time></trkpt>
        <trkpt lat="29.014772" lon="104.773617"><ele>315.68976</ele><time>2026-07-03T17:58:56.000Z</time></trkpt>
        <trkpt lat="29.014747" lon="104.773607"><ele>315.6067</ele><time>2026-07-03T17:58:58.000Z</time></trkpt>
        <trkpt lat="29.014722" lon="104.773596"><ele>315.50146</ele><time>2026-07-03T17:59:00.000Z</time></trkpt>
        <trkpt lat="29.0147" lon="104.773584"><ele>315.37817</ele><time>2026-07-03T17:59:02.000Z</time></trkpt>
        <trkpt lat="29.014679" lon="104.77357"><ele>315.37817</ele><time>2026-07-03T17:59:04.000Z</time></trkpt>
        <trkpt lat="29.01466" lon="104.773556"><ele>315.3061</ele><time>2026-07-03T17:59:06.000Z</time></trkpt>
        <trkpt lat="29.014641" lon="104.773542"><ele>315.3061</ele><time>2026-07-03T17:59:08.000Z</time></trkpt>
        <trkpt lat="29.014626" lon="104.773534"><ele>315.26404</ele><time>2026-07-03T17:59:10.000Z</time></trkpt>
        <trkpt lat="29.014606" lon="104.773525"><ele>315.1585</ele><time>2026-07-03T17:59:12.000Z</time></trkpt>
        <trkpt lat="29.01458" lon="104.773512"><ele>314.09238</ele><time>2026-07-03T17:59:14.000Z</time></trkpt>
        <trkpt lat="29.014552" lon="104.773499"><ele>313.65402</ele><time>2026-07-03T17:59:16.000Z</time></trkpt>
        <trkpt lat="29.014526" lon="104.773496"><ele>313.6311</ele><time>2026-07-03T17:59:18.000Z</time></trkpt>
        <trkpt lat="29.0145" lon="104.773498"><ele>313.0421</ele><time>2026-07-03T17:59:20.000Z</time></trkpt>
        <trkpt lat="29.014471" lon="104.773507"><ele>312.95096</ele><time>2026-07-03T17:59:22.000Z</time></trkpt>
        <trkpt lat="29.014444" lon="104.773519"><ele>311.7277</ele><time>2026-07-03T17:59:24.000Z</time></trkpt>
        <trkpt lat="29.01442" lon="104.77353"><ele>310.7391</ele><time>2026-07-03T17:59:26.000Z</time></trkpt>
        <trkpt lat="29.014392" lon="104.773538"><ele>310.34418</ele><time>2026-07-03T17:59:28.000Z</time></trkpt>
        <trkpt lat="29.014365" lon="104.773544"><ele>309.96045</ele><time>2026-07-03T17:59:30.000Z</time></trkpt>
        <trkpt lat="29.014338" lon="104.773549"><ele>309.96045</ele><time>2026-07-03T17:59:32.000Z</time></trkpt>
        <trkpt lat="29.014312" lon="104.773553"><ele>309.96045</ele><time>2026-07-03T17:59:34.000Z</time></trkpt>
        <trkpt lat="29.014292" lon="104.773556"><ele>309.98724</ele><time>2026-07-03T17:59:36.000Z</time></trkpt>
        <trkpt lat="29.014281" lon="104.773558"><ele>310.1376</ele><time>2026-07-03T17:59:38.000Z</time></trkpt>
        <trkpt lat="29.014273" lon="104.773556"><ele>310.1617</ele><time>2026-07-03T17:59:40.000Z</time></trkpt>
        <trkpt lat="29.014254" lon="104.773551"><ele>310.3139</ele><time>2026-07-03T17:59:44.000Z</time></trkpt>
        <trkpt lat="29.014247" lon="104.773522"><ele>310.3139</ele><time>2026-07-03T18:00:08.000Z</time></trkpt>
        <trkpt lat="29.014231" lon="104.773458"><ele>310.3139</ele><time>2026-07-03T18:00:12.000Z</time></trkpt>
        <trkpt lat="29.01423" lon="104.773458"><ele>310.17514</ele><time>2026-07-03T18:00:14.000Z</time></trkpt>
        <trkpt lat="29.014228" lon="104.77345"><ele>309.08847</ele><time>2026-07-03T18:00:16.000Z</time></trkpt>
        <trkpt lat="29.014207" lon="104.773391"><ele>309.0811</ele><time>2026-07-03T18:00:20.000Z</time></trkpt>
        <trkpt lat="29.014196" lon="104.773363"><ele>308.96375</ele><time>2026-07-03T18:00:22.000Z</time></trkpt>
        <trkpt lat="29.014186" lon="104.773335"><ele>307.73682</ele><time>2026-07-03T18:00:24.000Z</time></trkpt>
        <trkpt lat="29.014179" lon="104.773315"><ele>307.26495</ele><time>2026-07-03T18:00:26.000Z</time></trkpt>
        <trkpt lat="29.014174" lon="104.773299"><ele>307.26495</ele><time>2026-07-03T18:00:28.000Z</time></trkpt>
        <trkpt lat="29.01417" lon="104.773284"><ele>307.26495</ele><time>2026-07-03T18:00:30.000Z</time></trkpt>
        <trkpt lat="29.014167" lon="104.773272"><ele>307.17514</ele><time>2026-07-03T18:00:32.000Z</time></trkpt>
        <trkpt lat="29.014164" lon="104.773259"><ele>307.17514</ele><time>2026-07-03T18:00:34.000Z</time></trkpt>
        <trkpt lat="29.01416" lon="104.773243"><ele>307.01932</ele><time>2026-07-03T18:00:36.000Z</time></trkpt>
        <trkpt lat="29.014156" lon="104.773228"><ele>307.01932</ele><time>2026-07-03T18:00:38.000Z</time></trkpt>
        <trkpt lat="29.014152" lon="104.773208"><ele>307.01932</ele><time>2026-07-03T18:00:40.000Z</time></trkpt>
        <trkpt lat="29.014149" lon="104.773192"><ele>307.27484</ele><time>2026-07-03T18:00:42.000Z</time></trkpt>
        <trkpt lat="29.014143" lon="104.773178"><ele>307.62656</ele><time>2026-07-03T18:00:44.000Z</time></trkpt>
        <trkpt lat="29.014135" lon="104.773163"><ele>308.03055</ele><time>2026-07-03T18:00:47.000Z</time></trkpt>
        <trkpt lat="29.014125" lon="104.773147"><ele>308.11945</ele><time>2026-07-03T18:00:49.000Z</time></trkpt>
        <trkpt lat="29.014114" lon="104.773129"><ele>308.55908</ele><time>2026-07-03T18:00:51.000Z</time></trkpt>
        <trkpt lat="29.014102" lon="104.773113"><ele>309.18442</ele><time>2026-07-03T18:00:53.000Z</time></trkpt>
        <trkpt lat="29.01409" lon="104.773101"><ele>309.5945</ele><time>2026-07-03T18:00:55.000Z</time></trkpt>
        <trkpt lat="29.014078" lon="104.773092"><ele>310.25278</ele><time>2026-07-03T18:00:57.000Z</time></trkpt>
        <trkpt lat="29.014061" lon="104.773082"><ele>311.21378</ele><time>2026-07-03T18:00:59.000Z</time></trkpt>
        <trkpt lat="29.014042" lon="104.77307"><ele>311.47748</ele><time>2026-07-03T18:01:01.000Z</time></trkpt>
        <trkpt lat="29.014026" lon="104.773059"><ele>311.92566</ele><time>2026-07-03T18:01:03.000Z</time></trkpt>
        <trkpt lat="29.014009" lon="104.77305"><ele>312.47794</ele><time>2026-07-03T18:01:05.000Z</time></trkpt>
        <trkpt lat="29.013995" lon="104.773044"><ele>312.94092</ele><time>2026-07-03T18:01:07.000Z</time></trkpt>
        <trkpt lat="29.013981" lon="104.773039"><ele>313.3705</ele><time>2026-07-03T18:01:09.000Z</time></trkpt>
        <trkpt lat="29.013967" lon="104.773036"><ele>313.86557</ele><time>2026-07-03T18:01:11.000Z</time></trkpt>
        <trkpt lat="29.013956" lon="104.773036"><ele>314.42984</ele><time>2026-07-03T18:01:13.000Z</time></trkpt>
        <trkpt lat="29.013938" lon="104.773036"><ele>314.96265</ele><time>2026-07-03T18:01:15.000Z</time></trkpt>
        <trkpt lat="29.013921" lon="104.773034"><ele>315.17984</ele><time>2026-07-03T18:01:17.000Z</time></trkpt>
        <trkpt lat="29.013904" lon="104.773029"><ele>315.37476</ele><time>2026-07-03T18:01:19.000Z</time></trkpt>
        <trkpt lat="29.013884" lon="104.773021"><ele>315.92548</ele><time>2026-07-03T18:01:21.000Z</time></trkpt>
        <trkpt lat="29.013865" lon="104.773013"><ele>316.48947</ele><time>2026-07-03T18:01:23.000Z</time></trkpt>
        <trkpt lat="29.013845" lon="104.773003"><ele>317.0202</ele><time>2026-07-03T18:01:25.000Z</time></trkpt>
        <trkpt lat="29.013824" lon="104.772993"><ele>317.4248</ele><time>2026-07-03T18:01:27.000Z</time></trkpt>
        <trkpt lat="29.013803" lon="104.772982"><ele>317.7844</ele><time>2026-07-03T18:01:29.000Z</time></trkpt>
        <trkpt lat="29.01378" lon="104.77297"><ele>317.9645</ele><time>2026-07-03T18:01:31.000Z</time></trkpt>
        <trkpt lat="29.013761" lon="104.77296"><ele>318.6791</ele><time>2026-07-03T18:01:33.000Z</time></trkpt>
        <trkpt lat="29.013741" lon="104.772948"><ele>318.93265</ele><time>2026-07-03T18:01:35.000Z</time></trkpt>
        <trkpt lat="29.013725" lon="104.772938"><ele>318.94962</ele><time>2026-07-03T18:01:37.000Z</time></trkpt>
        <trkpt lat="29.013702" lon="104.772929"><ele>319.9334</ele><time>2026-07-03T18:01:39.000Z</time></trkpt>
        <trkpt lat="29.013678" lon="104.772923"><ele>320.33597</ele><time>2026-07-03T18:01:41.000Z</time></trkpt>
        <trkpt lat="29.013651" lon="104.772915"><ele>320.5507</ele><time>2026-07-03T18:01:43.000Z</time></trkpt>
        <trkpt lat="29.013629" lon="104.772906"><ele>320.58215</ele><time>2026-07-03T18:01:45.000Z</time></trkpt>
        <trkpt lat="29.013612" lon="104.772894"><ele>320.62964</ele><time>2026-07-03T18:01:47.000Z</time></trkpt>
        <trkpt lat="29.013593" lon="104.772879"><ele>320.62964</ele><time>2026-07-03T18:01:48.000Z</time></trkpt>
        <trkpt lat="29.013574" lon="104.772861"><ele>320.93314</ele><time>2026-07-03T18:01:50.000Z</time></trkpt>
        <trkpt lat="29.013556" lon="104.772845"><ele>321.1438</ele><time>2026-07-03T18:01:52.000Z</time></trkpt>
        <trkpt lat="29.013537" lon="104.77283"><ele>321.3925</ele><time>2026-07-03T18:01:54.000Z</time></trkpt>
        <trkpt lat="29.013514" lon="104.772817"><ele>321.5533</ele><time>2026-07-03T18:01:56.000Z</time></trkpt>
        <trkpt lat="29.013491" lon="104.772805"><ele>321.5784</ele><time>2026-07-03T18:01:58.000Z</time></trkpt>
        <trkpt lat="29.013472" lon="104.772794"><ele>321.67142</ele><time>2026-07-03T18:02:00.000Z</time></trkpt>
        <trkpt lat="29.013452" lon="104.772781"><ele>322.10272</ele><time>2026-07-03T18:02:02.000Z</time></trkpt>
        <trkpt lat="29.013434" lon="104.772768"><ele>322.27634</ele><time>2026-07-03T18:02:04.000Z</time></trkpt>
        <trkpt lat="29.013416" lon="104.772755"><ele>322.69925</ele><time>2026-07-03T18:02:06.000Z</time></trkpt>
        <trkpt lat="29.013399" lon="104.772743"><ele>322.77124</ele><time>2026-07-03T18:02:08.000Z</time></trkpt>
        <trkpt lat="29.013376" lon="104.772727"><ele>322.79837</ele><time>2026-07-03T18:02:10.000Z</time></trkpt>
        <trkpt lat="29.013353" lon="104.77271"><ele>323.05075</ele><time>2026-07-03T18:02:12.000Z</time></trkpt>
        <trkpt lat="29.013331" lon="104.772697"><ele>323.59946</ele><time>2026-07-03T18:02:14.000Z</time></trkpt>
        <trkpt lat="29.013312" lon="104.772685"><ele>323.71115</ele><time>2026-07-03T18:02:16.000Z</time></trkpt>
        <trkpt lat="29.013295" lon="104.772675"><ele>323.76498</ele><time>2026-07-03T18:02:18.000Z</time></trkpt>
        <trkpt lat="29.013278" lon="104.772664"><ele>323.8664</ele><time>2026-07-03T18:02:20.000Z</time></trkpt>
        <trkpt lat="29.013262" lon="104.772656"><ele>324.2528</ele><time>2026-07-03T18:02:22.000Z</time></trkpt>
        <trkpt lat="29.013244" lon="104.772648"><ele>324.2528</ele><time>2026-07-03T18:02:24.000Z</time></trkpt>
        <trkpt lat="29.013226" lon="104.772641"><ele>324.2528</ele><time>2026-07-03T18:02:26.000Z</time></trkpt>
        <trkpt lat="29.013205" lon="104.772634"><ele>324.285</ele><time>2026-07-03T18:02:28.000Z</time></trkpt>
        <trkpt lat="29.013185" lon="104.772627"><ele>324.285</ele><time>2026-07-03T18:02:30.000Z</time></trkpt>
        <trkpt lat="29.013166" lon="104.772621"><ele>324.285</ele><time>2026-07-03T18:02:32.000Z</time></trkpt>
        <trkpt lat="29.013146" lon="104.772614"><ele>324.43402</ele><time>2026-07-03T18:02:34.000Z</time></trkpt>
        <trkpt lat="29.013125" lon="104.772609"><ele>324.485</ele><time>2026-07-03T18:02:36.000Z</time></trkpt>
        <trkpt lat="29.013107" lon="104.772606"><ele>324.54187</ele><time>2026-07-03T18:02:38.000Z</time></trkpt>
        <trkpt lat="29.013088" lon="104.772603"><ele>324.57074</ele><time>2026-07-03T18:02:40.000Z</time></trkpt>
        <trkpt lat="29.013065" lon="104.772598"><ele>324.57074</ele><time>2026-07-03T18:02:42.000Z</time></trkpt>
        <trkpt lat="29.013043" lon="104.772593"><ele>324.54187</ele><time>2026-07-03T18:02:44.000Z</time></trkpt>
        <trkpt lat="29.01302" lon="104.772589"><ele>324.53125</ele><time>2026-07-03T18:02:46.000Z</time></trkpt>
        <trkpt lat="29.012993" lon="104.772585"><ele>324.50525</ele><time>2026-07-03T18:02:48.000Z</time></trkpt>
        <trkpt lat="29.01297" lon="104.772582"><ele>324.45758</ele><time>2026-07-03T18:02:50.000Z</time></trkpt>
        <trkpt lat="29.012946" lon="104.772577"><ele>324.29315</ele><time>2026-07-03T18:02:53.000Z</time></trkpt>
        <trkpt lat="29.012926" lon="104.772572"><ele>324.027</ele><time>2026-07-03T18:02:55.000Z</time></trkpt>
        <trkpt lat="29.012903" lon="104.772567"><ele>324.027</ele><time>2026-07-03T18:02:57.000Z</time></trkpt>
        <trkpt lat="29.012875" lon="104.772563"><ele>324.027</ele><time>2026-07-03T18:02:59.000Z</time></trkpt>
        <trkpt lat="29.012849" lon="104.772564"><ele>324.26212</ele><time>2026-07-03T18:03:01.000Z</time></trkpt>
        <trkpt lat="29.012828" lon="104.772567"><ele>324.77713</ele><time>2026-07-03T18:03:03.000Z</time></trkpt>
        <trkpt lat="29.012806" lon="104.772574"><ele>325.1281</ele><time>2026-07-03T18:03:05.000Z</time></trkpt>
        <trkpt lat="29.012788" lon="104.772577"><ele>325.1281</ele><time>2026-07-03T18:03:07.000Z</time></trkpt>
        <trkpt lat="29.012768" lon="104.772578"><ele>325.1281</ele><time>2026-07-03T18:03:09.000Z</time></trkpt>
        <trkpt lat="29.012744" lon="104.772576"><ele>325.2764</ele><time>2026-07-03T18:03:11.000Z</time></trkpt>
        <trkpt lat="29.012718" lon="104.772577"><ele>325.2764</ele><time>2026-07-03T18:03:13.000Z</time></trkpt>
        <trkpt lat="29.012691" lon="104.77258"><ele>325.2764</ele><time>2026-07-03T18:03:15.000Z</time></trkpt>
        <trkpt lat="29.012666" lon="104.772583"><ele>325.52258</ele><time>2026-07-03T18:03:17.000Z</time></trkpt>
        <trkpt lat="29.012638" lon="104.772586"><ele>325.64163</ele><time>2026-07-03T18:03:19.000Z</time></trkpt>
        <trkpt lat="29.012615" lon="104.772586"><ele>325.76825</ele><time>2026-07-03T18:03:21.000Z</time></trkpt>
        <trkpt lat="29.012596" lon="104.772582"><ele>325.76825</ele><time>2026-07-03T18:03:23.000Z</time></trkpt>
        <trkpt lat="29.012585" lon="104.772574"><ele>325.76825</ele><time>2026-07-03T18:03:25.000Z</time></trkpt>
        <trkpt lat="29.012584" lon="104.772565"><ele>325.68112</ele><time>2026-07-03T18:03:29.000Z</time></trkpt>
        <trkpt lat="29.012581" lon="104.772535"><ele>325.68112</ele><time>2026-07-03T18:03:39.000Z</time></trkpt>
        <trkpt lat="29.01252" lon="104.772589"><ele>325.68112</ele><time>2026-07-03T18:03:47.000Z</time></trkpt>
        <trkpt lat="29.01252" lon="104.772589"><ele>326.5237</ele><time>2026-07-03T18:03:49.000Z</time></trkpt>
        <trkpt lat="29.012516" lon="104.772589"><ele>326.5383</ele><time>2026-07-03T18:03:51.000Z</time></trkpt>
        <trkpt lat="29.012467" lon="104.772595"><ele>326.56018</ele><time>2026-07-03T18:03:54.000Z</time></trkpt>
        <trkpt lat="29.012441" lon="104.772604"><ele>327.1084</ele><time>2026-07-03T18:03:56.000Z</time></trkpt>
        <trkpt lat="29.012417" lon="104.772614"><ele>328.73367</ele><time>2026-07-03T18:03:58.000Z</time></trkpt>
        <trkpt lat="29.012404" lon="104.77262"><ele>328.73367</ele><time>2026-07-03T18:04:00.000Z</time></trkpt>
        <trkpt lat="29.012395" lon="104.772623"><ele>328.73367</ele><time>2026-07-03T18:04:02.000Z</time></trkpt>
        <trkpt lat="29.012365" lon="104.772638"><ele>328.59424</ele><time>2026-07-03T18:04:06.000Z</time></trkpt>
        <trkpt lat="29.012351" lon="104.772646"><ele>328.56744</ele><time>2026-07-03T18:04:08.000Z</time></trkpt>
        <trkpt lat="29.012328" lon="104.772657"><ele>328.4731</ele><time>2026-07-03T18:04:10.000Z</time></trkpt>
        <trkpt lat="29.012303" lon="104.77267"><ele>328.42377</ele><time>2026-07-03T18:04:12.000Z</time></trkpt>
        <trkpt lat="29.012281" lon="104.772682"><ele>328.42377</ele><time>2026-07-03T18:04:14.000Z</time></trkpt>
        <trkpt lat="29.012254" lon="104.772695"><ele>328.3797</ele><time>2026-07-03T18:04:16.000Z</time></trkpt>
        <trkpt lat="29.012228" lon="104.772703"><ele>328.3797</ele><time>2026-07-03T18:04:18.000Z</time></trkpt>
        <trkpt lat="29.012204" lon="104.772709"><ele>328.55725</ele><time>2026-07-03T18:04:20.000Z</time></trkpt>
        <trkpt lat="29.012182" lon="104.772713"><ele>328.73355</ele><time>2026-07-03T18:04:22.000Z</time></trkpt>
        <trkpt lat="29.012162" lon="104.772712"><ele>329.21628</ele><time>2026-07-03T18:04:24.000Z</time></trkpt>
        <trkpt lat="29.012143" lon="104.772708"><ele>329.3618</ele><time>2026-07-03T18:04:26.000Z</time></trkpt>
        <trkpt lat="29.012125" lon="104.772704"><ele>329.39896</ele><time>2026-07-03T18:04:28.000Z</time></trkpt>
        <trkpt lat="29.012106" lon="104.772699"><ele>329.4018</ele><time>2026-07-03T18:04:30.000Z</time></trkpt>
        <trkpt lat="29.012084" lon="104.772693"><ele>329.65088</ele><time>2026-07-03T18:04:32.000Z</time></trkpt>
        <trkpt lat="29.012063" lon="104.772688"><ele>329.79626</ele><time>2026-07-03T18:04:34.000Z</time></trkpt>
        <trkpt lat="29.012042" lon="104.772685"><ele>330.05838</ele><time>2026-07-03T18:04:36.000Z</time></trkpt>
        <trkpt lat="29.012021" lon="104.772681"><ele>330.398</ele><time>2026-07-03T18:04:38.000Z</time></trkpt>
        <trkpt lat="29.012001" lon="104.772677"><ele>330.61136</ele><time>2026-07-03T18:04:40.000Z</time></trkpt>
        <trkpt lat="29.011984" lon="104.772676"><ele>330.79413</ele><time>2026-07-03T18:04:42.000Z</time></trkpt>
        <trkpt lat="29.011966" lon="104.772674"><ele>331.0207</ele><time>2026-07-03T18:04:44.000Z</time></trkpt>
        <trkpt lat="29.011945" lon="104.772672"><ele>331.2293</ele><time>2026-07-03T18:04:46.000Z</time></trkpt>
        <trkpt lat="29.011924" lon="104.772669"><ele>331.23523</ele><time>2026-07-03T18:04:48.000Z</time></trkpt>
        <trkpt lat="29.011898" lon="104.772663"><ele>331.23523</ele><time>2026-07-03T18:04:50.000Z</time></trkpt>
        <trkpt lat="29.011874" lon="104.772655"><ele>331.23523</ele><time>2026-07-03T18:04:52.000Z</time></trkpt>
        <trkpt lat="29.011852" lon="104.772649"><ele>330.9049</ele><time>2026-07-03T18:04:54.000Z</time></trkpt>
        <trkpt lat="29.011835" lon="104.772644"><ele>330.66815</ele><time>2026-07-03T18:04:56.000Z</time></trkpt>
        <trkpt lat="29.011816" lon="104.772638"><ele>330.66815</ele><time>2026-07-03T18:04:59.000Z</time></trkpt>
        <trkpt lat="29.011793" lon="104.772631"><ele>330.66815</ele><time>2026-07-03T18:05:01.000Z</time></trkpt>
        <trkpt lat="29.01177" lon="104.772622"><ele>331.21512</ele><time>2026-07-03T18:05:03.000Z</time></trkpt>
        <trkpt lat="29.011756" lon="104.772617"><ele>331.50854</ele><time>2026-07-03T18:05:05.000Z</time></trkpt>
        <trkpt lat="29.011736" lon="104.772608"><ele>331.50854</ele><time>2026-07-03T18:05:07.000Z</time></trkpt>
        <trkpt lat="29.011714" lon="104.772594"><ele>331.83444</ele><time>2026-07-03T18:05:09.000Z</time></trkpt>
        <trkpt lat="29.011696" lon="104.772582"><ele>331.50854</ele><time>2026-07-03T18:05:11.000Z</time></trkpt>
        <trkpt lat="29.011679" lon="104.772573"><ele>331.4922</ele><time>2026-07-03T18:05:13.000Z</time></trkpt>
        <trkpt lat="29.011656" lon="104.772562"><ele>331.37708</ele><time>2026-07-03T18:05:15.000Z</time></trkpt>
        <trkpt lat="29.011633" lon="104.772551"><ele>331.26443</ele><time>2026-07-03T18:05:17.000Z</time></trkpt>
        <trkpt lat="29.011609" lon="104.772539"><ele>331.26443</ele><time>2026-07-03T18:05:19.000Z</time></trkpt>
        <trkpt lat="29.011588" lon="104.77253"><ele>331.1252</ele><time>2026-07-03T18:05:21.000Z</time></trkpt>
        <trkpt lat="29.011569" lon="104.772521"><ele>331.26443</ele><time>2026-07-03T18:05:23.000Z</time></trkpt>
        <trkpt lat="29.01155" lon="104.772513"><ele>331.26462</ele><time>2026-07-03T18:05:25.000Z</time></trkpt>
        <trkpt lat="29.01153" lon="104.772506"><ele>331.51962</ele><time>2026-07-03T18:05:27.000Z</time></trkpt>
        <trkpt lat="29.011509" lon="104.772498"><ele>331.51962</ele><time>2026-07-03T18:05:29.000Z</time></trkpt>
        <trkpt lat="29.01149" lon="104.772489"><ele>332.22836</ele><time>2026-07-03T18:05:31.000Z</time></trkpt>
        <trkpt lat="29.011471" lon="104.77248"><ele>332.22836</ele><time>2026-07-03T18:05:33.000Z</time></trkpt>
        <trkpt lat="29.011454" lon="104.772468"><ele>332.22836</ele><time>2026-07-03T18:05:35.000Z</time></trkpt>
        <trkpt lat="29.011435" lon="104.772455"><ele>332.18973</ele><time>2026-07-03T18:05:37.000Z</time></trkpt>
        <trkpt lat="29.011415" lon="104.772439"><ele>331.9625</ele><time>2026-07-03T18:05:39.000Z</time></trkpt>
        <trkpt lat="29.011401" lon="104.772426"><ele>331.49762</ele><time>2026-07-03T18:05:41.000Z</time></trkpt>
        <trkpt lat="29.011385" lon="104.772412"><ele>331.00934</ele><time>2026-07-03T18:05:43.000Z</time></trkpt>
        <trkpt lat="29.011369" lon="104.7724"><ele>330.42596</ele><time>2026-07-03T18:05:45.000Z</time></trkpt>
        <trkpt lat="29.011356" lon="104.772388"><ele>330.42596</ele><time>2026-07-03T18:05:47.000Z</time></trkpt>
        <trkpt lat="29.011343" lon="104.772375"><ele>330.42596</ele><time>2026-07-03T18:05:49.000Z</time></trkpt>
        <trkpt lat="29.011329" lon="104.772361"><ele>330.69095</ele><time>2026-07-03T18:05:51.000Z</time></trkpt>
        <trkpt lat="29.011315" lon="104.772348"><ele>330.70697</ele><time>2026-07-03T18:05:53.000Z</time></trkpt>
        <trkpt lat="29.011302" lon="104.772335"><ele>330.79376</ele><time>2026-07-03T18:05:55.000Z</time></trkpt>
        <trkpt lat="29.011288" lon="104.772321"><ele>330.79376</ele><time>2026-07-03T18:05:57.000Z</time></trkpt>
        <trkpt lat="29.011277" lon="104.772318"><ele>330.70697</ele><time>2026-07-03T18:05:59.000Z</time></trkpt>
        <trkpt lat="29.011273" lon="104.77232"><ele>330.3086</ele><time>2026-07-03T18:06:01.000Z</time></trkpt>
        <trkpt lat="29.011245" lon="104.772324"><ele>329.60373</ele><time>2026-07-03T18:06:04.000Z</time></trkpt>
        <trkpt lat="29.011235" lon="104.77232"><ele>328.97888</ele><time>2026-07-03T18:06:06.000Z</time></trkpt>
        <trkpt lat="29.011219" lon="104.772309"><ele>328.31024</ele><time>2026-07-03T18:06:08.000Z</time></trkpt>
        <trkpt lat="29.011198" lon="104.772293"><ele>328.08325</ele><time>2026-07-03T18:06:10.000Z</time></trkpt>
        <trkpt lat="29.011175" lon="104.772276"><ele>327.8445</ele><time>2026-07-03T18:06:12.000Z</time></trkpt>
        <trkpt lat="29.011151" lon="104.772258"><ele>327.65878</ele><time>2026-07-03T18:06:14.000Z</time></trkpt>
        <trkpt lat="29.011128" lon="104.772246"><ele>327.30518</ele><time>2026-07-03T18:06:16.000Z</time></trkpt>
        <trkpt lat="29.011103" lon="104.772237"><ele>327.03467</ele><time>2026-07-03T18:06:18.000Z</time></trkpt>
        <trkpt lat="29.011077" lon="104.772229"><ele>325.77118</ele><time>2026-07-03T18:06:20.000Z</time></trkpt>
        <trkpt lat="29.01105" lon="104.77222"><ele>325.004</ele><time>2026-07-03T18:06:22.000Z</time></trkpt>
        <trkpt lat="29.011029" lon="104.772214"><ele>324.87085</ele><time>2026-07-03T18:06:24.000Z</time></trkpt>
        <trkpt lat="29.011004" lon="104.77221"><ele>323.63907</ele><time>2026-07-03T18:06:26.000Z</time></trkpt>
        <trkpt lat="29.01098" lon="104.772209"><ele>321.75677</ele><time>2026-07-03T18:06:28.000Z</time></trkpt>
        <trkpt lat="29.010954" lon="104.772214"><ele>321.1634</ele><time>2026-07-03T18:06:30.000Z</time></trkpt>
        <trkpt lat="29.010931" lon="104.772222"><ele>320.64664</ele><time>2026-07-03T18:06:32.000Z</time></trkpt>
        <trkpt lat="29.010905" lon="104.772234"><ele>320.10123</ele><time>2026-07-03T18:06:34.000Z</time></trkpt>
        <trkpt lat="29.010879" lon="104.772246"><ele>319.77988</ele><time>2026-07-03T18:06:36.000Z</time></trkpt>
        <trkpt lat="29.010861" lon="104.772256"><ele>319.65323</ele><time>2026-07-03T18:06:38.000Z</time></trkpt>
        <trkpt lat="29.010845" lon="104.772267"><ele>319.65323</ele><time>2026-07-03T18:06:40.000Z</time></trkpt>
        <trkpt lat="29.010832" lon="104.772275"><ele>319.77988</ele><time>2026-07-03T18:06:42.000Z</time></trkpt>
        <trkpt lat="29.010813" lon="104.772288"><ele>319.89502</ele><time>2026-07-03T18:06:44.000Z</time></trkpt>
        <trkpt lat="29.010794" lon="104.772299"><ele>320.036</ele><time>2026-07-03T18:06:46.000Z</time></trkpt>
        <trkpt lat="29.010779" lon="104.772302"><ele>320.2759</ele><time>2026-07-03T18:06:48.000Z</time></trkpt>
        <trkpt lat="29.010758" lon="104.772306"><ele>320.54153</ele><time>2026-07-03T18:06:50.000Z</time></trkpt>
        <trkpt lat="29.010736" lon="104.772313"><ele>320.54153</ele><time>2026-07-03T18:06:52.000Z</time></trkpt>
        <trkpt lat="29.010718" lon="104.772321"><ele>320.54153</ele><time>2026-07-03T18:06:54.000Z</time></trkpt>
        <trkpt lat="29.0107" lon="104.772325"><ele>319.8947</ele><time>2026-07-03T18:06:56.000Z</time></trkpt>
        <trkpt lat="29.010676" lon="104.772326"><ele>319.74496</ele><time>2026-07-03T18:06:58.000Z</time></trkpt>
        <trkpt lat="29.01065" lon="104.772327"><ele>319.74136</ele><time>2026-07-03T18:07:00.000Z</time></trkpt>
        <trkpt lat="29.010622" lon="104.772328"><ele>319.74496</ele><time>2026-07-03T18:07:02.000Z</time></trkpt>
        <trkpt lat="29.0106" lon="104.772329"><ele>319.74136</ele><time>2026-07-03T18:07:05.000Z</time></trkpt>
        <trkpt lat="29.010578" lon="104.772329"><ele>319.07013</ele><time>2026-07-03T18:07:07.000Z</time></trkpt>
        <trkpt lat="29.010556" lon="104.772329"><ele>319.07013</ele><time>2026-07-03T18:07:09.000Z</time></trkpt>
        <trkpt lat="29.010535" lon="104.772328"><ele>318.48236</ele><time>2026-07-03T18:07:11.000Z</time></trkpt>
        <trkpt lat="29.010511" lon="104.772329"><ele>318.48236</ele><time>2026-07-03T18:07:13.000Z</time></trkpt>
        <trkpt lat="29.010486" lon="104.772331"><ele>318.41876</ele><time>2026-07-03T18:07:15.000Z</time></trkpt>
        <trkpt lat="29.01046" lon="104.772335"><ele>318.41876</ele><time>2026-07-03T18:07:17.000Z</time></trkpt>
        <trkpt lat="29.010436" lon="104.77234"><ele>318.41876</ele><time>2026-07-03T18:07:19.000Z</time></trkpt>
        <trkpt lat="29.010414" lon="104.772345"><ele>318.41876</ele><time>2026-07-03T18:07:21.000Z</time></trkpt>
        <trkpt lat="29.010391" lon="104.772353"><ele>318.41876</ele><time>2026-07-03T18:07:23.000Z</time></trkpt>
        <trkpt lat="29.010369" lon="104.772364"><ele>318.5188</ele><time>2026-07-03T18:07:25.000Z</time></trkpt>
        <trkpt lat="29.010348" lon="104.772377"><ele>318.8456</ele><time>2026-07-03T18:07:27.000Z</time></trkpt>
        <trkpt lat="29.010328" lon="104.772389"><ele>319.06064</ele><time>2026-07-03T18:07:29.000Z</time></trkpt>
        <trkpt lat="29.010311" lon="104.772397"><ele>319.75293</ele><time>2026-07-03T18:07:31.000Z</time></trkpt>
        <trkpt lat="29.010292" lon="104.772404"><ele>320.38412</ele><time>2026-07-03T18:07:33.000Z</time></trkpt>
        <trkpt lat="29.010274" lon="104.772411"><ele>320.38412</ele><time>2026-07-03T18:07:35.000Z</time></trkpt>
        <trkpt lat="29.01026" lon="104.772416"><ele>320.38412</ele><time>2026-07-03T18:07:37.000Z</time></trkpt>
        <trkpt lat="29.010249" lon="104.772419"><ele>320.14465</ele><time>2026-07-03T18:07:39.000Z</time></trkpt>
        <trkpt lat="29.010235" lon="104.772421"><ele>319.74292</ele><time>2026-07-03T18:07:41.000Z</time></trkpt>
        <trkpt lat="29.01022" lon="104.772422"><ele>319.74292</ele><time>2026-07-03T18:07:43.000Z</time></trkpt>
        <trkpt lat="29.010205" lon="104.772424"><ele>319.74292</ele><time>2026-07-03T18:07:45.000Z</time></trkpt>
        <trkpt lat="29.01019" lon="104.772425"><ele>320.4129</ele><time>2026-07-03T18:07:47.000Z</time></trkpt>
        <trkpt lat="29.010175" lon="104.772427"><ele>320.4703</ele><time>2026-07-03T18:07:49.000Z</time></trkpt>
        <trkpt lat="29.01016" lon="104.772431"><ele>320.82242</ele><time>2026-07-03T18:07:51.000Z</time></trkpt>
        <trkpt lat="29.010145" lon="104.772436"><ele>321.1635</ele><time>2026-07-03T18:07:53.000Z</time></trkpt>
        <trkpt lat="29.010125" lon="104.772443"><ele>321.44897</ele><time>2026-07-03T18:07:55.000Z</time></trkpt>
        <trkpt lat="29.010102" lon="104.77245"><ele>321.44897</ele><time>2026-07-03T18:07:57.000Z</time></trkpt>
        <trkpt lat="29.010081" lon="104.772457"><ele>321.44897</ele><time>2026-07-03T18:07:59.000Z</time></trkpt>
        <trkpt lat="29.010065" lon="104.772463"><ele>320.55148</ele><time>2026-07-03T18:08:01.000Z</time></trkpt>
        <trkpt lat="29.010048" lon="104.77247"><ele>320.4508</ele><time>2026-07-03T18:08:03.000Z</time></trkpt>
        <trkpt lat="29.010031" lon="104.772478"><ele>320.4508</ele><time>2026-07-03T18:08:05.000Z</time></trkpt>
        <trkpt lat="29.010012" lon="104.772487"><ele>320.4508</ele><time>2026-07-03T18:08:07.000Z</time></trkpt>
        <trkpt lat="29.009991" lon="104.772497"><ele>320.609</ele><time>2026-07-03T18:08:09.000Z</time></trkpt>
        <trkpt lat="29.009971" lon="104.772508"><ele>320.609</ele><time>2026-07-03T18:08:11.000Z</time></trkpt>
        <trkpt lat="29.009951" lon="104.77252"><ele>320.609</ele><time>2026-07-03T18:08:13.000Z</time></trkpt>
        <trkpt lat="29.009932" lon="104.772532"><ele>320.11798</ele><time>2026-07-03T18:08:14.000Z</time></trkpt>
        <trkpt lat="29.009913" lon="104.772542"><ele>319.78574</ele><time>2026-07-03T18:08:16.000Z</time></trkpt>
        <trkpt lat="29.009891" lon="104.772552"><ele>319.78574</ele><time>2026-07-03T18:08:18.000Z</time></trkpt>
        <trkpt lat="29.00987" lon="104.772562"><ele>319.78574</ele><time>2026-07-03T18:08:20.000Z</time></trkpt>
        <trkpt lat="29.009849" lon="104.772573"><ele>319.97742</ele><time>2026-07-03T18:08:22.000Z</time></trkpt>
        <trkpt lat="29.009829" lon="104.772586"><ele>320.3016</ele><time>2026-07-03T18:08:24.000Z</time></trkpt>
        <trkpt lat="29.00981" lon="104.7726"><ele>320.3016</ele><time>2026-07-03T18:08:26.000Z</time></trkpt>
        <trkpt lat="29.009789" lon="104.772618"><ele>320.3016</ele><time>2026-07-03T18:08:28.000Z</time></trkpt>
        <trkpt lat="29.00977" lon="104.772634"><ele>320.1293</ele><time>2026-07-03T18:08:30.000Z</time></trkpt>
        <trkpt lat="29.009752" lon="104.772654"><ele>320.1293</ele><time>2026-07-03T18:08:32.000Z</time></trkpt>
        <trkpt lat="29.009738" lon="104.772676"><ele>320.1293</ele><time>2026-07-03T18:08:34.000Z</time></trkpt>
        <trkpt lat="29.009724" lon="104.772701"><ele>320.1964</ele><time>2026-07-03T18:08:36.000Z</time></trkpt>
        <trkpt lat="29.009706" lon="104.772722"><ele>320.20282</ele><time>2026-07-03T18:08:38.000Z</time></trkpt>
        <trkpt lat="29.009684" lon="104.772739"><ele>320.37817</ele><time>2026-07-03T18:08:40.000Z</time></trkpt>
        <trkpt lat="29.009659" lon="104.77275"><ele>320.37817</ele><time>2026-07-03T18:08:42.000Z</time></trkpt>
        <trkpt lat="29.009634" lon="104.772758"><ele>320.37817</ele><time>2026-07-03T18:08:44.000Z</time></trkpt>
        <trkpt lat="29.009611" lon="104.772764"><ele>320.2411</ele><time>2026-07-03T18:08:46.000Z</time></trkpt>
        <trkpt lat="29.009588" lon="104.77277"><ele>320.07684</ele><time>2026-07-03T18:08:48.000Z</time></trkpt>
        <trkpt lat="29.009563" lon="104.772774"><ele>319.84933</ele><time>2026-07-03T18:08:50.000Z</time></trkpt>
        <trkpt lat="29.009542" lon="104.772779"><ele>319.7638</ele><time>2026-07-03T18:08:52.000Z</time></trkpt>
        <trkpt lat="29.009522" lon="104.772785"><ele>319.73788</ele><time>2026-07-03T18:08:54.000Z</time></trkpt>
        <trkpt lat="29.0095" lon="104.772793"><ele>319.72092</ele><time>2026-07-03T18:08:56.000Z</time></trkpt>
        <trkpt lat="29.009479" lon="104.7728"><ele>319.51276</ele><time>2026-07-03T18:08:58.000Z</time></trkpt>
        <trkpt lat="29.00946" lon="104.772809"><ele>319.23486</ele><time>2026-07-03T18:09:00.000Z</time></trkpt>
        <trkpt lat="29.00944" lon="104.772819"><ele>319.1835</ele><time>2026-07-03T18:09:02.000Z</time></trkpt>
        <trkpt lat="29.009421" lon="104.77283"><ele>318.7698</ele><time>2026-07-03T18:09:04.000Z</time></trkpt>
        <trkpt lat="29.009405" lon="104.772841"><ele>317.80884</ele><time>2026-07-03T18:09:06.000Z</time></trkpt>
        <trkpt lat="29.009389" lon="104.772853"><ele>317.7296</ele><time>2026-07-03T18:09:08.000Z</time></trkpt>
        <trkpt lat="29.009369" lon="104.772867"><ele>317.72186</ele><time>2026-07-03T18:09:11.000Z</time></trkpt>
        <trkpt lat="29.009351" lon="104.772881"><ele>317.61252</ele><time>2026-07-03T18:09:13.000Z</time></trkpt>
        <trkpt lat="29.009334" lon="104.772895"><ele>317.61252</ele><time>2026-07-03T18:09:15.000Z</time></trkpt>
        <trkpt lat="29.009316" lon="104.772906"><ele>317.61252</ele><time>2026-07-03T18:09:17.000Z</time></trkpt>
        <trkpt lat="29.009295" lon="104.772918"><ele>317.52057</ele><time>2026-07-03T18:09:19.000Z</time></trkpt>
        <trkpt lat="29.009277" lon="104.772928"><ele>317.44104</ele><time>2026-07-03T18:09:21.000Z</time></trkpt>
        <trkpt lat="29.009257" lon="104.772936"><ele>316.6174</ele><time>2026-07-03T18:09:23.000Z</time></trkpt>
        <trkpt lat="29.009239" lon="104.77294"><ele>316.38242</ele><time>2026-07-03T18:09:25.000Z</time></trkpt>
        <trkpt lat="29.009218" lon="104.772943"><ele>316.38242</ele><time>2026-07-03T18:09:27.000Z</time></trkpt>
        <trkpt lat="29.009191" lon="104.772948"><ele>316.2542</ele><time>2026-07-03T18:09:29.000Z</time></trkpt>
        <trkpt lat="29.009166" lon="104.772955"><ele>316.05157</ele><time>2026-07-03T18:09:31.000Z</time></trkpt>
        <trkpt lat="29.009146" lon="104.772964"><ele>316.05157</ele><time>2026-07-03T18:09:33.000Z</time></trkpt>
        <trkpt lat="29.009125" lon="104.772973"><ele>316.05157</ele><time>2026-07-03T18:09:35.000Z</time></trkpt>
        <trkpt lat="29.009101" lon="104.772981"><ele>316.05157</ele><time>2026-07-03T18:09:37.000Z</time></trkpt>
        <trkpt lat="29.009075" lon="104.772987"><ele>315.9811</ele><time>2026-07-03T18:09:39.000Z</time></trkpt>
        <trkpt lat="29.009047" lon="104.772992"><ele>315.9811</ele><time>2026-07-03T18:09:41.000Z</time></trkpt>
        <trkpt lat="29.009019" lon="104.772993"><ele>315.9811</ele><time>2026-07-03T18:09:43.000Z</time></trkpt>
        <trkpt lat="29.008993" lon="104.772992"><ele>315.81824</ele><time>2026-07-03T18:09:45.000Z</time></trkpt>
        <trkpt lat="29.008967" lon="104.772984"><ele>315.80045</ele><time>2026-07-03T18:09:47.000Z</time></trkpt>
        <trkpt lat="29.008949" lon="104.77297"><ele>315.66272</ele><time>2026-07-03T18:09:49.000Z</time></trkpt>
        <trkpt lat="29.008935" lon="104.772953"><ele>315.22418</ele><time>2026-07-03T18:09:51.000Z</time></trkpt>
        <trkpt lat="29.008926" lon="104.772935"><ele>314.3726</ele><time>2026-07-03T18:09:53.000Z</time></trkpt>
        <trkpt lat="29.008917" lon="104.772915"><ele>314.28247</ele><time>2026-07-03T18:09:55.000Z</time></trkpt>
        <trkpt lat="29.00891" lon="104.772895"><ele>314.28247</ele><time>2026-07-03T18:09:57.000Z</time></trkpt>
        <trkpt lat="29.008905" lon="104.772877"><ele>314.28247</ele><time>2026-07-03T18:09:59.000Z</time></trkpt>
        <trkpt lat="29.0089" lon="104.772855"><ele>314.94534</ele><time>2026-07-03T18:10:01.000Z</time></trkpt>
        <trkpt lat="29.008898" lon="104.772832"><ele>315.82834</ele><time>2026-07-03T18:10:03.000Z</time></trkpt>
        <trkpt lat="29.008897" lon="104.772806"><ele>316.67892</ele><time>2026-07-03T18:10:05.000Z</time></trkpt>
        <trkpt lat="29.008896" lon="104.772781"><ele>317.06256</ele><time>2026-07-03T18:10:07.000Z</time></trkpt>
        <trkpt lat="29.008894" lon="104.772755"><ele>317.06256</ele><time>2026-07-03T18:10:09.000Z</time></trkpt>
        <trkpt lat="29.008892" lon="104.772743"><ele>317.06256</ele><time>2026-07-03T18:10:11.000Z</time></trkpt>
        <trkpt lat="29.008887" lon="104.772723"><ele>316.67545</ele><time>2026-07-03T18:10:13.000Z</time></trkpt>
        <trkpt lat="29.008881" lon="104.772698"><ele>315.21054</ele><time>2026-07-03T18:10:15.000Z</time></trkpt>
        <trkpt lat="29.008876" lon="104.772669"><ele>314.58597</ele><time>2026-07-03T18:10:17.000Z</time></trkpt>
        <trkpt lat="29.00887" lon="104.77264"><ele>314.5691</ele><time>2026-07-03T18:10:18.000Z</time></trkpt>
        <trkpt lat="29.008865" lon="104.772613"><ele>314.5425</ele><time>2026-07-03T18:10:20.000Z</time></trkpt>
        <trkpt lat="29.008859" lon="104.772586"><ele>314.49316</ele><time>2026-07-03T18:10:22.000Z</time></trkpt>
        <trkpt lat="29.008854" lon="104.772561"><ele>314.4014</ele><time>2026-07-03T18:10:24.000Z</time></trkpt>
        <trkpt lat="29.008849" lon="104.772536"><ele>314.11667</ele><time>2026-07-03T18:10:26.000Z</time></trkpt>
        <trkpt lat="29.008844" lon="104.77251"><ele>313.9876</ele><time>2026-07-03T18:10:28.000Z</time></trkpt>
        <trkpt lat="29.00884" lon="104.772485"><ele>313.72842</ele><time>2026-07-03T18:10:30.000Z</time></trkpt>
        <trkpt lat="29.008836" lon="104.772459"><ele>313.71848</ele><time>2026-07-03T18:10:32.000Z</time></trkpt>
        <trkpt lat="29.008834" lon="104.772436"><ele>313.71848</ele><time>2026-07-03T18:10:34.000Z</time></trkpt>
        <trkpt lat="29.008831" lon="104.772411"><ele>313.56665</ele><time>2026-07-03T18:10:36.000Z</time></trkpt>
        <trkpt lat="29.008825" lon="104.772386"><ele>313.56458</ele><time>2026-07-03T18:10:38.000Z</time></trkpt>
        <trkpt lat="29.008815" lon="104.77236"><ele>313.3461</ele><time>2026-07-03T18:10:40.000Z</time></trkpt>
        <trkpt lat="29.008803" lon="104.772337"><ele>312.94022</ele><time>2026-07-03T18:10:42.000Z</time></trkpt>
        <trkpt lat="29.008787" lon="104.772317"><ele>312.94022</ele><time>2026-07-03T18:10:44.000Z</time></trkpt>
        <trkpt lat="29.008767" lon="104.772303"><ele>312.94022</ele><time>2026-07-03T18:10:46.000Z</time></trkpt>
        <trkpt lat="29.008747" lon="104.77229"><ele>313.00415</ele><time>2026-07-03T18:10:48.000Z</time></trkpt>
        <trkpt lat="29.008728" lon="104.77228"><ele>313.00415</ele><time>2026-07-03T18:10:50.000Z</time></trkpt>
        <trkpt lat="29.008706" lon="104.772271"><ele>313.02383</ele><time>2026-07-03T18:10:52.000Z</time></trkpt>
        <trkpt lat="29.008685" lon="104.772262"><ele>313.02383</ele><time>2026-07-03T18:10:54.000Z</time></trkpt>
        <trkpt lat="29.008668" lon="104.772254"><ele>313.1932</ele><time>2026-07-03T18:10:56.000Z</time></trkpt>
        <trkpt lat="29.008656" lon="104.772246"><ele>313.89645</ele><time>2026-07-03T18:10:58.000Z</time></trkpt>
        <trkpt lat="29.008649" lon="104.77224"><ele>314.72882</ele><time>2026-07-03T18:11:00.000Z</time></trkpt>
        <trkpt lat="29.008634" lon="104.77223"><ele>315.80884</ele><time>2026-07-03T18:11:04.000Z</time></trkpt>
        <trkpt lat="29.008624" lon="104.772226"><ele>316.50906</ele><time>2026-07-03T18:11:06.000Z</time></trkpt>
        <trkpt lat="29.00861" lon="104.772224"><ele>317.31174</ele><time>2026-07-03T18:11:08.000Z</time></trkpt>
        <trkpt lat="29.00859" lon="104.772221"><ele>317.59644</ele><time>2026-07-03T18:11:10.000Z</time></trkpt>
        <trkpt lat="29.008569" lon="104.772216"><ele>317.89157</ele><time>2026-07-03T18:11:12.000Z</time></trkpt>
        <trkpt lat="29.008546" lon="104.772211"><ele>318.12454</ele><time>2026-07-03T18:11:14.000Z</time></trkpt>
        <trkpt lat="29.008527" lon="104.772209"><ele>318.26562</ele><time>2026-07-03T18:11:17.000Z</time></trkpt>
        <trkpt lat="29.008502" lon="104.772206"><ele>318.33682</ele><time>2026-07-03T18:11:19.000Z</time></trkpt>
        <trkpt lat="29.008476" lon="104.772204"><ele>318.37085</ele><time>2026-07-03T18:11:21.000Z</time></trkpt>
        <trkpt lat="29.008451" lon="104.772201"><ele>318.37085</ele><time>2026-07-03T18:11:23.000Z</time></trkpt>
        <trkpt lat="29.008425" lon="104.772197"><ele>318.37085</ele><time>2026-07-03T18:11:25.000Z</time></trkpt>
        <trkpt lat="29.008402" lon="104.772193"><ele>318.05173</ele><time>2026-07-03T18:11:27.000Z</time></trkpt>
        <trkpt lat="29.008377" lon="104.772186"><ele>318.05173</ele><time>2026-07-03T18:11:29.000Z</time></trkpt>
        <trkpt lat="29.008362" lon="104.77218"><ele>318.05173</ele><time>2026-07-03T18:11:31.000Z</time></trkpt>
        <trkpt lat="29.00834" lon="104.772168"><ele>318.1687</ele><time>2026-07-03T18:11:33.000Z</time></trkpt>
        <trkpt lat="29.008318" lon="104.772154"><ele>318.3572</ele><time>2026-07-03T18:11:35.000Z</time></trkpt>
        <trkpt lat="29.0083" lon="104.77214"><ele>318.5284</ele><time>2026-07-03T18:11:37.000Z</time></trkpt>
        <trkpt lat="29.008283" lon="104.772128"><ele>318.5284</ele><time>2026-07-03T18:11:39.000Z</time></trkpt>
        <trkpt lat="29.008264" lon="104.772115"><ele>318.7394</ele><time>2026-07-03T18:11:41.000Z</time></trkpt>
        <trkpt lat="29.008242" lon="104.772101"><ele>318.77567</ele><time>2026-07-03T18:11:43.000Z</time></trkpt>
        <trkpt lat="29.00822" lon="104.772086"><ele>318.77567</ele><time>2026-07-03T18:11:45.000Z</time></trkpt>
        <trkpt lat="29.0082" lon="104.772072"><ele>318.77567</ele><time>2026-07-03T18:11:47.000Z</time></trkpt>
        <trkpt lat="29.008178" lon="104.772054"><ele>318.9058</ele><time>2026-07-03T18:11:49.000Z</time></trkpt>
        <trkpt lat="29.008163" lon="104.772037"><ele>318.9058</ele><time>2026-07-03T18:11:51.000Z</time></trkpt>
        <trkpt lat="29.008147" lon="104.772022"><ele>318.9058</ele><time>2026-07-03T18:11:53.000Z</time></trkpt>
        <trkpt lat="29.008131" lon="104.772011"><ele>318.6744</ele><time>2026-07-03T18:11:55.000Z</time></trkpt>
        <trkpt lat="29.008108" lon="104.771999"><ele>317.77545</ele><time>2026-07-03T18:11:57.000Z</time></trkpt>
        <trkpt lat="29.008086" lon="104.771987"><ele>317.2122</ele><time>2026-07-03T18:11:59.000Z</time></trkpt>
        <trkpt lat="29.008066" lon="104.771974"><ele>317.17984</ele><time>2026-07-03T18:12:01.000Z</time></trkpt>
        <trkpt lat="29.008049" lon="104.771963"><ele>317.09283</ele><time>2026-07-03T18:12:03.000Z</time></trkpt>
        <trkpt lat="29.00803" lon="104.771951"><ele>316.86914</ele><time>2026-07-03T18:12:05.000Z</time></trkpt>
        <trkpt lat="29.008012" lon="104.771936"><ele>316.86914</ele><time>2026-07-03T18:12:07.000Z</time></trkpt>
        <trkpt lat="29.007995" lon="104.771919"><ele>316.86914</ele><time>2026-07-03T18:12:09.000Z</time></trkpt>
        <trkpt lat="29.007981" lon="104.7719"><ele>317.39438</ele><time>2026-07-03T18:12:11.000Z</time></trkpt>
        <trkpt lat="29.007971" lon="104.771883"><ele>317.54022</ele><time>2026-07-03T18:12:13.000Z</time></trkpt>
        <trkpt lat="29.007964" lon="104.771858"><ele>317.5798</ele><time>2026-07-03T18:12:15.000Z</time></trkpt>
        <trkpt lat="29.007963" lon="104.771832"><ele>317.5798</ele><time>2026-07-03T18:12:17.000Z</time></trkpt>
        <trkpt lat="29.007963" lon="104.771804"><ele>317.53433</ele><time>2026-07-03T18:12:19.000Z</time></trkpt>
        <trkpt lat="29.007966" lon="104.771775"><ele>317.53433</ele><time>2026-07-03T18:12:21.000Z</time></trkpt>
        <trkpt lat="29.007971" lon="104.771749"><ele>317.08383</ele><time>2026-07-03T18:12:23.000Z</time></trkpt>
        <trkpt lat="29.007979" lon="104.771724"><ele>317.07245</ele><time>2026-07-03T18:12:24.000Z</time></trkpt>
        <trkpt lat="29.007987" lon="104.771703"><ele>316.8129</ele><time>2026-07-03T18:12:26.000Z</time></trkpt>
        <trkpt lat="29.007996" lon="104.771683"><ele>316.27222</ele><time>2026-07-03T18:12:28.000Z</time></trkpt>
        <trkpt lat="29.008006" lon="104.771662"><ele>316.03186</ele><time>2026-07-03T18:12:30.000Z</time></trkpt>
        <trkpt lat="29.008013" lon="104.771643"><ele>316.02972</ele><time>2026-07-03T18:12:32.000Z</time></trkpt>
        <trkpt lat="29.008022" lon="104.771621"><ele>315.4744</ele><time>2026-07-03T18:12:34.000Z</time></trkpt>
        <trkpt lat="29.008031" lon="104.771599"><ele>314.81152</ele><time>2026-07-03T18:12:36.000Z</time></trkpt>
        <trkpt lat="29.008039" lon="104.771578"><ele>314.56793</ele><time>2026-07-03T18:12:38.000Z</time></trkpt>
        <trkpt lat="29.00805" lon="104.771558"><ele>313.44302</ele><time>2026-07-03T18:12:40.000Z</time></trkpt>
        <trkpt lat="29.008062" lon="104.771539"><ele>312.16412</ele><time>2026-07-03T18:12:42.000Z</time></trkpt>
        <trkpt lat="29.00807" lon="104.771521"><ele>310.86172</ele><time>2026-07-03T18:12:44.000Z</time></trkpt>
        <trkpt lat="29.008077" lon="104.771504"><ele>310.69904</ele><time>2026-07-03T18:12:46.000Z</time></trkpt>
        <trkpt lat="29.008083" lon="104.771487"><ele>310.60083</ele><time>2026-07-03T18:12:48.000Z</time></trkpt>
        <trkpt lat="29.008086" lon="104.771473"><ele>310.4559</ele><time>2026-07-03T18:12:50.000Z</time></trkpt>
        <trkpt lat="29.008088" lon="104.771457"><ele>310.14166</ele><time>2026-07-03T18:12:52.000Z</time></trkpt>
        <trkpt lat="29.008091" lon="104.771437"><ele>310.14166</ele><time>2026-07-03T18:12:54.000Z</time></trkpt>
        <trkpt lat="29.008093" lon="104.771413"><ele>310.14166</ele><time>2026-07-03T18:12:56.000Z</time></trkpt>
        <trkpt lat="29.008094" lon="104.77139"><ele>310.3265</ele><time>2026-07-03T18:12:58.000Z</time></trkpt>
        <trkpt lat="29.008088" lon="104.771372"><ele>310.68857</ele><time>2026-07-03T18:13:00.000Z</time></trkpt>
        <trkpt lat="29.008077" lon="104.771351"><ele>310.68857</ele><time>2026-07-03T18:13:02.000Z</time></trkpt>
        <trkpt lat="29.008062" lon="104.771331"><ele>310.68857</ele><time>2026-07-03T18:13:04.000Z</time></trkpt>
        <trkpt lat="29.00805" lon="104.77131"><ele>310.28143</ele><time>2026-07-03T18:13:06.000Z</time></trkpt>
        <trkpt lat="29.008037" lon="104.77129"><ele>310.0114</ele><time>2026-07-03T18:13:08.000Z</time></trkpt>
        <trkpt lat="29.008025" lon="104.771266"><ele>310.0114</ele><time>2026-07-03T18:13:10.000Z</time></trkpt>
        <trkpt lat="29.008017" lon="104.771251"><ele>310.0114</ele><time>2026-07-03T18:13:12.000Z</time></trkpt>
        <trkpt lat="29.00801" lon="104.771239"><ele>310.4397</ele><time>2026-07-03T18:13:14.000Z</time></trkpt>
        <trkpt lat="29.008004" lon="104.771233"><ele>310.9918</ele><time>2026-07-03T18:13:16.000Z</time></trkpt>
        <trkpt lat="29.007972" lon="104.771197"><ele>311.52444</ele><time>2026-07-03T18:13:26.000Z</time></trkpt>
        <trkpt lat="29.007971" lon="104.771196"><ele>312.01828</ele><time>2026-07-03T18:13:28.000Z</time></trkpt>
        <trkpt lat="29.007965" lon="104.771191"><ele>312.54642</ele><time>2026-07-03T18:13:30.000Z</time></trkpt>
        <trkpt lat="29.007944" lon="104.771172"><ele>312.5488</ele><time>2026-07-03T18:13:32.000Z</time></trkpt>
        <trkpt lat="29.007876" lon="104.771111"><ele>312.57755</ele><time>2026-07-03T18:13:36.000Z</time></trkpt>
        <trkpt lat="29.007875" lon="104.771111"><ele>312.93503</ele><time>2026-07-03T18:13:38.000Z</time></trkpt>
        <trkpt lat="29.007869" lon="104.771107"><ele>314.40527</ele><time>2026-07-03T18:13:40.000Z</time></trkpt>
        <trkpt lat="29.007814" lon="104.771078"><ele>314.40915</ele><time>2026-07-03T18:13:44.000Z</time></trkpt>
        <trkpt lat="29.007786" lon="104.771062"><ele>314.41003</ele><time>2026-07-03T18:13:46.000Z</time></trkpt>
        <trkpt lat="29.007764" lon="104.771048"><ele>314.50726</ele><time>2026-07-03T18:13:48.000Z</time></trkpt>
        <trkpt lat="29.007742" lon="104.771031"><ele>314.56094</ele><time>2026-07-03T18:13:50.000Z</time></trkpt>
        <trkpt lat="29.00772" lon="104.771014"><ele>314.94797</ele><time>2026-07-03T18:13:52.000Z</time></trkpt>
        <trkpt lat="29.007697" lon="104.770994"><ele>315.40112</ele><time>2026-07-03T18:13:54.000Z</time></trkpt>
        <trkpt lat="29.007678" lon="104.770973"><ele>315.535</ele><time>2026-07-03T18:13:56.000Z</time></trkpt>
        <trkpt lat="29.007658" lon="104.770952"><ele>315.7925</ele><time>2026-07-03T18:13:58.000Z</time></trkpt>
        <trkpt lat="29.00764" lon="104.770931"><ele>316.60052</ele><time>2026-07-03T18:14:00.000Z</time></trkpt>
        <trkpt lat="29.00762" lon="104.770909"><ele>317.3407</ele><time>2026-07-03T18:14:02.000Z</time></trkpt>
        <trkpt lat="29.007601" lon="104.770892"><ele>317.89908</ele><time>2026-07-03T18:14:04.000Z</time></trkpt>
        <trkpt lat="29.007584" lon="104.770881"><ele>317.9106</ele><time>2026-07-03T18:14:06.000Z</time></trkpt>
        <trkpt lat="29.007571" lon="104.770872"><ele>317.9106</ele><time>2026-07-03T18:14:08.000Z</time></trkpt>
        <trkpt lat="29.007569" lon="104.770867"><ele>317.89908</ele><time>2026-07-03T18:14:10.000Z</time></trkpt>
        <trkpt lat="29.007548" lon="104.770813"><ele>317.89908</ele><time>2026-07-03T18:14:17.000Z</time></trkpt>
        <trkpt lat="29.007548" lon="104.770813"><ele>317.9106</ele><time>2026-07-03T18:14:19.000Z</time></trkpt>
        <trkpt lat="29.007547" lon="104.770805"><ele>319.148</ele><time>2026-07-03T18:14:21.000Z</time></trkpt>
        <trkpt lat="29.007536" lon="104.77075"><ele>319.148</ele><time>2026-07-03T18:14:24.000Z</time></trkpt>
        <trkpt lat="29.007533" lon="104.770726"><ele>319.148</ele><time>2026-07-03T18:14:26.000Z</time></trkpt>
        <trkpt lat="29.007528" lon="104.770702"><ele>318.87357</ele><time>2026-07-03T18:14:28.000Z</time></trkpt>
        <trkpt lat="29.007524" lon="104.770689"><ele>317.7808</ele><time>2026-07-03T18:14:30.000Z</time></trkpt>
        <trkpt lat="29.007525" lon="104.770682"><ele>317.34735</ele><time>2026-07-03T18:14:32.000Z</time></trkpt>
        <trkpt lat="29.007529" lon="104.770647"><ele>317.20645</ele><time>2026-07-03T18:14:36.000Z</time></trkpt>
        <trkpt lat="29.007525" lon="104.770624"><ele>317.1759</ele><time>2026-07-03T18:14:38.000Z</time></trkpt>
        <trkpt lat="29.007519" lon="104.770597"><ele>316.88855</ele><time>2026-07-03T18:14:40.000Z</time></trkpt>
        <trkpt lat="29.007513" lon="104.770573"><ele>316.73816</ele><time>2026-07-03T18:14:42.000Z</time></trkpt>
        <trkpt lat="29.007505" lon="104.770549"><ele>316.63678</ele><time>2026-07-03T18:14:44.000Z</time></trkpt>
        <trkpt lat="29.007496" lon="104.770527"><ele>316.49442</ele><time>2026-07-03T18:14:46.000Z</time></trkpt>
        <trkpt lat="29.007486" lon="104.770506"><ele>316.41312</ele><time>2026-07-03T18:14:48.000Z</time></trkpt>
        <trkpt lat="29.007473" lon="104.770488"><ele>316.26907</ele><time>2026-07-03T18:14:50.000Z</time></trkpt>
        <trkpt lat="29.007456" lon="104.770469"><ele>316.03476</ele><time>2026-07-03T18:14:52.000Z</time></trkpt>
        <trkpt lat="29.007439" lon="104.77045"><ele>315.66318</ele><time>2026-07-03T18:14:54.000Z</time></trkpt>
        <trkpt lat="29.007423" lon="104.770434"><ele>315.53</ele><time>2026-07-03T18:14:56.000Z</time></trkpt>
        <trkpt lat="29.007407" lon="104.770418"><ele>315.53</ele><time>2026-07-03T18:14:58.000Z</time></trkpt>
        <trkpt lat="29.007391" lon="104.770401"><ele>315.53</ele><time>2026-07-03T18:15:00.000Z</time></trkpt>
        <trkpt lat="29.007379" lon="104.770384"><ele>315.62622</ele><time>2026-07-03T18:15:02.000Z</time></trkpt>
        <trkpt lat="29.007375" lon="104.770369"><ele>315.71738</ele><time>2026-07-03T18:15:04.000Z</time></trkpt>
        <trkpt lat="29.007374" lon="104.770347"><ele>315.71738</ele><time>2026-07-03T18:15:06.000Z</time></trkpt>
        <trkpt lat="29.007371" lon="104.77032"><ele>315.71738</ele><time>2026-07-03T18:15:08.000Z</time></trkpt>
        <trkpt lat="29.007368" lon="104.770289"><ele>315.326</ele><time>2026-07-03T18:15:10.000Z</time></trkpt>
        <trkpt lat="29.007364" lon="104.770262"><ele>315.24164</ele><time>2026-07-03T18:15:12.000Z</time></trkpt>
        <trkpt lat="29.007361" lon="104.770248"><ele>315.24164</ele><time>2026-07-03T18:15:14.000Z</time></trkpt>
        <trkpt lat="29.007359" lon="104.770242"><ele>315.21106</ele><time>2026-07-03T18:15:16.000Z</time></trkpt>
        <trkpt lat="29.007353" lon="104.770221"><ele>315.08453</ele><time>2026-07-03T18:15:53.000Z</time></trkpt>
        <trkpt lat="29.007348" lon="104.770215"><ele>315.08453</ele><time>2026-07-03T18:15:55.000Z</time></trkpt>
        <trkpt lat="29.007347" lon="104.770216"><ele>314.60883</ele><time>2026-07-03T18:15:57.000Z</time></trkpt>
        <trkpt lat="29.007302" lon="104.770251"><ele>314.0524</ele><time>2026-07-03T18:16:06.000Z</time></trkpt>
        <trkpt lat="29.007302" lon="104.770251"><ele>313.7066</ele><time>2026-07-03T18:16:08.000Z</time></trkpt>
        <trkpt lat="29.007301" lon="104.770255"><ele>313.70633</ele><time>2026-07-03T18:16:10.000Z</time></trkpt>
        <trkpt lat="29.007289" lon="104.770295"><ele>313.70374</ele><time>2026-07-03T18:16:14.000Z</time></trkpt>
        <trkpt lat="29.007282" lon="104.770313"><ele>313.62833</ele><time>2026-07-03T18:16:16.000Z</time></trkpt>
        <trkpt lat="29.007275" lon="104.770322"><ele>313.43884</ele><time>2026-07-03T18:16:18.000Z</time></trkpt>
        <trkpt lat="29.007273" lon="104.770321"><ele>313.43884</ele><time>2026-07-03T18:16:22.000Z</time></trkpt>
        <trkpt lat="29.007245" lon="104.770295"><ele>313.19073</ele><time>2026-07-03T18:16:27.000Z</time></trkpt>
        <trkpt lat="29.007236" lon="104.770282"><ele>313.19073</ele><time>2026-07-03T18:16:29.000Z</time></trkpt>
        <trkpt lat="29.007226" lon="104.770265"><ele>313.10895</ele><time>2026-07-03T18:16:31.000Z</time></trkpt>
        <trkpt lat="29.007215" lon="104.770251"><ele>312.82584</ele><time>2026-07-03T18:16:33.000Z</time></trkpt>
        <trkpt lat="29.007207" lon="104.770248"><ele>312.68372</ele><time>2026-07-03T18:16:35.000Z</time></trkpt>
        <trkpt lat="29.007189" lon="104.770246"><ele>312.56592</ele><time>2026-07-03T18:16:39.000Z</time></trkpt>
        <trkpt lat="29.007179" lon="104.770244"><ele>312.55212</ele><time>2026-07-03T18:16:41.000Z</time></trkpt>
        <trkpt lat="29.007163" lon="104.770239"><ele>312.55212</ele><time>2026-07-03T18:16:43.000Z</time></trkpt>
        <trkpt lat="29.007146" lon="104.770235"><ele>312.55212</ele><time>2026-07-03T18:16:45.000Z</time></trkpt>
        <trkpt lat="29.007124" lon="104.770229"><ele>312.98154</ele><time>2026-07-03T18:16:47.000Z</time></trkpt>
        <trkpt lat="29.007102" lon="104.770221"><ele>312.98526</ele><time>2026-07-03T18:16:49.000Z</time></trkpt>
        <trkpt lat="29.007084" lon="104.770213"><ele>312.98526</ele><time>2026-07-03T18:16:51.000Z</time></trkpt>
        <trkpt lat="29.007064" lon="104.770209"><ele>312.98526</ele><time>2026-07-03T18:16:53.000Z</time></trkpt>
        <trkpt lat="29.007045" lon="104.770208"><ele>312.78503</ele><time>2026-07-03T18:16:55.000Z</time></trkpt>
        <trkpt lat="29.007027" lon="104.770209"><ele>312.78503</ele><time>2026-07-03T18:16:57.000Z</time></trkpt>
        <trkpt lat="29.007008" lon="104.770212"><ele>312.78503</ele><time>2026-07-03T18:16:59.000Z</time></trkpt>
        <trkpt lat="29.006988" lon="104.770214"><ele>312.8137</ele><time>2026-07-03T18:17:01.000Z</time></trkpt>
        <trkpt lat="29.006968" lon="104.770214"><ele>313.46024</ele><time>2026-07-03T18:17:03.000Z</time></trkpt>
        <trkpt lat="29.006949" lon="104.770212"><ele>313.96072</ele><time>2026-07-03T18:17:05.000Z</time></trkpt>
        <trkpt lat="29.006932" lon="104.77021"><ele>314.46277</ele><time>2026-07-03T18:17:07.000Z</time></trkpt>
        <trkpt lat="29.006916" lon="104.770207"><ele>314.79645</ele><time>2026-07-03T18:17:09.000Z</time></trkpt>
        <trkpt lat="29.006899" lon="104.770202"><ele>314.8784</ele><time>2026-07-03T18:17:11.000Z</time></trkpt>
        <trkpt lat="29.006882" lon="104.770198"><ele>314.8797</ele><time>2026-07-03T18:17:13.000Z</time></trkpt>
        <trkpt lat="29.006872" lon="104.770195"><ele>314.89575</ele><time>2026-07-03T18:17:15.000Z</time></trkpt>
        <trkpt lat="29.006862" lon="104.770195"><ele>314.95096</ele><time>2026-07-03T18:17:17.000Z</time></trkpt>
        <trkpt lat="29.006844" lon="104.770193"><ele>314.95096</ele><time>2026-07-03T18:17:29.000Z</time></trkpt>
        <trkpt lat="29.006831" lon="104.770192"><ele>315.0907</ele><time>2026-07-03T18:17:33.000Z</time></trkpt>
        <trkpt lat="29.006823" lon="104.77019"><ele>316.15387</ele><time>2026-07-03T18:17:40.000Z</time></trkpt>
        <trkpt lat="29.006794" lon="104.770187"><ele>316.15387</ele><time>2026-07-03T18:17:57.000Z</time></trkpt>
        <trkpt lat="29.006782" lon="104.770184"><ele>316.15387</ele><time>2026-07-03T18:17:59.000Z</time></trkpt>
        <trkpt lat="29.006741" lon="104.770173"><ele>315.69116</ele><time>2026-07-03T18:18:03.000Z</time></trkpt>
        <trkpt lat="29.006741" lon="104.770173"><ele>315.55194</ele><time>2026-07-03T18:18:05.000Z</time></trkpt>
        <trkpt lat="29.006736" lon="104.770171"><ele>315.54947</ele><time>2026-07-03T18:18:07.000Z</time></trkpt>
        <trkpt lat="29.00669" lon="104.770146"><ele>315.50488</ele><time>2026-07-03T18:18:11.000Z</time></trkpt>
        <trkpt lat="29.006667" lon="104.770132"><ele>315.48105</ele><time>2026-07-03T18:18:13.000Z</time></trkpt>
        <trkpt lat="29.006645" lon="104.770121"><ele>315.45844</ele><time>2026-07-03T18:18:15.000Z</time></trkpt>
        <trkpt lat="29.006631" lon="104.770112"><ele>315.14563</ele><time>2026-07-03T18:18:17.000Z</time></trkpt>
        <trkpt lat="29.006619" lon="104.770104"><ele>314.73688</ele><time>2026-07-03T18:18:19.000Z</time></trkpt>
        <trkpt lat="29.00661" lon="104.770106"><ele>314.54602</ele><time>2026-07-03T18:18:21.000Z</time></trkpt>
        <trkpt lat="29.006582" lon="104.770112"><ele>314.46945</ele><time>2026-07-03T18:18:25.000Z</time></trkpt>
        <trkpt lat="29.006574" lon="104.770112"><ele>314.36148</ele><time>2026-07-03T18:18:27.000Z</time></trkpt>
        <trkpt lat="29.006569" lon="104.77011"><ele>314.26498</ele><time>2026-07-03T18:18:29.000Z</time></trkpt>
        <trkpt lat="29.006507" lon="104.770086"><ele>314.36148</ele><time>2026-07-03T18:18:39.000Z</time></trkpt>
        <trkpt lat="29.006507" lon="104.770086"><ele>314.36148</ele><time>2026-07-03T18:18:41.000Z</time></trkpt>
        <trkpt lat="29.006504" lon="104.770087"><ele>314.2536</ele><time>2026-07-03T18:18:43.000Z</time></trkpt>
        <trkpt lat="29.006468" lon="104.770106"><ele>314.2536</ele><time>2026-07-03T18:18:49.000Z</time></trkpt>
        <trkpt lat="29.006463" lon="104.770111"><ele>314.2536</ele><time>2026-07-03T18:18:51.000Z</time></trkpt>
        <trkpt lat="29.006456" lon="104.770118"><ele>313.28873</ele><time>2026-07-03T18:18:53.000Z</time></trkpt>
        <trkpt lat="29.006423" lon="104.770147"><ele>313.26614</ele><time>2026-07-03T18:18:57.000Z</time></trkpt>
        <trkpt lat="29.006408" lon="104.770157"><ele>313.26025</ele><time>2026-07-03T18:18:59.000Z</time></trkpt>
        <trkpt lat="29.006393" lon="104.770162"><ele>312.5036</ele><time>2026-07-03T18:19:01.000Z</time></trkpt>
        <trkpt lat="29.00637" lon="104.770168"><ele>312.2927</ele><time>2026-07-03T18:19:03.000Z</time></trkpt>
        <trkpt lat="29.006347" lon="104.770171"><ele>312.2927</ele><time>2026-07-03T18:19:05.000Z</time></trkpt>
        <trkpt lat="29.006325" lon="104.770173"><ele>312.2927</ele><time>2026-07-03T18:19:07.000Z</time></trkpt>
        <trkpt lat="29.0063" lon="104.770176"><ele>312.4749</ele><time>2026-07-03T18:19:09.000Z</time></trkpt>
        <trkpt lat="29.006277" lon="104.770182"><ele>313.92896</ele><time>2026-07-03T18:19:11.000Z</time></trkpt>
        <trkpt lat="29.006256" lon="104.770191"><ele>314.31152</ele><time>2026-07-03T18:19:13.000Z</time></trkpt>
        <trkpt lat="29.006235" lon="104.770201"><ele>314.4311</ele><time>2026-07-03T18:19:15.000Z</time></trkpt>
        <trkpt lat="29.006216" lon="104.770207"><ele>314.4311</ele><time>2026-07-03T18:19:17.000Z</time></trkpt>
        <trkpt lat="29.0062" lon="104.770204"><ele>314.31152</ele><time>2026-07-03T18:19:19.000Z</time></trkpt>
        <trkpt lat="29.00619" lon="104.770197"><ele>314.59357</ele><time>2026-07-03T18:19:21.000Z</time></trkpt>
        <trkpt lat="29.006177" lon="104.770192"><ele>314.59357</ele><time>2026-07-03T18:19:23.000Z</time></trkpt>
        <trkpt lat="29.006162" lon="104.770193"><ele>314.8739</ele><time>2026-07-03T18:19:27.000Z</time></trkpt>
        <trkpt lat="29.006152" lon="104.770196"><ele>315.98062</ele><time>2026-07-03T18:19:29.000Z</time></trkpt>
        <trkpt lat="29.006133" lon="104.770202"><ele>315.98062</ele><time>2026-07-03T18:19:31.000Z</time></trkpt>
        <trkpt lat="29.006111" lon="104.770208"><ele>315.98062</ele><time>2026-07-03T18:19:33.000Z</time></trkpt>
        <trkpt lat="29.006086" lon="104.770215"><ele>315.18393</ele><time>2026-07-03T18:19:35.000Z</time></trkpt>
        <trkpt lat="29.00607" lon="104.770219"><ele>314.6303</ele><time>2026-07-03T18:19:37.000Z</time></trkpt>
        <trkpt lat="29.006057" lon="104.770222"><ele>314.1043</ele><time>2026-07-03T18:19:39.000Z</time></trkpt>
        <trkpt lat="29.006042" lon="104.77023"><ele>314.1043</ele><time>2026-07-03T18:19:42.000Z</time></trkpt>
        <trkpt lat="29.006026" lon="104.770243"><ele>314.1043</ele><time>2026-07-03T18:19:44.000Z</time></trkpt>
        <trkpt lat="29.006014" lon="104.770257"><ele>314.38403</ele><time>2026-07-03T18:19:46.000Z</time></trkpt>
        <trkpt lat="29.006003" lon="104.770273"><ele>314.67636</ele><time>2026-07-03T18:19:48.000Z</time></trkpt>
        <trkpt lat="29.005995" lon="104.770291"><ele>314.73978</ele><time>2026-07-03T18:19:50.000Z</time></trkpt>
        <trkpt lat="29.005989" lon="104.770293"><ele>314.86273</ele><time>2026-07-03T18:19:52.000Z</time></trkpt>
        <trkpt lat="29.005968" lon="104.770309"><ele>314.86273</ele><time>2026-07-03T18:20:00.000Z</time></trkpt>
        <trkpt lat="29.005956" lon="104.770318"><ele>314.86273</ele><time>2026-07-03T18:20:04.000Z</time></trkpt>
        <trkpt lat="29.005956" lon="104.770318"><ele>314.79785</ele><time>2026-07-03T18:20:06.000Z</time></trkpt>
        <trkpt lat="29.005929" lon="104.770297"><ele>314.79785</ele><time>2026-07-03T18:20:28.000Z</time></trkpt>
        <trkpt lat="29.005927" lon="104.770298"><ele>314.79785</ele><time>2026-07-03T18:20:30.000Z</time></trkpt>
        <trkpt lat="29.005916" lon="104.77031"><ele>315.59256</ele><time>2026-07-03T18:20:32.000Z</time></trkpt>
        <trkpt lat="29.005893" lon="104.77033"><ele>315.59256</ele><time>2026-07-03T18:20:40.000Z</time></trkpt>
        <trkpt lat="29.005872" lon="104.770349"><ele>315.59256</ele><time>2026-07-03T18:20:44.000Z</time></trkpt>
        <trkpt lat="29.005872" lon="104.770349"><ele>315.1145</ele><time>2026-07-03T18:20:46.000Z</time></trkpt>
        <trkpt lat="29.005857" lon="104.770362"><ele>314.57132</ele><time>2026-07-03T18:20:50.000Z</time></trkpt>
      </trkseg>
      <trkseg>
        <trkpt lat="29.00566" lon="104.770364"><ele>314.92578</ele><time>2026-07-03T18:21:19.000Z</time></trkpt>
        <trkpt lat="29.005638" lon="104.770401"><ele>315.36398</ele><time>2026-07-03T18:21:31.000Z</time></trkpt>
        <trkpt lat="29.005637" lon="104.770409"><ele>315.2368</ele><time>2026-07-03T18:21:33.000Z</time></trkpt>
        <trkpt lat="29.005637" lon="104.770409"><ele>315.29102</ele><time>2026-07-03T18:21:35.000Z</time></trkpt>
        <trkpt lat="29.005592" lon="104.770406"><ele>315.34528</ele><time>2026-07-03T18:21:40.000Z</time></trkpt>
        <trkpt lat="29.005592" lon="104.770406"><ele>315.36398</ele><time>2026-07-03T18:21:42.000Z</time></trkpt>
        <trkpt lat="29.00559" lon="104.770406"><ele>316.22342</ele><time>2026-07-03T18:21:44.000Z</time></trkpt>
        <trkpt lat="29.005549" lon="104.770409"><ele>316.22342</ele><time>2026-07-03T18:22:28.000Z</time></trkpt>
        <trkpt lat="29.005547" lon="104.770407"><ele>316.22342</ele><time>2026-07-03T18:22:30.000Z</time></trkpt>
        <trkpt lat="29.005545" lon="104.770405"><ele>316.23053</ele><time>2026-07-03T18:22:32.000Z</time></trkpt>
        <trkpt lat="29.005588" lon="104.770443"><ele>316.36328</ele><time>2026-07-03T18:22:46.000Z</time></trkpt>
        <trkpt lat="29.005617" lon="104.770558"><ele>316.66623</ele><time>2026-07-03T18:23:03.000Z</time></trkpt>
        <trkpt lat="29.005617" lon="104.770558"><ele>316.6937</ele><time>2026-07-03T18:23:05.000Z</time></trkpt>
        <trkpt lat="29.005616" lon="104.770558"><ele>316.6959</ele><time>2026-07-03T18:23:07.000Z</time></trkpt>
        <trkpt lat="29.005585" lon="104.770533"><ele>316.8016</ele><time>2026-07-03T18:23:23.000Z</time></trkpt>
        <trkpt lat="29.005555" lon="104.770508"><ele>316.8016</ele><time>2026-07-03T18:23:25.000Z</time></trkpt>
        <trkpt lat="29.005554" lon="104.770509"><ele>317.64413</ele><time>2026-07-03T18:23:27.000Z</time></trkpt>
        <trkpt lat="29.005553" lon="104.77051"><ele>317.90756</ele><time>2026-07-03T18:23:29.000Z</time></trkpt>
        <trkpt lat="29.005527" lon="104.770564"><ele>317.90897</ele><time>2026-07-03T18:23:37.000Z</time></trkpt>
        <trkpt lat="29.005527" lon="104.770565"><ele>318.10214</ele><time>2026-07-03T18:23:39.000Z</time></trkpt>
        <trkpt lat="29.005527" lon="104.770568"><ele>319.82532</ele><time>2026-07-03T18:23:41.000Z</time></trkpt>
        <trkpt lat="29.005534" lon="104.770613"><ele>319.82532</ele><time>2026-07-03T18:23:47.000Z</time></trkpt>
        <trkpt lat="29.005535" lon="104.770627"><ele>319.82532</ele><time>2026-07-03T18:23:49.000Z</time></trkpt>
        <trkpt lat="29.005538" lon="104.770639"><ele>319.48877</ele><time>2026-07-03T18:23:51.000Z</time></trkpt>
        <trkpt lat="29.005543" lon="104.770654"><ele>319.2849</ele><time>2026-07-03T18:23:54.000Z</time></trkpt>
        <trkpt lat="29.005546" lon="104.770667"><ele>319.10977</ele><time>2026-07-03T18:23:56.000Z</time></trkpt>
        <trkpt lat="29.005548" lon="104.770681"><ele>319.06934</ele><time>2026-07-03T18:23:58.000Z</time></trkpt>
        <trkpt lat="29.005548" lon="104.770697"><ele>319.02435</ele><time>2026-07-03T18:24:00.000Z</time></trkpt>
        <trkpt lat="29.005545" lon="104.770712"><ele>319.02435</ele><time>2026-07-03T18:24:02.000Z</time></trkpt>
        <trkpt lat="29.00554" lon="104.770729"><ele>319.02435</ele><time>2026-07-03T18:24:04.000Z</time></trkpt>
        <trkpt lat="29.005533" lon="104.77074"><ele>319.21783</ele><time>2026-07-03T18:24:06.000Z</time></trkpt>
        <trkpt lat="29.005524" lon="104.770749"><ele>319.2609</ele><time>2026-07-03T18:24:08.000Z</time></trkpt>
        <trkpt lat="29.005517" lon="104.77075"><ele>319.49554</ele><time>2026-07-03T18:24:10.000Z</time></trkpt>
        <trkpt lat="29.005509" lon="104.770747"><ele>319.87625</ele><time>2026-07-03T18:24:12.000Z</time></trkpt>
        <trkpt lat="29.005497" lon="104.770739"><ele>320.29718</ele><time>2026-07-03T18:24:14.000Z</time></trkpt>
        <trkpt lat="29.005486" lon="104.770727"><ele>320.77838</ele><time>2026-07-03T18:24:16.000Z</time></trkpt>
        <trkpt lat="29.005472" lon="104.770713"><ele>321.21576</ele><time>2026-07-03T18:24:18.000Z</time></trkpt>
        <trkpt lat="29.005457" lon="104.770704"><ele>321.58743</ele><time>2026-07-03T18:24:20.000Z</time></trkpt>
        <trkpt lat="29.005445" lon="104.770703"><ele>321.99542</ele><time>2026-07-03T18:24:22.000Z</time></trkpt>
        <trkpt lat="29.005434" lon="104.770708"><ele>322.3344</ele><time>2026-07-03T18:24:24.000Z</time></trkpt>
        <trkpt lat="29.005434" lon="104.770714"><ele>322.7937</ele><time>2026-07-03T18:24:26.000Z</time></trkpt>
        <trkpt lat="29.005438" lon="104.770741"><ele>323.21396</ele><time>2026-07-03T18:24:30.000Z</time></trkpt>
        <trkpt lat="29.005438" lon="104.770752"><ele>323.69342</ele><time>2026-07-03T18:24:32.000Z</time></trkpt>
        <trkpt lat="29.005441" lon="104.770754"><ele>323.79825</ele><time>2026-07-03T18:24:34.000Z</time></trkpt>
        <trkpt lat="29.005363" lon="104.770721"><ele>323.8588</ele><time>2026-07-03T18:24:44.000Z</time></trkpt>
        <trkpt lat="29.005363" lon="104.770721"><ele>323.98343</ele><time>2026-07-03T18:24:45.000Z</time></trkpt>
        <trkpt lat="29.00536" lon="104.77072"><ele>325.3802</ele><time>2026-07-03T18:24:47.000Z</time></trkpt>
        <trkpt lat="29.005328" lon="104.770713"><ele>325.39114</ele><time>2026-07-03T18:24:53.000Z</time></trkpt>
        <trkpt lat="29.005315" lon="104.77071"><ele>325.49728</ele><time>2026-07-03T18:24:55.000Z</time></trkpt>
        <trkpt lat="29.005301" lon="104.770708"><ele>327.72476</ele><time>2026-07-03T18:24:57.000Z</time></trkpt>
        <trkpt lat="29.005286" lon="104.770706"><ele>328.50098</ele><time>2026-07-03T18:24:59.000Z</time></trkpt>
        <trkpt lat="29.005275" lon="104.770708"><ele>328.84616</ele><time>2026-07-03T18:25:01.000Z</time></trkpt>
        <trkpt lat="29.005268" lon="104.77071"><ele>329.2473</ele><time>2026-07-03T18:25:03.000Z</time></trkpt>
        <trkpt lat="29.005254" lon="104.770714"><ele>329.335</ele><time>2026-07-03T18:25:05.000Z</time></trkpt>
        <trkpt lat="29.005247" lon="104.770714"><ele>329.335</ele><time>2026-07-03T18:25:07.000Z</time></trkpt>
        <trkpt lat="29.005235" lon="104.770714"><ele>329.335</ele><time>2026-07-03T18:25:09.000Z</time></trkpt>
        <trkpt lat="29.005218" lon="104.770716"><ele>329.30365</ele><time>2026-07-03T18:25:11.000Z</time></trkpt>
        <trkpt lat="29.005205" lon="104.77072"><ele>329.30365</ele><time>2026-07-03T18:25:13.000Z</time></trkpt>
        <trkpt lat="29.00519" lon="104.770728"><ele>329.30365</ele><time>2026-07-03T18:25:15.000Z</time></trkpt>
        <trkpt lat="29.005171" lon="104.770737"><ele>330.0006</ele><time>2026-07-03T18:25:17.000Z</time></trkpt>
        <trkpt lat="29.005152" lon="104.770746"><ele>330.3908</ele><time>2026-07-03T18:25:19.000Z</time></trkpt>
        <trkpt lat="29.005133" lon="104.770754"><ele>330.4653</ele><time>2026-07-03T18:25:21.000Z</time></trkpt>
        <trkpt lat="29.005113" lon="104.770759"><ele>330.81424</ele><time>2026-07-03T18:25:23.000Z</time></trkpt>
        <trkpt lat="29.005096" lon="104.770763"><ele>331.40027</ele><time>2026-07-03T18:25:25.000Z</time></trkpt>
        <trkpt lat="29.005081" lon="104.770766"><ele>331.98727</ele><time>2026-07-03T18:25:27.000Z</time></trkpt>
        <trkpt lat="29.005068" lon="104.770771"><ele>332.63306</ele><time>2026-07-03T18:25:29.000Z</time></trkpt>
        <trkpt lat="29.005056" lon="104.770777"><ele>333.2117</ele><time>2026-07-03T18:25:31.000Z</time></trkpt>
        <trkpt lat="29.005043" lon="104.770785"><ele>333.7173</ele><time>2026-07-03T18:25:33.000Z</time></trkpt>
        <trkpt lat="29.005026" lon="104.770796"><ele>334.171</ele><time>2026-07-03T18:25:35.000Z</time></trkpt>
        <trkpt lat="29.005013" lon="104.770801"><ele>334.54633</ele><time>2026-07-03T18:25:37.000Z</time></trkpt>
        <trkpt lat="29.005002" lon="104.770804"><ele>334.9196</ele><time>2026-07-03T18:25:39.000Z</time></trkpt>
        <trkpt lat="29.00499" lon="104.770809"><ele>335.43817</ele><time>2026-07-03T18:25:41.000Z</time></trkpt>
        <trkpt lat="29.004974" lon="104.770819"><ele>335.94226</ele><time>2026-07-03T18:25:43.000Z</time></trkpt>
        <trkpt lat="29.004955" lon="104.770831"><ele>336.24072</ele><time>2026-07-03T18:25:45.000Z</time></trkpt>
        <trkpt lat="29.004936" lon="104.770844"><ele>336.48102</ele><time>2026-07-03T18:25:47.000Z</time></trkpt>
        <trkpt lat="29.004915" lon="104.770854"><ele>336.56476</ele><time>2026-07-03T18:25:49.000Z</time></trkpt>
        <trkpt lat="29.004896" lon="104.770858"><ele>336.8143</ele><time>2026-07-03T18:25:51.000Z</time></trkpt>
        <trkpt lat="29.004878" lon="104.770858"><ele>336.8143</ele><time>2026-07-03T18:25:53.000Z</time></trkpt>
        <trkpt lat="29.004859" lon="104.770861"><ele>336.88083</ele><time>2026-07-03T18:25:55.000Z</time></trkpt>
        <trkpt lat="29.004837" lon="104.770866"><ele>336.88083</ele><time>2026-07-03T18:25:57.000Z</time></trkpt>
        <trkpt lat="29.004817" lon="104.77087"><ele>336.88083</ele><time>2026-07-03T18:26:00.000Z</time></trkpt>
        <trkpt lat="29.004797" lon="104.770871"><ele>336.88083</ele><time>2026-07-03T18:26:02.000Z</time></trkpt>
        <trkpt lat="29.00478" lon="104.770869"><ele>337.15768</ele><time>2026-07-03T18:26:04.000Z</time></trkpt>
        <trkpt lat="29.004764" lon="104.770867"><ele>337.46658</ele><time>2026-07-03T18:26:06.000Z</time></trkpt>
        <trkpt lat="29.004748" lon="104.77087"><ele>337.8309</ele><time>2026-07-03T18:26:08.000Z</time></trkpt>
        <trkpt lat="29.004732" lon="104.770875"><ele>338.01822</ele><time>2026-07-03T18:26:10.000Z</time></trkpt>
        <trkpt lat="29.004714" lon="104.770882"><ele>338.21448</ele><time>2026-07-03T18:26:12.000Z</time></trkpt>
        <trkpt lat="29.004704" lon="104.770887"><ele>338.325</ele><time>2026-07-03T18:26:14.000Z</time></trkpt>
        <trkpt lat="29.004691" lon="104.770892"><ele>338.65005</ele><time>2026-07-03T18:26:16.000Z</time></trkpt>
        <trkpt lat="29.004681" lon="104.770894"><ele>338.82196</ele><time>2026-07-03T18:26:18.000Z</time></trkpt>
        <trkpt lat="29.004669" lon="104.770896"><ele>339.0547</ele><time>2026-07-03T18:26:20.000Z</time></trkpt>
        <trkpt lat="29.004654" lon="104.770899"><ele>339.12805</ele><time>2026-07-03T18:26:22.000Z</time></trkpt>
        <trkpt lat="29.004638" lon="104.770902"><ele>339.20636</ele><time>2026-07-03T18:26:24.000Z</time></trkpt>
        <trkpt lat="29.004621" lon="104.770905"><ele>339.20636</ele><time>2026-07-03T18:26:26.000Z</time></trkpt>
        <trkpt lat="29.004599" lon="104.770907"><ele>339.20636</ele><time>2026-07-03T18:26:28.000Z</time></trkpt>
        <trkpt lat="29.00458" lon="104.770908"><ele>339.0102</ele><time>2026-07-03T18:26:30.000Z</time></trkpt>
        <trkpt lat="29.004567" lon="104.77091"><ele>338.82706</ele><time>2026-07-03T18:26:32.000Z</time></trkpt>
        <trkpt lat="29.004557" lon="104.770913"><ele>338.5523</ele><time>2026-07-03T18:26:34.000Z</time></trkpt>
        <trkpt lat="29.004554" lon="104.770918"><ele>338.51047</ele><time>2026-07-03T18:26:36.000Z</time></trkpt>
        <trkpt lat="29.004546" lon="104.770929"><ele>338.51047</ele><time>2026-07-03T18:26:40.000Z</time></trkpt>
        <trkpt lat="29.004538" lon="104.770936"><ele>338.51047</ele><time>2026-07-03T18:26:44.000Z</time></trkpt>
        <trkpt lat="29.004508" lon="104.77096"><ele>338.49005</ele><time>2026-07-03T18:26:48.000Z</time></trkpt>
        <trkpt lat="29.004508" lon="104.77096"><ele>338.49005</ele><time>2026-07-03T18:26:50.000Z</time></trkpt>
        <trkpt lat="29.00451" lon="104.77096"><ele>338.42053</ele><time>2026-07-03T18:26:52.000Z</time></trkpt>
        <trkpt lat="29.004534" lon="104.770974"><ele>338.42053</ele><time>2026-07-03T18:27:00.000Z</time></trkpt>
        <trkpt lat="29.004535" lon="104.770973"><ele>338.42053</ele><time>2026-07-03T18:27:02.000Z</time></trkpt>
        <trkpt lat="29.004516" lon="104.77099"><ele>339.08133</ele><time>2026-07-03T18:27:06.000Z</time></trkpt>
        <trkpt lat="29.004572" lon="104.771036"><ele>339.58594</ele><time>2026-07-03T18:27:25.000Z</time></trkpt>
        <trkpt lat="29.004582" lon="104.771072"><ele>340.42722</ele><time>2026-07-03T18:27:33.000Z</time></trkpt>
        <trkpt lat="29.004595" lon="104.771119"><ele>343.05908</ele><time>2026-07-03T18:27:37.000Z</time></trkpt>
        <trkpt lat="29.004595" lon="104.771119"><ele>344.71976</ele><time>2026-07-03T18:27:39.000Z</time></trkpt>
        <trkpt lat="29.004598" lon="104.771123"><ele>345.80426</ele><time>2026-07-03T18:27:41.000Z</time></trkpt>
        <trkpt lat="29.004627" lon="104.771153"><ele>345.80908</ele><time>2026-07-03T18:27:45.000Z</time></trkpt>
        <trkpt lat="29.004642" lon="104.77117"><ele>345.9214</ele><time>2026-07-03T18:27:47.000Z</time></trkpt>
        <trkpt lat="29.004655" lon="104.771187"><ele>346.86133</ele><time>2026-07-03T18:27:49.000Z</time></trkpt>
        <trkpt lat="29.004665" lon="104.771201"><ele>347.46298</ele><time>2026-07-03T18:27:51.000Z</time></trkpt>
        <trkpt lat="29.004672" lon="104.771209"><ele>348.12125</ele><time>2026-07-03T18:27:53.000Z</time></trkpt>
        <trkpt lat="29.004678" lon="104.771216"><ele>348.7528</ele><time>2026-07-03T18:27:55.000Z</time></trkpt>
        <trkpt lat="29.004683" lon="104.771225"><ele>349.1739</ele><time>2026-07-03T18:27:57.000Z</time></trkpt>
        <trkpt lat="29.004693" lon="104.771238"><ele>349.1739</ele><time>2026-07-03T18:28:01.000Z</time></trkpt>
        <trkpt lat="29.004713" lon="104.771266"><ele>349.3937</ele><time>2026-07-03T18:28:07.000Z</time></trkpt>
        <trkpt lat="29.004713" lon="104.771266"><ele>349.47217</ele><time>2026-07-03T18:28:09.000Z</time></trkpt>
        <trkpt lat="29.004714" lon="104.771268"><ele>349.55334</ele><time>2026-07-03T18:28:11.000Z</time></trkpt>
        <trkpt lat="29.004731" lon="104.771328"><ele>349.55807</ele><time>2026-07-03T18:28:19.000Z</time></trkpt>
        <trkpt lat="29.004731" lon="104.771328"><ele>349.69125</ele><time>2026-07-03T18:28:21.000Z</time></trkpt>
        <trkpt lat="29.004733" lon="104.77133"><ele>350.93765</ele><time>2026-07-03T18:28:23.000Z</time></trkpt>
        <trkpt lat="29.00475" lon="104.771355"><ele>350.94086</ele><time>2026-07-03T18:28:27.000Z</time></trkpt>
        <trkpt lat="29.004757" lon="104.771366"><ele>350.99704</ele><time>2026-07-03T18:28:29.000Z</time></trkpt>
        <trkpt lat="29.004768" lon="104.771376"><ele>351.31183</ele><time>2026-07-03T18:28:31.000Z</time></trkpt>
        <trkpt lat="29.00478" lon="104.771384"><ele>351.39877</ele><time>2026-07-03T18:28:33.000Z</time></trkpt>
        <trkpt lat="29.004793" lon="104.771388"><ele>351.5732</ele><time>2026-07-03T18:28:35.000Z</time></trkpt>
        <trkpt lat="29.004802" lon="104.771391"><ele>351.62958</ele><time>2026-07-03T18:28:37.000Z</time></trkpt>
        <trkpt lat="29.00481" lon="104.771396"><ele>351.74597</ele><time>2026-07-03T18:28:39.000Z</time></trkpt>
        <trkpt lat="29.004818" lon="104.771409"><ele>351.89047</ele><time>2026-07-03T18:28:43.000Z</time></trkpt>
        <trkpt lat="29.004823" lon="104.771419"><ele>352.08496</ele><time>2026-07-03T18:28:46.000Z</time></trkpt>
        <trkpt lat="29.004823" lon="104.77142"><ele>352.2221</ele><time>2026-07-03T18:28:48.000Z</time></trkpt>
        <trkpt lat="29.004834" lon="104.771434"><ele>352.83176</ele><time>2026-07-03T18:28:52.000Z</time></trkpt>
        <trkpt lat="29.004844" lon="104.771444"><ele>352.8335</ele><time>2026-07-03T18:28:56.000Z</time></trkpt>
        <trkpt lat="29.004845" lon="104.771445"><ele>353.3358</ele><time>2026-07-03T18:28:58.000Z</time></trkpt>
        <trkpt lat="29.004808" lon="104.771423"><ele>353.3358</ele><time>2026-07-03T18:29:12.000Z</time></trkpt>
        <trkpt lat="29.004803" lon="104.771422"><ele>353.3358</ele><time>2026-07-03T18:29:14.000Z</time></trkpt>
        <trkpt lat="29.004801" lon="104.771422"><ele>353.29767</ele><time>2026-07-03T18:29:16.000Z</time></trkpt>
        <trkpt lat="29.004849" lon="104.771417"><ele>353.29767</ele><time>2026-07-03T18:31:55.000Z</time></trkpt>
        <trkpt lat="29.004853" lon="104.771416"><ele>353.29767</ele><time>2026-07-03T18:31:57.000Z</time></trkpt>
        <trkpt lat="29.004855" lon="104.771417"><ele>353.96326</ele><time>2026-07-03T18:31:59.000Z</time></trkpt>
        <trkpt lat="29.004912" lon="104.771438"><ele>354.08353</ele><time>2026-07-03T18:36:29.000Z</time></trkpt>
        <trkpt lat="29.004911" lon="104.771482"><ele>354.124</ele><time>2026-07-03T18:36:33.000Z</time></trkpt>
        <trkpt lat="29.004911" lon="104.771482"><ele>354.14474</ele><time>2026-07-03T18:36:35.000Z</time></trkpt>
        <trkpt lat="29.004923" lon="104.771537"><ele>354.4609</ele><time>2026-07-03T18:36:45.000Z</time></trkpt>
        <trkpt lat="29.004924" lon="104.771564"><ele>354.46378</ele><time>2026-07-03T18:36:49.000Z</time></trkpt>
        <trkpt lat="29.004923" lon="104.771565"><ele>356.0175</ele><time>2026-07-03T18:36:51.000Z</time></trkpt>
        <trkpt lat="29.004834" lon="104.771608"><ele>357.32837</ele><time>2026-07-03T18:37:21.000Z</time></trkpt>
        <trkpt lat="29.004834" lon="104.771608"><ele>358.30325</ele><time>2026-07-03T18:37:23.000Z</time></trkpt>
        <trkpt lat="29.004833" lon="104.771609"><ele>361.12152</ele><time>2026-07-03T18:37:25.000Z</time></trkpt>
        <trkpt lat="29.004789" lon="104.771652"><ele>361.12152</ele><time>2026-07-03T18:37:33.000Z</time></trkpt>
        <trkpt lat="29.00478" lon="104.771662"><ele>361.12152</ele><time>2026-07-03T18:37:34.000Z</time></trkpt>
        <trkpt lat="29.004775" lon="104.771672"><ele>360.63055</ele><time>2026-07-03T18:37:36.000Z</time></trkpt>
        <trkpt lat="29.004765" lon="104.771698"><ele>360.63055</ele><time>2026-07-03T18:37:46.000Z</time></trkpt>
        <trkpt lat="29.004765" lon="104.771711"><ele>360.63055</ele><time>2026-07-03T18:37:50.000Z</time></trkpt>
        <trkpt lat="29.004776" lon="104.771727"><ele>360.6618</ele><time>2026-07-03T18:37:52.000Z</time></trkpt>
        <trkpt lat="29.004794" lon="104.771751"><ele>361.67685</ele><time>2026-07-03T18:38:02.000Z</time></trkpt>
        <trkpt lat="29.004773" lon="104.771803"><ele>362.86862</ele><time>2026-07-03T18:38:35.000Z</time></trkpt>
        <trkpt lat="29.004767" lon="104.771819"><ele>364.424</ele><time>2026-07-03T18:38:37.000Z</time></trkpt>
        <trkpt lat="29.004767" lon="104.77182"><ele>365.89737</ele><time>2026-07-03T18:38:39.000Z</time></trkpt>
        <trkpt lat="29.004791" lon="104.771879"><ele>366.59113</ele><time>2026-07-03T18:39:01.000Z</time></trkpt>
        <trkpt lat="29.004796" lon="104.771883"><ele>366.59485</ele><time>2026-07-03T18:39:03.000Z</time></trkpt>
        <trkpt lat="29.004824" lon="104.771907"><ele>369.5575</ele><time>2026-07-03T18:39:11.000Z</time></trkpt>
        <trkpt lat="29.004762" lon="104.771933"><ele>369.73944</ele><time>2026-07-03T18:39:31.000Z</time></trkpt>
        <trkpt lat="29.004765" lon="104.771954"><ele>370.12994</ele><time>2026-07-03T18:39:33.000Z</time></trkpt>
        <trkpt lat="29.004778" lon="104.772033"><ele>374.79114</ele><time>2026-07-03T18:39:48.000Z</time></trkpt>
        <trkpt lat="29.004778" lon="104.772033"><ele>375.2027</ele><time>2026-07-03T18:39:50.000Z</time></trkpt>
        <trkpt lat="29.004778" lon="104.772037"><ele>380.34103</ele><time>2026-07-03T18:39:52.000Z</time></trkpt>
        <trkpt lat="29.004785" lon="104.772085"><ele>380.34644</ele><time>2026-07-03T18:39:58.000Z</time></trkpt>
        <trkpt lat="29.004789" lon="104.772099"><ele>380.50595</ele><time>2026-07-03T18:40:00.000Z</time></trkpt>
        <trkpt lat="29.004794" lon="104.772111"><ele>381.84262</ele><time>2026-07-03T18:40:02.000Z</time></trkpt>
        <trkpt lat="29.004802" lon="104.772125"><ele>381.871</ele><time>2026-07-03T18:40:04.000Z</time></trkpt>
        <trkpt lat="29.004811" lon="104.772137"><ele>382.04898</ele><time>2026-07-03T18:40:06.000Z</time></trkpt>
        <trkpt lat="29.004819" lon="104.772146"><ele>382.6949</ele><time>2026-07-03T18:40:08.000Z</time></trkpt>
        <trkpt lat="29.004828" lon="104.772155"><ele>383.73886</ele><time>2026-07-03T18:40:10.000Z</time></trkpt>
        <trkpt lat="29.004835" lon="104.772164"><ele>384.82657</ele><time>2026-07-03T18:40:12.000Z</time></trkpt>
        <trkpt lat="29.004844" lon="104.772174"><ele>385.99188</ele><time>2026-07-03T18:40:16.000Z</time></trkpt>
        <trkpt lat="29.004856" lon="104.772186"><ele>387.02432</ele><time>2026-07-03T18:40:22.000Z</time></trkpt>
        <trkpt lat="29.004866" lon="104.772197"><ele>388.3967</ele><time>2026-07-03T18:40:24.000Z</time></trkpt>
        <trkpt lat="29.004871" lon="104.7722"><ele>389.54813</ele><time>2026-07-03T18:40:29.000Z</time></trkpt>
        <trkpt lat="29.004908" lon="104.772221"><ele>389.75604</ele><time>2026-07-03T18:40:33.000Z</time></trkpt>
        <trkpt lat="29.004908" lon="104.772221"><ele>390.1318</ele><time>2026-07-03T18:40:35.000Z</time></trkpt>
        <trkpt lat="29.004913" lon="104.772215"><ele>391.4555</ele><time>2026-07-03T18:40:37.000Z</time></trkpt>
        <trkpt lat="29.004931" lon="104.772194"><ele>391.4599</ele><time>2026-07-03T18:40:39.000Z</time></trkpt>
        <trkpt lat="29.004953" lon="104.772172"><ele>391.5192</ele><time>2026-07-03T18:40:42.000Z</time></trkpt>
        <trkpt lat="29.004964" lon="104.772162"><ele>391.59726</ele><time>2026-07-03T18:40:44.000Z</time></trkpt>
        <trkpt lat="29.004964" lon="104.77216"><ele>391.59726</ele><time>2026-07-03T18:40:46.000Z</time></trkpt>
        <trkpt lat="29.00498" lon="104.772196"><ele>391.59958</ele><time>2026-07-03T18:41:04.000Z</time></trkpt>
        <trkpt lat="29.004984" lon="104.772201"><ele>391.61136</ele><time>2026-07-03T18:41:06.000Z</time></trkpt>
        <trkpt lat="29.004984" lon="104.772201"><ele>391.97467</ele><time>2026-07-03T18:41:08.000Z</time></trkpt>
        <trkpt lat="29.005013" lon="104.772212"><ele>392.1989</ele><time>2026-07-03T18:41:18.000Z</time></trkpt>
        <trkpt lat="29.005014" lon="104.772214"><ele>392.47168</ele><time>2026-07-03T18:41:20.000Z</time></trkpt>
        <trkpt lat="29.005012" lon="104.772216"><ele>393.09467</ele><time>2026-07-03T18:41:22.000Z</time></trkpt>
        <trkpt lat="29.004985" lon="104.772257"><ele>393.2499</ele><time>2026-07-03T18:41:29.000Z</time></trkpt>
        <trkpt lat="29.004985" lon="104.772257"><ele>393.42715</ele><time>2026-07-03T18:41:31.000Z</time></trkpt>
        <trkpt lat="29.004983" lon="104.772267"><ele>393.97195</ele><time>2026-07-03T18:41:33.000Z</time></trkpt>
        <trkpt lat="29.004977" lon="104.772298"><ele>393.9749</ele><time>2026-07-03T18:41:35.000Z</time></trkpt>
        <trkpt lat="29.004966" lon="104.77233"><ele>393.9755</ele><time>2026-07-03T18:41:36.000Z</time></trkpt>
        <trkpt lat="29.004949" lon="104.772358"><ele>394.23575</ele><time>2026-07-03T18:41:38.000Z</time></trkpt>
        <trkpt lat="29.004941" lon="104.77236"><ele>394.947</ele><time>2026-07-03T18:41:40.000Z</time></trkpt>
        <trkpt lat="29.004932" lon="104.772355"><ele>395.75082</ele><time>2026-07-03T18:41:42.000Z</time></trkpt>
        <trkpt lat="29.004914" lon="104.772344"><ele>396.28183</ele><time>2026-07-03T18:41:48.000Z</time></trkpt>
        <trkpt lat="29.004914" lon="104.772342"><ele>396.8234</ele><time>2026-07-03T18:41:50.000Z</time></trkpt>
        <trkpt lat="29.004917" lon="104.772323"><ele>396.82785</ele><time>2026-07-03T18:41:54.000Z</time></trkpt>
        <trkpt lat="29.004926" lon="104.772317"><ele>396.82785</ele><time>2026-07-03T18:41:58.000Z</time></trkpt>
        <trkpt lat="29.004859" lon="104.772367"><ele>396.84363</ele><time>2026-07-03T18:42:20.000Z</time></trkpt>
        <trkpt lat="29.004778" lon="104.772429"><ele>396.84363</ele><time>2026-07-03T18:42:32.000Z</time></trkpt>
        <trkpt lat="29.004778" lon="104.772429"><ele>397.4993</ele><time>2026-07-03T18:42:34.000Z</time></trkpt>
        <trkpt lat="29.004773" lon="104.772431"><ele>397.50574</ele><time>2026-07-03T18:42:36.000Z</time></trkpt>
        <trkpt lat="29.004732" lon="104.77245"><ele>397.66312</ele><time>2026-07-03T18:42:40.000Z</time></trkpt>
        <trkpt lat="29.00471" lon="104.772465"><ele>397.66312</ele><time>2026-07-03T18:42:42.000Z</time></trkpt>
        <trkpt lat="29.004692" lon="104.772481"><ele>398.4174</ele><time>2026-07-03T18:42:44.000Z</time></trkpt>
        <trkpt lat="29.004674" lon="104.772496"><ele>398.6884</ele><time>2026-07-03T18:42:47.000Z</time></trkpt>
        <trkpt lat="29.004659" lon="104.772506"><ele>398.82306</ele><time>2026-07-03T18:42:49.000Z</time></trkpt>
        <trkpt lat="29.004642" lon="104.772518"><ele>399.1995</ele><time>2026-07-03T18:42:51.000Z</time></trkpt>
        <trkpt lat="29.004621" lon="104.772532"><ele>399.73203</ele><time>2026-07-03T18:42:53.000Z</time></trkpt>
        <trkpt lat="29.004601" lon="104.772549"><ele>399.9304</ele><time>2026-07-03T18:42:55.000Z</time></trkpt>
        <trkpt lat="29.004583" lon="104.772567"><ele>399.9304</ele><time>2026-07-03T18:42:57.000Z</time></trkpt>
        <trkpt lat="29.004565" lon="104.772586"><ele>399.9304</ele><time>2026-07-03T18:42:59.000Z</time></trkpt>
        <trkpt lat="29.00455" lon="104.772602"><ele>399.92258</ele><time>2026-07-03T18:43:01.000Z</time></trkpt>
        <trkpt lat="29.004535" lon="104.772619"><ele>399.85977</ele><time>2026-07-03T18:43:03.000Z</time></trkpt>
        <trkpt lat="29.004522" lon="104.772637"><ele>399.85977</ele><time>2026-07-03T18:43:05.000Z</time></trkpt>
        <trkpt lat="29.004513" lon="104.772654"><ele>399.9196</ele><time>2026-07-03T18:43:07.000Z</time></trkpt>
        <trkpt lat="29.004504" lon="104.772674"><ele>399.85977</ele><time>2026-07-03T18:43:09.000Z</time></trkpt>
        <trkpt lat="29.004497" lon="104.772699"><ele>399.8175</ele><time>2026-07-03T18:43:11.000Z</time></trkpt>
        <trkpt lat="29.00449" lon="104.77273"><ele>399.6596</ele><time>2026-07-03T18:43:13.000Z</time></trkpt>
        <trkpt lat="29.004484" lon="104.772762"><ele>399.51395</ele><time>2026-07-03T18:43:15.000Z</time></trkpt>
        <trkpt lat="29.004478" lon="104.77279"><ele>398.9988</ele><time>2026-07-03T18:43:17.000Z</time></trkpt>
        <trkpt lat="29.004472" lon="104.772815"><ele>398.63647</ele><time>2026-07-03T18:43:19.000Z</time></trkpt>
        <trkpt lat="29.004468" lon="104.772841"><ele>398.26614</ele><time>2026-07-03T18:43:21.000Z</time></trkpt>
        <trkpt lat="29.00447" lon="104.772863"><ele>398.0669</ele><time>2026-07-03T18:43:23.000Z</time></trkpt>
        <trkpt lat="29.004475" lon="104.772879"><ele>397.88635</ele><time>2026-07-03T18:43:25.000Z</time></trkpt>
        <trkpt lat="29.004485" lon="104.772891"><ele>397.72592</ele><time>2026-07-03T18:43:27.000Z</time></trkpt>
        <trkpt lat="29.004496" lon="104.772899"><ele>397.72592</ele><time>2026-07-03T18:43:29.000Z</time></trkpt>
        <trkpt lat="29.00451" lon="104.772906"><ele>397.72592</ele><time>2026-07-03T18:43:31.000Z</time></trkpt>
        <trkpt lat="29.004528" lon="104.772915"><ele>397.76358</ele><time>2026-07-03T18:43:33.000Z</time></trkpt>
        <trkpt lat="29.00455" lon="104.772923"><ele>398.16766</ele><time>2026-07-03T18:43:35.000Z</time></trkpt>
        <trkpt lat="29.004568" lon="104.77293"><ele>398.75537</ele><time>2026-07-03T18:43:37.000Z</time></trkpt>
        <trkpt lat="29.004582" lon="104.772937"><ele>399.42776</ele><time>2026-07-03T18:43:39.000Z</time></trkpt>
        <trkpt lat="29.004595" lon="104.772944"><ele>400.01166</ele><time>2026-07-03T18:43:41.000Z</time></trkpt>
        <trkpt lat="29.004613" lon="104.772955"><ele>400.54163</ele><time>2026-07-03T18:43:42.000Z</time></trkpt>
        <trkpt lat="29.00463" lon="104.772966"><ele>400.83154</ele><time>2026-07-03T18:43:44.000Z</time></trkpt>
        <trkpt lat="29.004641" lon="104.772979"><ele>401.10275</ele><time>2026-07-03T18:43:46.000Z</time></trkpt>
        <trkpt lat="29.00465" lon="104.77299"><ele>401.45764</ele><time>2026-07-03T18:43:48.000Z</time></trkpt>
        <trkpt lat="29.004658" lon="104.773005"><ele>401.8668</ele><time>2026-07-03T18:43:50.000Z</time></trkpt>
        <trkpt lat="29.004664" lon="104.773019"><ele>402.2769</ele><time>2026-07-03T18:43:52.000Z</time></trkpt>
        <trkpt lat="29.004672" lon="104.773036"><ele>402.6342</ele><time>2026-07-03T18:43:54.000Z</time></trkpt>
        <trkpt lat="29.004682" lon="104.773051"><ele>403.0064</ele><time>2026-07-03T18:43:56.000Z</time></trkpt>
        <trkpt lat="29.004695" lon="104.773064"><ele>403.39795</ele><time>2026-07-03T18:43:58.000Z</time></trkpt>
        <trkpt lat="29.004711" lon="104.773077"><ele>403.7362</ele><time>2026-07-03T18:44:00.000Z</time></trkpt>
        <trkpt lat="29.00473" lon="104.773089"><ele>403.95944</ele><time>2026-07-03T18:44:02.000Z</time></trkpt>
        <trkpt lat="29.004747" lon="104.773098"><ele>404.11786</ele><time>2026-07-03T18:44:04.000Z</time></trkpt>
        <trkpt lat="29.004765" lon="104.773109"><ele>404.29498</ele><time>2026-07-03T18:44:06.000Z</time></trkpt>
        <trkpt lat="29.004783" lon="104.773119"><ele>404.52692</ele><time>2026-07-03T18:44:08.000Z</time></trkpt>
        <trkpt lat="29.004804" lon="104.77313"><ele>404.52692</ele><time>2026-07-03T18:44:10.000Z</time></trkpt>
        <trkpt lat="29.004822" lon="104.773143"><ele>404.52692</ele><time>2026-07-03T18:44:12.000Z</time></trkpt>
        <trkpt lat="29.004836" lon="104.773157"><ele>404.33643</ele><time>2026-07-03T18:44:14.000Z</time></trkpt>
        <trkpt lat="29.004847" lon="104.773172"><ele>404.32727</ele><time>2026-07-03T18:44:16.000Z</time></trkpt>
        <trkpt lat="29.00486" lon="104.773189"><ele>404.29086</ele><time>2026-07-03T18:44:18.000Z</time></trkpt>
        <trkpt lat="29.004874" lon="104.773206"><ele>404.23874</ele><time>2026-07-03T18:44:20.000Z</time></trkpt>
        <trkpt lat="29.00489" lon="104.77322"><ele>404.12866</ele><time>2026-07-03T18:44:22.000Z</time></trkpt>
        <trkpt lat="29.004906" lon="104.773235"><ele>403.92856</ele><time>2026-07-03T18:44:24.000Z</time></trkpt>
        <trkpt lat="29.004919" lon="104.773245"><ele>403.74387</ele><time>2026-07-03T18:44:26.000Z</time></trkpt>
        <trkpt lat="29.00493" lon="104.773256"><ele>403.50513</ele><time>2026-07-03T18:44:28.000Z</time></trkpt>
        <trkpt lat="29.004943" lon="104.773265"><ele>403.17377</ele><time>2026-07-03T18:44:30.000Z</time></trkpt>
        <trkpt lat="29.004948" lon="104.77327"><ele>403.05594</ele><time>2026-07-03T18:44:32.000Z</time></trkpt>
        <trkpt lat="29.004957" lon="104.773279"><ele>402.81723</ele><time>2026-07-03T18:44:36.000Z</time></trkpt>
        <trkpt lat="29.004955" lon="104.773281"><ele>402.69354</ele><time>2026-07-03T18:44:40.000Z</time></trkpt>
        <trkpt lat="29.004939" lon="104.773301"><ele>402.69354</ele><time>2026-07-03T18:44:59.000Z</time></trkpt>
        <trkpt lat="29.004928" lon="104.773319"><ele>402.40753</ele><time>2026-07-03T18:45:03.000Z</time></trkpt>
        <trkpt lat="29.004923" lon="104.773324"><ele>402.40005</ele><time>2026-07-03T18:45:04.000Z</time></trkpt>
        <trkpt lat="29.004887" lon="104.773363"><ele>402.31647</ele><time>2026-07-03T18:45:10.000Z</time></trkpt>
        <trkpt lat="29.004887" lon="104.773364"><ele>402.30307</ele><time>2026-07-03T18:45:12.000Z</time></trkpt>
        <trkpt lat="29.004884" lon="104.773369"><ele>401.7158</ele><time>2026-07-03T18:45:14.000Z</time></trkpt>
        <trkpt lat="29.004859" lon="104.773414"><ele>401.71368</ele><time>2026-07-03T18:45:18.000Z</time></trkpt>
        <trkpt lat="29.00485" lon="104.773442"><ele>401.62506</ele><time>2026-07-03T18:45:20.000Z</time></trkpt>
        <trkpt lat="29.004845" lon="104.773469"><ele>401.52295</ele><time>2026-07-03T18:45:22.000Z</time></trkpt>
        <trkpt lat="29.004844" lon="104.773492"><ele>401.52295</ele><time>2026-07-03T18:45:24.000Z</time></trkpt>
        <trkpt lat="29.004844" lon="104.773511"><ele>401.52295</ele><time>2026-07-03T18:45:26.000Z</time></trkpt>
        <trkpt lat="29.004843" lon="104.773529"><ele>401.5985</ele><time>2026-07-03T18:45:28.000Z</time></trkpt>
        <trkpt lat="29.004841" lon="104.773543"><ele>401.70697</ele><time>2026-07-03T18:45:30.000Z</time></trkpt>
        <trkpt lat="29.004839" lon="104.773558"><ele>401.82144</ele><time>2026-07-03T18:45:32.000Z</time></trkpt>
        <trkpt lat="29.004836" lon="104.773572"><ele>401.82144</ele><time>2026-07-03T18:45:34.000Z</time></trkpt>
        <trkpt lat="29.004833" lon="104.773583"><ele>401.82718</ele><time>2026-07-03T18:45:36.000Z</time></trkpt>
        <trkpt lat="29.00483" lon="104.773595"><ele>401.85416</ele><time>2026-07-03T18:45:38.000Z</time></trkpt>
        <trkpt lat="29.004827" lon="104.773608"><ele>401.85416</ele><time>2026-07-03T18:45:40.000Z</time></trkpt>
        <trkpt lat="29.004823" lon="104.773621"><ele>401.9335</ele><time>2026-07-03T18:45:42.000Z</time></trkpt>
        <trkpt lat="29.00482" lon="104.773632"><ele>401.99127</ele><time>2026-07-03T18:45:44.000Z</time></trkpt>
        <trkpt lat="29.004817" lon="104.773637"><ele>402.12064</ele><time>2026-07-03T18:45:45.000Z</time></trkpt>
        <trkpt lat="29.004809" lon="104.773657"><ele>402.12064</ele><time>2026-07-03T18:45:49.000Z</time></trkpt>
        <trkpt lat="29.004804" lon="104.773668"><ele>402.12064</ele><time>2026-07-03T18:45:51.000Z</time></trkpt>
        <trkpt lat="29.004798" lon="104.773678"><ele>402.07758</ele><time>2026-07-03T18:45:53.000Z</time></trkpt>
        <trkpt lat="29.004791" lon="104.773688"><ele>402.0344</ele><time>2026-07-03T18:45:55.000Z</time></trkpt>
        <trkpt lat="29.004785" lon="104.773696"><ele>402.03305</ele><time>2026-07-03T18:45:57.000Z</time></trkpt>
        <trkpt lat="29.004779" lon="104.773706"><ele>401.88126</ele><time>2026-07-03T18:45:59.000Z</time></trkpt>
        <trkpt lat="29.004774" lon="104.773718"><ele>401.8273</ele><time>2026-07-03T18:46:01.000Z</time></trkpt>
        <trkpt lat="29.004771" lon="104.773734"><ele>401.8273</ele><time>2026-07-03T18:46:03.000Z</time></trkpt>
        <trkpt lat="29.00477" lon="104.773751"><ele>401.75848</ele><time>2026-07-03T18:46:05.000Z</time></trkpt>
        <trkpt lat="29.004771" lon="104.773767"><ele>401.71472</ele><time>2026-07-03T18:46:07.000Z</time></trkpt>
        <trkpt lat="29.004774" lon="104.773784"><ele>401.6855</ele><time>2026-07-03T18:46:09.000Z</time></trkpt>
        <trkpt lat="29.004777" lon="104.773801"><ele>401.33133</ele><time>2026-07-03T18:46:11.000Z</time></trkpt>
        <trkpt lat="29.004775" lon="104.773816"><ele>401.1878</ele><time>2026-07-03T18:46:13.000Z</time></trkpt>
        <trkpt lat="29.00477" lon="104.773824"><ele>401.14523</ele><time>2026-07-03T18:46:15.000Z</time></trkpt>
        <trkpt lat="29.00476" lon="104.773831"><ele>401.14523</ele><time>2026-07-03T18:46:17.000Z</time></trkpt>
        <trkpt lat="29.004748" lon="104.773833"><ele>401.14523</ele><time>2026-07-03T18:46:19.000Z</time></trkpt>
        <trkpt lat="29.004735" lon="104.773832"><ele>401.21707</ele><time>2026-07-03T18:46:21.000Z</time></trkpt>
        <trkpt lat="29.004718" lon="104.773833"><ele>401.30698</ele><time>2026-07-03T18:46:23.000Z</time></trkpt>
        <trkpt lat="29.004707" lon="104.773841"><ele>401.33273</ele><time>2026-07-03T18:46:25.000Z</time></trkpt>
        <trkpt lat="29.004698" lon="104.773854"><ele>401.33273</ele><time>2026-07-03T18:46:27.000Z</time></trkpt>
        <trkpt lat="29.004689" lon="104.773872"><ele>401.33273</ele><time>2026-07-03T18:46:29.000Z</time></trkpt>
        <trkpt lat="29.004678" lon="104.773894"><ele>401.2555</ele><time>2026-07-03T18:46:31.000Z</time></trkpt>
        <trkpt lat="29.004668" lon="104.773915"><ele>401.18048</ele><time>2026-07-03T18:46:33.000Z</time></trkpt>
        <trkpt lat="29.00466" lon="104.773937"><ele>401.18048</ele><time>2026-07-03T18:46:35.000Z</time></trkpt>
        <trkpt lat="29.004652" lon="104.773957"><ele>401.18048</ele><time>2026-07-03T18:46:37.000Z</time></trkpt>
        <trkpt lat="29.004646" lon="104.773977"><ele>401.2472</ele><time>2026-07-03T18:46:39.000Z</time></trkpt>
        <trkpt lat="29.004641" lon="104.773998"><ele>401.25717</ele><time>2026-07-03T18:46:41.000Z</time></trkpt>
        <trkpt lat="29.004638" lon="104.77402"><ele>401.25717</ele><time>2026-07-03T18:46:43.000Z</time></trkpt>
        <trkpt lat="29.004635" lon="104.77404"><ele>401.25717</ele><time>2026-07-03T18:46:45.000Z</time></trkpt>
        <trkpt lat="29.004634" lon="104.774061"><ele>401.06445</ele><time>2026-07-03T18:46:47.000Z</time></trkpt>
        <trkpt lat="29.004634" lon="104.77408"><ele>400.94116</ele><time>2026-07-03T18:46:49.000Z</time></trkpt>
        <trkpt lat="29.004638" lon="104.774102"><ele>400.64917</ele><time>2026-07-03T18:46:51.000Z</time></trkpt>
        <trkpt lat="29.004645" lon="104.774124"><ele>400.45624</ele><time>2026-07-03T18:46:53.000Z</time></trkpt>
        <trkpt lat="29.004655" lon="104.774145"><ele>400.21857</ele><time>2026-07-03T18:46:55.000Z</time></trkpt>
        <trkpt lat="29.004665" lon="104.774164"><ele>400.0509</ele><time>2026-07-03T18:46:57.000Z</time></trkpt>
        <trkpt lat="29.004675" lon="104.774183"><ele>399.94</ele><time>2026-07-03T18:47:00.000Z</time></trkpt>
        <trkpt lat="29.004686" lon="104.774202"><ele>399.91385</ele><time>2026-07-03T18:47:02.000Z</time></trkpt>
        <trkpt lat="29.004698" lon="104.774218"><ele>399.7</ele><time>2026-07-03T18:47:04.000Z</time></trkpt>
        <trkpt lat="29.004709" lon="104.774234"><ele>399.41174</ele><time>2026-07-03T18:47:06.000Z</time></trkpt>
        <trkpt lat="29.004722" lon="104.774253"><ele>399.393</ele><time>2026-07-03T18:47:08.000Z</time></trkpt>
        <trkpt lat="29.004732" lon="104.77427"><ele>399.18884</ele><time>2026-07-03T18:47:10.000Z</time></trkpt>
        <trkpt lat="29.004741" lon="104.774286"><ele>398.96298</ele><time>2026-07-03T18:47:12.000Z</time></trkpt>
        <trkpt lat="29.004751" lon="104.774304"><ele>398.74973</ele><time>2026-07-03T18:47:14.000Z</time></trkpt>
        <trkpt lat="29.004761" lon="104.77432"><ele>398.51987</ele><time>2026-07-03T18:47:16.000Z</time></trkpt>
        <trkpt lat="29.004771" lon="104.774336"><ele>398.19083</ele><time>2026-07-03T18:47:18.000Z</time></trkpt>
        <trkpt lat="29.004782" lon="104.77435"><ele>397.92368</ele><time>2026-07-03T18:47:20.000Z</time></trkpt>
        <trkpt lat="29.004794" lon="104.774365"><ele>397.8304</ele><time>2026-07-03T18:47:22.000Z</time></trkpt>
        <trkpt lat="29.004804" lon="104.774377"><ele>397.6258</ele><time>2026-07-03T18:47:24.000Z</time></trkpt>
        <trkpt lat="29.004812" lon="104.774389"><ele>397.2994</ele><time>2026-07-03T18:47:26.000Z</time></trkpt>
        <trkpt lat="29.004818" lon="104.774398"><ele>397.21848</ele><time>2026-07-03T18:47:28.000Z</time></trkpt>
        <trkpt lat="29.004824" lon="104.774408"><ele>397.21582</ele><time>2026-07-03T18:47:30.000Z</time></trkpt>
        <trkpt lat="29.00483" lon="104.774415"><ele>397.2076</ele><time>2026-07-03T18:47:32.000Z</time></trkpt>
        <trkpt lat="29.004837" lon="104.774424"><ele>397.2076</ele><time>2026-07-03T18:47:34.000Z</time></trkpt>
        <trkpt lat="29.004845" lon="104.774435"><ele>397.21582</ele><time>2026-07-03T18:47:36.000Z</time></trkpt>
        <trkpt lat="29.004851" lon="104.774443"><ele>397.31198</ele><time>2026-07-03T18:47:38.000Z</time></trkpt>
        <trkpt lat="29.004854" lon="104.77445"><ele>397.4295</ele><time>2026-07-03T18:47:40.000Z</time></trkpt>
        <trkpt lat="29.004869" lon="104.774468"><ele>397.74762</ele><time>2026-07-03T18:47:44.000Z</time></trkpt>
        <trkpt lat="29.004879" lon="104.774472"><ele>397.85623</ele><time>2026-07-03T18:47:46.000Z</time></trkpt>
        <trkpt lat="29.004889" lon="104.774469"><ele>397.88116</ele><time>2026-07-03T18:47:48.000Z</time></trkpt>
        <trkpt lat="29.004891" lon="104.774466"><ele>398.07523</ele><time>2026-07-03T18:47:51.000Z</time></trkpt>
        <trkpt lat="29.004916" lon="104.774439"><ele>398.21066</ele><time>2026-07-03T18:50:38.000Z</time></trkpt>
        <trkpt lat="29.004922" lon="104.774434"><ele>398.4304</ele><time>2026-07-03T18:50:42.000Z</time></trkpt>
        <trkpt lat="29.004922" lon="104.774434"><ele>398.8237</ele><time>2026-07-03T18:50:56.000Z</time></trkpt>
        <trkpt lat="29.004888" lon="104.774551"><ele>398.8237</ele><time>2026-07-03T19:00:54.000Z</time></trkpt>
        <trkpt lat="29.004883" lon="104.774569"><ele>398.8237</ele><time>2026-07-03T19:00:56.000Z</time></trkpt>
        <trkpt lat="29.004883" lon="104.774571"><ele>397.1839</ele><time>2026-07-03T19:00:58.000Z</time></trkpt>
        <trkpt lat="29.00489" lon="104.774621"><ele>396.95047</ele><time>2026-07-03T19:01:01.000Z</time></trkpt>
        <trkpt lat="29.004891" lon="104.774623"><ele>396.94678</ele><time>2026-07-03T19:01:03.000Z</time></trkpt>
        <trkpt lat="29.004893" lon="104.774631"><ele>396.89325</ele><time>2026-07-03T19:01:05.000Z</time></trkpt>
        <trkpt lat="29.004909" lon="104.774688"><ele>396.89325</ele><time>2026-07-03T19:01:09.000Z</time></trkpt>
        <trkpt lat="29.004918" lon="104.774716"><ele>396.89325</ele><time>2026-07-03T19:01:11.000Z</time></trkpt>
        <trkpt lat="29.004926" lon="104.774741"><ele>396.95575</ele><time>2026-07-03T19:01:13.000Z</time></trkpt>
        <trkpt lat="29.004934" lon="104.774762"><ele>396.95703</ele><time>2026-07-03T19:01:15.000Z</time></trkpt>
        <trkpt lat="29.00494" lon="104.774779"><ele>396.95703</ele><time>2026-07-03T19:01:17.000Z</time></trkpt>
        <trkpt lat="29.004945" lon="104.77479"><ele>396.95703</ele><time>2026-07-03T19:01:19.000Z</time></trkpt>
        <trkpt lat="29.00495" lon="104.774804"><ele>396.95703</ele><time>2026-07-03T19:01:21.000Z</time></trkpt>
        <trkpt lat="29.004956" lon="104.774822"><ele>397.07712</ele><time>2026-07-03T19:01:23.000Z</time></trkpt>
        <trkpt lat="29.004962" lon="104.774841"><ele>397.07712</ele><time>2026-07-03T19:01:25.000Z</time></trkpt>
        <trkpt lat="29.004968" lon="104.774861"><ele>397.07712</ele><time>2026-07-03T19:01:27.000Z</time></trkpt>
        <trkpt lat="29.004971" lon="104.774877"><ele>396.87848</ele><time>2026-07-03T19:01:29.000Z</time></trkpt>
        <trkpt lat="29.004972" lon="104.774891"><ele>396.56042</ele><time>2026-07-03T19:01:31.000Z</time></trkpt>
        <trkpt lat="29.004971" lon="104.774905"><ele>396.56042</ele><time>2026-07-03T19:01:33.000Z</time></trkpt>
        <trkpt lat="29.004968" lon="104.774921"><ele>396.56042</ele><time>2026-07-03T19:01:35.000Z</time></trkpt>
        <trkpt lat="29.004964" lon="104.774935"><ele>396.6863</ele><time>2026-07-03T19:01:37.000Z</time></trkpt>
        <trkpt lat="29.004961" lon="104.77495"><ele>396.82938</ele><time>2026-07-03T19:01:39.000Z</time></trkpt>
        <trkpt lat="29.004959" lon="104.774966"><ele>397.02866</ele><time>2026-07-03T19:01:42.000Z</time></trkpt>
        <trkpt lat="29.004961" lon="104.774983"><ele>397.02866</ele><time>2026-07-03T19:01:44.000Z</time></trkpt>
        <trkpt lat="29.004966" lon="104.774999"><ele>397.02866</ele><time>2026-07-03T19:01:46.000Z</time></trkpt>
        <trkpt lat="29.004973" lon="104.775016"><ele>396.9056</ele><time>2026-07-03T19:01:48.000Z</time></trkpt>
        <trkpt lat="29.004981" lon="104.775036"><ele>396.90213</ele><time>2026-07-03T19:01:50.000Z</time></trkpt>
        <trkpt lat="29.004987" lon="104.775054"><ele>396.88745</ele><time>2026-07-03T19:01:52.000Z</time></trkpt>
        <trkpt lat="29.004992" lon="104.775071"><ele>396.6463</ele><time>2026-07-03T19:01:54.000Z</time></trkpt>
        <trkpt lat="29.004993" lon="104.775086"><ele>396.5508</ele><time>2026-07-03T19:01:56.000Z</time></trkpt>
        <trkpt lat="29.004993" lon="104.775102"><ele>396.54172</ele><time>2026-07-03T19:01:58.000Z</time></trkpt>
        <trkpt lat="29.004994" lon="104.775117"><ele>396.3276</ele><time>2026-07-03T19:02:00.000Z</time></trkpt>
        <trkpt lat="29.004996" lon="104.775134"><ele>396.18008</ele><time>2026-07-03T19:02:02.000Z</time></trkpt>
        <trkpt lat="29.005001" lon="104.77515"><ele>395.96924</ele><time>2026-07-03T19:02:04.000Z</time></trkpt>
        <trkpt lat="29.005007" lon="104.775163"><ele>395.69778</ele><time>2026-07-03T19:02:06.000Z</time></trkpt>
        <trkpt lat="29.005014" lon="104.775178"><ele>395.42767</ele><time>2026-07-03T19:02:08.000Z</time></trkpt>
        <trkpt lat="29.005022" lon="104.775192"><ele>395.19733</ele><time>2026-07-03T19:02:10.000Z</time></trkpt>
        <trkpt lat="29.00503" lon="104.775202"><ele>394.95578</ele><time>2026-07-03T19:02:12.000Z</time></trkpt>
        <trkpt lat="29.005041" lon="104.775212"><ele>394.95578</ele><time>2026-07-03T19:02:14.000Z</time></trkpt>
        <trkpt lat="29.005055" lon="104.775221"><ele>394.95578</ele><time>2026-07-03T19:02:16.000Z</time></trkpt>
        <trkpt lat="29.00507" lon="104.775225"><ele>394.93707</ele><time>2026-07-03T19:02:18.000Z</time></trkpt>
        <trkpt lat="29.005082" lon="104.775224"><ele>394.93707</ele><time>2026-07-03T19:02:20.000Z</time></trkpt>
        <trkpt lat="29.005095" lon="104.77522"><ele>394.93707</ele><time>2026-07-03T19:02:22.000Z</time></trkpt>
        <trkpt lat="29.005108" lon="104.775215"><ele>394.93707</ele><time>2026-07-03T19:02:24.000Z</time></trkpt>
        <trkpt lat="29.005112" lon="104.775211"><ele>394.92548</ele><time>2026-07-03T19:02:26.000Z</time></trkpt>
        <trkpt lat="29.005086" lon="104.775246"><ele>394.85287</ele><time>2026-07-03T19:03:01.000Z</time></trkpt>
        <trkpt lat="29.005085" lon="104.775252"><ele>394.85287</ele><time>2026-07-03T19:03:03.000Z</time></trkpt>
        <trkpt lat="29.005086" lon="104.775254"><ele>392.38977</ele><time>2026-07-03T19:03:05.000Z</time></trkpt>
        <trkpt lat="29.005101" lon="104.775279"><ele>392.38977</ele><time>2026-07-03T19:03:27.000Z</time></trkpt>
        <trkpt lat="29.00511" lon="104.775305"><ele>392.20953</ele><time>2026-07-03T19:03:29.000Z</time></trkpt>
        <trkpt lat="29.005118" lon="104.775328"><ele>392.18552</ele><time>2026-07-03T19:03:31.000Z</time></trkpt>
        <trkpt lat="29.005059" lon="104.77546"><ele>392.18552</ele><time>2026-07-03T19:03:51.000Z</time></trkpt>
        <trkpt lat="29.005059" lon="104.77546"><ele>392.50522</ele><time>2026-07-03T19:03:53.000Z</time></trkpt>
        <trkpt lat="29.005057" lon="104.775462"><ele>394.89258</ele><time>2026-07-03T19:03:55.000Z</time></trkpt>
        <trkpt lat="29.005036" lon="104.775487"><ele>394.89658</ele><time>2026-07-03T19:03:59.000Z</time></trkpt>
        <trkpt lat="29.005028" lon="104.775501"><ele>394.9576</ele><time>2026-07-03T19:04:01.000Z</time></trkpt>
        <trkpt lat="29.005025" lon="104.775515"><ele>395.07114</ele><time>2026-07-03T19:04:03.000Z</time></trkpt>
        <trkpt lat="29.00501" lon="104.775599"><ele>395.13736</ele><time>2026-07-03T19:04:18.000Z</time></trkpt>
        <trkpt lat="29.004999" lon="104.775658"><ele>395.22964</ele><time>2026-07-03T19:04:34.000Z</time></trkpt>
        <trkpt lat="29.005024" lon="104.775746"><ele>395.6279</ele><time>2026-07-03T19:04:50.000Z</time></trkpt>
        <trkpt lat="29.005036" lon="104.775815"><ele>396.1294</ele><time>2026-07-03T19:05:06.000Z</time></trkpt>
        <trkpt lat="29.005044" lon="104.775917"><ele>396.50104</ele><time>2026-07-03T19:05:22.000Z</time></trkpt>
        <trkpt lat="29.005049" lon="104.775989"><ele>397.90646</ele><time>2026-07-03T19:05:38.000Z</time></trkpt>
        <trkpt lat="29.005054" lon="104.776061"><ele>398.33582</ele><time>2026-07-03T19:05:53.000Z</time></trkpt>
        <trkpt lat="29.005058" lon="104.776128"><ele>398.3392</ele><time>2026-07-03T19:06:01.000Z</time></trkpt>
        <trkpt lat="29.005058" lon="104.776128"><ele>398.49075</ele><time>2026-07-03T19:06:03.000Z</time></trkpt>
        <trkpt lat="29.005059" lon="104.776132"><ele>398.93005</ele><time>2026-07-03T19:06:05.000Z</time></trkpt>
        <trkpt lat="29.005065" lon="104.776167"><ele>398.93655</ele><time>2026-07-03T19:06:09.000Z</time></trkpt>
        <trkpt lat="29.005068" lon="104.776185"><ele>398.93692</ele><time>2026-07-03T19:06:11.000Z</time></trkpt>
        <trkpt lat="29.005071" lon="104.776202"><ele>398.98944</ele><time>2026-07-03T19:06:13.000Z</time></trkpt>
        <trkpt lat="29.005073" lon="104.776213"><ele>399.1632</ele><time>2026-07-03T19:06:15.000Z</time></trkpt>
        <trkpt lat="29.005073" lon="104.776218"><ele>399.33914</ele><time>2026-07-03T19:06:17.000Z</time></trkpt>
        <trkpt lat="29.005074" lon="104.776232"><ele>399.47916</ele><time>2026-07-03T19:06:21.000Z</time></trkpt>
        <trkpt lat="29.005071" lon="104.776239"><ele>399.6785</ele><time>2026-07-03T19:06:23.000Z</time></trkpt>
        <trkpt lat="29.005025" lon="104.776325"><ele>399.98547</ele><time>2026-07-03T19:06:36.000Z</time></trkpt>
        <trkpt lat="29.005017" lon="104.776336"><ele>400.11383</ele><time>2026-07-03T19:06:38.000Z</time></trkpt>
        <trkpt lat="29.005007" lon="104.776346"><ele>400.50916</ele><time>2026-07-03T19:06:40.000Z</time></trkpt>
        <trkpt lat="29.004998" lon="104.776355"><ele>400.50916</ele><time>2026-07-03T19:06:42.000Z</time></trkpt>
        <trkpt lat="29.00499" lon="104.776364"><ele>400.50916</ele><time>2026-07-03T19:06:44.000Z</time></trkpt>
        <trkpt lat="29.004983" lon="104.776372"><ele>400.36182</ele><time>2026-07-03T19:06:46.000Z</time></trkpt>
        <trkpt lat="29.004976" lon="104.776381"><ele>400.2842</ele><time>2026-07-03T19:06:48.000Z</time></trkpt>
        <trkpt lat="29.00497" lon="104.77639"><ele>400.24</ele><time>2026-07-03T19:06:50.000Z</time></trkpt>
        <trkpt lat="29.004962" lon="104.776399"><ele>400.23276</ele><time>2026-07-03T19:06:52.000Z</time></trkpt>
        <trkpt lat="29.004955" lon="104.776408"><ele>400.18985</ele><time>2026-07-03T19:06:54.000Z</time></trkpt>
        <trkpt lat="29.004946" lon="104.776419"><ele>400.1872</ele><time>2026-07-03T19:06:56.000Z</time></trkpt>
        <trkpt lat="29.004938" lon="104.776428"><ele>400.17386</ele><time>2026-07-03T19:06:58.000Z</time></trkpt>
        <trkpt lat="29.004929" lon="104.776436"><ele>400.15024</ele><time>2026-07-03T19:07:00.000Z</time></trkpt>
        <trkpt lat="29.004921" lon="104.776445"><ele>400.1434</ele><time>2026-07-03T19:07:02.000Z</time></trkpt>
        <trkpt lat="29.004912" lon="104.776457"><ele>400.02646</ele><time>2026-07-03T19:07:04.000Z</time></trkpt>
        <trkpt lat="29.004902" lon="104.776469"><ele>399.87424</ele><time>2026-07-03T19:07:06.000Z</time></trkpt>
        <trkpt lat="29.004892" lon="104.776483"><ele>399.6141</ele><time>2026-07-03T19:07:08.000Z</time></trkpt>
        <trkpt lat="29.004882" lon="104.776497"><ele>399.47412</ele><time>2026-07-03T19:07:10.000Z</time></trkpt>
        <trkpt lat="29.004873" lon="104.776512"><ele>399.36896</ele><time>2026-07-03T19:07:12.000Z</time></trkpt>
        <trkpt lat="29.004863" lon="104.776528"><ele>399.26285</ele><time>2026-07-03T19:07:14.000Z</time></trkpt>
        <trkpt lat="29.004854" lon="104.776545"><ele>399.22223</ele><time>2026-07-03T19:07:16.000Z</time></trkpt>
        <trkpt lat="29.004848" lon="104.77656"><ele>399.22168</ele><time>2026-07-03T19:07:18.000Z</time></trkpt>
        <trkpt lat="29.004844" lon="104.776575"><ele>399.22168</ele><time>2026-07-03T19:07:20.000Z</time></trkpt>
        <trkpt lat="29.004841" lon="104.77659"><ele>399.22223</ele><time>2026-07-03T19:07:22.000Z</time></trkpt>
        <trkpt lat="29.004837" lon="104.776606"><ele>399.24783</ele><time>2026-07-03T19:07:24.000Z</time></trkpt>
        <trkpt lat="29.004832" lon="104.776622"><ele>399.34827</ele><time>2026-07-03T19:07:26.000Z</time></trkpt>
        <trkpt lat="29.004829" lon="104.776638"><ele>399.46002</ele><time>2026-07-03T19:07:28.000Z</time></trkpt>
        <trkpt lat="29.004826" lon="104.776653"><ele>399.62512</ele><time>2026-07-03T19:07:30.000Z</time></trkpt>
        <trkpt lat="29.004823" lon="104.776668"><ele>399.7001</ele><time>2026-07-03T19:07:32.000Z</time></trkpt>
        <trkpt lat="29.004819" lon="104.776685"><ele>399.80627</ele><time>2026-07-03T19:07:34.000Z</time></trkpt>
        <trkpt lat="29.004815" lon="104.776697"><ele>399.90073</ele><time>2026-07-03T19:07:36.000Z</time></trkpt>
        <trkpt lat="29.004813" lon="104.776706"><ele>399.90073</ele><time>2026-07-03T19:07:38.000Z</time></trkpt>
        <trkpt lat="29.004809" lon="104.776716"><ele>399.90073</ele><time>2026-07-03T19:07:40.000Z</time></trkpt>
        <trkpt lat="29.004804" lon="104.77673"><ele>399.86337</ele><time>2026-07-03T19:07:42.000Z</time></trkpt>
        <trkpt lat="29.004799" lon="104.776745"><ele>399.86337</ele><time>2026-07-03T19:07:44.000Z</time></trkpt>
        <trkpt lat="29.004794" lon="104.776764"><ele>399.86337</ele><time>2026-07-03T19:07:46.000Z</time></trkpt>
        <trkpt lat="29.004788" lon="104.776784"><ele>399.89047</ele><time>2026-07-03T19:07:48.000Z</time></trkpt>
        <trkpt lat="29.004784" lon="104.776802"><ele>400.01044</ele><time>2026-07-03T19:07:50.000Z</time></trkpt>
        <trkpt lat="29.004781" lon="104.776816"><ele>400.21002</ele><time>2026-07-03T19:07:52.000Z</time></trkpt>
        <trkpt lat="29.004778" lon="104.776825"><ele>400.33978</ele><time>2026-07-03T19:07:54.000Z</time></trkpt>
        <trkpt lat="29.004773" lon="104.776834"><ele>400.51135</ele><time>2026-07-03T19:07:56.000Z</time></trkpt>
        <trkpt lat="29.004765" lon="104.776847"><ele>400.51135</ele><time>2026-07-03T19:08:00.000Z</time></trkpt>
        <trkpt lat="29.004762" lon="104.776851"><ele>400.51135</ele><time>2026-07-03T19:08:02.000Z</time></trkpt>
        <trkpt lat="29.004759" lon="104.776855"><ele>399.94827</ele><time>2026-07-03T19:08:04.000Z</time></trkpt>
        <trkpt lat="29.004746" lon="104.776864"><ele>399.76215</ele><time>2026-07-03T19:08:08.000Z</time></trkpt>
        <trkpt lat="29.004707" lon="104.776891"><ele>399.76215</ele><time>2026-07-03T19:08:14.000Z</time></trkpt>
        <trkpt lat="29.004707" lon="104.776891"><ele>399.76215</ele><time>2026-07-03T19:08:16.000Z</time></trkpt>
        <trkpt lat="29.004702" lon="104.776894"><ele>400.01215</ele><time>2026-07-03T19:08:18.000Z</time></trkpt>
        <trkpt lat="29.004668" lon="104.776911"><ele>400.01376</ele><time>2026-07-03T19:08:22.000Z</time></trkpt>
        <trkpt lat="29.004653" lon="104.776919"><ele>400.03793</ele><time>2026-07-03T19:08:24.000Z</time></trkpt>
        <trkpt lat="29.004641" lon="104.776925"><ele>400.22205</ele><time>2026-07-03T19:08:26.000Z</time></trkpt>
        <trkpt lat="29.004633" lon="104.776925"><ele>400.3464</ele><time>2026-07-03T19:08:28.000Z</time></trkpt>
        <trkpt lat="29.004632" lon="104.776921"><ele>400.4755</ele><time>2026-07-03T19:08:32.000Z</time></trkpt>
        <trkpt lat="29.004622" lon="104.776884"><ele>400.51974</ele><time>2026-07-03T19:08:36.000Z</time></trkpt>
        <trkpt lat="29.004551" lon="104.776879"><ele>400.51974</ele><time>2026-07-03T19:08:52.000Z</time></trkpt>
        <trkpt lat="29.004551" lon="104.776879"><ele>400.51974</ele><time>2026-07-03T19:08:54.000Z</time></trkpt>
        <trkpt lat="29.004551" lon="104.776879"><ele>399.88205</ele><time>2026-07-03T19:08:56.000Z</time></trkpt>
        <trkpt lat="29.004508" lon="104.776954"><ele>399.82324</ele><time>2026-07-03T19:09:15.000Z</time></trkpt>
        <trkpt lat="29.004508" lon="104.776954"><ele>399.82193</ele><time>2026-07-03T19:09:17.000Z</time></trkpt>
        <trkpt lat="29.004512" lon="104.776961"><ele>399.82324</ele><time>2026-07-03T19:09:19.000Z</time></trkpt>
        <trkpt lat="29.004546" lon="104.777015"><ele>399.88205</ele><time>2026-07-03T19:09:23.000Z</time></trkpt>
        <trkpt lat="29.004561" lon="104.777039"><ele>399.7852</ele><time>2026-07-03T19:09:25.000Z</time></trkpt>
        <trkpt lat="29.004576" lon="104.777066"><ele>399.7852</ele><time>2026-07-03T19:09:27.000Z</time></trkpt>
        <trkpt lat="29.004591" lon="104.777093"><ele>399.70917</ele><time>2026-07-03T19:09:29.000Z</time></trkpt>
        <trkpt lat="29.004601" lon="104.777119"><ele>399.148</ele><time>2026-07-03T19:09:31.000Z</time></trkpt>
        <trkpt lat="29.004608" lon="104.777144"><ele>398.78976</ele><time>2026-07-03T19:09:33.000Z</time></trkpt>
        <trkpt lat="29.00461" lon="104.777167"><ele>398.6113</ele><time>2026-07-03T19:09:35.000Z</time></trkpt>
        <trkpt lat="29.004608" lon="104.777189"><ele>397.71</ele><time>2026-07-03T19:09:37.000Z</time></trkpt>
        <trkpt lat="29.004601" lon="104.777204"><ele>396.94235</ele><time>2026-07-03T19:09:39.000Z</time></trkpt>
        <trkpt lat="29.004596" lon="104.77721"><ele>396.31445</ele><time>2026-07-03T19:09:41.000Z</time></trkpt>
        <trkpt lat="29.004589" lon="104.777216"><ele>396.0087</ele><time>2026-07-03T19:09:43.000Z</time></trkpt>
        <trkpt lat="29.004579" lon="104.777221"><ele>395.82266</ele><time>2026-07-03T19:09:45.000Z</time></trkpt>
        <trkpt lat="29.00457" lon="104.777227"><ele>395.62964</ele><time>2026-07-03T19:09:47.000Z</time></trkpt>
        <trkpt lat="29.004566" lon="104.777234"><ele>395.46637</ele><time>2026-07-03T19:09:49.000Z</time></trkpt>
        <trkpt lat="29.004549" lon="104.777266"><ele>395.30872</ele><time>2026-07-03T19:09:55.000Z</time></trkpt>
        <trkpt lat="29.004549" lon="104.777266"><ele>395.20776</ele><time>2026-07-03T19:09:57.000Z</time></trkpt>
        <trkpt lat="29.004547" lon="104.77727"><ele>394.8408</ele><time>2026-07-03T19:09:59.000Z</time></trkpt>
        <trkpt lat="29.004533" lon="104.777302"><ele>394.8052</ele><time>2026-07-03T19:10:03.000Z</time></trkpt>
        <trkpt lat="29.004528" lon="104.777318"><ele>394.80356</ele><time>2026-07-03T19:10:05.000Z</time></trkpt>
        <trkpt lat="29.004523" lon="104.777334"><ele>394.30884</ele><time>2026-07-03T19:10:07.000Z</time></trkpt>
        <trkpt lat="29.00452" lon="104.777349"><ele>393.96396</ele><time>2026-07-03T19:10:09.000Z</time></trkpt>
        <trkpt lat="29.004517" lon="104.777365"><ele>393.58096</ele><time>2026-07-03T19:10:11.000Z</time></trkpt>
        <trkpt lat="29.004514" lon="104.777377"><ele>393.24307</ele><time>2026-07-03T19:10:13.000Z</time></trkpt>
        <trkpt lat="29.004511" lon="104.777392"><ele>392.9295</ele><time>2026-07-03T19:10:15.000Z</time></trkpt>
        <trkpt lat="29.004508" lon="104.777407"><ele>392.54514</ele><time>2026-07-03T19:10:17.000Z</time></trkpt>
        <trkpt lat="29.004503" lon="104.777423"><ele>392.3741</ele><time>2026-07-03T19:10:19.000Z</time></trkpt>
        <trkpt lat="29.004499" lon="104.777438"><ele>392.03928</ele><time>2026-07-03T19:10:21.000Z</time></trkpt>
        <trkpt lat="29.004495" lon="104.777456"><ele>391.7855</ele><time>2026-07-03T19:10:23.000Z</time></trkpt>
        <trkpt lat="29.004492" lon="104.777472"><ele>391.41647</ele><time>2026-07-03T19:10:25.000Z</time></trkpt>
        <trkpt lat="29.004487" lon="104.77749"><ele>390.97205</ele><time>2026-07-03T19:10:27.000Z</time></trkpt>
        <trkpt lat="29.004483" lon="104.777507"><ele>390.48947</ele><time>2026-07-03T19:10:29.000Z</time></trkpt>
        <trkpt lat="29.004479" lon="104.77752"><ele>390.1551</ele><time>2026-07-03T19:10:32.000Z</time></trkpt>
        <trkpt lat="29.00447" lon="104.777534"><ele>389.7369</ele><time>2026-07-03T19:10:34.000Z</time></trkpt>
        <trkpt lat="29.004458" lon="104.777549"><ele>389.46744</ele><time>2026-07-03T19:10:36.000Z</time></trkpt>
        <trkpt lat="29.004443" lon="104.777565"><ele>389.46744</ele><time>2026-07-03T19:10:38.000Z</time></trkpt>
        <trkpt lat="29.004434" lon="104.777579"><ele>389.46744</ele><time>2026-07-03T19:10:40.000Z</time></trkpt>
        <trkpt lat="29.004426" lon="104.777593"><ele>389.57556</ele><time>2026-07-03T19:10:42.000Z</time></trkpt>
        <trkpt lat="29.004419" lon="104.777613"><ele>389.6926</ele><time>2026-07-03T19:10:44.000Z</time></trkpt>
        <trkpt lat="29.004416" lon="104.77763"><ele>389.6926</ele><time>2026-07-03T19:10:46.000Z</time></trkpt>
        <trkpt lat="29.004415" lon="104.77765"><ele>389.6926</ele><time>2026-07-03T19:10:48.000Z</time></trkpt>
        <trkpt lat="29.004417" lon="104.777663"><ele>389.66446</ele><time>2026-07-03T19:10:50.000Z</time></trkpt>
        <trkpt lat="29.004421" lon="104.777681"><ele>389.4945</ele><time>2026-07-03T19:10:52.000Z</time></trkpt>
        <trkpt lat="29.004427" lon="104.777698"><ele>388.9341</ele><time>2026-07-03T19:10:54.000Z</time></trkpt>
        <trkpt lat="29.004431" lon="104.777715"><ele>388.52835</ele><time>2026-07-03T19:10:56.000Z</time></trkpt>
        <trkpt lat="29.004432" lon="104.777734"><ele>388.27625</ele><time>2026-07-03T19:10:58.000Z</time></trkpt>
        <trkpt lat="29.004433" lon="104.777755"><ele>387.80304</ele><time>2026-07-03T19:10:59.000Z</time></trkpt>
        <trkpt lat="29.004433" lon="104.777771"><ele>387.19147</ele><time>2026-07-03T19:11:01.000Z</time></trkpt>
        <trkpt lat="29.004433" lon="104.77779"><ele>386.84082</ele><time>2026-07-03T19:11:03.000Z</time></trkpt>
        <trkpt lat="29.004432" lon="104.777806"><ele>386.441</ele><time>2026-07-03T19:11:05.000Z</time></trkpt>
        <trkpt lat="29.004431" lon="104.777823"><ele>385.9974</ele><time>2026-07-03T19:11:07.000Z</time></trkpt>
        <trkpt lat="29.004428" lon="104.777838"><ele>385.49487</ele><time>2026-07-03T19:11:09.000Z</time></trkpt>
        <trkpt lat="29.004424" lon="104.777849"><ele>385.0466</ele><time>2026-07-03T19:11:11.000Z</time></trkpt>
        <trkpt lat="29.00442" lon="104.777859"><ele>384.60376</ele><time>2026-07-03T19:11:13.000Z</time></trkpt>
        <trkpt lat="29.004414" lon="104.777867"><ele>384.20047</ele><time>2026-07-03T19:11:15.000Z</time></trkpt>
        <trkpt lat="29.004404" lon="104.777882"><ele>383.78613</ele><time>2026-07-03T19:11:17.000Z</time></trkpt>
        <trkpt lat="29.004399" lon="104.777899"><ele>383.54755</ele><time>2026-07-03T19:11:19.000Z</time></trkpt>
        <trkpt lat="29.0044" lon="104.777916"><ele>383.5312</ele><time>2026-07-03T19:11:21.000Z</time></trkpt>
        <trkpt lat="29.004407" lon="104.777925"><ele>383.46863</ele><time>2026-07-03T19:11:23.000Z</time></trkpt>
        <trkpt lat="29.004418" lon="104.777932"><ele>383.39877</ele><time>2026-07-03T19:11:25.000Z</time></trkpt>
        <trkpt lat="29.004431" lon="104.777933"><ele>382.94458</ele><time>2026-07-03T19:11:27.000Z</time></trkpt>
        <trkpt lat="29.004444" lon="104.777932"><ele>382.35458</ele><time>2026-07-03T19:11:29.000Z</time></trkpt>
        <trkpt lat="29.004458" lon="104.777926"><ele>381.58377</ele><time>2026-07-03T19:11:31.000Z</time></trkpt>
        <trkpt lat="29.004473" lon="104.777918"><ele>380.75568</ele><time>2026-07-03T19:11:33.000Z</time></trkpt>
        <trkpt lat="29.004486" lon="104.77791"><ele>380.04944</ele><time>2026-07-03T19:11:35.000Z</time></trkpt>
        <trkpt lat="29.004502" lon="104.777899"><ele>379.3971</ele><time>2026-07-03T19:11:37.000Z</time></trkpt>
        <trkpt lat="29.004517" lon="104.777887"><ele>378.8502</ele><time>2026-07-03T19:11:39.000Z</time></trkpt>
        <trkpt lat="29.00453" lon="104.777874"><ele>378.5748</ele><time>2026-07-03T19:11:41.000Z</time></trkpt>
        <trkpt lat="29.004541" lon="104.777862"><ele>378.24725</ele><time>2026-07-03T19:11:43.000Z</time></trkpt>
        <trkpt lat="29.004551" lon="104.777856"><ele>378.21832</ele><time>2026-07-03T19:11:45.000Z</time></trkpt>
        <trkpt lat="29.004563" lon="104.777854"><ele>377.85852</ele><time>2026-07-03T19:11:47.000Z</time></trkpt>
        <trkpt lat="29.004573" lon="104.777855"><ele>377.55457</ele><time>2026-07-03T19:11:49.000Z</time></trkpt>
        <trkpt lat="29.004574" lon="104.777857"><ele>377.38437</ele><time>2026-07-03T19:11:51.000Z</time></trkpt>
        <trkpt lat="29.004579" lon="104.777885"><ele>376.96848</ele><time>2026-07-03T19:11:57.000Z</time></trkpt>
        <trkpt lat="29.004578" lon="104.777899"><ele>376.41263</ele><time>2026-07-03T19:11:59.000Z</time></trkpt>
        <trkpt lat="29.004576" lon="104.777911"><ele>374.55045</ele><time>2026-07-03T19:12:04.000Z</time></trkpt>
        <trkpt lat="29.004573" lon="104.777929"><ele>374.25427</ele><time>2026-07-03T19:12:06.000Z</time></trkpt>
        <trkpt lat="29.004569" lon="104.777941"><ele>373.841</ele><time>2026-07-03T19:12:08.000Z</time></trkpt>
        <trkpt lat="29.004563" lon="104.777951"><ele>373.18832</ele><time>2026-07-03T19:12:11.000Z</time></trkpt>
        <trkpt lat="29.004556" lon="104.77796"><ele>372.90054</ele><time>2026-07-03T19:12:13.000Z</time></trkpt>
        <trkpt lat="29.00455" lon="104.777968"><ele>372.49182</ele><time>2026-07-03T19:12:15.000Z</time></trkpt>
        <trkpt lat="29.004541" lon="104.777979"><ele>372.2119</ele><time>2026-07-03T19:12:17.000Z</time></trkpt>
        <trkpt lat="29.004533" lon="104.777986"><ele>372.018</ele><time>2026-07-03T19:12:19.000Z</time></trkpt>
        <trkpt lat="29.004525" lon="104.777994"><ele>372.018</ele><time>2026-07-03T19:12:21.000Z</time></trkpt>
        <trkpt lat="29.004515" lon="104.778003"><ele>372.00406</ele><time>2026-07-03T19:12:23.000Z</time></trkpt>
        <trkpt lat="29.004505" lon="104.778014"><ele>372.00406</ele><time>2026-07-03T19:12:25.000Z</time></trkpt>
        <trkpt lat="29.004494" lon="104.778024"><ele>371.90533</ele><time>2026-07-03T19:12:27.000Z</time></trkpt>
        <trkpt lat="29.004482" lon="104.778035"><ele>371.7556</ele><time>2026-07-03T19:12:29.000Z</time></trkpt>
        <trkpt lat="29.004469" lon="104.778045"><ele>371.5829</ele><time>2026-07-03T19:12:31.000Z</time></trkpt>
        <trkpt lat="29.004457" lon="104.778055"><ele>371.5829</ele><time>2026-07-03T19:12:33.000Z</time></trkpt>
        <trkpt lat="29.004444" lon="104.778063"><ele>371.5829</ele><time>2026-07-03T19:12:35.000Z</time></trkpt>
        <trkpt lat="29.004431" lon="104.77807"><ele>371.70386</ele><time>2026-07-03T19:12:37.000Z</time></trkpt>
        <trkpt lat="29.00442" lon="104.778074"><ele>371.78134</ele><time>2026-07-03T19:12:39.000Z</time></trkpt>
        <trkpt lat="29.00441" lon="104.778077"><ele>372.16254</ele><time>2026-07-03T19:12:41.000Z</time></trkpt>
        <trkpt lat="29.0044" lon="104.778079"><ele>372.33987</ele><time>2026-07-03T19:12:43.000Z</time></trkpt>
        <trkpt lat="29.004385" lon="104.778081"><ele>373.03085</ele><time>2026-07-03T19:12:45.000Z</time></trkpt>
        <trkpt lat="29.004369" lon="104.778086"><ele>373.68918</ele><time>2026-07-03T19:12:47.000Z</time></trkpt>
        <trkpt lat="29.004356" lon="104.778094"><ele>374.21515</ele><time>2026-07-03T19:12:49.000Z</time></trkpt>
        <trkpt lat="29.004344" lon="104.778111"><ele>374.7306</ele><time>2026-07-03T19:12:51.000Z</time></trkpt>
        <trkpt lat="29.004342" lon="104.778129"><ele>375.22452</ele><time>2026-07-03T19:12:53.000Z</time></trkpt>
        <trkpt lat="29.004346" lon="104.778132"><ele>375.47797</ele><time>2026-07-03T19:12:55.000Z</time></trkpt>
        <trkpt lat="29.004366" lon="104.778142"><ele>375.47797</ele><time>2026-07-03T19:12:57.000Z</time></trkpt>
        <trkpt lat="29.00439" lon="104.778149"><ele>375.47797</ele><time>2026-07-03T19:12:59.000Z</time></trkpt>
        <trkpt lat="29.004412" lon="104.778152"><ele>374.9303</ele><time>2026-07-03T19:13:01.000Z</time></trkpt>
        <trkpt lat="29.004434" lon="104.778154"><ele>373.91135</ele><time>2026-07-03T19:13:03.000Z</time></trkpt>
        <trkpt lat="29.004458" lon="104.778154"><ele>373.2231</ele><time>2026-07-03T19:13:05.000Z</time></trkpt>
        <trkpt lat="29.004483" lon="104.778152"><ele>372.4968</ele><time>2026-07-03T19:13:07.000Z</time></trkpt>
        <trkpt lat="29.004504" lon="104.778152"><ele>371.68106</ele><time>2026-07-03T19:13:09.000Z</time></trkpt>
        <trkpt lat="29.004524" lon="104.778149"><ele>371.26736</ele><time>2026-07-03T19:13:11.000Z</time></trkpt>
        <trkpt lat="29.004543" lon="104.778143"><ele>370.23663</ele><time>2026-07-03T19:13:13.000Z</time></trkpt>
        <trkpt lat="29.004563" lon="104.778134"><ele>369.01917</ele><time>2026-07-03T19:13:15.000Z</time></trkpt>
        <trkpt lat="29.004583" lon="104.778124"><ele>368.31274</ele><time>2026-07-03T19:13:17.000Z</time></trkpt>
        <trkpt lat="29.004601" lon="104.778116"><ele>367.37466</ele><time>2026-07-03T19:13:19.000Z</time></trkpt>
        <trkpt lat="29.004617" lon="104.778112"><ele>366.4839</ele><time>2026-07-03T19:13:21.000Z</time></trkpt>
        <trkpt lat="29.004617" lon="104.778111"><ele>366.10056</ele><time>2026-07-03T19:13:23.000Z</time></trkpt>
        <trkpt lat="29.004612" lon="104.778155"><ele>365.67682</ele><time>2026-07-03T19:13:29.000Z</time></trkpt>
        <trkpt lat="29.004604" lon="104.778169"><ele>364.85422</ele><time>2026-07-03T19:13:31.000Z</time></trkpt>
        <trkpt lat="29.004593" lon="104.778186"><ele>362.84647</ele><time>2026-07-03T19:13:33.000Z</time></trkpt>
        <trkpt lat="29.004579" lon="104.778202"><ele>362.30115</ele><time>2026-07-03T19:13:35.000Z</time></trkpt>
        <trkpt lat="29.004561" lon="104.778217"><ele>361.75974</ele><time>2026-07-03T19:13:37.000Z</time></trkpt>
        <trkpt lat="29.004543" lon="104.778233"><ele>361.59637</ele><time>2026-07-03T19:13:39.000Z</time></trkpt>
        <trkpt lat="29.004522" lon="104.778249"><ele>361.2641</ele><time>2026-07-03T19:13:41.000Z</time></trkpt>
        <trkpt lat="29.004501" lon="104.778263"><ele>361.05673</ele><time>2026-07-03T19:13:43.000Z</time></trkpt>
        <trkpt lat="29.004478" lon="104.778274"><ele>361.05673</ele><time>2026-07-03T19:13:45.000Z</time></trkpt>
        <trkpt lat="29.004455" lon="104.778284"><ele>361.05673</ele><time>2026-07-03T19:13:47.000Z</time></trkpt>
        <trkpt lat="29.00443" lon="104.778293"><ele>361.32336</ele><time>2026-07-03T19:13:49.000Z</time></trkpt>
        <trkpt lat="29.004405" lon="104.778304"><ele>361.65616</ele><time>2026-07-03T19:13:51.000Z</time></trkpt>
        <trkpt lat="29.004379" lon="104.778314"><ele>362.32413</ele><time>2026-07-03T19:13:53.000Z</time></trkpt>
        <trkpt lat="29.004353" lon="104.778324"><ele>363.02744</ele><time>2026-07-03T19:13:55.000Z</time></trkpt>
        <trkpt lat="29.00433" lon="104.778333"><ele>363.6783</ele><time>2026-07-03T19:13:57.000Z</time></trkpt>
        <trkpt lat="29.004305" lon="104.778344"><ele>364.32544</ele><time>2026-07-03T19:13:59.000Z</time></trkpt>
        <trkpt lat="29.00428" lon="104.778354"><ele>364.77844</ele><time>2026-07-03T19:14:01.000Z</time></trkpt>
        <trkpt lat="29.004258" lon="104.778363"><ele>365.39728</ele><time>2026-07-03T19:14:03.000Z</time></trkpt>
        <trkpt lat="29.004236" lon="104.778371"><ele>365.87796</ele><time>2026-07-03T19:14:05.000Z</time></trkpt>
        <trkpt lat="29.004214" lon="104.778379"><ele>366.06717</ele><time>2026-07-03T19:14:07.000Z</time></trkpt>
        <trkpt lat="29.004196" lon="104.778386"><ele>366.08444</ele><time>2026-07-03T19:14:09.000Z</time></trkpt>
        <trkpt lat="29.004178" lon="104.778391"><ele>366.08444</ele><time>2026-07-03T19:14:11.000Z</time></trkpt>
        <trkpt lat="29.004162" lon="104.778396"><ele>366.08444</ele><time>2026-07-03T19:14:13.000Z</time></trkpt>
        <trkpt lat="29.004147" lon="104.778402"><ele>365.65155</ele><time>2026-07-03T19:14:15.000Z</time></trkpt>
        <trkpt lat="29.004132" lon="104.778407"><ele>365.23462</ele><time>2026-07-03T19:14:17.000Z</time></trkpt>
        <trkpt lat="29.004119" lon="104.778411"><ele>364.9428</ele><time>2026-07-03T19:14:19.000Z</time></trkpt>
        <trkpt lat="29.004098" lon="104.778414"><ele>364.74796</ele><time>2026-07-03T19:14:23.000Z</time></trkpt>
        <trkpt lat="29.004091" lon="104.778408"><ele>364.49265</ele><time>2026-07-03T19:14:25.000Z</time></trkpt>
        <trkpt lat="29.004066" lon="104.778402"><ele>364.27994</ele><time>2026-07-03T19:14:35.000Z</time></trkpt>
        <trkpt lat="29.004052" lon="104.778406"><ele>363.13348</ele><time>2026-07-03T19:14:41.000Z</time></trkpt>
        <trkpt lat="29.003986" lon="104.778427"><ele>355.20615</ele><time>2026-07-03T19:14:46.000Z</time></trkpt>
        <trkpt lat="29.00397" lon="104.778432"><ele>353.01703</ele><time>2026-07-03T19:14:48.000Z</time></trkpt>
        <trkpt lat="29.003956" lon="104.778436"><ele>349.38226</ele><time>2026-07-03T19:14:50.000Z</time></trkpt>
        <trkpt lat="29.00394" lon="104.778444"><ele>348.0717</ele><time>2026-07-03T19:14:52.000Z</time></trkpt>
        <trkpt lat="29.003925" lon="104.778456"><ele>347.19955</ele><time>2026-07-03T19:14:54.000Z</time></trkpt>
        <trkpt lat="29.003913" lon="104.778468"><ele>347.19955</ele><time>2026-07-03T19:14:56.000Z</time></trkpt>
        <trkpt lat="29.0039" lon="104.778484"><ele>347.19955</ele><time>2026-07-03T19:14:58.000Z</time></trkpt>
        <trkpt lat="29.003886" lon="104.778501"><ele>347.6428</ele><time>2026-07-03T19:15:00.000Z</time></trkpt>
        <trkpt lat="29.003869" lon="104.778518"><ele>348.03754</ele><time>2026-07-03T19:15:02.000Z</time></trkpt>
        <trkpt lat="29.003852" lon="104.778532"><ele>348.2011</ele><time>2026-07-03T19:15:04.000Z</time></trkpt>
        <trkpt lat="29.00383" lon="104.778546"><ele>348.2011</ele><time>2026-07-03T19:15:06.000Z</time></trkpt>
        <trkpt lat="29.00381" lon="104.778557"><ele>348.2011</ele><time>2026-07-03T19:15:08.000Z</time></trkpt>
        <trkpt lat="29.003788" lon="104.778569"><ele>347.96585</ele><time>2026-07-03T19:15:10.000Z</time></trkpt>
        <trkpt lat="29.003769" lon="104.778585"><ele>347.38556</ele><time>2026-07-03T19:15:12.000Z</time></trkpt>
        <trkpt lat="29.00376" lon="104.778603"><ele>346.87805</ele><time>2026-07-03T19:15:14.000Z</time></trkpt>
        <trkpt lat="29.003756" lon="104.778623"><ele>346.34048</ele><time>2026-07-03T19:15:16.000Z</time></trkpt>
        <trkpt lat="29.003749" lon="104.778647"><ele>345.90073</ele><time>2026-07-03T19:15:18.000Z</time></trkpt>
        <trkpt lat="29.003741" lon="104.778664"><ele>345.36578</ele><time>2026-07-03T19:15:20.000Z</time></trkpt>
        <trkpt lat="29.003731" lon="104.778674"><ele>345.0363</ele><time>2026-07-03T19:15:22.000Z</time></trkpt>
        <trkpt lat="29.003718" lon="104.778688"><ele>344.736</ele><time>2026-07-03T19:15:24.000Z</time></trkpt>
        <trkpt lat="29.003701" lon="104.778704"><ele>344.54132</ele><time>2026-07-03T19:15:26.000Z</time></trkpt>
        <trkpt lat="29.003683" lon="104.778719"><ele>343.82147</ele><time>2026-07-03T19:15:28.000Z</time></trkpt>
        <trkpt lat="29.003665" lon="104.778735"><ele>343.3669</ele><time>2026-07-03T19:15:30.000Z</time></trkpt>
        <trkpt lat="29.003649" lon="104.77875"><ele>342.64102</ele><time>2026-07-03T19:15:32.000Z</time></trkpt>
        <trkpt lat="29.003634" lon="104.778764"><ele>342.12433</ele><time>2026-07-03T19:15:34.000Z</time></trkpt>
        <trkpt lat="29.003619" lon="104.778778"><ele>341.43423</ele><time>2026-07-03T19:15:36.000Z</time></trkpt>
        <trkpt lat="29.003605" lon="104.778794"><ele>340.77618</ele><time>2026-07-03T19:15:38.000Z</time></trkpt>
        <trkpt lat="29.003589" lon="104.778811"><ele>340.16608</ele><time>2026-07-03T19:15:40.000Z</time></trkpt>
        <trkpt lat="29.003573" lon="104.778827"><ele>339.68048</ele><time>2026-07-03T19:15:42.000Z</time></trkpt>
        <trkpt lat="29.003556" lon="104.778842"><ele>338.9944</ele><time>2026-07-03T19:15:44.000Z</time></trkpt>
        <trkpt lat="29.003539" lon="104.778857"><ele>338.1092</ele><time>2026-07-03T19:15:46.000Z</time></trkpt>
        <trkpt lat="29.003524" lon="104.77887"><ele>337.72787</ele><time>2026-07-03T19:15:48.000Z</time></trkpt>
        <trkpt lat="29.00351" lon="104.778882"><ele>337.2027</ele><time>2026-07-03T19:15:50.000Z</time></trkpt>
        <trkpt lat="29.003497" lon="104.77889"><ele>336.7409</ele><time>2026-07-03T19:15:52.000Z</time></trkpt>
        <trkpt lat="29.003482" lon="104.778895"><ele>336.27032</ele><time>2026-07-03T19:15:54.000Z</time></trkpt>
        <trkpt lat="29.003466" lon="104.778897"><ele>336.1972</ele><time>2026-07-03T19:15:56.000Z</time></trkpt>
        <trkpt lat="29.003448" lon="104.778899"><ele>335.65826</ele><time>2026-07-03T19:15:58.000Z</time></trkpt>
        <trkpt lat="29.003432" lon="104.778902"><ele>335.34152</ele><time>2026-07-03T19:16:00.000Z</time></trkpt>
        <trkpt lat="29.003418" lon="104.778901"><ele>334.9757</ele><time>2026-07-03T19:16:02.000Z</time></trkpt>
        <trkpt lat="29.003407" lon="104.778898"><ele>334.21622</ele><time>2026-07-03T19:16:04.000Z</time></trkpt>
        <trkpt lat="29.003391" lon="104.778893"><ele>333.28058</ele><time>2026-07-03T19:16:06.000Z</time></trkpt>
        <trkpt lat="29.00338" lon="104.778889"><ele>332.18912</ele><time>2026-07-03T19:16:08.000Z</time></trkpt>
        <trkpt lat="29.003367" lon="104.778884"><ele>331.24643</ele><time>2026-07-03T19:16:10.000Z</time></trkpt>
        <trkpt lat="29.003349" lon="104.778875"><ele>330.2651</ele><time>2026-07-03T19:16:12.000Z</time></trkpt>
        <trkpt lat="29.00333" lon="104.778863"><ele>329.3164</ele><time>2026-07-03T19:16:14.000Z</time></trkpt>
        <trkpt lat="29.003307" lon="104.778853"><ele>328.4874</ele><time>2026-07-03T19:16:16.000Z</time></trkpt>
        <trkpt lat="29.003279" lon="104.778846"><ele>327.93967</ele><time>2026-07-03T19:16:18.000Z</time></trkpt>
        <trkpt lat="29.003248" lon="104.778839"><ele>327.8059</ele><time>2026-07-03T19:16:20.000Z</time></trkpt>
        <trkpt lat="29.003218" lon="104.778831"><ele>327.74194</ele><time>2026-07-03T19:16:22.000Z</time></trkpt>
        <trkpt lat="29.003193" lon="104.778822"><ele>327.52075</ele><time>2026-07-03T19:16:24.000Z</time></trkpt>
        <trkpt lat="29.003172" lon="104.778814"><ele>327.52075</ele><time>2026-07-03T19:16:26.000Z</time></trkpt>
        <trkpt lat="29.003154" lon="104.778806"><ele>327.4747</ele><time>2026-07-03T19:16:28.000Z</time></trkpt>
        <trkpt lat="29.003132" lon="104.778798"><ele>327.36243</ele><time>2026-07-03T19:16:30.000Z</time></trkpt>
        <trkpt lat="29.003109" lon="104.77879"><ele>327.36243</ele><time>2026-07-03T19:16:32.000Z</time></trkpt>
        <trkpt lat="29.003088" lon="104.778781"><ele>327.4691</ele><time>2026-07-03T19:16:34.000Z</time></trkpt>
        <trkpt lat="29.003067" lon="104.778771"><ele>327.4747</ele><time>2026-07-03T19:16:36.000Z</time></trkpt>
        <trkpt lat="29.003049" lon="104.778761"><ele>327.70486</ele><time>2026-07-03T19:16:38.000Z</time></trkpt>
        <trkpt lat="29.003032" lon="104.778751"><ele>327.73575</ele><time>2026-07-03T19:16:40.000Z</time></trkpt>
        <trkpt lat="29.003015" lon="104.77874"><ele>327.73575</ele><time>2026-07-03T19:16:42.000Z</time></trkpt>
        <trkpt lat="29.002998" lon="104.778727"><ele>327.73575</ele><time>2026-07-03T19:16:44.000Z</time></trkpt>
        <trkpt lat="29.002985" lon="104.778713"><ele>327.64648</ele><time>2026-07-03T19:16:46.000Z</time></trkpt>
        <trkpt lat="29.002973" lon="104.778699"><ele>327.31277</ele><time>2026-07-03T19:16:48.000Z</time></trkpt>
        <trkpt lat="29.002967" lon="104.778691"><ele>326.6935</ele><time>2026-07-03T19:16:50.000Z</time></trkpt>
        <trkpt lat="29.002961" lon="104.778686"><ele>326.6935</ele><time>2026-07-03T19:16:52.000Z</time></trkpt>
        <trkpt lat="29.002953" lon="104.778679"><ele>326.6935</ele><time>2026-07-03T19:16:54.000Z</time></trkpt>
        <trkpt lat="29.002945" lon="104.778673"><ele>326.58426</ele><time>2026-07-03T19:16:56.000Z</time></trkpt>
        <trkpt lat="29.00293" lon="104.778665"><ele>326.58426</ele><time>2026-07-03T19:16:58.000Z</time></trkpt>
        <trkpt lat="29.002914" lon="104.778654"><ele>326.2004</ele><time>2026-07-03T19:17:00.000Z</time></trkpt>
        <trkpt lat="29.002897" lon="104.778646"><ele>325.40216</ele><time>2026-07-03T19:17:02.000Z</time></trkpt>
        <trkpt lat="29.002879" lon="104.778641"><ele>324.64282</ele><time>2026-07-03T19:17:04.000Z</time></trkpt>
        <trkpt lat="29.002858" lon="104.778638"><ele>323.68262</ele><time>2026-07-03T19:17:06.000Z</time></trkpt>
        <trkpt lat="29.002838" lon="104.778637"><ele>322.5664</ele><time>2026-07-03T19:17:08.000Z</time></trkpt>
        <trkpt lat="29.002817" lon="104.778637"><ele>321.92352</ele><time>2026-07-03T19:17:10.000Z</time></trkpt>
        <trkpt lat="29.002794" lon="104.778639"><ele>321.37134</ele><time>2026-07-03T19:17:12.000Z</time></trkpt>
        <trkpt lat="29.002771" lon="104.778642"><ele>321.37134</ele><time>2026-07-03T19:17:14.000Z</time></trkpt>
        <trkpt lat="29.002748" lon="104.778646"><ele>321.37134</ele><time>2026-07-03T19:17:16.000Z</time></trkpt>
        <trkpt lat="29.002726" lon="104.778651"><ele>321.60083</ele><time>2026-07-03T19:17:18.000Z</time></trkpt>
        <trkpt lat="29.002705" lon="104.778659"><ele>321.61325</ele><time>2026-07-03T19:17:20.000Z</time></trkpt>
        <trkpt lat="29.002684" lon="104.778669"><ele>321.69592</ele><time>2026-07-03T19:17:22.000Z</time></trkpt>
        <trkpt lat="29.002665" lon="104.778679"><ele>321.84293</ele><time>2026-07-03T19:17:24.000Z</time></trkpt>
        <trkpt lat="29.002647" lon="104.778685"><ele>322.48257</ele><time>2026-07-03T19:17:26.000Z</time></trkpt>
        <trkpt lat="29.002631" lon="104.77869"><ele>322.66003</ele><time>2026-07-03T19:17:28.000Z</time></trkpt>
        <trkpt lat="29.00261" lon="104.778694"><ele>322.66003</ele><time>2026-07-03T19:17:30.000Z</time></trkpt>
        <trkpt lat="29.00259" lon="104.778697"><ele>322.66003</ele><time>2026-07-03T19:17:32.000Z</time></trkpt>
        <trkpt lat="29.002568" lon="104.778699"><ele>322.42462</ele><time>2026-07-03T19:17:34.000Z</time></trkpt>
        <trkpt lat="29.002545" lon="104.778702"><ele>322.42462</ele><time>2026-07-03T19:17:36.000Z</time></trkpt>
        <trkpt lat="29.002522" lon="104.778706"><ele>322.42462</ele><time>2026-07-03T19:17:38.000Z</time></trkpt>
        <trkpt lat="29.002501" lon="104.778709"><ele>322.58627</ele><time>2026-07-03T19:17:40.000Z</time></trkpt>
        <trkpt lat="29.002481" lon="104.778712"><ele>322.8617</ele><time>2026-07-03T19:17:42.000Z</time></trkpt>
        <trkpt lat="29.002463" lon="104.778714"><ele>322.8617</ele><time>2026-07-03T19:17:44.000Z</time></trkpt>
        <trkpt lat="29.002444" lon="104.778716"><ele>322.8617</ele><time>2026-07-03T19:17:46.000Z</time></trkpt>
        <trkpt lat="29.002426" lon="104.778718"><ele>322.6904</ele><time>2026-07-03T19:17:48.000Z</time></trkpt>
        <trkpt lat="29.002409" lon="104.778721"><ele>322.42828</ele><time>2026-07-03T19:17:50.000Z</time></trkpt>
        <trkpt lat="29.002395" lon="104.778725"><ele>322</ele><time>2026-07-03T19:17:52.000Z</time></trkpt>
        <trkpt lat="29.002382" lon="104.77873"><ele>321.45322</ele><time>2026-07-03T19:17:54.000Z</time></trkpt>
        <trkpt lat="29.002369" lon="104.778733"><ele>321.10086</ele><time>2026-07-03T19:17:56.000Z</time></trkpt>
        <trkpt lat="29.002361" lon="104.778737"><ele>320.96564</ele><time>2026-07-03T19:17:58.000Z</time></trkpt>
        <trkpt lat="29.00235" lon="104.778742"><ele>320.96564</ele><time>2026-07-03T19:18:02.000Z</time></trkpt>
        <trkpt lat="29.002338" lon="104.778746"><ele>320.96564</ele><time>2026-07-03T19:18:04.000Z</time></trkpt>
        <trkpt lat="29.002322" lon="104.778751"><ele>320.85785</ele><time>2026-07-03T19:18:06.000Z</time></trkpt>
        <trkpt lat="29.002304" lon="104.778752"><ele>320.78293</ele><time>2026-07-03T19:18:08.000Z</time></trkpt>
        <trkpt lat="29.002286" lon="104.778753"><ele>320.35953</ele><time>2026-07-03T19:18:10.000Z</time></trkpt>
        <trkpt lat="29.002269" lon="104.778754"><ele>319.92764</ele><time>2026-07-03T19:18:12.000Z</time></trkpt>
        <trkpt lat="29.002248" lon="104.778756"><ele>319.11697</ele><time>2026-07-03T19:18:14.000Z</time></trkpt>
        <trkpt lat="29.002229" lon="104.778756"><ele>318.6103</ele><time>2026-07-03T19:18:16.000Z</time></trkpt>
        <trkpt lat="29.002211" lon="104.778755"><ele>318.30844</ele><time>2026-07-03T19:18:18.000Z</time></trkpt>
        <trkpt lat="29.002189" lon="104.778752"><ele>318.19632</ele><time>2026-07-03T19:18:20.000Z</time></trkpt>
        <trkpt lat="29.00217" lon="104.778749"><ele>317.81485</ele><time>2026-07-03T19:18:22.000Z</time></trkpt>
        <trkpt lat="29.002142" lon="104.778743"><ele>317.15952</ele><time>2026-07-03T19:18:24.000Z</time></trkpt>
        <trkpt lat="29.002113" lon="104.778736"><ele>316.68066</ele><time>2026-07-03T19:18:26.000Z</time></trkpt>
        <trkpt lat="29.002086" lon="104.778727"><ele>316.10648</ele><time>2026-07-03T19:18:28.000Z</time></trkpt>
        <trkpt lat="29.002062" lon="104.778716"><ele>315.60785</ele><time>2026-07-03T19:18:30.000Z</time></trkpt>
        <trkpt lat="29.002045" lon="104.778708"><ele>315.27667</ele><time>2026-07-03T19:18:32.000Z</time></trkpt>
        <trkpt lat="29.002028" lon="104.778702"><ele>314.62167</ele><time>2026-07-03T19:18:34.000Z</time></trkpt>
        <trkpt lat="29.002008" lon="104.778703"><ele>313.96274</ele><time>2026-07-03T19:18:36.000Z</time></trkpt>
        <trkpt lat="29.001985" lon="104.778712"><ele>313.61658</ele><time>2026-07-03T19:18:38.000Z</time></trkpt>
        <trkpt lat="29.001963" lon="104.778728"><ele>313.61658</ele><time>2026-07-03T19:18:40.000Z</time></trkpt>
        <trkpt lat="29.001941" lon="104.778749"><ele>313.61658</ele><time>2026-07-03T19:18:42.000Z</time></trkpt>
        <trkpt lat="29.001924" lon="104.778775"><ele>313.69116</ele><time>2026-07-03T19:18:44.000Z</time></trkpt>
        <trkpt lat="29.001913" lon="104.778802"><ele>313.79666</ele><time>2026-07-03T19:18:46.000Z</time></trkpt>
        <trkpt lat="29.001905" lon="104.778828"><ele>314.50668</ele><time>2026-07-03T19:18:48.000Z</time></trkpt>
        <trkpt lat="29.001898" lon="104.778855"><ele>315.63068</ele><time>2026-07-03T19:18:50.000Z</time></trkpt>
        <trkpt lat="29.001891" lon="104.778879"><ele>317.26157</ele><time>2026-07-03T19:18:52.000Z</time></trkpt>
        <trkpt lat="29.001884" lon="104.778895"><ele>318.59918</ele><time>2026-07-03T19:18:54.000Z</time></trkpt>
        <trkpt lat="29.001872" lon="104.778908"><ele>320.10858</ele><time>2026-07-03T19:18:56.000Z</time></trkpt>
        <trkpt lat="29.001863" lon="104.778913"><ele>321.7055</ele><time>2026-07-03T19:18:58.000Z</time></trkpt>
        <trkpt lat="29.001862" lon="104.778917"><ele>321.7055</ele><time>2026-07-03T19:19:00.000Z</time></trkpt>
        <trkpt lat="29.001864" lon="104.778932"><ele>321.7055</ele><time>2026-07-03T19:19:06.000Z</time></trkpt>
        <trkpt lat="29.001872" lon="104.778994"><ele>321.6953</ele><time>2026-07-03T19:19:10.000Z</time></trkpt>
        <trkpt lat="29.001872" lon="104.778994"><ele>319.77863</ele><time>2026-07-03T19:19:12.000Z</time></trkpt>
        <trkpt lat="29.001878" lon="104.778998"><ele>319.3483</ele><time>2026-07-03T19:19:14.000Z</time></trkpt>
        <trkpt lat="29.001896" lon="104.779012"><ele>319.3483</ele><time>2026-07-03T19:19:16.000Z</time></trkpt>
        <trkpt lat="29.001925" lon="104.77903"><ele>319.3483</ele><time>2026-07-03T19:19:18.000Z</time></trkpt>
        <trkpt lat="29.001955" lon="104.779046"><ele>319.39697</ele><time>2026-07-03T19:19:20.000Z</time></trkpt>
        <trkpt lat="29.00198" lon="104.779061"><ele>319.42886</ele><time>2026-07-03T19:19:22.000Z</time></trkpt>
        <trkpt lat="29.002" lon="104.779077"><ele>319.44278</ele><time>2026-07-03T19:19:24.000Z</time></trkpt>
        <trkpt lat="29.002019" lon="104.779092"><ele>319.47174</ele><time>2026-07-03T19:19:26.000Z</time></trkpt>
        <trkpt lat="29.00204" lon="104.779107"><ele>319.47174</ele><time>2026-07-03T19:19:28.000Z</time></trkpt>
        <trkpt lat="29.002054" lon="104.779119"><ele>319.47174</ele><time>2026-07-03T19:19:30.000Z</time></trkpt>
        <trkpt lat="29.002073" lon="104.779134"><ele>319.50668</ele><time>2026-07-03T19:19:32.000Z</time></trkpt>
        <trkpt lat="29.002096" lon="104.779149"><ele>319.50668</ele><time>2026-07-03T19:19:34.000Z</time></trkpt>
        <trkpt lat="29.002118" lon="104.779159"><ele>319.63693</ele><time>2026-07-03T19:19:36.000Z</time></trkpt>
        <trkpt lat="29.002135" lon="104.779162"><ele>320.01562</ele><time>2026-07-03T19:19:38.000Z</time></trkpt>
        <trkpt lat="29.002154" lon="104.779162"><ele>320.21927</ele><time>2026-07-03T19:19:40.000Z</time></trkpt>
        <trkpt lat="29.002175" lon="104.77916"><ele>320.24338</ele><time>2026-07-03T19:19:42.000Z</time></trkpt>
        <trkpt lat="29.002196" lon="104.779161"><ele>320.41614</ele><time>2026-07-03T19:19:44.000Z</time></trkpt>
        <trkpt lat="29.002217" lon="104.779166"><ele>320.86786</ele><time>2026-07-03T19:19:46.000Z</time></trkpt>
        <trkpt lat="29.00224" lon="104.779171"><ele>321.41486</ele><time>2026-07-03T19:19:48.000Z</time></trkpt>
        <trkpt lat="29.002264" lon="104.779175"><ele>321.54672</ele><time>2026-07-03T19:19:50.000Z</time></trkpt>
        <trkpt lat="29.002287" lon="104.779177"><ele>321.77023</ele><time>2026-07-03T19:19:52.000Z</time></trkpt>
        <trkpt lat="29.002309" lon="104.779177"><ele>322.11288</ele><time>2026-07-03T19:19:54.000Z</time></trkpt>
        <trkpt lat="29.002331" lon="104.779176"><ele>322.3811</ele><time>2026-07-03T19:19:56.000Z</time></trkpt>
        <trkpt lat="29.002352" lon="104.77918"><ele>322.93735</ele><time>2026-07-03T19:19:58.000Z</time></trkpt>
        <trkpt lat="29.002373" lon="104.779184"><ele>323.67444</ele><time>2026-07-03T19:20:00.000Z</time></trkpt>
        <trkpt lat="29.002391" lon="104.779193"><ele>324.2079</ele><time>2026-07-03T19:20:02.000Z</time></trkpt>
        <trkpt lat="29.002407" lon="104.779206"><ele>324.38297</ele><time>2026-07-03T19:20:04.000Z</time></trkpt>
        <trkpt lat="29.002424" lon="104.779223"><ele>324.79727</ele><time>2026-07-03T19:20:06.000Z</time></trkpt>
        <trkpt lat="29.002441" lon="104.779238"><ele>325.05768</ele><time>2026-07-03T19:20:08.000Z</time></trkpt>
        <trkpt lat="29.002458" lon="104.77925"><ele>325.1536</ele><time>2026-07-03T19:20:10.000Z</time></trkpt>
        <trkpt lat="29.002476" lon="104.77926"><ele>325.19125</ele><time>2026-07-03T19:20:12.000Z</time></trkpt>
        <trkpt lat="29.002493" lon="104.779269"><ele>325.37976</ele><time>2026-07-03T19:20:14.000Z</time></trkpt>
        <trkpt lat="29.002511" lon="104.779277"><ele>325.65628</ele><time>2026-07-03T19:20:16.000Z</time></trkpt>
        <trkpt lat="29.00253" lon="104.779286"><ele>326.0059</ele><time>2026-07-03T19:20:18.000Z</time></trkpt>
        <trkpt lat="29.002552" lon="104.779293"><ele>326.0491</ele><time>2026-07-03T19:20:20.000Z</time></trkpt>
        <trkpt lat="29.002572" lon="104.779297"><ele>326.6054</ele><time>2026-07-03T19:20:22.000Z</time></trkpt>
        <trkpt lat="29.002589" lon="104.779302"><ele>327.03287</ele><time>2026-07-03T19:20:24.000Z</time></trkpt>
        <trkpt lat="29.002609" lon="104.779308"><ele>327.54074</ele><time>2026-07-03T19:20:26.000Z</time></trkpt>
        <trkpt lat="29.002627" lon="104.779314"><ele>328.13464</ele><time>2026-07-03T19:20:28.000Z</time></trkpt>
        <trkpt lat="29.002645" lon="104.77932"><ele>328.60773</ele><time>2026-07-03T19:20:30.000Z</time></trkpt>
        <trkpt lat="29.002662" lon="104.779324"><ele>329.09116</ele><time>2026-07-03T19:20:32.000Z</time></trkpt>
        <trkpt lat="29.002679" lon="104.779329"><ele>329.80054</ele><time>2026-07-03T19:20:34.000Z</time></trkpt>
        <trkpt lat="29.002697" lon="104.779334"><ele>330.36105</ele><time>2026-07-03T19:20:36.000Z</time></trkpt>
        <trkpt lat="29.002716" lon="104.779341"><ele>330.86432</ele><time>2026-07-03T19:20:38.000Z</time></trkpt>
        <trkpt lat="29.002734" lon="104.779349"><ele>330.86432</ele><time>2026-07-03T19:20:40.000Z</time></trkpt>
        <trkpt lat="29.002753" lon="104.779359"><ele>330.86432</ele><time>2026-07-03T19:20:42.000Z</time></trkpt>
        <trkpt lat="29.00277" lon="104.77937"><ele>330.53</ele><time>2026-07-03T19:20:44.000Z</time></trkpt>
        <trkpt lat="29.002788" lon="104.779383"><ele>329.7764</ele><time>2026-07-03T19:20:46.000Z</time></trkpt>
        <trkpt lat="29.002803" lon="104.779397"><ele>329.04926</ele><time>2026-07-03T19:20:48.000Z</time></trkpt>
        <trkpt lat="29.002818" lon="104.779414"><ele>328.46866</ele><time>2026-07-03T19:20:50.000Z</time></trkpt>
        <trkpt lat="29.002831" lon="104.779435"><ele>328.00708</ele><time>2026-07-03T19:20:52.000Z</time></trkpt>
        <trkpt lat="29.002843" lon="104.779457"><ele>327.60773</ele><time>2026-07-03T19:20:54.000Z</time></trkpt>
        <trkpt lat="29.002854" lon="104.779479"><ele>327.51083</ele><time>2026-07-03T19:20:56.000Z</time></trkpt>
        <trkpt lat="29.002865" lon="104.779502"><ele>327.43378</ele><time>2026-07-03T19:20:58.000Z</time></trkpt>
        <trkpt lat="29.002875" lon="104.779522"><ele>327.42712</ele><time>2026-07-03T19:21:00.000Z</time></trkpt>
        <trkpt lat="29.002886" lon="104.77954"><ele>327.42712</ele><time>2026-07-03T19:21:02.000Z</time></trkpt>
        <trkpt lat="29.002901" lon="104.779556"><ele>327.51083</ele><time>2026-07-03T19:21:04.000Z</time></trkpt>
        <trkpt lat="29.002922" lon="104.779568"><ele>327.57727</ele><time>2026-07-03T19:21:06.000Z</time></trkpt>
        <trkpt lat="29.002945" lon="104.779575"><ele>327.75894</ele><time>2026-07-03T19:21:08.000Z</time></trkpt>
        <trkpt lat="29.002969" lon="104.779579"><ele>328.0161</ele><time>2026-07-03T19:21:10.000Z</time></trkpt>
        <trkpt lat="29.002991" lon="104.779582"><ele>328.31436</ele><time>2026-07-03T19:21:12.000Z</time></trkpt>
        <trkpt lat="29.003017" lon="104.779585"><ele>328.74667</ele><time>2026-07-03T19:21:14.000Z</time></trkpt>
        <trkpt lat="29.00304" lon="104.779589"><ele>329.31177</ele><time>2026-07-03T19:21:16.000Z</time></trkpt>
        <trkpt lat="29.003061" lon="104.779595"><ele>329.87814</ele><time>2026-07-03T19:21:18.000Z</time></trkpt>
        <trkpt lat="29.00308" lon="104.779604"><ele>330.76416</ele><time>2026-07-03T19:21:20.000Z</time></trkpt>
        <trkpt lat="29.003097" lon="104.779612"><ele>331.63824</ele><time>2026-07-03T19:21:22.000Z</time></trkpt>
        <trkpt lat="29.003113" lon="104.779621"><ele>332.63025</ele><time>2026-07-03T19:21:24.000Z</time></trkpt>
        <trkpt lat="29.003131" lon="104.779632"><ele>333.29004</ele><time>2026-07-03T19:21:26.000Z</time></trkpt>
        <trkpt lat="29.003148" lon="104.779646"><ele>333.29004</ele><time>2026-07-03T19:21:28.000Z</time></trkpt>
        <trkpt lat="29.003166" lon="104.779662"><ele>333.29004</ele><time>2026-07-03T19:21:30.000Z</time></trkpt>
        <trkpt lat="29.003181" lon="104.77968"><ele>333.29004</ele><time>2026-07-03T19:21:32.000Z</time></trkpt>
        <trkpt lat="29.003197" lon="104.779698"><ele>333.29004</ele><time>2026-07-03T19:21:34.000Z</time></trkpt>
        <trkpt lat="29.003212" lon="104.779715"><ele>333.35788</ele><time>2026-07-03T19:21:36.000Z</time></trkpt>
        <trkpt lat="29.003226" lon="104.779731"><ele>333.35788</ele><time>2026-07-03T19:21:38.000Z</time></trkpt>
        <trkpt lat="29.003241" lon="104.77975"><ele>333.35788</ele><time>2026-07-03T19:21:40.000Z</time></trkpt>
        <trkpt lat="29.003257" lon="104.779768"><ele>333.25296</ele><time>2026-07-03T19:21:42.000Z</time></trkpt>
        <trkpt lat="29.003273" lon="104.779782"><ele>333.25296</ele><time>2026-07-03T19:21:44.000Z</time></trkpt>
        <trkpt lat="29.003286" lon="104.779794"><ele>333.25296</ele><time>2026-07-03T19:21:46.000Z</time></trkpt>
        <trkpt lat="29.003304" lon="104.77981"><ele>333.5104</ele><time>2026-07-03T19:21:48.000Z</time></trkpt>
        <trkpt lat="29.00332" lon="104.779829"><ele>333.5104</ele><time>2026-07-03T19:21:50.000Z</time></trkpt>
        <trkpt lat="29.003332" lon="104.779847"><ele>333.5104</ele><time>2026-07-03T19:21:52.000Z</time></trkpt>
        <trkpt lat="29.003342" lon="104.779863"><ele>333.36737</ele><time>2026-07-03T19:21:54.000Z</time></trkpt>
        <trkpt lat="29.003352" lon="104.779881"><ele>333.36737</ele><time>2026-07-03T19:21:56.000Z</time></trkpt>
        <trkpt lat="29.003364" lon="104.779899"><ele>333.36737</ele><time>2026-07-03T19:21:58.000Z</time></trkpt>
        <trkpt lat="29.003372" lon="104.779908"><ele>333.40628</ele><time>2026-07-03T19:22:00.000Z</time></trkpt>
        <trkpt lat="29.003375" lon="104.779911"><ele>334.0135</ele><time>2026-07-03T19:22:02.000Z</time></trkpt>
        <trkpt lat="29.003385" lon="104.779926"><ele>335.16965</ele><time>2026-07-03T19:22:06.000Z</time></trkpt>
        <trkpt lat="29.003388" lon="104.779939"><ele>336.34323</ele><time>2026-07-03T19:22:08.000Z</time></trkpt>
        <trkpt lat="29.003387" lon="104.779957"><ele>338.57574</ele><time>2026-07-03T19:22:10.000Z</time></trkpt>
        <trkpt lat="29.003381" lon="104.779972"><ele>339.53674</ele><time>2026-07-03T19:22:12.000Z</time></trkpt>
        <trkpt lat="29.003376" lon="104.779983"><ele>340.30612</ele><time>2026-07-03T19:22:14.000Z</time></trkpt>
        <trkpt lat="29.003369" lon="104.78"><ele>340.73053</ele><time>2026-07-03T19:22:16.000Z</time></trkpt>
        <trkpt lat="29.003368" lon="104.780015"><ele>340.77023</ele><time>2026-07-03T19:22:18.000Z</time></trkpt>
        <trkpt lat="29.00337" lon="104.780032"><ele>341.28842</ele><time>2026-07-03T19:22:20.000Z</time></trkpt>
        <trkpt lat="29.003374" lon="104.780045"><ele>341.71133</ele><time>2026-07-03T19:22:22.000Z</time></trkpt>
        <trkpt lat="29.003372" lon="104.780049"><ele>342.17407</ele><time>2026-07-03T19:22:24.000Z</time></trkpt>
        <trkpt lat="29.003362" lon="104.780061"><ele>342.28107</ele><time>2026-07-03T19:22:28.000Z</time></trkpt>
        <trkpt lat="29.003361" lon="104.78006"><ele>342.28107</ele><time>2026-07-03T19:22:35.000Z</time></trkpt>
        <trkpt lat="29.003369" lon="104.780083"><ele>342.28107</ele><time>2026-07-03T19:22:44.000Z</time></trkpt>
        <trkpt lat="29.003388" lon="104.780133"><ele>341.26697</ele><time>2026-07-03T19:22:50.000Z</time></trkpt>
        <trkpt lat="29.003388" lon="104.780133"><ele>340.1614</ele><time>2026-07-03T19:22:52.000Z</time></trkpt>
        <trkpt lat="29.003387" lon="104.780139"><ele>339.2941</ele><time>2026-07-03T19:22:54.000Z</time></trkpt>
        <trkpt lat="29.00338" lon="104.78019"><ele>339.2941</ele><time>2026-07-03T19:22:58.000Z</time></trkpt>
        <trkpt lat="29.003383" lon="104.780214"><ele>339.2941</ele><time>2026-07-03T19:23:00.000Z</time></trkpt>
        <trkpt lat="29.003389" lon="104.780241"><ele>340.10684</ele><time>2026-07-03T19:23:02.000Z</time></trkpt>
        <trkpt lat="29.003398" lon="104.780269"><ele>340.10684</ele><time>2026-07-03T19:23:04.000Z</time></trkpt>
        <trkpt lat="29.003406" lon="104.780292"><ele>340.10684</ele><time>2026-07-03T19:23:06.000Z</time></trkpt>
        <trkpt lat="29.003414" lon="104.780312"><ele>339.69208</ele><time>2026-07-03T19:23:08.000Z</time></trkpt>
        <trkpt lat="29.003421" lon="104.780332"><ele>339.1865</ele><time>2026-07-03T19:23:10.000Z</time></trkpt>
        <trkpt lat="29.003424" lon="104.780349"><ele>338.8804</ele><time>2026-07-03T19:23:12.000Z</time></trkpt>
        <trkpt lat="29.003425" lon="104.780367"><ele>338.87238</ele><time>2026-07-03T19:23:14.000Z</time></trkpt>
        <trkpt lat="29.00343" lon="104.780387"><ele>338.7133</ele><time>2026-07-03T19:23:16.000Z</time></trkpt>
        <trkpt lat="29.003435" lon="104.780407"><ele>338.31467</ele><time>2026-07-03T19:23:18.000Z</time></trkpt>
        <trkpt lat="29.003441" lon="104.78043"><ele>337.929</ele><time>2026-07-03T19:23:20.000Z</time></trkpt>
        <trkpt lat="29.003443" lon="104.78045"><ele>337.61194</ele><time>2026-07-03T19:23:22.000Z</time></trkpt>
        <trkpt lat="29.003444" lon="104.780465"><ele>337.61194</ele><time>2026-07-03T19:23:24.000Z</time></trkpt>
        <trkpt lat="29.003445" lon="104.780476"><ele>337.61194</ele><time>2026-07-03T19:23:26.000Z</time></trkpt>
        <trkpt lat="29.003444" lon="104.780486"><ele>337.72937</ele><time>2026-07-03T19:23:28.000Z</time></trkpt>
        <trkpt lat="29.003447" lon="104.780498"><ele>337.83826</ele><time>2026-07-03T19:23:30.000Z</time></trkpt>
        <trkpt lat="29.00345" lon="104.780508"><ele>338.2135</ele><time>2026-07-03T19:23:32.000Z</time></trkpt>
        <trkpt lat="29.003455" lon="104.780516"><ele>338.39572</ele><time>2026-07-03T19:23:34.000Z</time></trkpt>
        <trkpt lat="29.003462" lon="104.780523"><ele>338.72086</ele><time>2026-07-03T19:23:36.000Z</time></trkpt>
        <trkpt lat="29.003471" lon="104.780535"><ele>338.89703</ele><time>2026-07-03T19:23:38.000Z</time></trkpt>
        <trkpt lat="29.003478" lon="104.780547"><ele>339.27698</ele><time>2026-07-03T19:23:40.000Z</time></trkpt>
        <trkpt lat="29.003487" lon="104.780557"><ele>339.90042</ele><time>2026-07-03T19:23:42.000Z</time></trkpt>
        <trkpt lat="29.003495" lon="104.780564"><ele>340.61435</ele><time>2026-07-03T19:23:44.000Z</time></trkpt>
        <trkpt lat="29.003503" lon="104.780566"><ele>341.1396</ele><time>2026-07-03T19:23:46.000Z</time></trkpt>
        <trkpt lat="29.003524" lon="104.780576"><ele>341.53094</ele><time>2026-07-03T19:23:50.000Z</time></trkpt>
        <trkpt lat="29.003532" lon="104.780582"><ele>341.6633</ele><time>2026-07-03T19:23:52.000Z</time></trkpt>
        <trkpt lat="29.003537" lon="104.780589"><ele>342.055</ele><time>2026-07-03T19:23:54.000Z</time></trkpt>
        <trkpt lat="29.003554" lon="104.780608"><ele>342.29977</ele><time>2026-07-03T19:23:58.000Z</time></trkpt>
        <trkpt lat="29.003569" lon="104.780613"><ele>342.72037</ele><time>2026-07-03T19:24:00.000Z</time></trkpt>
        <trkpt lat="29.003595" lon="104.780612"><ele>343.7629</ele><time>2026-07-03T19:24:02.000Z</time></trkpt>
        <trkpt lat="29.003623" lon="104.780601"><ele>344.2536</ele><time>2026-07-03T19:24:04.000Z</time></trkpt>
        <trkpt lat="29.003641" lon="104.780588"><ele>344.9625</ele><time>2026-07-03T19:24:06.000Z</time></trkpt>
        <trkpt lat="29.003654" lon="104.780584"><ele>345.47464</ele><time>2026-07-03T19:24:08.000Z</time></trkpt>
        <trkpt lat="29.003665" lon="104.780584"><ele>345.95135</ele><time>2026-07-03T19:24:10.000Z</time></trkpt>
        <trkpt lat="29.003673" lon="104.780586"><ele>346.06845</ele><time>2026-07-03T19:24:12.000Z</time></trkpt>
        <trkpt lat="29.003687" lon="104.780587"><ele>346.21768</ele><time>2026-07-03T19:24:16.000Z</time></trkpt>
        <trkpt lat="29.003695" lon="104.780585"><ele>346.521</ele><time>2026-07-03T19:24:18.000Z</time></trkpt>
        <trkpt lat="29.003706" lon="104.780586"><ele>346.90308</ele><time>2026-07-03T19:24:20.000Z</time></trkpt>
        <trkpt lat="29.003719" lon="104.780588"><ele>346.93228</ele><time>2026-07-03T19:24:22.000Z</time></trkpt>
        <trkpt lat="29.003729" lon="104.780591"><ele>346.93228</ele><time>2026-07-03T19:24:24.000Z</time></trkpt>
        <trkpt lat="29.003738" lon="104.780596"><ele>346.94818</ele><time>2026-07-03T19:24:26.000Z</time></trkpt>
        <trkpt lat="29.003743" lon="104.780601"><ele>347.03848</ele><time>2026-07-03T19:24:28.000Z</time></trkpt>
        <trkpt lat="29.003754" lon="104.780612"><ele>347.0912</ele><time>2026-07-03T19:24:34.000Z</time></trkpt>
        <trkpt lat="29.003776" lon="104.780633"><ele>347.7862</ele><time>2026-07-03T19:24:40.000Z</time></trkpt>
        <trkpt lat="29.003799" lon="104.780651"><ele>351.12704</ele><time>2026-07-03T19:24:42.000Z</time></trkpt>
        <trkpt lat="29.003823" lon="104.780667"><ele>351.44742</ele><time>2026-07-03T19:24:44.000Z</time></trkpt>
        <trkpt lat="29.003846" lon="104.780678"><ele>352.1335</ele><time>2026-07-03T19:24:46.000Z</time></trkpt>
        <trkpt lat="29.003867" lon="104.780681"><ele>353.06335</ele><time>2026-07-03T19:24:48.000Z</time></trkpt>
        <trkpt lat="29.003883" lon="104.78068"><ele>354.24942</ele><time>2026-07-03T19:24:50.000Z</time></trkpt>
        <trkpt lat="29.003898" lon="104.780679"><ele>355.27298</ele><time>2026-07-03T19:24:52.000Z</time></trkpt>
        <trkpt lat="29.003913" lon="104.780678"><ele>356.26578</ele><time>2026-07-03T19:24:54.000Z</time></trkpt>
        <trkpt lat="29.003925" lon="104.780679"><ele>356.8083</ele><time>2026-07-03T19:24:56.000Z</time></trkpt>
        <trkpt lat="29.003936" lon="104.780681"><ele>356.83218</ele><time>2026-07-03T19:24:58.000Z</time></trkpt>
        <trkpt lat="29.003948" lon="104.780684"><ele>356.83218</ele><time>2026-07-03T19:25:00.000Z</time></trkpt>
        <trkpt lat="29.003963" lon="104.780686"><ele>356.8083</ele><time>2026-07-03T19:25:02.000Z</time></trkpt>
        <trkpt lat="29.003979" lon="104.780688"><ele>356.65945</ele><time>2026-07-03T19:25:04.000Z</time></trkpt>
        <trkpt lat="29.003992" lon="104.780687"><ele>356.30896</ele><time>2026-07-03T19:25:06.000Z</time></trkpt>
        <trkpt lat="29.00401" lon="104.780687"><ele>356.05344</ele><time>2026-07-03T19:25:08.000Z</time></trkpt>
        <trkpt lat="29.00403" lon="104.780686"><ele>355.71326</ele><time>2026-07-03T19:25:10.000Z</time></trkpt>
        <trkpt lat="29.004046" lon="104.780685"><ele>355.3757</ele><time>2026-07-03T19:25:12.000Z</time></trkpt>
        <trkpt lat="29.004056" lon="104.780685"><ele>355.3757</ele><time>2026-07-03T19:25:14.000Z</time></trkpt>
        <trkpt lat="29.004064" lon="104.780684"><ele>355.3757</ele><time>2026-07-03T19:25:16.000Z</time></trkpt>
        <trkpt lat="29.004074" lon="104.780685"><ele>355.69775</ele><time>2026-07-03T19:25:18.000Z</time></trkpt>
        <trkpt lat="29.00409" lon="104.78069"><ele>356.41907</ele><time>2026-07-03T19:25:22.000Z</time></trkpt>
        <trkpt lat="29.004099" lon="104.780692"><ele>356.95435</ele><time>2026-07-03T19:25:24.000Z</time></trkpt>
        <trkpt lat="29.004111" lon="104.780696"><ele>358.2946</ele><time>2026-07-03T19:25:26.000Z</time></trkpt>
        <trkpt lat="29.004126" lon="104.7807"><ele>358.95642</ele><time>2026-07-03T19:25:28.000Z</time></trkpt>
        <trkpt lat="29.00414" lon="104.780703"><ele>359.35513</ele><time>2026-07-03T19:25:30.000Z</time></trkpt>
        <trkpt lat="29.004153" lon="104.780705"><ele>359.59555</ele><time>2026-07-03T19:25:32.000Z</time></trkpt>
        <trkpt lat="29.004163" lon="104.780705"><ele>359.809</ele><time>2026-07-03T19:25:34.000Z</time></trkpt>
        <trkpt lat="29.004171" lon="104.780708"><ele>360.01538</ele><time>2026-07-03T19:25:36.000Z</time></trkpt>
        <trkpt lat="29.004183" lon="104.780714"><ele>360.20187</ele><time>2026-07-03T19:25:40.000Z</time></trkpt>
        <trkpt lat="29.004189" lon="104.780718"><ele>360.35587</ele><time>2026-07-03T19:25:42.000Z</time></trkpt>
        <trkpt lat="29.004219" lon="104.780738"><ele>360.35587</ele><time>2026-07-03T19:25:45.000Z</time></trkpt>
        <trkpt lat="29.004221" lon="104.780738"><ele>360.35587</ele><time>2026-07-03T19:25:47.000Z</time></trkpt>
        <trkpt lat="29.004225" lon="104.780736"><ele>360.33517</ele><time>2026-07-03T19:25:49.000Z</time></trkpt>
        <trkpt lat="29.004259" lon="104.780727"><ele>360.33264</ele><time>2026-07-03T19:25:53.000Z</time></trkpt>
        <trkpt lat="29.004272" lon="104.780726"><ele>360.29486</ele><time>2026-07-03T19:25:55.000Z</time></trkpt>
        <trkpt lat="29.004284" lon="104.780726"><ele>360.29486</ele><time>2026-07-03T19:25:57.000Z</time></trkpt>
        <trkpt lat="29.004295" lon="104.780726"><ele>360.29486</ele><time>2026-07-03T19:25:59.000Z</time></trkpt>
        <trkpt lat="29.004298" lon="104.780728"><ele>360.54703</ele><time>2026-07-03T19:26:01.000Z</time></trkpt>
        <trkpt lat="29.004332" lon="104.780745"><ele>361.0951</ele><time>2026-07-03T19:26:07.000Z</time></trkpt>
        <trkpt lat="29.004332" lon="104.780745"><ele>361.62213</ele><time>2026-07-03T19:26:09.000Z</time></trkpt>
        <trkpt lat="29.004337" lon="104.780746"><ele>361.62213</ele><time>2026-07-03T19:26:11.000Z</time></trkpt>
        <trkpt lat="29.004358" lon="104.78075"><ele>361.62213</ele><time>2026-07-03T19:26:13.000Z</time></trkpt>
        <trkpt lat="29.004389" lon="104.780755"><ele>361.53287</ele><time>2026-07-03T19:26:15.000Z</time></trkpt>
        <trkpt lat="29.004422" lon="104.780758"><ele>361.09503</ele><time>2026-07-03T19:26:17.000Z</time></trkpt>
        <trkpt lat="29.004444" lon="104.780758"><ele>360.60745</ele><time>2026-07-03T19:26:19.000Z</time></trkpt>
        <trkpt lat="29.004465" lon="104.780756"><ele>360.20428</ele><time>2026-07-03T19:26:21.000Z</time></trkpt>
        <trkpt lat="29.004488" lon="104.780753"><ele>360.18512</ele><time>2026-07-03T19:26:23.000Z</time></trkpt>
        <trkpt lat="29.004506" lon="104.780749"><ele>360.18512</ele><time>2026-07-03T19:26:25.000Z</time></trkpt>
        <trkpt lat="29.004522" lon="104.78074"><ele>360.18512</ele><time>2026-07-03T19:26:27.000Z</time></trkpt>
        <trkpt lat="29.004538" lon="104.780724"><ele>360.47308</ele><time>2026-07-03T19:26:29.000Z</time></trkpt>
        <trkpt lat="29.004551" lon="104.780706"><ele>360.73358</ele><time>2026-07-03T19:26:31.000Z</time></trkpt>
        <trkpt lat="29.004566" lon="104.780685"><ele>363.85916</ele><time>2026-07-03T19:26:32.000Z</time></trkpt>
        <trkpt lat="29.004579" lon="104.780672"><ele>367.2895</ele><time>2026-07-03T19:26:34.000Z</time></trkpt>
        <trkpt lat="29.004594" lon="104.780659"><ele>369.64612</ele><time>2026-07-03T19:26:36.000Z</time></trkpt>
        <trkpt lat="29.00461" lon="104.780647"><ele>370.76425</ele><time>2026-07-03T19:26:38.000Z</time></trkpt>
        <trkpt lat="29.004627" lon="104.780638"><ele>370.76425</ele><time>2026-07-03T19:26:40.000Z</time></trkpt>
        <trkpt lat="29.004632" lon="104.780632"><ele>370.76425</ele><time>2026-07-03T19:26:42.000Z</time></trkpt>
        <trkpt lat="29.004639" lon="104.780625"><ele>370.20752</ele><time>2026-07-03T19:26:46.000Z</time></trkpt>
        <trkpt lat="29.004649" lon="104.78062"><ele>369.34308</ele><time>2026-07-03T19:26:48.000Z</time></trkpt>
        <trkpt lat="29.004668" lon="104.780614"><ele>368.0784</ele><time>2026-07-03T19:26:50.000Z</time></trkpt>
        <trkpt lat="29.004694" lon="104.780607"><ele>367.53818</ele><time>2026-07-03T19:26:53.000Z</time></trkpt>
        <trkpt lat="29.004719" lon="104.780602"><ele>366.97125</ele><time>2026-07-03T19:26:55.000Z</time></trkpt>
        <trkpt lat="29.004738" lon="104.780596"><ele>366.62592</ele><time>2026-07-03T19:26:57.000Z</time></trkpt>
        <trkpt lat="29.004756" lon="104.780589"><ele>366.4542</ele><time>2026-07-03T19:26:59.000Z</time></trkpt>
        <trkpt lat="29.004776" lon="104.780583"><ele>366.29</ele><time>2026-07-03T19:27:01.000Z</time></trkpt>
        <trkpt lat="29.004793" lon="104.780582"><ele>366.16672</ele><time>2026-07-03T19:27:03.000Z</time></trkpt>
        <trkpt lat="29.004812" lon="104.780582"><ele>366.03067</ele><time>2026-07-03T19:27:05.000Z</time></trkpt>
        <trkpt lat="29.004829" lon="104.780578"><ele>365.695</ele><time>2026-07-03T19:27:07.000Z</time></trkpt>
        <trkpt lat="29.00484" lon="104.780568"><ele>365.22406</ele><time>2026-07-03T19:27:09.000Z</time></trkpt>
        <trkpt lat="29.00485" lon="104.780551"><ele>364.7602</ele><time>2026-07-03T19:27:11.000Z</time></trkpt>
        <trkpt lat="29.004857" lon="104.780531"><ele>364.3877</ele><time>2026-07-03T19:27:13.000Z</time></trkpt>
        <trkpt lat="29.004866" lon="104.780502"><ele>364.0837</ele><time>2026-07-03T19:27:15.000Z</time></trkpt>
        <trkpt lat="29.004874" lon="104.78047"><ele>363.18375</ele><time>2026-07-03T19:27:17.000Z</time></trkpt>
        <trkpt lat="29.004881" lon="104.780437"><ele>362.62122</ele><time>2026-07-03T19:27:19.000Z</time></trkpt>
        <trkpt lat="29.004889" lon="104.780408"><ele>362.13474</ele><time>2026-07-03T19:27:21.000Z</time></trkpt>
        <trkpt lat="29.004897" lon="104.780381"><ele>361.40256</ele><time>2026-07-03T19:27:23.000Z</time></trkpt>
        <trkpt lat="29.004906" lon="104.780361"><ele>360.80637</ele><time>2026-07-03T19:27:25.000Z</time></trkpt>
        <trkpt lat="29.004919" lon="104.780348"><ele>360.0703</ele><time>2026-07-03T19:27:27.000Z</time></trkpt>
        <trkpt lat="29.004933" lon="104.780344"><ele>359.34027</ele><time>2026-07-03T19:27:29.000Z</time></trkpt>
        <trkpt lat="29.004952" lon="104.780344"><ele>358.83926</ele><time>2026-07-03T19:27:31.000Z</time></trkpt>
        <trkpt lat="29.004975" lon="104.780347"><ele>358.21027</ele><time>2026-07-03T19:27:33.000Z</time></trkpt>
        <trkpt lat="29.004998" lon="104.780354"><ele>357.4876</ele><time>2026-07-03T19:27:35.000Z</time></trkpt>
        <trkpt lat="29.00502" lon="104.780363"><ele>356.7884</ele><time>2026-07-03T19:27:37.000Z</time></trkpt>
        <trkpt lat="29.005041" lon="104.780374"><ele>356.2602</ele><time>2026-07-03T19:27:39.000Z</time></trkpt>
        <trkpt lat="29.005063" lon="104.780386"><ele>355.8466</ele><time>2026-07-03T19:27:41.000Z</time></trkpt>
        <trkpt lat="29.005084" lon="104.780397"><ele>355.54416</ele><time>2026-07-03T19:27:43.000Z</time></trkpt>
        <trkpt lat="29.005106" lon="104.780406"><ele>355.43527</ele><time>2026-07-03T19:27:45.000Z</time></trkpt>
        <trkpt lat="29.005125" lon="104.780414"><ele>355.43527</ele><time>2026-07-03T19:27:47.000Z</time></trkpt>
        <trkpt lat="29.005139" lon="104.780418"><ele>355.43527</ele><time>2026-07-03T19:27:49.000Z</time></trkpt>
        <trkpt lat="29.005157" lon="104.780423"><ele>355.803</ele><time>2026-07-03T19:27:51.000Z</time></trkpt>
        <trkpt lat="29.005165" lon="104.780423"><ele>356.2178</ele><time>2026-07-03T19:27:53.000Z</time></trkpt>
        <trkpt lat="29.005165" lon="104.780423"><ele>356.42792</ele><time>2026-07-03T19:27:57.000Z</time></trkpt>
        <trkpt lat="29.005164" lon="104.780516"><ele>356.46844</ele><time>2026-07-03T19:28:07.000Z</time></trkpt>
        <trkpt lat="29.005163" lon="104.780516"><ele>356.50253</ele><time>2026-07-03T19:28:09.000Z</time></trkpt>
        <trkpt lat="29.00516" lon="104.78052"><ele>357.52045</ele><time>2026-07-03T19:28:11.000Z</time></trkpt>
        <trkpt lat="29.005121" lon="104.780552"><ele>357.5236</ele><time>2026-07-03T19:28:15.000Z</time></trkpt>
        <trkpt lat="29.005101" lon="104.780568"><ele>357.53915</ele><time>2026-07-03T19:28:17.000Z</time></trkpt>
        <trkpt lat="29.005088" lon="104.780583"><ele>359.0089</ele><time>2026-07-03T19:28:19.000Z</time></trkpt>
        <trkpt lat="29.005084" lon="104.780593"><ele>359.6424</ele><time>2026-07-03T19:28:21.000Z</time></trkpt>
        <trkpt lat="29.005083" lon="104.780593"><ele>360.19623</ele><time>2026-07-03T19:28:23.000Z</time></trkpt>
        <trkpt lat="29.005146" lon="104.780602"><ele>360.60745</ele><time>2026-07-03T19:29:16.000Z</time></trkpt>
        <trkpt lat="29.005171" lon="104.780606"><ele>360.6712</ele><time>2026-07-03T19:29:18.000Z</time></trkpt>
        <trkpt lat="29.005192" lon="104.780575"><ele>360.6712</ele><time>2026-07-03T19:29:20.000Z</time></trkpt>
        <trkpt lat="29.005194" lon="104.780572"><ele>360.6712</ele><time>2026-07-03T19:29:22.000Z</time></trkpt>
        <trkpt lat="29.005194" lon="104.780567"><ele>359.96188</ele><time>2026-07-03T19:29:24.000Z</time></trkpt>
        <trkpt lat="29.005197" lon="104.780511"><ele>359.96002</ele><time>2026-07-03T19:29:28.000Z</time></trkpt>
        <trkpt lat="29.005204" lon="104.780476"><ele>359.835</ele><time>2026-07-03T19:29:30.000Z</time></trkpt>
        <trkpt lat="29.005217" lon="104.780449"><ele>358.17053</ele><time>2026-07-03T19:29:32.000Z</time></trkpt>
        <trkpt lat="29.005233" lon="104.780432"><ele>357.19412</ele><time>2026-07-03T19:29:34.000Z</time></trkpt>
        <trkpt lat="29.005252" lon="104.780418"><ele>356.37857</ele><time>2026-07-03T19:29:36.000Z</time></trkpt>
        <trkpt lat="29.005274" lon="104.780407"><ele>355.77734</ele><time>2026-07-03T19:29:38.000Z</time></trkpt>
        <trkpt lat="29.005295" lon="104.780403"><ele>355.48227</ele><time>2026-07-03T19:29:40.000Z</time></trkpt>
        <trkpt lat="29.005319" lon="104.780404"><ele>355.2229</ele><time>2026-07-03T19:29:42.000Z</time></trkpt>
        <trkpt lat="29.005341" lon="104.780409"><ele>354.7577</ele><time>2026-07-03T19:29:44.000Z</time></trkpt>
        <trkpt lat="29.005363" lon="104.780417"><ele>354.38052</ele><time>2026-07-03T19:29:46.000Z</time></trkpt>
        <trkpt lat="29.005384" lon="104.780427"><ele>354.15036</ele><time>2026-07-03T19:29:48.000Z</time></trkpt>
        <trkpt lat="29.005402" lon="104.780441"><ele>353.9496</ele><time>2026-07-03T19:29:50.000Z</time></trkpt>
        <trkpt lat="29.005414" lon="104.780458"><ele>353.9475</ele><time>2026-07-03T19:29:52.000Z</time></trkpt>
        <trkpt lat="29.005425" lon="104.780478"><ele>353.92984</ele><time>2026-07-03T19:29:54.000Z</time></trkpt>
        <trkpt lat="29.005436" lon="104.780501"><ele>353.71292</ele><time>2026-07-03T19:29:56.000Z</time></trkpt>
        <trkpt lat="29.005448" lon="104.780522"><ele>353.71292</ele><time>2026-07-03T19:29:58.000Z</time></trkpt>
        <trkpt lat="29.005462" lon="104.780545"><ele>353.71292</ele><time>2026-07-03T19:30:00.000Z</time></trkpt>
        <trkpt lat="29.005476" lon="104.780566"><ele>353.94806</ele><time>2026-07-03T19:30:02.000Z</time></trkpt>
        <trkpt lat="29.005488" lon="104.780589"><ele>354.4606</ele><time>2026-07-03T19:30:04.000Z</time></trkpt>
        <trkpt lat="29.005496" lon="104.780615"><ele>354.579</ele><time>2026-07-03T19:30:06.000Z</time></trkpt>
        <trkpt lat="29.005494" lon="104.780631"><ele>354.62137</ele><time>2026-07-03T19:30:08.000Z</time></trkpt>
        <trkpt lat="29.005488" lon="104.780644"><ele>354.84183</ele><time>2026-07-03T19:30:10.000Z</time></trkpt>
        <trkpt lat="29.005476" lon="104.78066"><ele>355.4895</ele><time>2026-07-03T19:30:12.000Z</time></trkpt>
        <trkpt lat="29.00546" lon="104.780679"><ele>356.18454</ele><time>2026-07-03T19:30:14.000Z</time></trkpt>
        <trkpt lat="29.005442" lon="104.7807"><ele>356.69452</ele><time>2026-07-03T19:30:15.000Z</time></trkpt>
        <trkpt lat="29.005428" lon="104.780716"><ele>357.2052</ele><time>2026-07-03T19:30:17.000Z</time></trkpt>
        <trkpt lat="29.005415" lon="104.780731"><ele>357.72058</ele><time>2026-07-03T19:30:19.000Z</time></trkpt>
        <trkpt lat="29.0054" lon="104.780745"><ele>358.3228</ele><time>2026-07-03T19:30:21.000Z</time></trkpt>
        <trkpt lat="29.005385" lon="104.780762"><ele>358.89084</ele><time>2026-07-03T19:30:23.000Z</time></trkpt>
        <trkpt lat="29.005372" lon="104.780779"><ele>359.44598</ele><time>2026-07-03T19:30:25.000Z</time></trkpt>
        <trkpt lat="29.005361" lon="104.780792"><ele>359.73676</ele><time>2026-07-03T19:30:27.000Z</time></trkpt>
        <trkpt lat="29.005347" lon="104.78081"><ele>359.82132</ele><time>2026-07-03T19:30:29.000Z</time></trkpt>
        <trkpt lat="29.005332" lon="104.780832"><ele>359.97018</ele><time>2026-07-03T19:30:31.000Z</time></trkpt>
        <trkpt lat="29.005319" lon="104.780855"><ele>360.11307</ele><time>2026-07-03T19:30:33.000Z</time></trkpt>
        <trkpt lat="29.005306" lon="104.78088"><ele>360.2333</ele><time>2026-07-03T19:30:35.000Z</time></trkpt>
        <trkpt lat="29.005296" lon="104.780907"><ele>360.63776</ele><time>2026-07-03T19:30:37.000Z</time></trkpt>
        <trkpt lat="29.005292" lon="104.780936"><ele>361.2425</ele><time>2026-07-03T19:30:39.000Z</time></trkpt>
        <trkpt lat="29.005294" lon="104.780966"><ele>361.7715</ele><time>2026-07-03T19:30:41.000Z</time></trkpt>
        <trkpt lat="29.005302" lon="104.780995"><ele>362.18832</ele><time>2026-07-03T19:30:43.000Z</time></trkpt>
        <trkpt lat="29.005314" lon="104.781021"><ele>362.49832</ele><time>2026-07-03T19:30:45.000Z</time></trkpt>
        <trkpt lat="29.00533" lon="104.781046"><ele>362.82782</ele><time>2026-07-03T19:30:47.000Z</time></trkpt>
        <trkpt lat="29.005349" lon="104.781066"><ele>363.0443</ele><time>2026-07-03T19:30:49.000Z</time></trkpt>
        <trkpt lat="29.005368" lon="104.781082"><ele>363.0443</ele><time>2026-07-03T19:30:51.000Z</time></trkpt>
        <trkpt lat="29.005384" lon="104.781095"><ele>363.0443</ele><time>2026-07-03T19:30:53.000Z</time></trkpt>
        <trkpt lat="29.005401" lon="104.78111"><ele>362.99533</ele><time>2026-07-03T19:30:55.000Z</time></trkpt>
        <trkpt lat="29.005417" lon="104.781125"><ele>362.62976</ele><time>2026-07-03T19:30:57.000Z</time></trkpt>
        <trkpt lat="29.005432" lon="104.781144"><ele>362.26236</ele><time>2026-07-03T19:30:59.000Z</time></trkpt>
        <trkpt lat="29.005443" lon="104.781165"><ele>361.87378</ele><time>2026-07-03T19:31:01.000Z</time></trkpt>
        <trkpt lat="29.005451" lon="104.781188"><ele>361.53207</ele><time>2026-07-03T19:31:03.000Z</time></trkpt>
        <trkpt lat="29.005453" lon="104.781212"><ele>361.27567</ele><time>2026-07-03T19:31:06.000Z</time></trkpt>
        <trkpt lat="29.00545" lon="104.781231"><ele>360.88403</ele><time>2026-07-03T19:31:08.000Z</time></trkpt>
        <trkpt lat="29.005443" lon="104.781252"><ele>360.45212</ele><time>2026-07-03T19:31:10.000Z</time></trkpt>
        <trkpt lat="29.005433" lon="104.781274"><ele>360.45212</ele><time>2026-07-03T19:31:12.000Z</time></trkpt>
        <trkpt lat="29.005421" lon="104.781299"><ele>360.45212</ele><time>2026-07-03T19:31:14.000Z</time></trkpt>
        <trkpt lat="29.005414" lon="104.781321"><ele>360.65802</ele><time>2026-07-03T19:31:16.000Z</time></trkpt>
        <trkpt lat="29.005406" lon="104.781348"><ele>361.11935</ele><time>2026-07-03T19:31:18.000Z</time></trkpt>
        <trkpt lat="29.005403" lon="104.781373"><ele>361.71365</ele><time>2026-07-03T19:31:20.000Z</time></trkpt>
        <trkpt lat="29.005404" lon="104.781398"><ele>362.00888</ele><time>2026-07-03T19:31:22.000Z</time></trkpt>
        <trkpt lat="29.005407" lon="104.781428"><ele>362.20258</ele><time>2026-07-03T19:31:24.000Z</time></trkpt>
        <trkpt lat="29.005409" lon="104.781455"><ele>362.20282</ele><time>2026-07-03T19:31:26.000Z</time></trkpt>
        <trkpt lat="29.005413" lon="104.781483"><ele>362.21594</ele><time>2026-07-03T19:31:28.000Z</time></trkpt>
        <trkpt lat="29.00542" lon="104.781512"><ele>362.2285</ele><time>2026-07-03T19:31:30.000Z</time></trkpt>
        <trkpt lat="29.005431" lon="104.781541"><ele>362.20282</ele><time>2026-07-03T19:31:32.000Z</time></trkpt>
        <trkpt lat="29.005442" lon="104.781568"><ele>362.20282</ele><time>2026-07-03T19:31:34.000Z</time></trkpt>
        <trkpt lat="29.00545" lon="104.781595"><ele>362.15186</ele><time>2026-07-03T19:31:36.000Z</time></trkpt>
        <trkpt lat="29.005455" lon="104.781621"><ele>361.83154</ele><time>2026-07-03T19:31:38.000Z</time></trkpt>
        <trkpt lat="29.005458" lon="104.781645"><ele>361.43677</ele><time>2026-07-03T19:31:40.000Z</time></trkpt>
        <trkpt lat="29.005457" lon="104.781668"><ele>360.9087</ele><time>2026-07-03T19:31:42.000Z</time></trkpt>
        <trkpt lat="29.005451" lon="104.781687"><ele>360.78275</ele><time>2026-07-03T19:31:44.000Z</time></trkpt>
        <trkpt lat="29.00544" lon="104.781705"><ele>360.50607</ele><time>2026-07-03T19:31:46.000Z</time></trkpt>
        <trkpt lat="29.005424" lon="104.781723"><ele>360.21097</ele><time>2026-07-03T19:31:48.000Z</time></trkpt>
        <trkpt lat="29.005407" lon="104.781742"><ele>360.1392</ele><time>2026-07-03T19:31:50.000Z</time></trkpt>
        <trkpt lat="29.005388" lon="104.781759"><ele>360.1392</ele><time>2026-07-03T19:31:52.000Z</time></trkpt>
        <trkpt lat="29.00537" lon="104.781774"><ele>360.1392</ele><time>2026-07-03T19:31:54.000Z</time></trkpt>
        <trkpt lat="29.005352" lon="104.781788"><ele>360.2217</ele><time>2026-07-03T19:31:56.000Z</time></trkpt>
        <trkpt lat="29.005334" lon="104.7818"><ele>360.66522</ele><time>2026-07-03T19:31:58.000Z</time></trkpt>
        <trkpt lat="29.005316" lon="104.781809"><ele>360.9023</ele><time>2026-07-03T19:32:00.000Z</time></trkpt>
        <trkpt lat="29.005296" lon="104.781818"><ele>361.24863</ele><time>2026-07-03T19:32:02.000Z</time></trkpt>
        <trkpt lat="29.005276" lon="104.781823"><ele>361.69003</ele><time>2026-07-03T19:32:04.000Z</time></trkpt>
        <trkpt lat="29.005262" lon="104.781825"><ele>361.8444</ele><time>2026-07-03T19:32:06.000Z</time></trkpt>
        <trkpt lat="29.00525" lon="104.781823"><ele>362.01178</ele><time>2026-07-03T19:32:08.000Z</time></trkpt>
        <trkpt lat="29.005233" lon="104.781826"><ele>362.3063</ele><time>2026-07-03T19:32:10.000Z</time></trkpt>
        <trkpt lat="29.005219" lon="104.781833"><ele>362.7148</ele><time>2026-07-03T19:32:12.000Z</time></trkpt>
        <trkpt lat="29.005203" lon="104.781849"><ele>363.07602</ele><time>2026-07-03T19:32:14.000Z</time></trkpt>
        <trkpt lat="29.005191" lon="104.781871"><ele>363.6563</ele><time>2026-07-03T19:32:15.000Z</time></trkpt>
        <trkpt lat="29.005183" lon="104.781899"><ele>364.3041</ele><time>2026-07-03T19:32:17.000Z</time></trkpt>
        <trkpt lat="29.005178" lon="104.781929"><ele>364.9942</ele><time>2026-07-03T19:32:19.000Z</time></trkpt>
        <trkpt lat="29.005173" lon="104.78196"><ele>365.23572</ele><time>2026-07-03T19:32:21.000Z</time></trkpt>
        <trkpt lat="29.005168" lon="104.78199"><ele>365.23572</ele><time>2026-07-03T19:32:23.000Z</time></trkpt>
        <trkpt lat="29.005163" lon="104.782018"><ele>365.23572</ele><time>2026-07-03T19:32:25.000Z</time></trkpt>
        <trkpt lat="29.005155" lon="104.782044"><ele>365.18216</ele><time>2026-07-03T19:32:27.000Z</time></trkpt>
        <trkpt lat="29.005144" lon="104.782066"><ele>364.82272</ele><time>2026-07-03T19:32:29.000Z</time></trkpt>
        <trkpt lat="29.00513" lon="104.78208"><ele>364.34204</ele><time>2026-07-03T19:32:31.000Z</time></trkpt>
        <trkpt lat="29.005114" lon="104.782094"><ele>363.99023</ele><time>2026-07-03T19:32:33.000Z</time></trkpt>
        <trkpt lat="29.005097" lon="104.782106"><ele>363.76395</ele><time>2026-07-03T19:32:35.000Z</time></trkpt>
        <trkpt lat="29.005083" lon="104.782117"><ele>363.76395</ele><time>2026-07-03T19:32:37.000Z</time></trkpt>
        <trkpt lat="29.005069" lon="104.782129"><ele>363.76395</ele><time>2026-07-03T19:32:39.000Z</time></trkpt>
        <trkpt lat="29.005061" lon="104.782141"><ele>364.01877</ele><time>2026-07-03T19:32:41.000Z</time></trkpt>
        <trkpt lat="29.005053" lon="104.782159"><ele>364.1413</ele><time>2026-07-03T19:32:43.000Z</time></trkpt>
        <trkpt lat="29.005042" lon="104.78218"><ele>364.25983</ele><time>2026-07-03T19:32:45.000Z</time></trkpt>
        <trkpt lat="29.005034" lon="104.7822"><ele>364.25983</ele><time>2026-07-03T19:32:47.000Z</time></trkpt>
        <trkpt lat="29.005024" lon="104.782224"><ele>364.25983</ele><time>2026-07-03T19:32:49.000Z</time></trkpt>
        <trkpt lat="29.005015" lon="104.782243"><ele>364.2123</ele><time>2026-07-03T19:32:51.000Z</time></trkpt>
        <trkpt lat="29.005002" lon="104.782264"><ele>363.93997</ele><time>2026-07-03T19:32:53.000Z</time></trkpt>
        <trkpt lat="29.004991" lon="104.782282"><ele>363.83203</ele><time>2026-07-03T19:32:55.000Z</time></trkpt>
        <trkpt lat="29.004979" lon="104.782301"><ele>363.3814</ele><time>2026-07-03T19:32:57.000Z</time></trkpt>
        <trkpt lat="29.004965" lon="104.782319"><ele>363.14615</ele><time>2026-07-03T19:32:59.000Z</time></trkpt>
        <trkpt lat="29.004948" lon="104.782336"><ele>363.14615</ele><time>2026-07-03T19:33:01.000Z</time></trkpt>
        <trkpt lat="29.004928" lon="104.782353"><ele>363.14615</ele><time>2026-07-03T19:33:03.000Z</time></trkpt>
        <trkpt lat="29.004908" lon="104.782365"><ele>363.14813</ele><time>2026-07-03T19:33:05.000Z</time></trkpt>
        <trkpt lat="29.004887" lon="104.782376"><ele>363.49487</ele><time>2026-07-03T19:33:07.000Z</time></trkpt>
        <trkpt lat="29.004864" lon="104.782385"><ele>364.04773</ele><time>2026-07-03T19:33:09.000Z</time></trkpt>
        <trkpt lat="29.004841" lon="104.782399"><ele>364.76984</ele><time>2026-07-03T19:33:12.000Z</time></trkpt>
        <trkpt lat="29.004821" lon="104.782416"><ele>365.55133</ele><time>2026-07-03T19:33:14.000Z</time></trkpt>
        <trkpt lat="29.004797" lon="104.782433"><ele>366.4585</ele><time>2026-07-03T19:33:16.000Z</time></trkpt>
        <trkpt lat="29.004773" lon="104.782444"><ele>367.28772</ele><time>2026-07-03T19:33:18.000Z</time></trkpt>
        <trkpt lat="29.004748" lon="104.782455"><ele>367.91232</ele><time>2026-07-03T19:33:20.000Z</time></trkpt>
        <trkpt lat="29.004725" lon="104.782466"><ele>368.52585</ele><time>2026-07-03T19:33:22.000Z</time></trkpt>
        <trkpt lat="29.004702" lon="104.782474"><ele>369.26294</ele><time>2026-07-03T19:33:24.000Z</time></trkpt>
        <trkpt lat="29.004682" lon="104.782477"><ele>370.08075</ele><time>2026-07-03T19:33:26.000Z</time></trkpt>
        <trkpt lat="29.004666" lon="104.782474"><ele>370.97894</ele><time>2026-07-03T19:33:28.000Z</time></trkpt>
        <trkpt lat="29.004651" lon="104.782469"><ele>371.88867</ele><time>2026-07-03T19:33:30.000Z</time></trkpt>
        <trkpt lat="29.004633" lon="104.782463"><ele>372.76358</ele><time>2026-07-03T19:33:32.000Z</time></trkpt>
        <trkpt lat="29.004613" lon="104.782458"><ele>373.50296</ele><time>2026-07-03T19:33:34.000Z</time></trkpt>
        <trkpt lat="29.004598" lon="104.782452"><ele>374.44977</ele><time>2026-07-03T19:33:36.000Z</time></trkpt>
        <trkpt lat="29.004593" lon="104.782447"><ele>375.1091</ele><time>2026-07-03T19:33:38.000Z</time></trkpt>
        <trkpt lat="29.004581" lon="104.782437"><ele>375.75198</ele><time>2026-07-03T19:33:42.000Z</time></trkpt>
        <trkpt lat="29.004578" lon="104.782439"><ele>376.3591</ele><time>2026-07-03T19:33:44.000Z</time></trkpt>
        <trkpt lat="29.00453" lon="104.782476"><ele>377.1138</ele><time>2026-07-03T19:33:58.000Z</time></trkpt>
        <trkpt lat="29.00453" lon="104.782476"><ele>377.48816</ele><time>2026-07-03T19:34:00.000Z</time></trkpt>
        <trkpt lat="29.00453" lon="104.782476"><ele>379.61588</ele><time>2026-07-03T19:34:02.000Z</time></trkpt>
        <trkpt lat="29.004469" lon="104.782465"><ele>379.62262</ele><time>2026-07-03T19:34:16.000Z</time></trkpt>
        <trkpt lat="29.004469" lon="104.782465"><ele>379.814</ele><time>2026-07-03T19:34:18.000Z</time></trkpt>
        <trkpt lat="29.004465" lon="104.782467"><ele>382.03577</ele><time>2026-07-03T19:34:20.000Z</time></trkpt>
        <trkpt lat="29.004448" lon="104.782488"><ele>382.04413</ele><time>2026-07-03T19:34:24.000Z</time></trkpt>
        <trkpt lat="29.004444" lon="104.7825"><ele>382.26578</ele><time>2026-07-03T19:34:26.000Z</time></trkpt>
        <trkpt lat="29.004443" lon="104.782515"><ele>383.97827</ele><time>2026-07-03T19:34:28.000Z</time></trkpt>
        <trkpt lat="29.004439" lon="104.782541"><ele>384.39224</ele><time>2026-07-03T19:34:30.000Z</time></trkpt>
        <trkpt lat="29.004446" lon="104.782555"><ele>384.39224</ele><time>2026-07-03T19:34:32.000Z</time></trkpt>
        <trkpt lat="29.004446" lon="104.782577"><ele>384.39224</ele><time>2026-07-03T19:34:34.000Z</time></trkpt>
        <trkpt lat="29.004454" lon="104.782647"><ele>384.2401</ele><time>2026-07-03T19:34:40.000Z</time></trkpt>
        <trkpt lat="29.004472" lon="104.782717"><ele>384.14767</ele><time>2026-07-03T19:34:42.000Z</time></trkpt>
        <trkpt lat="29.0045" lon="104.782789"><ele>383.77518</ele><time>2026-07-03T19:34:44.000Z</time></trkpt>
        <trkpt lat="29.004531" lon="104.782848"><ele>383.746</ele><time>2026-07-03T19:34:46.000Z</time></trkpt>
        <trkpt lat="29.004561" lon="104.7829"><ele>383.5039</ele><time>2026-07-03T19:34:48.000Z</time></trkpt>
        <trkpt lat="29.00458" lon="104.782936"><ele>382.6517</ele><time>2026-07-03T19:34:50.000Z</time></trkpt>
        <trkpt lat="29.004591" lon="104.782961"><ele>381.51022</ele><time>2026-07-03T19:34:52.000Z</time></trkpt>
        <trkpt lat="29.004598" lon="104.782987"><ele>380.32486</ele><time>2026-07-03T19:34:54.000Z</time></trkpt>
        <trkpt lat="29.004626" lon="104.783077"><ele>379.37393</ele><time>2026-07-03T19:34:58.000Z</time></trkpt>
        <trkpt lat="29.004641" lon="104.78312"><ele>378.6756</ele><time>2026-07-03T19:35:00.000Z</time></trkpt>
        <trkpt lat="29.004664" lon="104.783174"><ele>377.97934</ele><time>2026-07-03T19:35:02.000Z</time></trkpt>
        <trkpt lat="29.00451" lon="104.782826"><ele>377.9748</ele><time>2026-07-03T19:35:12.000Z</time></trkpt>
        <trkpt lat="29.004509" lon="104.782826"><ele>377.91385</ele><time>2026-07-03T19:35:14.000Z</time></trkpt>
        <trkpt lat="29.004503" lon="104.782827"><ele>376.3744</ele><time>2026-07-03T19:35:17.000Z</time></trkpt>
        <trkpt lat="29.004293" lon="104.782876"><ele>376.3744</ele><time>2026-07-03T19:35:23.000Z</time></trkpt>
        <trkpt lat="29.004293" lon="104.782876"><ele>376.3744</ele><time>2026-07-03T19:35:25.000Z</time></trkpt>
        <trkpt lat="29.004294" lon="104.782878"><ele>383.11023</ele><time>2026-07-03T19:35:27.000Z</time></trkpt>
        <trkpt lat="29.004308" lon="104.782925"><ele>383.11884</ele><time>2026-07-03T19:35:31.000Z</time></trkpt>
        <trkpt lat="29.004335" lon="104.783017"><ele>383.35095</ele><time>2026-07-03T19:35:37.000Z</time></trkpt>
        <trkpt lat="29.004335" lon="104.783017"><ele>385.35764</ele><time>2026-07-03T19:35:39.000Z</time></trkpt>
        <trkpt lat="29.004334" lon="104.78302"><ele>387.61902</ele><time>2026-07-03T19:35:41.000Z</time></trkpt>
        <trkpt lat="29.004329" lon="104.783068"><ele>387.62207</ele><time>2026-07-03T19:35:45.000Z</time></trkpt>
        <trkpt lat="29.004332" lon="104.783091"><ele>387.71664</ele><time>2026-07-03T19:35:47.000Z</time></trkpt>
        <trkpt lat="29.004336" lon="104.783109"><ele>388.52353</ele><time>2026-07-03T19:35:49.000Z</time></trkpt>
        <trkpt lat="29.004341" lon="104.783117"><ele>388.73923</ele><time>2026-07-03T19:35:51.000Z</time></trkpt>
        <trkpt lat="29.00435" lon="104.783135"><ele>388.73923</ele><time>2026-07-03T19:35:55.000Z</time></trkpt>
        <trkpt lat="29.004356" lon="104.783155"><ele>388.73923</ele><time>2026-07-03T19:35:59.000Z</time></trkpt>
        <trkpt lat="29.004359" lon="104.783174"><ele>388.57584</ele><time>2026-07-03T19:36:01.000Z</time></trkpt>
        <trkpt lat="29.004365" lon="104.783198"><ele>388.57584</ele><time>2026-07-03T19:36:03.000Z</time></trkpt>
        <trkpt lat="29.004368" lon="104.78321"><ele>388.57584</ele><time>2026-07-03T19:36:05.000Z</time></trkpt>
        <trkpt lat="29.00437" lon="104.783218"><ele>388.57584</ele><time>2026-07-03T19:36:07.000Z</time></trkpt>
        <trkpt lat="29.004348" lon="104.78315"><ele>388.57584</ele><time>2026-07-03T19:36:15.000Z</time></trkpt>
        <trkpt lat="29.004346" lon="104.783146"><ele>388.5696</ele><time>2026-07-03T19:36:17.000Z</time></trkpt>
        <trkpt lat="29.004347" lon="104.783144"><ele>386.73285</ele><time>2026-07-03T19:36:19.000Z</time></trkpt>
        <trkpt lat="29.004322" lon="104.783197"><ele>386.57022</ele><time>2026-07-03T19:36:33.000Z</time></trkpt>
        <trkpt lat="29.004322" lon="104.783197"><ele>386.50934</ele><time>2026-07-03T19:36:35.000Z</time></trkpt>
        <trkpt lat="29.004322" lon="104.783201"><ele>385.66745</ele><time>2026-07-03T19:36:37.000Z</time></trkpt>
        <trkpt lat="29.004321" lon="104.783281"><ele>385.66745</ele><time>2026-07-03T19:36:43.000Z</time></trkpt>
        <trkpt lat="29.004322" lon="104.783311"><ele>385.66745</ele><time>2026-07-03T19:36:45.000Z</time></trkpt>
        <trkpt lat="29.004322" lon="104.783342"><ele>386.6629</ele><time>2026-07-03T19:36:47.000Z</time></trkpt>
        <trkpt lat="29.004323" lon="104.783363"><ele>387.1372</ele><time>2026-07-03T19:36:49.000Z</time></trkpt>
        <trkpt lat="29.004321" lon="104.783381"><ele>387.60266</ele><time>2026-07-03T19:36:51.000Z</time></trkpt>
        <trkpt lat="29.004317" lon="104.783393"><ele>388.0684</ele><time>2026-07-03T19:36:53.000Z</time></trkpt>
        <trkpt lat="29.004306" lon="104.783423"><ele>388.3842</ele><time>2026-07-03T19:36:57.000Z</time></trkpt>
        <trkpt lat="29.004302" lon="104.78344"><ele>388.743</ele><time>2026-07-03T19:36:59.000Z</time></trkpt>
        <trkpt lat="29.0043" lon="104.783461"><ele>389.52493</ele><time>2026-07-03T19:37:01.000Z</time></trkpt>
        <trkpt lat="29.004304" lon="104.783483"><ele>389.83508</ele><time>2026-07-03T19:37:03.000Z</time></trkpt>
        <trkpt lat="29.00431" lon="104.783509"><ele>389.87787</ele><time>2026-07-03T19:37:05.000Z</time></trkpt>
        <trkpt lat="29.004312" lon="104.783535"><ele>389.87787</ele><time>2026-07-03T19:37:07.000Z</time></trkpt>
        <trkpt lat="29.004314" lon="104.783561"><ele>389.87787</ele><time>2026-07-03T19:37:09.000Z</time></trkpt>
        <trkpt lat="29.004318" lon="104.783585"><ele>389.70193</ele><time>2026-07-03T19:37:11.000Z</time></trkpt>
        <trkpt lat="29.004323" lon="104.783614"><ele>389.70193</ele><time>2026-07-03T19:37:13.000Z</time></trkpt>
        <trkpt lat="29.004327" lon="104.783641"><ele>389.70193</ele><time>2026-07-03T19:37:15.000Z</time></trkpt>
        <trkpt lat="29.00433" lon="104.78367"><ele>390.0583</ele><time>2026-07-03T19:37:17.000Z</time></trkpt>
        <trkpt lat="29.00433" lon="104.783691"><ele>390.36163</ele><time>2026-07-03T19:37:19.000Z</time></trkpt>
        <trkpt lat="29.004329" lon="104.783708"><ele>390.73257</ele><time>2026-07-03T19:37:21.000Z</time></trkpt>
        <trkpt lat="29.004328" lon="104.783747"><ele>391.35406</ele><time>2026-07-03T19:37:25.000Z</time></trkpt>
        <trkpt lat="29.004329" lon="104.78377"><ele>391.9503</ele><time>2026-07-03T19:37:27.000Z</time></trkpt>
        <trkpt lat="29.004331" lon="104.78379"><ele>393.5172</ele><time>2026-07-03T19:37:29.000Z</time></trkpt>
        <trkpt lat="29.004331" lon="104.783805"><ele>394.35587</ele><time>2026-07-03T19:37:31.000Z</time></trkpt>
        <trkpt lat="29.00433" lon="104.783833"><ele>395.1392</ele><time>2026-07-03T19:37:36.000Z</time></trkpt>
        <trkpt lat="29.004328" lon="104.783847"><ele>395.51068</ele><time>2026-07-03T19:37:38.000Z</time></trkpt>
        <trkpt lat="29.004324" lon="104.783863"><ele>395.5639</ele><time>2026-07-03T19:37:40.000Z</time></trkpt>
        <trkpt lat="29.004313" lon="104.783901"><ele>395.57376</ele><time>2026-07-03T19:37:44.000Z</time></trkpt>
        <trkpt lat="29.004306" lon="104.783919"><ele>395.65152</ele><time>2026-07-03T19:37:46.000Z</time></trkpt>
        <trkpt lat="29.004309" lon="104.783922"><ele>396.208</ele><time>2026-07-03T19:37:48.000Z</time></trkpt>
        <trkpt lat="29.004347" lon="104.783955"><ele>396.71194</ele><time>2026-07-03T19:37:58.000Z</time></trkpt>
        <trkpt lat="29.004357" lon="104.783963"><ele>397.36172</ele><time>2026-07-03T19:38:00.000Z</time></trkpt>
        <trkpt lat="29.004368" lon="104.783967"><ele>399.56018</ele><time>2026-07-03T19:38:02.000Z</time></trkpt>
        <trkpt lat="29.004397" lon="104.783981"><ele>399.56018</ele><time>2026-07-03T19:38:06.000Z</time></trkpt>
        <trkpt lat="29.004338" lon="104.78402"><ele>399.56018</ele><time>2026-07-03T19:38:09.000Z</time></trkpt>
        <trkpt lat="29.004326" lon="104.784031"><ele>399.67184</ele><time>2026-07-03T19:38:11.000Z</time></trkpt>
        <trkpt lat="29.004321" lon="104.78403"><ele>399.73425</ele><time>2026-07-03T19:38:13.000Z</time></trkpt>
        <trkpt lat="29.00439" lon="104.784039"><ele>399.87967</ele><time>2026-07-03T19:38:23.000Z</time></trkpt>
        <trkpt lat="29.004398" lon="104.784037"><ele>399.87967</ele><time>2026-07-03T19:38:25.000Z</time></trkpt>
        <trkpt lat="29.004413" lon="104.784025"><ele>399.87967</ele><time>2026-07-03T19:38:27.000Z</time></trkpt>
        <trkpt lat="29.004441" lon="104.784006"><ele>399.87125</ele><time>2026-07-03T19:38:31.000Z</time></trkpt>
        <trkpt lat="29.004455" lon="104.783999"><ele>399.55008</ele><time>2026-07-03T19:38:33.000Z</time></trkpt>
        <trkpt lat="29.004464" lon="104.783991"><ele>398.69647</ele><time>2026-07-03T19:38:35.000Z</time></trkpt>
        <trkpt lat="29.004393" lon="104.784048"><ele>398.3231</ele><time>2026-07-03T19:38:43.000Z</time></trkpt>
        <trkpt lat="29.004375" lon="104.784061"><ele>398.3231</ele><time>2026-07-03T19:38:45.000Z</time></trkpt>
        <trkpt lat="29.004364" lon="104.784071"><ele>398.3231</ele><time>2026-07-03T19:38:47.000Z</time></trkpt>
        <trkpt lat="29.004345" lon="104.784105"><ele>399.01648</ele><time>2026-07-03T19:38:51.000Z</time></trkpt>
        <trkpt lat="29.004338" lon="104.784129"><ele>399.73996</ele><time>2026-07-03T19:38:53.000Z</time></trkpt>
        <trkpt lat="29.004328" lon="104.784161"><ele>400.9708</ele><time>2026-07-03T19:38:55.000Z</time></trkpt>
        <trkpt lat="29.004435" lon="104.78415"><ele>401.5452</ele><time>2026-07-03T19:39:07.000Z</time></trkpt>
        <trkpt lat="29.004456" lon="104.784149"><ele>401.93033</ele><time>2026-07-03T19:39:09.000Z</time></trkpt>
        <trkpt lat="29.004478" lon="104.784153"><ele>402.08865</ele><time>2026-07-03T19:39:11.000Z</time></trkpt>
        <trkpt lat="29.004527" lon="104.784153"><ele>402.08865</ele><time>2026-07-03T19:39:27.000Z</time></trkpt>
        <trkpt lat="29.004584" lon="104.784152"><ele>402.08865</ele><time>2026-07-03T19:39:32.000Z</time></trkpt>
        <trkpt lat="29.004584" lon="104.784152"><ele>401.46133</ele><time>2026-07-03T19:39:34.000Z</time></trkpt>
        <trkpt lat="29.004582" lon="104.784152"><ele>400.42896</ele><time>2026-07-03T19:39:36.000Z</time></trkpt>
        <trkpt lat="29.004551" lon="104.78415"><ele>400.42813</ele><time>2026-07-03T19:39:44.000Z</time></trkpt>
        <trkpt lat="29.004536" lon="104.78415"><ele>400.42813</ele><time>2026-07-03T19:39:48.000Z</time></trkpt>
        <trkpt lat="29.004536" lon="104.78415"><ele>400.42813</ele><time>2026-07-03T19:39:50.000Z</time></trkpt>
        <trkpt lat="29.004483" lon="104.784158"><ele>400.4658</ele><time>2026-07-03T19:40:11.000Z</time></trkpt>
        <trkpt lat="29.004483" lon="104.784158"><ele>400.46643</ele><time>2026-07-03T19:40:13.000Z</time></trkpt>
        <trkpt lat="29.004484" lon="104.784157"><ele>401.49115</ele><time>2026-07-03T19:40:15.000Z</time></trkpt>
        <trkpt lat="29.004438" lon="104.784171"><ele>401.4984</ele><time>2026-07-03T19:40:31.000Z</time></trkpt>
        <trkpt lat="29.004336" lon="104.784109"><ele>401.49893</ele><time>2026-07-03T19:40:39.000Z</time></trkpt>
        <trkpt lat="29.004335" lon="104.784109"><ele>402.304</ele><time>2026-07-03T19:40:41.000Z</time></trkpt>
        <trkpt lat="29.004325" lon="104.784104"><ele>404.05954</ele><time>2026-07-03T19:40:42.000Z</time></trkpt>
        <trkpt lat="29.004286" lon="104.784078"><ele>404.06</ele><time>2026-07-03T19:40:44.000Z</time></trkpt>
        <trkpt lat="29.00417" lon="104.784001"><ele>404.0893</ele><time>2026-07-03T19:40:48.000Z</time></trkpt>
      </trkseg>
      <trkseg>
        <trkpt lat="29.004389" lon="104.784061"><ele>404.33615</ele><time>2026-07-03T19:41:22.000Z</time></trkpt>
        <trkpt lat="29.0045" lon="104.784079"><ele>399.6982</ele><time>2026-07-03T19:41:34.000Z</time></trkpt>
        <trkpt lat="29.004634" lon="104.784091"><ele>399.6982</ele><time>2026-07-03T19:41:42.000Z</time></trkpt>
        <trkpt lat="29.004634" lon="104.784091"><ele>395.38937</ele><time>2026-07-03T19:41:44.000Z</time></trkpt>
        <trkpt lat="29.004638" lon="104.784094"><ele>391.08054</ele><time>2026-07-03T19:41:46.000Z</time></trkpt>
        <trkpt lat="29.00468" lon="104.784123"><ele>391.05978</ele><time>2026-07-03T19:41:50.000Z</time></trkpt>
        <trkpt lat="29.004699" lon="104.784125"><ele>390.44077</ele><time>2026-07-03T19:41:52.000Z</time></trkpt>
        <trkpt lat="29.0047" lon="104.784124"><ele>390.44077</ele><time>2026-07-03T19:41:54.000Z</time></trkpt>
        <trkpt lat="29.004715" lon="104.784113"><ele>390.44077</ele><time>2026-07-03T19:41:56.000Z</time></trkpt>
        <trkpt lat="29.004737" lon="104.784101"><ele>390.95526</ele><time>2026-07-03T19:41:58.000Z</time></trkpt>
        <trkpt lat="29.004749" lon="104.784092"><ele>394.93924</ele><time>2026-07-03T19:42:00.000Z</time></trkpt>
        <trkpt lat="29.004752" lon="104.784083"><ele>397.19476</ele><time>2026-07-03T19:42:02.000Z</time></trkpt>
        <trkpt lat="29.00477" lon="104.784031"><ele>397.19476</ele><time>2026-07-03T19:42:08.000Z</time></trkpt>
        <trkpt lat="29.004793" lon="104.783965"><ele>397.19476</ele><time>2026-07-03T19:42:12.000Z</time></trkpt>
        <trkpt lat="29.004793" lon="104.783965"><ele>396.67975</ele><time>2026-07-03T19:42:14.000Z</time></trkpt>
        <trkpt lat="29.004798" lon="104.783959"><ele>393.10025</ele><time>2026-07-03T19:42:16.000Z</time></trkpt>
        <trkpt lat="29.004836" lon="104.783925"><ele>393.09308</ele><time>2026-07-03T19:42:20.000Z</time></trkpt>
        <trkpt lat="29.004858" lon="104.783905"><ele>392.86667</ele><time>2026-07-03T19:42:22.000Z</time></trkpt>
        <trkpt lat="29.00488" lon="104.783886"><ele>391.29355</ele><time>2026-07-03T19:42:24.000Z</time></trkpt>
        <trkpt lat="29.004899" lon="104.783872"><ele>390.36603</ele><time>2026-07-03T19:42:26.000Z</time></trkpt>
        <trkpt lat="29.004916" lon="104.783864"><ele>389.55807</ele><time>2026-07-03T19:42:28.000Z</time></trkpt>
        <trkpt lat="29.004932" lon="104.783857"><ele>388.75323</ele><time>2026-07-03T19:42:30.000Z</time></trkpt>
        <trkpt lat="29.00495" lon="104.783853"><ele>388.21304</ele><time>2026-07-03T19:42:32.000Z</time></trkpt>
        <trkpt lat="29.004969" lon="104.783849"><ele>387.82855</ele><time>2026-07-03T19:42:34.000Z</time></trkpt>
        <trkpt lat="29.004985" lon="104.78385"><ele>387.40067</ele><time>2026-07-03T19:42:36.000Z</time></trkpt>
        <trkpt lat="29.005002" lon="104.783856"><ele>386.95767</ele><time>2026-07-03T19:42:38.000Z</time></trkpt>
        <trkpt lat="29.005021" lon="104.783867"><ele>386.5413</ele><time>2026-07-03T19:42:40.000Z</time></trkpt>
        <trkpt lat="29.005035" lon="104.783878"><ele>386.3356</ele><time>2026-07-03T19:42:41.000Z</time></trkpt>
        <trkpt lat="29.00505" lon="104.78389"><ele>386.3356</ele><time>2026-07-03T19:42:43.000Z</time></trkpt>
        <trkpt lat="29.005061" lon="104.7839"><ele>386.3356</ele><time>2026-07-03T19:42:45.000Z</time></trkpt>
        <trkpt lat="29.005069" lon="104.783908"><ele>386.49783</ele><time>2026-07-03T19:42:47.000Z</time></trkpt>
        <trkpt lat="29.00509" lon="104.78393"><ele>386.62503</ele><time>2026-07-03T19:42:58.000Z</time></trkpt>
        <trkpt lat="29.00509" lon="104.78393"><ele>386.77542</ele><time>2026-07-03T19:43:00.000Z</time></trkpt>
        <trkpt lat="29.005092" lon="104.78393"><ele>387.23767</ele><time>2026-07-03T19:43:02.000Z</time></trkpt>
        <trkpt lat="29.005118" lon="104.783925"><ele>387.24237</ele><time>2026-07-03T19:43:14.000Z</time></trkpt>
        <trkpt lat="29.005153" lon="104.783917"><ele>387.37048</ele><time>2026-07-03T19:57:37.000Z</time></trkpt>
      </trkseg>
  </trk>
</gpx>